<?xml version="1.0" encoding="UTF-8" standalone="no" ?>
<gpx xmlns="http://www.topografix.com/GPX/1/1" xmlns:xsi="http://www.w3.org/2001/XMLSchema-instance" xsi:schemaLocation="http://www.topografix.com/GPX/1/1 http://www.topografix.com/GPX/1/1/gpx.xsd" version="1.1" creator="VisuGPX - https://www.visugpx.com">
  <metadata>
    <name>La Henry Anglade 2019</name>
  </metadata>
  <trk>
    <name><![CDATA[La Henry Anglade]]></name>
    <extensions>
      <line xmlns="http://www.topografix.com/GPX/gpx_style/0/2">
        <color>0000FF</color>
        <width>4</width>
      </line>
    </extensions>
    <trkseg>
      <trkpt lat="45.6782" lon="4.75165">
        <ele>207.3</ele>
        <time>2019-09-22T06:50:57Z</time>
      </trkpt>
      <trkpt lat="45.67818" lon="4.75169">
        <ele>207.3</ele>
        <time>2019-09-22T06:51:03Z</time>
      </trkpt>
      <trkpt lat="45.67816" lon="4.75171">
        <ele>207.3</ele>
        <time>2019-09-22T06:51:04Z</time>
      </trkpt>
      <trkpt lat="45.67814" lon="4.75173">
        <ele>207.3</ele>
        <time>2019-09-22T06:51:05Z</time>
      </trkpt>
      <trkpt lat="45.67803" lon="4.7519">
        <ele>207.3</ele>
        <time>2019-09-22T06:51:11Z</time>
      </trkpt>
      <trkpt lat="45.67798" lon="4.75197">
        <ele>207.5</ele>
        <time>2019-09-22T06:51:14Z</time>
      </trkpt>
      <trkpt lat="45.67796" lon="4.75198">
        <ele>207.5</ele>
        <time>2019-09-22T06:51:15Z</time>
      </trkpt>
      <trkpt lat="45.67795" lon="4.75197">
        <ele>207.5</ele>
        <time>2019-09-22T06:51:16Z</time>
      </trkpt>
      <trkpt lat="45.67789" lon="4.75185">
        <ele>207.5</ele>
        <time>2019-09-22T06:51:20Z</time>
      </trkpt>
      <trkpt lat="45.67781" lon="4.75169">
        <ele>207.5</ele>
        <time>2019-09-22T06:51:26Z</time>
      </trkpt>
      <trkpt lat="45.67774" lon="4.75158">
        <ele>207.5</ele>
        <time>2019-09-22T06:51:30Z</time>
      </trkpt>
      <trkpt lat="45.67773" lon="4.75153">
        <ele>207.5</ele>
        <time>2019-09-22T06:51:31Z</time>
      </trkpt>
      <trkpt lat="45.67763" lon="4.75129">
        <ele>209.1</ele>
        <time>2019-09-22T06:51:36Z</time>
      </trkpt>
      <trkpt lat="45.67753" lon="4.75105">
        <ele>211.3</ele>
        <time>2019-09-22T06:51:40Z</time>
      </trkpt>
      <trkpt lat="45.67745" lon="4.75087">
        <ele>212.8</ele>
        <time>2019-09-22T06:51:43Z</time>
      </trkpt>
      <trkpt lat="45.67737" lon="4.75069">
        <ele>214.8</ele>
        <time>2019-09-22T06:51:46Z</time>
      </trkpt>
      <trkpt lat="45.67735" lon="4.75063">
        <ele>215.7</ele>
        <time>2019-09-22T06:51:47Z</time>
      </trkpt>
      <trkpt lat="45.67732" lon="4.7505">
        <ele>217.5</ele>
        <time>2019-09-22T06:51:49Z</time>
      </trkpt>
      <trkpt lat="45.67731" lon="4.75044">
        <ele>218.3</ele>
        <time>2019-09-22T06:51:50Z</time>
      </trkpt>
      <trkpt lat="45.67728" lon="4.7504">
        <ele>219.3</ele>
        <time>2019-09-22T06:51:53Z</time>
      </trkpt>
      <trkpt lat="45.67729" lon="4.75035">
        <ele>220</ele>
        <time>2019-09-22T06:52:06Z</time>
      </trkpt>
      <trkpt lat="45.6773" lon="4.75031">
        <ele>220.5</ele>
        <time>2019-09-22T06:52:07Z</time>
      </trkpt>
      <trkpt lat="45.6774" lon="4.75011">
        <ele>221</ele>
        <time>2019-09-22T06:52:12Z</time>
      </trkpt>
      <trkpt lat="45.67747" lon="4.75003">
        <ele>221.1</ele>
        <time>2019-09-22T06:52:14Z</time>
      </trkpt>
      <trkpt lat="45.67761" lon="4.74996">
        <ele>221.4</ele>
        <time>2019-09-22T06:52:17Z</time>
      </trkpt>
      <trkpt lat="45.67766" lon="4.74995">
        <ele>221.6</ele>
        <time>2019-09-22T06:52:18Z</time>
      </trkpt>
      <trkpt lat="45.67801" lon="4.74986">
        <ele>222</ele>
        <time>2019-09-22T06:52:25Z</time>
      </trkpt>
      <trkpt lat="45.67821" lon="4.74985">
        <ele>222.1</ele>
        <time>2019-09-22T06:52:30Z</time>
      </trkpt>
      <trkpt lat="45.67822" lon="4.74985">
        <ele>222.1</ele>
        <time>2019-09-22T06:54:08Z</time>
      </trkpt>
      <trkpt lat="45.67838" lon="4.74975">
        <ele>222.2</ele>
        <time>2019-09-22T06:54:13Z</time>
      </trkpt>
      <trkpt lat="45.67863" lon="4.74954">
        <ele>222.9</ele>
        <time>2019-09-22T06:54:19Z</time>
      </trkpt>
      <trkpt lat="45.67891" lon="4.74922">
        <ele>223.1</ele>
        <time>2019-09-22T06:54:26Z</time>
      </trkpt>
      <trkpt lat="45.67903" lon="4.74889">
        <ele>223.1</ele>
        <time>2019-09-22T06:54:32Z</time>
      </trkpt>
      <trkpt lat="45.67913" lon="4.74851">
        <ele>223.2</ele>
        <time>2019-09-22T06:54:39Z</time>
      </trkpt>
      <trkpt lat="45.67926" lon="4.74832">
        <ele>223.2</ele>
        <time>2019-09-22T06:54:44Z</time>
      </trkpt>
      <trkpt lat="45.6795" lon="4.74812">
        <ele>223.2</ele>
        <time>2019-09-22T06:54:51Z</time>
      </trkpt>
      <trkpt lat="45.67975" lon="4.74794">
        <ele>222.7</ele>
        <time>2019-09-22T06:54:57Z</time>
      </trkpt>
      <trkpt lat="45.67983" lon="4.74787">
        <ele>222.4</ele>
        <time>2019-09-22T06:54:59Z</time>
      </trkpt>
      <trkpt lat="45.68017" lon="4.74773">
        <ele>222.3</ele>
        <time>2019-09-22T06:55:06Z</time>
      </trkpt>
      <trkpt lat="45.68038" lon="4.7478">
        <ele>222.3</ele>
        <time>2019-09-22T06:55:10Z</time>
      </trkpt>
      <trkpt lat="45.68082" lon="4.7479">
        <ele>221.3</ele>
        <time>2019-09-22T06:55:18Z</time>
      </trkpt>
      <trkpt lat="45.68094" lon="4.74787">
        <ele>221.1</ele>
        <time>2019-09-22T06:55:20Z</time>
      </trkpt>
      <trkpt lat="45.68109" lon="4.74781">
        <ele>220.9</ele>
        <time>2019-09-22T06:55:23Z</time>
      </trkpt>
      <trkpt lat="45.68129" lon="4.74767">
        <ele>220.9</ele>
        <time>2019-09-22T06:55:27Z</time>
      </trkpt>
      <trkpt lat="45.68143" lon="4.74756">
        <ele>221</ele>
        <time>2019-09-22T06:55:30Z</time>
      </trkpt>
      <trkpt lat="45.68159" lon="4.74737">
        <ele>221.4</ele>
        <time>2019-09-22T06:55:34Z</time>
      </trkpt>
      <trkpt lat="45.68167" lon="4.74727">
        <ele>221.6</ele>
        <time>2019-09-22T06:55:36Z</time>
      </trkpt>
      <trkpt lat="45.68171" lon="4.74723">
        <ele>221.7</ele>
        <time>2019-09-22T06:55:37Z</time>
      </trkpt>
      <trkpt lat="45.68193" lon="4.74706">
        <ele>221.9</ele>
        <time>2019-09-22T06:55:42Z</time>
      </trkpt>
      <trkpt lat="45.68198" lon="4.74704">
        <ele>221.9</ele>
        <time>2019-09-22T06:55:43Z</time>
      </trkpt>
      <trkpt lat="45.6822" lon="4.74698">
        <ele>221.8</ele>
        <time>2019-09-22T06:55:47Z</time>
      </trkpt>
      <trkpt lat="45.68236" lon="4.74688">
        <ele>221.9</ele>
        <time>2019-09-22T06:55:50Z</time>
      </trkpt>
      <trkpt lat="45.68246" lon="4.74678">
        <ele>221.9</ele>
        <time>2019-09-22T06:55:52Z</time>
      </trkpt>
      <trkpt lat="45.68273" lon="4.74653">
        <ele>222.3</ele>
        <time>2019-09-22T06:55:58Z</time>
      </trkpt>
      <trkpt lat="45.68278" lon="4.74649">
        <ele>222.4</ele>
        <time>2019-09-22T06:55:59Z</time>
      </trkpt>
      <trkpt lat="45.6831" lon="4.74626">
        <ele>222.9</ele>
        <time>2019-09-22T06:56:06Z</time>
      </trkpt>
      <trkpt lat="45.68314" lon="4.74622">
        <ele>222.9</ele>
        <time>2019-09-22T06:56:07Z</time>
      </trkpt>
      <trkpt lat="45.6833" lon="4.74613">
        <ele>223.2</ele>
        <time>2019-09-22T06:56:10Z</time>
      </trkpt>
      <trkpt lat="45.68341" lon="4.7461">
        <ele>223.5</ele>
        <time>2019-09-22T06:56:12Z</time>
      </trkpt>
      <trkpt lat="45.68363" lon="4.74603">
        <ele>223.8</ele>
        <time>2019-09-22T06:56:16Z</time>
      </trkpt>
      <trkpt lat="45.68384" lon="4.74592">
        <ele>224.3</ele>
        <time>2019-09-22T06:56:20Z</time>
      </trkpt>
      <trkpt lat="45.68405" lon="4.74571">
        <ele>225</ele>
        <time>2019-09-22T06:56:25Z</time>
      </trkpt>
      <trkpt lat="45.68408" lon="4.74566">
        <ele>225.2</ele>
        <time>2019-09-22T06:56:26Z</time>
      </trkpt>
      <trkpt lat="45.68411" lon="4.74562">
        <ele>225.3</ele>
        <time>2019-09-22T06:56:27Z</time>
      </trkpt>
      <trkpt lat="45.68422" lon="4.74554">
        <ele>224.6</ele>
        <time>2019-09-22T06:56:31Z</time>
      </trkpt>
      <trkpt lat="45.68424" lon="4.74557">
        <ele>224.3</ele>
        <time>2019-09-22T06:56:32Z</time>
      </trkpt>
      <trkpt lat="45.68423" lon="4.7456">
        <ele>223.9</ele>
        <time>2019-09-22T06:56:34Z</time>
      </trkpt>
      <trkpt lat="45.68424" lon="4.74563">
        <ele>223.6</ele>
        <time>2019-09-22T06:56:36Z</time>
      </trkpt>
      <trkpt lat="45.68426" lon="4.74569">
        <ele>222.7</ele>
        <time>2019-09-22T06:56:39Z</time>
      </trkpt>
      <trkpt lat="45.68432" lon="4.74587">
        <ele>220.2</ele>
        <time>2019-09-22T06:56:43Z</time>
      </trkpt>
      <trkpt lat="45.68441" lon="4.7462">
        <ele>218.5</ele>
        <time>2019-09-22T06:56:47Z</time>
      </trkpt>
      <trkpt lat="45.68452" lon="4.74658">
        <ele>217.5</ele>
        <time>2019-09-22T06:56:51Z</time>
      </trkpt>
      <trkpt lat="45.68458" lon="4.74678">
        <ele>215.9</ele>
        <time>2019-09-22T06:56:53Z</time>
      </trkpt>
      <trkpt lat="45.68475" lon="4.74743">
        <ele>214.1</ele>
        <time>2019-09-22T06:56:59Z</time>
      </trkpt>
      <trkpt lat="45.68476" lon="4.74753">
        <ele>214.3</ele>
        <time>2019-09-22T06:57:00Z</time>
      </trkpt>
      <trkpt lat="45.6848" lon="4.74778">
        <ele>214.6</ele>
        <time>2019-09-22T06:57:03Z</time>
      </trkpt>
      <trkpt lat="45.68493" lon="4.7479">
        <ele>215.6</ele>
        <time>2019-09-22T06:57:06Z</time>
      </trkpt>
      <trkpt lat="45.68502" lon="4.7479">
        <ele>216.4</ele>
        <time>2019-09-22T06:57:08Z</time>
      </trkpt>
      <trkpt lat="45.68507" lon="4.74792">
        <ele>216.7</ele>
        <time>2019-09-22T06:57:09Z</time>
      </trkpt>
      <trkpt lat="45.68511" lon="4.74793">
        <ele>217</ele>
        <time>2019-09-22T06:57:10Z</time>
      </trkpt>
      <trkpt lat="45.68516" lon="4.74795">
        <ele>217.4</ele>
        <time>2019-09-22T06:57:11Z</time>
      </trkpt>
      <trkpt lat="45.68537" lon="4.74801">
        <ele>218.8</ele>
        <time>2019-09-22T06:57:15Z</time>
      </trkpt>
      <trkpt lat="45.68571" lon="4.74806">
        <ele>221.2</ele>
        <time>2019-09-22T06:57:21Z</time>
      </trkpt>
      <trkpt lat="45.68604" lon="4.74799">
        <ele>223.1</ele>
        <time>2019-09-22T06:57:27Z</time>
      </trkpt>
      <trkpt lat="45.68619" lon="4.74795">
        <ele>224</ele>
        <time>2019-09-22T06:57:30Z</time>
      </trkpt>
      <trkpt lat="45.68638" lon="4.74787">
        <ele>224.3</ele>
        <time>2019-09-22T06:57:34Z</time>
      </trkpt>
      <trkpt lat="45.68642" lon="4.74785">
        <ele>224.3</ele>
        <time>2019-09-22T06:57:35Z</time>
      </trkpt>
      <trkpt lat="45.6866" lon="4.74772">
        <ele>224.4</ele>
        <time>2019-09-22T06:57:39Z</time>
      </trkpt>
      <trkpt lat="45.68663" lon="4.74767">
        <ele>224.4</ele>
        <time>2019-09-22T06:57:40Z</time>
      </trkpt>
      <trkpt lat="45.68666" lon="4.74762">
        <ele>224.4</ele>
        <time>2019-09-22T06:57:41Z</time>
      </trkpt>
      <trkpt lat="45.68669" lon="4.74756">
        <ele>224.5</ele>
        <time>2019-09-22T06:57:42Z</time>
      </trkpt>
      <trkpt lat="45.68676" lon="4.74745">
        <ele>224.6</ele>
        <time>2019-09-22T06:57:44Z</time>
      </trkpt>
      <trkpt lat="45.68682" lon="4.74733">
        <ele>224.8</ele>
        <time>2019-09-22T06:57:46Z</time>
      </trkpt>
      <trkpt lat="45.68691" lon="4.74714">
        <ele>225.2</ele>
        <time>2019-09-22T06:57:49Z</time>
      </trkpt>
      <trkpt lat="45.68704" lon="4.74689">
        <ele>225.8</ele>
        <time>2019-09-22T06:57:53Z</time>
      </trkpt>
      <trkpt lat="45.68719" lon="4.7467">
        <ele>226.2</ele>
        <time>2019-09-22T06:57:57Z</time>
      </trkpt>
      <trkpt lat="45.68723" lon="4.74667">
        <ele>226.3</ele>
        <time>2019-09-22T06:57:58Z</time>
      </trkpt>
      <trkpt lat="45.68736" lon="4.7466">
        <ele>226.5</ele>
        <time>2019-09-22T06:58:01Z</time>
      </trkpt>
      <trkpt lat="45.68745" lon="4.74657">
        <ele>226.6</ele>
        <time>2019-09-22T06:58:03Z</time>
      </trkpt>
      <trkpt lat="45.68771" lon="4.74647">
        <ele>226.8</ele>
        <time>2019-09-22T06:58:09Z</time>
      </trkpt>
      <trkpt lat="45.68778" lon="4.74642">
        <ele>227</ele>
        <time>2019-09-22T06:58:11Z</time>
      </trkpt>
      <trkpt lat="45.68795" lon="4.74621">
        <ele>227.1</ele>
        <time>2019-09-22T06:58:17Z</time>
      </trkpt>
      <trkpt lat="45.68798" lon="4.74617">
        <ele>227.1</ele>
        <time>2019-09-22T06:58:18Z</time>
      </trkpt>
      <trkpt lat="45.68809" lon="4.74601">
        <ele>226.9</ele>
        <time>2019-09-22T06:58:22Z</time>
      </trkpt>
      <trkpt lat="45.68811" lon="4.74595">
        <ele>226.8</ele>
        <time>2019-09-22T06:58:23Z</time>
      </trkpt>
      <trkpt lat="45.6882" lon="4.74566">
        <ele>226.1</ele>
        <time>2019-09-22T06:58:28Z</time>
      </trkpt>
      <trkpt lat="45.68821" lon="4.74553">
        <ele>225.8</ele>
        <time>2019-09-22T06:58:32Z</time>
      </trkpt>
      <trkpt lat="45.6882" lon="4.7455">
        <ele>225.7</ele>
        <time>2019-09-22T06:58:33Z</time>
      </trkpt>
      <trkpt lat="45.68819" lon="4.74548">
        <ele>225.7</ele>
        <time>2019-09-22T06:58:34Z</time>
      </trkpt>
      <trkpt lat="45.68817" lon="4.74545">
        <ele>225.6</ele>
        <time>2019-09-22T06:58:46Z</time>
      </trkpt>
      <trkpt lat="45.68817" lon="4.74541">
        <ele>225.5</ele>
        <time>2019-09-22T06:58:47Z</time>
      </trkpt>
      <trkpt lat="45.68821" lon="4.74521">
        <ele>225.1</ele>
        <time>2019-09-22T06:58:51Z</time>
      </trkpt>
      <trkpt lat="45.68824" lon="4.74477">
        <ele>224.6</ele>
        <time>2019-09-22T06:58:56Z</time>
      </trkpt>
      <trkpt lat="45.68825" lon="4.74467">
        <ele>224.5</ele>
        <time>2019-09-22T06:58:57Z</time>
      </trkpt>
      <trkpt lat="45.68831" lon="4.74425">
        <ele>224.3</ele>
        <time>2019-09-22T06:59:02Z</time>
      </trkpt>
      <trkpt lat="45.68833" lon="4.74417">
        <ele>224.2</ele>
        <time>2019-09-22T06:59:03Z</time>
      </trkpt>
      <trkpt lat="45.68842" lon="4.7439">
        <ele>224</ele>
        <time>2019-09-22T06:59:07Z</time>
      </trkpt>
      <trkpt lat="45.68845" lon="4.74383">
        <ele>223.9</ele>
        <time>2019-09-22T06:59:08Z</time>
      </trkpt>
      <trkpt lat="45.68848" lon="4.74377">
        <ele>223.8</ele>
        <time>2019-09-22T06:59:09Z</time>
      </trkpt>
      <trkpt lat="45.6887" lon="4.74337">
        <ele>223.4</ele>
        <time>2019-09-22T06:59:16Z</time>
      </trkpt>
      <trkpt lat="45.68877" lon="4.74321">
        <ele>223.5</ele>
        <time>2019-09-22T06:59:19Z</time>
      </trkpt>
      <trkpt lat="45.68883" lon="4.74305">
        <ele>223.7</ele>
        <time>2019-09-22T06:59:22Z</time>
      </trkpt>
      <trkpt lat="45.68885" lon="4.74299">
        <ele>223.8</ele>
        <time>2019-09-22T06:59:23Z</time>
      </trkpt>
      <trkpt lat="45.6889" lon="4.74287">
        <ele>223.9</ele>
        <time>2019-09-22T06:59:25Z</time>
      </trkpt>
      <trkpt lat="45.689" lon="4.74263">
        <ele>224.2</ele>
        <time>2019-09-22T06:59:29Z</time>
      </trkpt>
      <trkpt lat="45.68909" lon="4.74233">
        <ele>224.7</ele>
        <time>2019-09-22T06:59:33Z</time>
      </trkpt>
      <trkpt lat="45.68916" lon="4.742">
        <ele>225.6</ele>
        <time>2019-09-22T06:59:37Z</time>
      </trkpt>
      <trkpt lat="45.6892" lon="4.74184">
        <ele>226.2</ele>
        <time>2019-09-22T06:59:39Z</time>
      </trkpt>
      <trkpt lat="45.68926" lon="4.74169">
        <ele>226.7</ele>
        <time>2019-09-22T06:59:41Z</time>
      </trkpt>
      <trkpt lat="45.68931" lon="4.74153">
        <ele>227.4</ele>
        <time>2019-09-22T06:59:43Z</time>
      </trkpt>
      <trkpt lat="45.68945" lon="4.74127">
        <ele>228.8</ele>
        <time>2019-09-22T06:59:47Z</time>
      </trkpt>
      <trkpt lat="45.68949" lon="4.74122">
        <ele>229.1</ele>
        <time>2019-09-22T06:59:48Z</time>
      </trkpt>
      <trkpt lat="45.68976" lon="4.74079">
        <ele>231.2</ele>
        <time>2019-09-22T06:59:55Z</time>
      </trkpt>
      <trkpt lat="45.68993" lon="4.74047">
        <ele>232.2</ele>
        <time>2019-09-22T07:00:00Z</time>
      </trkpt>
      <trkpt lat="45.68995" lon="4.7404">
        <ele>232.4</ele>
        <time>2019-09-22T07:00:01Z</time>
      </trkpt>
      <trkpt lat="45.69006" lon="4.74011">
        <ele>233.4</ele>
        <time>2019-09-22T07:00:05Z</time>
      </trkpt>
      <trkpt lat="45.6901" lon="4.74006">
        <ele>233.6</ele>
        <time>2019-09-22T07:00:06Z</time>
      </trkpt>
      <trkpt lat="45.6903" lon="4.73963">
        <ele>235.5</ele>
        <time>2019-09-22T07:00:12Z</time>
      </trkpt>
      <trkpt lat="45.69039" lon="4.73943">
        <ele>236.5</ele>
        <time>2019-09-22T07:00:15Z</time>
      </trkpt>
      <trkpt lat="45.69046" lon="4.7392">
        <ele>236.7</ele>
        <time>2019-09-22T07:00:18Z</time>
      </trkpt>
      <trkpt lat="45.6905" lon="4.73904">
        <ele>236.8</ele>
        <time>2019-09-22T07:00:20Z</time>
      </trkpt>
      <trkpt lat="45.69055" lon="4.73874">
        <ele>237.3</ele>
        <time>2019-09-22T07:00:24Z</time>
      </trkpt>
      <trkpt lat="45.69059" lon="4.7386">
        <ele>237.6</ele>
        <time>2019-09-22T07:00:26Z</time>
      </trkpt>
      <trkpt lat="45.69064" lon="4.73842">
        <ele>237.7</ele>
        <time>2019-09-22T07:00:29Z</time>
      </trkpt>
      <trkpt lat="45.69065" lon="4.73817">
        <ele>237.7</ele>
        <time>2019-09-22T07:00:33Z</time>
      </trkpt>
      <trkpt lat="45.69065" lon="4.7381">
        <ele>237.7</ele>
        <time>2019-09-22T07:00:34Z</time>
      </trkpt>
      <trkpt lat="45.69063" lon="4.73778">
        <ele>237.8</ele>
        <time>2019-09-22T07:00:38Z</time>
      </trkpt>
      <trkpt lat="45.69064" lon="4.73761">
        <ele>237.8</ele>
        <time>2019-09-22T07:00:40Z</time>
      </trkpt>
      <trkpt lat="45.69065" lon="4.73744">
        <ele>237.8</ele>
        <time>2019-09-22T07:00:42Z</time>
      </trkpt>
      <trkpt lat="45.69069" lon="4.73718">
        <ele>237.8</ele>
        <time>2019-09-22T07:00:45Z</time>
      </trkpt>
      <trkpt lat="45.6907" lon="4.73709">
        <ele>237.8</ele>
        <time>2019-09-22T07:00:46Z</time>
      </trkpt>
      <trkpt lat="45.69081" lon="4.73678">
        <ele>237.6</ele>
        <time>2019-09-22T07:00:50Z</time>
      </trkpt>
      <trkpt lat="45.69088" lon="4.73666">
        <ele>237.4</ele>
        <time>2019-09-22T07:00:52Z</time>
      </trkpt>
      <trkpt lat="45.691" lon="4.73641">
        <ele>237</ele>
        <time>2019-09-22T07:00:56Z</time>
      </trkpt>
      <trkpt lat="45.69105" lon="4.73627">
        <ele>237.2</ele>
        <time>2019-09-22T07:00:58Z</time>
      </trkpt>
      <trkpt lat="45.6911" lon="4.73609">
        <ele>237.6</ele>
        <time>2019-09-22T07:01:01Z</time>
      </trkpt>
      <trkpt lat="45.6911" lon="4.73597">
        <ele>237.8</ele>
        <time>2019-09-22T07:01:03Z</time>
      </trkpt>
      <trkpt lat="45.69111" lon="4.7359">
        <ele>237.8</ele>
        <time>2019-09-22T07:01:04Z</time>
      </trkpt>
      <trkpt lat="45.69112" lon="4.73584">
        <ele>237.9</ele>
        <time>2019-09-22T07:01:05Z</time>
      </trkpt>
      <trkpt lat="45.69115" lon="4.73571">
        <ele>238</ele>
        <time>2019-09-22T07:01:07Z</time>
      </trkpt>
      <trkpt lat="45.69118" lon="4.73564">
        <ele>238.1</ele>
        <time>2019-09-22T07:01:08Z</time>
      </trkpt>
      <trkpt lat="45.6912" lon="4.73558">
        <ele>238.3</ele>
        <time>2019-09-22T07:01:09Z</time>
      </trkpt>
      <trkpt lat="45.69126" lon="4.73544">
        <ele>238.8</ele>
        <time>2019-09-22T07:01:11Z</time>
      </trkpt>
      <trkpt lat="45.69132" lon="4.73531">
        <ele>239.4</ele>
        <time>2019-09-22T07:01:13Z</time>
      </trkpt>
      <trkpt lat="45.69142" lon="4.7351">
        <ele>240.2</ele>
        <time>2019-09-22T07:01:16Z</time>
      </trkpt>
      <trkpt lat="45.69155" lon="4.73485">
        <ele>241.3</ele>
        <time>2019-09-22T07:01:20Z</time>
      </trkpt>
      <trkpt lat="45.69158" lon="4.73479">
        <ele>241.5</ele>
        <time>2019-09-22T07:01:21Z</time>
      </trkpt>
      <trkpt lat="45.69178" lon="4.73455">
        <ele>242</ele>
        <time>2019-09-22T07:01:26Z</time>
      </trkpt>
      <trkpt lat="45.69182" lon="4.7345">
        <ele>242</ele>
        <time>2019-09-22T07:01:27Z</time>
      </trkpt>
      <trkpt lat="45.69185" lon="4.73444">
        <ele>242</ele>
        <time>2019-09-22T07:01:28Z</time>
      </trkpt>
      <trkpt lat="45.69191" lon="4.73431">
        <ele>242</ele>
        <time>2019-09-22T07:01:30Z</time>
      </trkpt>
      <trkpt lat="45.69193" lon="4.73425">
        <ele>242</ele>
        <time>2019-09-22T07:01:31Z</time>
      </trkpt>
      <trkpt lat="45.69197" lon="4.73412">
        <ele>241.9</ele>
        <time>2019-09-22T07:01:33Z</time>
      </trkpt>
      <trkpt lat="45.69203" lon="4.73383">
        <ele>241.5</ele>
        <time>2019-09-22T07:01:37Z</time>
      </trkpt>
      <trkpt lat="45.69204" lon="4.73375">
        <ele>241.4</ele>
        <time>2019-09-22T07:01:38Z</time>
      </trkpt>
      <trkpt lat="45.6922" lon="4.73318">
        <ele>240.3</ele>
        <time>2019-09-22T07:01:45Z</time>
      </trkpt>
      <trkpt lat="45.69225" lon="4.73305">
        <ele>240.2</ele>
        <time>2019-09-22T07:01:47Z</time>
      </trkpt>
      <trkpt lat="45.6923" lon="4.73286">
        <ele>240.1</ele>
        <time>2019-09-22T07:01:50Z</time>
      </trkpt>
      <trkpt lat="45.69232" lon="4.73262">
        <ele>240.1</ele>
        <time>2019-09-22T07:01:54Z</time>
      </trkpt>
      <trkpt lat="45.69231" lon="4.73256">
        <ele>240.1</ele>
        <time>2019-09-22T07:01:55Z</time>
      </trkpt>
      <trkpt lat="45.69228" lon="4.73245">
        <ele>240.1</ele>
        <time>2019-09-22T07:01:57Z</time>
      </trkpt>
      <trkpt lat="45.69221" lon="4.73229">
        <ele>240.1</ele>
        <time>2019-09-22T07:02:00Z</time>
      </trkpt>
      <trkpt lat="45.69211" lon="4.73202">
        <ele>239.7</ele>
        <time>2019-09-22T07:02:05Z</time>
      </trkpt>
      <trkpt lat="45.69209" lon="4.73197">
        <ele>239.6</ele>
        <time>2019-09-22T07:02:06Z</time>
      </trkpt>
      <trkpt lat="45.69203" lon="4.73181">
        <ele>239.3</ele>
        <time>2019-09-22T07:02:09Z</time>
      </trkpt>
      <trkpt lat="45.69197" lon="4.73167">
        <ele>239.2</ele>
        <time>2019-09-22T07:02:12Z</time>
      </trkpt>
      <trkpt lat="45.69186" lon="4.73148">
        <ele>239.6</ele>
        <time>2019-09-22T07:02:17Z</time>
      </trkpt>
      <trkpt lat="45.69181" lon="4.73142">
        <ele>240</ele>
        <time>2019-09-22T07:02:19Z</time>
      </trkpt>
      <trkpt lat="45.69174" lon="4.73131">
        <ele>240.6</ele>
        <time>2019-09-22T07:02:23Z</time>
      </trkpt>
      <trkpt lat="45.69166" lon="4.73115">
        <ele>241.2</ele>
        <time>2019-09-22T07:02:29Z</time>
      </trkpt>
      <trkpt lat="45.69164" lon="4.73112">
        <ele>241.4</ele>
        <time>2019-09-22T07:02:30Z</time>
      </trkpt>
      <trkpt lat="45.69153" lon="4.73099">
        <ele>242</ele>
        <time>2019-09-22T07:02:35Z</time>
      </trkpt>
      <trkpt lat="45.69146" lon="4.73085">
        <ele>242.6</ele>
        <time>2019-09-22T07:02:39Z</time>
      </trkpt>
      <trkpt lat="45.69144" lon="4.73076">
        <ele>242.9</ele>
        <time>2019-09-22T07:02:41Z</time>
      </trkpt>
      <trkpt lat="45.69146" lon="4.73057">
        <ele>243.9</ele>
        <time>2019-09-22T07:02:46Z</time>
      </trkpt>
      <trkpt lat="45.69147" lon="4.73052">
        <ele>244.2</ele>
        <time>2019-09-22T07:02:47Z</time>
      </trkpt>
      <trkpt lat="45.69149" lon="4.73045">
        <ele>244.5</ele>
        <time>2019-09-22T07:02:49Z</time>
      </trkpt>
      <trkpt lat="45.69154" lon="4.73033">
        <ele>245</ele>
        <time>2019-09-22T07:02:52Z</time>
      </trkpt>
      <trkpt lat="45.69157" lon="4.73025">
        <ele>245.2</ele>
        <time>2019-09-22T07:02:54Z</time>
      </trkpt>
      <trkpt lat="45.69159" lon="4.73017">
        <ele>245.5</ele>
        <time>2019-09-22T07:02:56Z</time>
      </trkpt>
      <trkpt lat="45.69161" lon="4.73005">
        <ele>245.8</ele>
        <time>2019-09-22T07:02:59Z</time>
      </trkpt>
      <trkpt lat="45.69163" lon="4.72996">
        <ele>246.1</ele>
        <time>2019-09-22T07:03:01Z</time>
      </trkpt>
      <trkpt lat="45.69165" lon="4.72981">
        <ele>246.4</ele>
        <time>2019-09-22T07:03:04Z</time>
      </trkpt>
      <trkpt lat="45.69168" lon="4.72967">
        <ele>246.8</ele>
        <time>2019-09-22T07:03:07Z</time>
      </trkpt>
      <trkpt lat="45.69172" lon="4.72946">
        <ele>247.4</ele>
        <time>2019-09-22T07:03:12Z</time>
      </trkpt>
      <trkpt lat="45.69173" lon="4.72942">
        <ele>247.6</ele>
        <time>2019-09-22T07:03:13Z</time>
      </trkpt>
      <trkpt lat="45.6918" lon="4.72923">
        <ele>248.4</ele>
        <time>2019-09-22T07:03:18Z</time>
      </trkpt>
      <trkpt lat="45.6919" lon="4.72915">
        <ele>248.9</ele>
        <time>2019-09-22T07:03:22Z</time>
      </trkpt>
      <trkpt lat="45.69197" lon="4.72914">
        <ele>249.1</ele>
        <time>2019-09-22T07:03:24Z</time>
      </trkpt>
      <trkpt lat="45.69205" lon="4.72908">
        <ele>249.6</ele>
        <time>2019-09-22T07:03:27Z</time>
      </trkpt>
      <trkpt lat="45.69214" lon="4.729">
        <ele>250.1</ele>
        <time>2019-09-22T07:03:31Z</time>
      </trkpt>
      <trkpt lat="45.69219" lon="4.72896">
        <ele>250.4</ele>
        <time>2019-09-22T07:03:33Z</time>
      </trkpt>
      <trkpt lat="45.69223" lon="4.72891">
        <ele>250.7</ele>
        <time>2019-09-22T07:03:35Z</time>
      </trkpt>
      <trkpt lat="45.69229" lon="4.72883">
        <ele>251.1</ele>
        <time>2019-09-22T07:03:38Z</time>
      </trkpt>
      <trkpt lat="45.69231" lon="4.72881">
        <ele>251.2</ele>
        <time>2019-09-22T07:03:39Z</time>
      </trkpt>
      <trkpt lat="45.69246" lon="4.7286">
        <ele>252.3</ele>
        <time>2019-09-22T07:03:46Z</time>
      </trkpt>
      <trkpt lat="45.69254" lon="4.72848">
        <ele>252.9</ele>
        <time>2019-09-22T07:03:50Z</time>
      </trkpt>
      <trkpt lat="45.69257" lon="4.72841">
        <ele>253.2</ele>
        <time>2019-09-22T07:03:52Z</time>
      </trkpt>
      <trkpt lat="45.69267" lon="4.72822">
        <ele>254.4</ele>
        <time>2019-09-22T07:03:58Z</time>
      </trkpt>
      <trkpt lat="45.6927" lon="4.7282">
        <ele>254.6</ele>
        <time>2019-09-22T07:03:59Z</time>
      </trkpt>
      <trkpt lat="45.69274" lon="4.72821">
        <ele>254.7</ele>
        <time>2019-09-22T07:04:01Z</time>
      </trkpt>
      <trkpt lat="45.69277" lon="4.72826">
        <ele>254.9</ele>
        <time>2019-09-22T07:04:03Z</time>
      </trkpt>
      <trkpt lat="45.69277" lon="4.72832">
        <ele>255.1</ele>
        <time>2019-09-22T07:04:05Z</time>
      </trkpt>
      <trkpt lat="45.69269" lon="4.72842">
        <ele>255.6</ele>
        <time>2019-09-22T07:04:09Z</time>
      </trkpt>
      <trkpt lat="45.69262" lon="4.72851">
        <ele>255.9</ele>
        <time>2019-09-22T07:04:13Z</time>
      </trkpt>
      <trkpt lat="45.69261" lon="4.72854">
        <ele>256</ele>
        <time>2019-09-22T07:04:14Z</time>
      </trkpt>
      <trkpt lat="45.69259" lon="4.72856">
        <ele>256.1</ele>
        <time>2019-09-22T07:04:15Z</time>
      </trkpt>
      <trkpt lat="45.69258" lon="4.7286">
        <ele>256.2</ele>
        <time>2019-09-22T07:04:16Z</time>
      </trkpt>
      <trkpt lat="45.69254" lon="4.72877">
        <ele>256.8</ele>
        <time>2019-09-22T07:04:21Z</time>
      </trkpt>
      <trkpt lat="45.69243" lon="4.72902">
        <ele>257.7</ele>
        <time>2019-09-22T07:04:29Z</time>
      </trkpt>
      <trkpt lat="45.69233" lon="4.7292">
        <ele>258.5</ele>
        <time>2019-09-22T07:04:35Z</time>
      </trkpt>
      <trkpt lat="45.69232" lon="4.72923">
        <ele>258.6</ele>
        <time>2019-09-22T07:04:36Z</time>
      </trkpt>
      <trkpt lat="45.69218" lon="4.72944">
        <ele>259.3</ele>
        <time>2019-09-22T07:04:43Z</time>
      </trkpt>
      <trkpt lat="45.69215" lon="4.72957">
        <ele>259.6</ele>
        <time>2019-09-22T07:04:47Z</time>
      </trkpt>
      <trkpt lat="45.69217" lon="4.7296">
        <ele>259.6</ele>
        <time>2019-09-22T07:04:48Z</time>
      </trkpt>
      <trkpt lat="45.69226" lon="4.72959">
        <ele>259.9</ele>
        <time>2019-09-22T07:04:52Z</time>
      </trkpt>
      <trkpt lat="45.69231" lon="4.72953">
        <ele>260.2</ele>
        <time>2019-09-22T07:04:55Z</time>
      </trkpt>
      <trkpt lat="45.69236" lon="4.72946">
        <ele>260.4</ele>
        <time>2019-09-22T07:04:58Z</time>
      </trkpt>
      <trkpt lat="45.6924" lon="4.72942">
        <ele>260.7</ele>
        <time>2019-09-22T07:05:00Z</time>
      </trkpt>
      <trkpt lat="45.69249" lon="4.72928">
        <ele>261.3</ele>
        <time>2019-09-22T07:05:05Z</time>
      </trkpt>
      <trkpt lat="45.69251" lon="4.72925">
        <ele>261.4</ele>
        <time>2019-09-22T07:05:06Z</time>
      </trkpt>
      <trkpt lat="45.69263" lon="4.7291">
        <ele>262.2</ele>
        <time>2019-09-22T07:05:12Z</time>
      </trkpt>
      <trkpt lat="45.69276" lon="4.7289">
        <ele>263.1</ele>
        <time>2019-09-22T07:05:19Z</time>
      </trkpt>
      <trkpt lat="45.69277" lon="4.72887">
        <ele>263.2</ele>
        <time>2019-09-22T07:05:20Z</time>
      </trkpt>
      <trkpt lat="45.69287" lon="4.72867">
        <ele>264.1</ele>
        <time>2019-09-22T07:05:26Z</time>
      </trkpt>
      <trkpt lat="45.69293" lon="4.72862">
        <ele>264.5</ele>
        <time>2019-09-22T07:05:29Z</time>
      </trkpt>
      <trkpt lat="45.69298" lon="4.72861">
        <ele>264.7</ele>
        <time>2019-09-22T07:05:31Z</time>
      </trkpt>
      <trkpt lat="45.693" lon="4.72864">
        <ele>264.9</ele>
        <time>2019-09-22T07:05:32Z</time>
      </trkpt>
      <trkpt lat="45.69302" lon="4.72872">
        <ele>265.2</ele>
        <time>2019-09-22T07:05:34Z</time>
      </trkpt>
      <trkpt lat="45.69295" lon="4.72883">
        <ele>265.7</ele>
        <time>2019-09-22T07:05:38Z</time>
      </trkpt>
      <trkpt lat="45.6929" lon="4.72886">
        <ele>266</ele>
        <time>2019-09-22T07:05:40Z</time>
      </trkpt>
      <trkpt lat="45.69284" lon="4.72892">
        <ele>266.2</ele>
        <time>2019-09-22T07:05:43Z</time>
      </trkpt>
      <trkpt lat="45.69282" lon="4.72899">
        <ele>266.4</ele>
        <time>2019-09-22T07:05:45Z</time>
      </trkpt>
      <trkpt lat="45.69282" lon="4.7291">
        <ele>266.8</ele>
        <time>2019-09-22T07:05:48Z</time>
      </trkpt>
      <trkpt lat="45.69283" lon="4.72913">
        <ele>266.9</ele>
        <time>2019-09-22T07:05:49Z</time>
      </trkpt>
      <trkpt lat="45.69287" lon="4.72916">
        <ele>267.2</ele>
        <time>2019-09-22T07:05:51Z</time>
      </trkpt>
      <trkpt lat="45.69292" lon="4.72917">
        <ele>267.4</ele>
        <time>2019-09-22T07:05:53Z</time>
      </trkpt>
      <trkpt lat="45.69294" lon="4.72917">
        <ele>267.6</ele>
        <time>2019-09-22T07:05:54Z</time>
      </trkpt>
      <trkpt lat="45.69297" lon="4.72916">
        <ele>267.7</ele>
        <time>2019-09-22T07:05:55Z</time>
      </trkpt>
      <trkpt lat="45.69306" lon="4.72912">
        <ele>268.3</ele>
        <time>2019-09-22T07:05:58Z</time>
      </trkpt>
      <trkpt lat="45.69309" lon="4.72911">
        <ele>268.5</ele>
        <time>2019-09-22T07:05:59Z</time>
      </trkpt>
      <trkpt lat="45.69318" lon="4.72912">
        <ele>270</ele>
        <time>2019-09-22T07:06:03Z</time>
      </trkpt>
      <trkpt lat="45.69321" lon="4.72911">
        <ele>270.5</ele>
        <time>2019-09-22T07:06:05Z</time>
      </trkpt>
      <trkpt lat="45.69324" lon="4.72905">
        <ele>271.7</ele>
        <time>2019-09-22T07:06:09Z</time>
      </trkpt>
      <trkpt lat="45.69324" lon="4.72902">
        <ele>271.9</ele>
        <time>2019-09-22T07:06:10Z</time>
      </trkpt>
      <trkpt lat="45.69324" lon="4.72894">
        <ele>272.5</ele>
        <time>2019-09-22T07:06:12Z</time>
      </trkpt>
      <trkpt lat="45.69328" lon="4.72883">
        <ele>273.1</ele>
        <time>2019-09-22T07:06:15Z</time>
      </trkpt>
      <trkpt lat="45.69341" lon="4.72868">
        <ele>273.8</ele>
        <time>2019-09-22T07:06:20Z</time>
      </trkpt>
      <trkpt lat="45.69345" lon="4.72866">
        <ele>273.9</ele>
        <time>2019-09-22T07:06:21Z</time>
      </trkpt>
      <trkpt lat="45.69353" lon="4.72862">
        <ele>273.9</ele>
        <time>2019-09-22T07:06:23Z</time>
      </trkpt>
      <trkpt lat="45.69367" lon="4.72855">
        <ele>273.8</ele>
        <time>2019-09-22T07:06:27Z</time>
      </trkpt>
      <trkpt lat="45.6937" lon="4.72853">
        <ele>273.7</ele>
        <time>2019-09-22T07:06:28Z</time>
      </trkpt>
      <trkpt lat="45.69388" lon="4.72843">
        <ele>271.9</ele>
        <time>2019-09-22T07:06:34Z</time>
      </trkpt>
      <trkpt lat="45.69398" lon="4.7284">
        <ele>270.5</ele>
        <time>2019-09-22T07:06:37Z</time>
      </trkpt>
      <trkpt lat="45.69403" lon="4.72836">
        <ele>269.5</ele>
        <time>2019-09-22T07:06:39Z</time>
      </trkpt>
      <trkpt lat="45.69411" lon="4.72813">
        <ele>266.2</ele>
        <time>2019-09-22T07:06:45Z</time>
      </trkpt>
      <trkpt lat="45.69415" lon="4.72786">
        <ele>262.9</ele>
        <time>2019-09-22T07:06:50Z</time>
      </trkpt>
      <trkpt lat="45.69417" lon="4.72761">
        <ele>260.7</ele>
        <time>2019-09-22T07:06:54Z</time>
      </trkpt>
      <trkpt lat="45.69418" lon="4.72749">
        <ele>259.6</ele>
        <time>2019-09-22T07:06:56Z</time>
      </trkpt>
      <trkpt lat="45.69418" lon="4.72738">
        <ele>258.8</ele>
        <time>2019-09-22T07:06:58Z</time>
      </trkpt>
      <trkpt lat="45.6942" lon="4.72719">
        <ele>257.2</ele>
        <time>2019-09-22T07:07:02Z</time>
      </trkpt>
      <trkpt lat="45.69421" lon="4.72714">
        <ele>256.7</ele>
        <time>2019-09-22T07:07:03Z</time>
      </trkpt>
      <trkpt lat="45.69426" lon="4.72689">
        <ele>253.8</ele>
        <time>2019-09-22T07:07:08Z</time>
      </trkpt>
      <trkpt lat="45.69427" lon="4.72686">
        <ele>253.3</ele>
        <time>2019-09-22T07:07:09Z</time>
      </trkpt>
      <trkpt lat="45.69431" lon="4.72675">
        <ele>251.4</ele>
        <time>2019-09-22T07:07:12Z</time>
      </trkpt>
      <trkpt lat="45.69433" lon="4.72669">
        <ele>250.5</ele>
        <time>2019-09-22T07:07:13Z</time>
      </trkpt>
      <trkpt lat="45.69438" lon="4.72651">
        <ele>247</ele>
        <time>2019-09-22T07:07:16Z</time>
      </trkpt>
      <trkpt lat="45.69438" lon="4.7264">
        <ele>244.5</ele>
        <time>2019-09-22T07:07:18Z</time>
      </trkpt>
      <trkpt lat="45.69437" lon="4.72635">
        <ele>242.9</ele>
        <time>2019-09-22T07:07:20Z</time>
      </trkpt>
      <trkpt lat="45.69435" lon="4.72627">
        <ele>239.8</ele>
        <time>2019-09-22T07:07:22Z</time>
      </trkpt>
      <trkpt lat="45.69436" lon="4.72623">
        <ele>239.6</ele>
        <time>2019-09-22T07:07:23Z</time>
      </trkpt>
      <trkpt lat="45.69435" lon="4.72617">
        <ele>239.1</ele>
        <time>2019-09-22T07:07:25Z</time>
      </trkpt>
      <trkpt lat="45.69433" lon="4.72613">
        <ele>238.8</ele>
        <time>2019-09-22T07:07:27Z</time>
      </trkpt>
      <trkpt lat="45.6943" lon="4.72613">
        <ele>238.5</ele>
        <time>2019-09-22T07:07:28Z</time>
      </trkpt>
      <trkpt lat="45.69425" lon="4.72615">
        <ele>238</ele>
        <time>2019-09-22T07:07:30Z</time>
      </trkpt>
      <trkpt lat="45.69423" lon="4.72614">
        <ele>237.8</ele>
        <time>2019-09-22T07:07:31Z</time>
      </trkpt>
      <trkpt lat="45.69421" lon="4.72612">
        <ele>237.5</ele>
        <time>2019-09-22T07:07:32Z</time>
      </trkpt>
      <trkpt lat="45.69418" lon="4.72608">
        <ele>237.1</ele>
        <time>2019-09-22T07:07:34Z</time>
      </trkpt>
      <trkpt lat="45.69417" lon="4.72607">
        <ele>237</ele>
        <time>2019-09-22T07:07:35Z</time>
      </trkpt>
      <trkpt lat="45.69415" lon="4.72606">
        <ele>236.8</ele>
        <time>2019-09-22T07:07:36Z</time>
      </trkpt>
      <trkpt lat="45.69413" lon="4.72604">
        <ele>236.6</ele>
        <time>2019-09-22T07:07:37Z</time>
      </trkpt>
      <trkpt lat="45.69411" lon="4.72598">
        <ele>234.5</ele>
        <time>2019-09-22T07:07:40Z</time>
      </trkpt>
      <trkpt lat="45.69412" lon="4.72595">
        <ele>234.4</ele>
        <time>2019-09-22T07:07:41Z</time>
      </trkpt>
      <trkpt lat="45.69415" lon="4.72581">
        <ele>233.9</ele>
        <time>2019-09-22T07:07:45Z</time>
      </trkpt>
      <trkpt lat="45.69415" lon="4.72574">
        <ele>233.8</ele>
        <time>2019-09-22T07:07:47Z</time>
      </trkpt>
      <trkpt lat="45.69419" lon="4.72563">
        <ele>233.7</ele>
        <time>2019-09-22T07:07:51Z</time>
      </trkpt>
      <trkpt lat="45.69421" lon="4.72556">
        <ele>233.7</ele>
        <time>2019-09-22T07:07:53Z</time>
      </trkpt>
      <trkpt lat="45.69423" lon="4.72551">
        <ele>233.7</ele>
        <time>2019-09-22T07:07:54Z</time>
      </trkpt>
      <trkpt lat="45.69425" lon="4.72543">
        <ele>233.7</ele>
        <time>2019-09-22T07:07:56Z</time>
      </trkpt>
      <trkpt lat="45.69426" lon="4.7254">
        <ele>233.7</ele>
        <time>2019-09-22T07:07:57Z</time>
      </trkpt>
      <trkpt lat="45.69428" lon="4.72533">
        <ele>233.8</ele>
        <time>2019-09-22T07:07:59Z</time>
      </trkpt>
      <trkpt lat="45.69429" lon="4.72527">
        <ele>233.9</ele>
        <time>2019-09-22T07:08:01Z</time>
      </trkpt>
      <trkpt lat="45.69429" lon="4.72523">
        <ele>233.9</ele>
        <time>2019-09-22T07:08:02Z</time>
      </trkpt>
      <trkpt lat="45.69427" lon="4.72508">
        <ele>234.2</ele>
        <time>2019-09-22T07:08:05Z</time>
      </trkpt>
      <trkpt lat="45.69424" lon="4.72496">
        <ele>234.3</ele>
        <time>2019-09-22T07:08:07Z</time>
      </trkpt>
      <trkpt lat="45.6942" lon="4.72468">
        <ele>234.7</ele>
        <time>2019-09-22T07:08:13Z</time>
      </trkpt>
      <trkpt lat="45.69419" lon="4.72463">
        <ele>234.7</ele>
        <time>2019-09-22T07:08:14Z</time>
      </trkpt>
      <trkpt lat="45.69417" lon="4.72454">
        <ele>234.8</ele>
        <time>2019-09-22T07:08:16Z</time>
      </trkpt>
      <trkpt lat="45.69413" lon="4.72439">
        <ele>235.5</ele>
        <time>2019-09-22T07:08:19Z</time>
      </trkpt>
      <trkpt lat="45.6941" lon="4.72427">
        <ele>236.8</ele>
        <time>2019-09-22T07:08:22Z</time>
      </trkpt>
      <trkpt lat="45.69409" lon="4.7242">
        <ele>237.5</ele>
        <time>2019-09-22T07:08:24Z</time>
      </trkpt>
      <trkpt lat="45.69408" lon="4.72414">
        <ele>238.1</ele>
        <time>2019-09-22T07:08:26Z</time>
      </trkpt>
      <trkpt lat="45.69407" lon="4.72394">
        <ele>240.9</ele>
        <time>2019-09-22T07:08:31Z</time>
      </trkpt>
      <trkpt lat="45.6941" lon="4.72392">
        <ele>240.8</ele>
        <time>2019-09-22T07:08:34Z</time>
      </trkpt>
      <trkpt lat="45.69416" lon="4.72395">
        <ele>240.8</ele>
        <time>2019-09-22T07:08:36Z</time>
      </trkpt>
      <trkpt lat="45.69422" lon="4.72399">
        <ele>240.8</ele>
        <time>2019-09-22T07:08:38Z</time>
      </trkpt>
      <trkpt lat="45.69425" lon="4.72401">
        <ele>240.8</ele>
        <time>2019-09-22T07:08:39Z</time>
      </trkpt>
      <trkpt lat="45.69429" lon="4.72403">
        <ele>240.8</ele>
        <time>2019-09-22T07:08:40Z</time>
      </trkpt>
      <trkpt lat="45.69437" lon="4.72408">
        <ele>241.1</ele>
        <time>2019-09-22T07:08:43Z</time>
      </trkpt>
      <trkpt lat="45.69445" lon="4.72413">
        <ele>241.4</ele>
        <time>2019-09-22T07:08:46Z</time>
      </trkpt>
      <trkpt lat="45.69468" lon="4.72424">
        <ele>242.4</ele>
        <time>2019-09-22T07:08:54Z</time>
      </trkpt>
      <trkpt lat="45.69475" lon="4.72421">
        <ele>242.8</ele>
        <time>2019-09-22T07:08:58Z</time>
      </trkpt>
      <trkpt lat="45.69476" lon="4.72419">
        <ele>242.8</ele>
        <time>2019-09-22T07:08:59Z</time>
      </trkpt>
      <trkpt lat="45.69471" lon="4.72407">
        <ele>243.3</ele>
        <time>2019-09-22T07:09:04Z</time>
      </trkpt>
      <trkpt lat="45.69461" lon="4.72393">
        <ele>243.9</ele>
        <time>2019-09-22T07:09:12Z</time>
      </trkpt>
      <trkpt lat="45.69455" lon="4.72384">
        <ele>244.1</ele>
        <time>2019-09-22T07:09:17Z</time>
      </trkpt>
      <trkpt lat="45.6945" lon="4.72378">
        <ele>244.3</ele>
        <time>2019-09-22T07:09:21Z</time>
      </trkpt>
      <trkpt lat="45.69449" lon="4.72376">
        <ele>244.4</ele>
        <time>2019-09-22T07:09:22Z</time>
      </trkpt>
      <trkpt lat="45.69446" lon="4.72372">
        <ele>244.5</ele>
        <time>2019-09-22T07:09:25Z</time>
      </trkpt>
      <trkpt lat="45.69443" lon="4.72368">
        <ele>244.6</ele>
        <time>2019-09-22T07:09:28Z</time>
      </trkpt>
      <trkpt lat="45.69442" lon="4.72366">
        <ele>244.7</ele>
        <time>2019-09-22T07:09:29Z</time>
      </trkpt>
      <trkpt lat="45.69441" lon="4.72364">
        <ele>244.7</ele>
        <time>2019-09-22T07:09:30Z</time>
      </trkpt>
      <trkpt lat="45.69436" lon="4.72351">
        <ele>245.1</ele>
        <time>2019-09-22T07:09:37Z</time>
      </trkpt>
      <trkpt lat="45.69435" lon="4.72348">
        <ele>245.2</ele>
        <time>2019-09-22T07:09:39Z</time>
      </trkpt>
      <trkpt lat="45.69433" lon="4.72342">
        <ele>245.4</ele>
        <time>2019-09-22T07:09:42Z</time>
      </trkpt>
      <trkpt lat="45.69432" lon="4.7234">
        <ele>245.4</ele>
        <time>2019-09-22T07:09:43Z</time>
      </trkpt>
      <trkpt lat="45.69432" lon="4.72338">
        <ele>245.5</ele>
        <time>2019-09-22T07:09:44Z</time>
      </trkpt>
      <trkpt lat="45.69433" lon="4.72336">
        <ele>245.5</ele>
        <time>2019-09-22T07:09:45Z</time>
      </trkpt>
      <trkpt lat="45.69444" lon="4.72223">
        <ele>261.6</ele>
        <time>2019-09-22T07:12:15Z</time>
      </trkpt>
      <trkpt lat="45.69443" lon="4.7222">
        <ele>261.8</ele>
        <time>2019-09-22T07:12:16Z</time>
      </trkpt>
      <trkpt lat="45.69441" lon="4.72205">
        <ele>262.9</ele>
        <time>2019-09-22T07:12:23Z</time>
      </trkpt>
      <trkpt lat="45.6944" lon="4.722">
        <ele>263.3</ele>
        <time>2019-09-22T07:12:25Z</time>
      </trkpt>
      <trkpt lat="45.69439" lon="4.72181">
        <ele>264.9</ele>
        <time>2019-09-22T07:12:33Z</time>
      </trkpt>
      <trkpt lat="45.69439" lon="4.72173">
        <ele>265.8</ele>
        <time>2019-09-22T07:12:36Z</time>
      </trkpt>
      <trkpt lat="45.69438" lon="4.7217">
        <ele>266.2</ele>
        <time>2019-09-22T07:12:37Z</time>
      </trkpt>
      <trkpt lat="45.69438" lon="4.72166">
        <ele>266.8</ele>
        <time>2019-09-22T07:12:39Z</time>
      </trkpt>
      <trkpt lat="45.69437" lon="4.72163">
        <ele>267.1</ele>
        <time>2019-09-22T07:12:40Z</time>
      </trkpt>
      <trkpt lat="45.69436" lon="4.72144">
        <ele>269.6</ele>
        <time>2019-09-22T07:12:49Z</time>
      </trkpt>
      <trkpt lat="45.69437" lon="4.72141">
        <ele>270</ele>
        <time>2019-09-22T07:12:51Z</time>
      </trkpt>
      <trkpt lat="45.69436" lon="4.72136">
        <ele>270.6</ele>
        <time>2019-09-22T07:12:54Z</time>
      </trkpt>
      <trkpt lat="45.69435" lon="4.7213">
        <ele>271.4</ele>
        <time>2019-09-22T07:12:57Z</time>
      </trkpt>
      <trkpt lat="45.69435" lon="4.72125">
        <ele>272</ele>
        <time>2019-09-22T07:12:59Z</time>
      </trkpt>
      <trkpt lat="45.69434" lon="4.72115">
        <ele>273.2</ele>
        <time>2019-09-22T07:13:04Z</time>
      </trkpt>
      <trkpt lat="45.69433" lon="4.72111">
        <ele>273.7</ele>
        <time>2019-09-22T07:13:06Z</time>
      </trkpt>
      <trkpt lat="45.69433" lon="4.72105">
        <ele>274.4</ele>
        <time>2019-09-22T07:13:09Z</time>
      </trkpt>
      <trkpt lat="45.69432" lon="4.72098">
        <ele>275.3</ele>
        <time>2019-09-22T07:13:13Z</time>
      </trkpt>
      <trkpt lat="45.69436" lon="4.72016">
        <ele>283.1</ele>
        <time>2019-09-22T07:14:12Z</time>
      </trkpt>
      <trkpt lat="45.6944" lon="4.71999">
        <ele>284</ele>
        <time>2019-09-22T07:14:18Z</time>
      </trkpt>
      <trkpt lat="45.6944" lon="4.71974">
        <ele>284.6</ele>
        <time>2019-09-22T07:14:23Z</time>
      </trkpt>
      <trkpt lat="45.69436" lon="4.71949">
        <ele>284.8</ele>
        <time>2019-09-22T07:14:28Z</time>
      </trkpt>
      <trkpt lat="45.69429" lon="4.71932">
        <ele>285</ele>
        <time>2019-09-22T07:14:31Z</time>
      </trkpt>
      <trkpt lat="45.69423" lon="4.7192">
        <ele>285.1</ele>
        <time>2019-09-22T07:14:34Z</time>
      </trkpt>
      <trkpt lat="45.69412" lon="4.71904">
        <ele>285.3</ele>
        <time>2019-09-22T07:14:39Z</time>
      </trkpt>
      <trkpt lat="45.69396" lon="4.71879">
        <ele>285.9</ele>
        <time>2019-09-22T07:14:45Z</time>
      </trkpt>
      <trkpt lat="45.6938" lon="4.71856">
        <ele>286.6</ele>
        <time>2019-09-22T07:14:52Z</time>
      </trkpt>
      <trkpt lat="45.6937" lon="4.71839">
        <ele>287.3</ele>
        <time>2019-09-22T07:14:57Z</time>
      </trkpt>
      <trkpt lat="45.69366" lon="4.71833">
        <ele>287.5</ele>
        <time>2019-09-22T07:14:59Z</time>
      </trkpt>
      <trkpt lat="45.69348" lon="4.71808">
        <ele>288.9</ele>
        <time>2019-09-22T07:15:07Z</time>
      </trkpt>
      <trkpt lat="45.69333" lon="4.71789">
        <ele>290.3</ele>
        <time>2019-09-22T07:15:14Z</time>
      </trkpt>
      <trkpt lat="45.69328" lon="4.71783">
        <ele>290.7</ele>
        <time>2019-09-22T07:15:16Z</time>
      </trkpt>
      <trkpt lat="45.69317" lon="4.71765">
        <ele>291.9</ele>
        <time>2019-09-22T07:15:22Z</time>
      </trkpt>
      <trkpt lat="45.69315" lon="4.71762">
        <ele>292.1</ele>
        <time>2019-09-22T07:15:23Z</time>
      </trkpt>
      <trkpt lat="45.69297" lon="4.71734">
        <ele>293.8</ele>
        <time>2019-09-22T07:15:32Z</time>
      </trkpt>
      <trkpt lat="45.69283" lon="4.71713">
        <ele>294.8</ele>
        <time>2019-09-22T07:15:39Z</time>
      </trkpt>
      <trkpt lat="45.69281" lon="4.7171">
        <ele>294.9</ele>
        <time>2019-09-22T07:15:40Z</time>
      </trkpt>
      <trkpt lat="45.69264" lon="4.71683">
        <ele>295.3</ele>
        <time>2019-09-22T07:15:49Z</time>
      </trkpt>
      <trkpt lat="45.69244" lon="4.71649">
        <ele>295.3</ele>
        <time>2019-09-22T07:15:59Z</time>
      </trkpt>
      <trkpt lat="45.69243" lon="4.71646">
        <ele>295.3</ele>
        <time>2019-09-22T07:16:00Z</time>
      </trkpt>
      <trkpt lat="45.69237" lon="4.71629">
        <ele>295.5</ele>
        <time>2019-09-22T07:16:05Z</time>
      </trkpt>
      <trkpt lat="45.6922" lon="4.71593">
        <ele>296.9</ele>
        <time>2019-09-22T07:16:15Z</time>
      </trkpt>
      <trkpt lat="45.69204" lon="4.71574">
        <ele>297.8</ele>
        <time>2019-09-22T07:16:22Z</time>
      </trkpt>
      <trkpt lat="45.69178" lon="4.71555">
        <ele>298.3</ele>
        <time>2019-09-22T07:16:30Z</time>
      </trkpt>
      <trkpt lat="45.69162" lon="4.71548">
        <ele>298.4</ele>
        <time>2019-09-22T07:16:34Z</time>
      </trkpt>
      <trkpt lat="45.69149" lon="4.71545">
        <ele>298.4</ele>
        <time>2019-09-22T07:16:37Z</time>
      </trkpt>
      <trkpt lat="45.69113" lon="4.71537">
        <ele>298.7</ele>
        <time>2019-09-22T07:16:44Z</time>
      </trkpt>
      <trkpt lat="45.69076" lon="4.71518">
        <ele>299.4</ele>
        <time>2019-09-22T07:16:52Z</time>
      </trkpt>
      <trkpt lat="45.69041" lon="4.71496">
        <ele>300.2</ele>
        <time>2019-09-22T07:17:00Z</time>
      </trkpt>
      <trkpt lat="45.69037" lon="4.71493">
        <ele>300.3</ele>
        <time>2019-09-22T07:17:01Z</time>
      </trkpt>
      <trkpt lat="45.68993" lon="4.71462">
        <ele>301.5</ele>
        <time>2019-09-22T07:17:11Z</time>
      </trkpt>
      <trkpt lat="45.68964" lon="4.71439">
        <ele>302.2</ele>
        <time>2019-09-22T07:17:18Z</time>
      </trkpt>
      <trkpt lat="45.68956" lon="4.71432">
        <ele>302.4</ele>
        <time>2019-09-22T07:17:20Z</time>
      </trkpt>
      <trkpt lat="45.68925" lon="4.71409">
        <ele>304.4</ele>
        <time>2019-09-22T07:17:27Z</time>
      </trkpt>
      <trkpt lat="45.68921" lon="4.71406">
        <ele>304.6</ele>
        <time>2019-09-22T07:17:28Z</time>
      </trkpt>
      <trkpt lat="45.68901" lon="4.71392">
        <ele>305.6</ele>
        <time>2019-09-22T07:17:33Z</time>
      </trkpt>
      <trkpt lat="45.6889" lon="4.71383">
        <ele>306.2</ele>
        <time>2019-09-22T07:17:36Z</time>
      </trkpt>
      <trkpt lat="45.68883" lon="4.71376">
        <ele>306.5</ele>
        <time>2019-09-22T07:17:38Z</time>
      </trkpt>
      <trkpt lat="45.68869" lon="4.71365">
        <ele>306.9</ele>
        <time>2019-09-22T07:17:42Z</time>
      </trkpt>
      <trkpt lat="45.68862" lon="4.71359">
        <ele>307.2</ele>
        <time>2019-09-22T07:17:44Z</time>
      </trkpt>
      <trkpt lat="45.68841" lon="4.71343">
        <ele>308.2</ele>
        <time>2019-09-22T07:17:50Z</time>
      </trkpt>
      <trkpt lat="45.68834" lon="4.71338">
        <ele>308.6</ele>
        <time>2019-09-22T07:17:52Z</time>
      </trkpt>
      <trkpt lat="45.68817" lon="4.71323">
        <ele>309.6</ele>
        <time>2019-09-22T07:17:57Z</time>
      </trkpt>
      <trkpt lat="45.68808" lon="4.71314">
        <ele>310.4</ele>
        <time>2019-09-22T07:18:00Z</time>
      </trkpt>
      <trkpt lat="45.68802" lon="4.71307">
        <ele>310.9</ele>
        <time>2019-09-22T07:18:02Z</time>
      </trkpt>
      <trkpt lat="45.68792" lon="4.71293">
        <ele>312</ele>
        <time>2019-09-22T07:18:06Z</time>
      </trkpt>
      <trkpt lat="45.6879" lon="4.71289">
        <ele>312.3</ele>
        <time>2019-09-22T07:18:07Z</time>
      </trkpt>
      <trkpt lat="45.68784" lon="4.71276">
        <ele>313</ele>
        <time>2019-09-22T07:18:10Z</time>
      </trkpt>
      <trkpt lat="45.68778" lon="4.7126">
        <ele>313.5</ele>
        <time>2019-09-22T07:18:14Z</time>
      </trkpt>
      <trkpt lat="45.68776" lon="4.71252">
        <ele>313.8</ele>
        <time>2019-09-22T07:18:16Z</time>
      </trkpt>
      <trkpt lat="45.68771" lon="4.7123">
        <ele>314.6</ele>
        <time>2019-09-22T07:18:21Z</time>
      </trkpt>
      <trkpt lat="45.6877" lon="4.71225">
        <ele>314.8</ele>
        <time>2019-09-22T07:18:22Z</time>
      </trkpt>
      <trkpt lat="45.6876" lon="4.71187">
        <ele>315.6</ele>
        <time>2019-09-22T07:18:30Z</time>
      </trkpt>
      <trkpt lat="45.68747" lon="4.7114">
        <ele>316.7</ele>
        <time>2019-09-22T07:18:40Z</time>
      </trkpt>
      <trkpt lat="45.6874" lon="4.71111">
        <ele>317.7</ele>
        <time>2019-09-22T07:18:47Z</time>
      </trkpt>
      <trkpt lat="45.68737" lon="4.71103">
        <ele>318</ele>
        <time>2019-09-22T07:18:49Z</time>
      </trkpt>
      <trkpt lat="45.68731" lon="4.71083">
        <ele>318.9</ele>
        <time>2019-09-22T07:18:54Z</time>
      </trkpt>
      <trkpt lat="45.68726" lon="4.71067">
        <ele>319.6</ele>
        <time>2019-09-22T07:18:58Z</time>
      </trkpt>
      <trkpt lat="45.6872" lon="4.71046">
        <ele>320.2</ele>
        <time>2019-09-22T07:19:03Z</time>
      </trkpt>
      <trkpt lat="45.68715" lon="4.71026">
        <ele>320.7</ele>
        <time>2019-09-22T07:19:08Z</time>
      </trkpt>
      <trkpt lat="45.68711" lon="4.71">
        <ele>321.4</ele>
        <time>2019-09-22T07:19:14Z</time>
      </trkpt>
      <trkpt lat="45.68711" lon="4.70991">
        <ele>321.6</ele>
        <time>2019-09-22T07:19:16Z</time>
      </trkpt>
      <trkpt lat="45.68712" lon="4.70981">
        <ele>321.9</ele>
        <time>2019-09-22T07:19:18Z</time>
      </trkpt>
      <trkpt lat="45.68718" lon="4.70961">
        <ele>322.3</ele>
        <time>2019-09-22T07:19:23Z</time>
      </trkpt>
      <trkpt lat="45.68722" lon="4.7095">
        <ele>322.4</ele>
        <time>2019-09-22T07:19:26Z</time>
      </trkpt>
      <trkpt lat="45.6873" lon="4.7093">
        <ele>322.4</ele>
        <time>2019-09-22T07:19:31Z</time>
      </trkpt>
      <trkpt lat="45.68741" lon="4.70916">
        <ele>322.3</ele>
        <time>2019-09-22T07:19:35Z</time>
      </trkpt>
      <trkpt lat="45.68748" lon="4.70908">
        <ele>322.1</ele>
        <time>2019-09-22T07:19:37Z</time>
      </trkpt>
      <trkpt lat="45.68766" lon="4.70884">
        <ele>321.4</ele>
        <time>2019-09-22T07:19:42Z</time>
      </trkpt>
      <trkpt lat="45.68789" lon="4.70844">
        <ele>320.4</ele>
        <time>2019-09-22T07:19:49Z</time>
      </trkpt>
      <trkpt lat="45.688" lon="4.70813">
        <ele>319.5</ele>
        <time>2019-09-22T07:19:53Z</time>
      </trkpt>
      <trkpt lat="45.68803" lon="4.70805">
        <ele>319.2</ele>
        <time>2019-09-22T07:19:54Z</time>
      </trkpt>
      <trkpt lat="45.68811" lon="4.70788">
        <ele>318.3</ele>
        <time>2019-09-22T07:19:56Z</time>
      </trkpt>
      <trkpt lat="45.68813" lon="4.70779">
        <ele>317.8</ele>
        <time>2019-09-22T07:19:57Z</time>
      </trkpt>
      <trkpt lat="45.68818" lon="4.70759">
        <ele>317.1</ele>
        <time>2019-09-22T07:19:59Z</time>
      </trkpt>
      <trkpt lat="45.68828" lon="4.70728">
        <ele>315.3</ele>
        <time>2019-09-22T07:20:02Z</time>
      </trkpt>
      <trkpt lat="45.68831" lon="4.70718">
        <ele>314.7</ele>
        <time>2019-09-22T07:20:03Z</time>
      </trkpt>
      <trkpt lat="45.68837" lon="4.707">
        <ele>313.7</ele>
        <time>2019-09-22T07:20:05Z</time>
      </trkpt>
      <trkpt lat="45.6884" lon="4.7069">
        <ele>313.4</ele>
        <time>2019-09-22T07:20:07Z</time>
      </trkpt>
      <trkpt lat="45.68839" lon="4.70688">
        <ele>313.3</ele>
        <time>2019-09-22T07:20:08Z</time>
      </trkpt>
      <trkpt lat="45.68841" lon="4.70683">
        <ele>313.2</ele>
        <time>2019-09-22T07:20:10Z</time>
      </trkpt>
      <trkpt lat="45.68846" lon="4.7067">
        <ele>312.7</ele>
        <time>2019-09-22T07:20:13Z</time>
      </trkpt>
      <trkpt lat="45.6885" lon="4.70659">
        <ele>312.4</ele>
        <time>2019-09-22T07:20:15Z</time>
      </trkpt>
      <trkpt lat="45.68855" lon="4.70646">
        <ele>312.2</ele>
        <time>2019-09-22T07:20:17Z</time>
      </trkpt>
      <trkpt lat="45.68868" lon="4.70619">
        <ele>311.9</ele>
        <time>2019-09-22T07:20:21Z</time>
      </trkpt>
      <trkpt lat="45.68871" lon="4.70613">
        <ele>311.8</ele>
        <time>2019-09-22T07:20:22Z</time>
      </trkpt>
      <trkpt lat="45.68897" lon="4.70573">
        <ele>311.2</ele>
        <time>2019-09-22T07:20:28Z</time>
      </trkpt>
      <trkpt lat="45.68907" lon="4.70561">
        <ele>310.9</ele>
        <time>2019-09-22T07:20:30Z</time>
      </trkpt>
      <trkpt lat="45.68934" lon="4.70534">
        <ele>310.1</ele>
        <time>2019-09-22T07:20:35Z</time>
      </trkpt>
      <trkpt lat="45.68977" lon="4.70506">
        <ele>309.2</ele>
        <time>2019-09-22T07:20:42Z</time>
      </trkpt>
      <trkpt lat="45.6899" lon="4.70501">
        <ele>308.9</ele>
        <time>2019-09-22T07:20:44Z</time>
      </trkpt>
      <trkpt lat="45.69018" lon="4.70494">
        <ele>308.3</ele>
        <time>2019-09-22T07:20:48Z</time>
      </trkpt>
      <trkpt lat="45.69059" lon="4.70492">
        <ele>307.7</ele>
        <time>2019-09-22T07:20:54Z</time>
      </trkpt>
      <trkpt lat="45.69072" lon="4.70494">
        <ele>307.4</ele>
        <time>2019-09-22T07:20:56Z</time>
      </trkpt>
      <trkpt lat="45.69106" lon="4.70503">
        <ele>306.8</ele>
        <time>2019-09-22T07:21:01Z</time>
      </trkpt>
      <trkpt lat="45.69155" lon="4.70515">
        <ele>305.7</ele>
        <time>2019-09-22T07:21:08Z</time>
      </trkpt>
      <trkpt lat="45.69162" lon="4.70517">
        <ele>305.7</ele>
        <time>2019-09-22T07:21:09Z</time>
      </trkpt>
      <trkpt lat="45.69174" lon="4.7052">
        <ele>305.6</ele>
        <time>2019-09-22T07:21:11Z</time>
      </trkpt>
      <trkpt lat="45.69188" lon="4.70519">
        <ele>305.2</ele>
        <time>2019-09-22T07:21:13Z</time>
      </trkpt>
      <trkpt lat="45.69229" lon="4.70511">
        <ele>304.1</ele>
        <time>2019-09-22T07:21:19Z</time>
      </trkpt>
      <trkpt lat="45.69236" lon="4.70509">
        <ele>304</ele>
        <time>2019-09-22T07:21:20Z</time>
      </trkpt>
      <trkpt lat="45.69271" lon="4.70491">
        <ele>303.2</ele>
        <time>2019-09-22T07:21:25Z</time>
      </trkpt>
      <trkpt lat="45.69277" lon="4.70486">
        <ele>303</ele>
        <time>2019-09-22T07:21:26Z</time>
      </trkpt>
      <trkpt lat="45.69297" lon="4.70471">
        <ele>302.5</ele>
        <time>2019-09-22T07:21:29Z</time>
      </trkpt>
      <trkpt lat="45.69315" lon="4.70453">
        <ele>302.2</ele>
        <time>2019-09-22T07:21:32Z</time>
      </trkpt>
      <trkpt lat="45.69321" lon="4.70446">
        <ele>302.1</ele>
        <time>2019-09-22T07:21:33Z</time>
      </trkpt>
      <trkpt lat="45.69346" lon="4.7041">
        <ele>302</ele>
        <time>2019-09-22T07:21:38Z</time>
      </trkpt>
      <trkpt lat="45.6935" lon="4.70402">
        <ele>302</ele>
        <time>2019-09-22T07:21:39Z</time>
      </trkpt>
      <trkpt lat="45.69372" lon="4.70356">
        <ele>302</ele>
        <time>2019-09-22T07:21:45Z</time>
      </trkpt>
      <trkpt lat="45.69375" lon="4.70347">
        <ele>302</ele>
        <time>2019-09-22T07:21:46Z</time>
      </trkpt>
      <trkpt lat="45.6939" lon="4.70301">
        <ele>301.7</ele>
        <time>2019-09-22T07:21:51Z</time>
      </trkpt>
      <trkpt lat="45.69392" lon="4.70291">
        <ele>301.5</ele>
        <time>2019-09-22T07:21:52Z</time>
      </trkpt>
      <trkpt lat="45.69399" lon="4.70241">
        <ele>300.2</ele>
        <time>2019-09-22T07:21:57Z</time>
      </trkpt>
      <trkpt lat="45.69401" lon="4.70221">
        <ele>300</ele>
        <time>2019-09-22T07:21:59Z</time>
      </trkpt>
      <trkpt lat="45.69401" lon="4.70176">
        <ele>299.8</ele>
        <time>2019-09-22T07:22:03Z</time>
      </trkpt>
      <trkpt lat="45.69399" lon="4.70154">
        <ele>299.3</ele>
        <time>2019-09-22T07:22:05Z</time>
      </trkpt>
      <trkpt lat="45.69393" lon="4.70112">
        <ele>298.1</ele>
        <time>2019-09-22T07:22:09Z</time>
      </trkpt>
      <trkpt lat="45.69388" lon="4.7009">
        <ele>297.6</ele>
        <time>2019-09-22T07:22:11Z</time>
      </trkpt>
      <trkpt lat="45.69379" lon="4.70059">
        <ele>296.7</ele>
        <time>2019-09-22T07:22:14Z</time>
      </trkpt>
      <trkpt lat="45.69367" lon="4.7003">
        <ele>296</ele>
        <time>2019-09-22T07:22:17Z</time>
      </trkpt>
      <trkpt lat="45.69353" lon="4.70006">
        <ele>294.8</ele>
        <time>2019-09-22T07:22:20Z</time>
      </trkpt>
      <trkpt lat="45.69351" lon="4.69998">
        <ele>294.4</ele>
        <time>2019-09-22T07:22:21Z</time>
      </trkpt>
      <trkpt lat="45.69343" lon="4.69982">
        <ele>294</ele>
        <time>2019-09-22T07:22:23Z</time>
      </trkpt>
      <trkpt lat="45.6933" lon="4.69956">
        <ele>294</ele>
        <time>2019-09-22T07:22:26Z</time>
      </trkpt>
      <trkpt lat="45.69307" lon="4.69897">
        <ele>292.1</ele>
        <time>2019-09-22T07:22:32Z</time>
      </trkpt>
      <trkpt lat="45.69304" lon="4.69887">
        <ele>291.9</ele>
        <time>2019-09-22T07:22:33Z</time>
      </trkpt>
      <trkpt lat="45.69292" lon="4.6983">
        <ele>290.7</ele>
        <time>2019-09-22T07:22:38Z</time>
      </trkpt>
      <trkpt lat="45.69287" lon="4.69772">
        <ele>289.7</ele>
        <time>2019-09-22T07:22:43Z</time>
      </trkpt>
      <trkpt lat="45.69287" lon="4.6976">
        <ele>289.6</ele>
        <time>2019-09-22T07:22:44Z</time>
      </trkpt>
      <trkpt lat="45.69291" lon="4.69697">
        <ele>288.7</ele>
        <time>2019-09-22T07:22:50Z</time>
      </trkpt>
      <trkpt lat="45.69302" lon="4.69637">
        <ele>288.6</ele>
        <time>2019-09-22T07:22:56Z</time>
      </trkpt>
      <trkpt lat="45.69319" lon="4.6958">
        <ele>288.3</ele>
        <time>2019-09-22T07:23:02Z</time>
      </trkpt>
      <trkpt lat="45.69344" lon="4.6953">
        <ele>287.6</ele>
        <time>2019-09-22T07:23:08Z</time>
      </trkpt>
      <trkpt lat="45.69369" lon="4.69497">
        <ele>288.3</ele>
        <time>2019-09-22T07:23:13Z</time>
      </trkpt>
      <trkpt lat="45.6938" lon="4.69487">
        <ele>288.6</ele>
        <time>2019-09-22T07:23:15Z</time>
      </trkpt>
      <trkpt lat="45.694" lon="4.6947">
        <ele>289.2</ele>
        <time>2019-09-22T07:23:19Z</time>
      </trkpt>
      <trkpt lat="45.6941" lon="4.69464">
        <ele>289.4</ele>
        <time>2019-09-22T07:23:21Z</time>
      </trkpt>
      <trkpt lat="45.69449" lon="4.69448">
        <ele>292.7</ele>
        <time>2019-09-22T07:23:28Z</time>
      </trkpt>
      <trkpt lat="45.69455" lon="4.69448">
        <ele>293.1</ele>
        <time>2019-09-22T07:23:29Z</time>
      </trkpt>
      <trkpt lat="45.69469" lon="4.69452">
        <ele>294.2</ele>
        <time>2019-09-22T07:23:32Z</time>
      </trkpt>
      <trkpt lat="45.69473" lon="4.69454">
        <ele>294.5</ele>
        <time>2019-09-22T07:23:33Z</time>
      </trkpt>
      <trkpt lat="45.69487" lon="4.6946">
        <ele>295.4</ele>
        <time>2019-09-22T07:23:37Z</time>
      </trkpt>
      <trkpt lat="45.69499" lon="4.69464">
        <ele>296.3</ele>
        <time>2019-09-22T07:23:40Z</time>
      </trkpt>
      <trkpt lat="45.69503" lon="4.69464">
        <ele>296.6</ele>
        <time>2019-09-22T07:23:41Z</time>
      </trkpt>
      <trkpt lat="45.69507" lon="4.69462">
        <ele>297</ele>
        <time>2019-09-22T07:23:42Z</time>
      </trkpt>
      <trkpt lat="45.69511" lon="4.69458">
        <ele>297.4</ele>
        <time>2019-09-22T07:23:44Z</time>
      </trkpt>
      <trkpt lat="45.69512" lon="4.69456">
        <ele>297.6</ele>
        <time>2019-09-22T07:23:45Z</time>
      </trkpt>
      <trkpt lat="45.69513" lon="4.69454">
        <ele>297.7</ele>
        <time>2019-09-22T07:23:46Z</time>
      </trkpt>
      <trkpt lat="45.69515" lon="4.69452">
        <ele>297.9</ele>
        <time>2019-09-22T07:23:47Z</time>
      </trkpt>
      <trkpt lat="45.6952" lon="4.69447">
        <ele>298.4</ele>
        <time>2019-09-22T07:23:50Z</time>
      </trkpt>
      <trkpt lat="45.69526" lon="4.69443">
        <ele>298.9</ele>
        <time>2019-09-22T07:23:52Z</time>
      </trkpt>
      <trkpt lat="45.69529" lon="4.69442">
        <ele>299.2</ele>
        <time>2019-09-22T07:23:53Z</time>
      </trkpt>
      <trkpt lat="45.69556" lon="4.69435">
        <ele>299.7</ele>
        <time>2019-09-22T07:24:01Z</time>
      </trkpt>
      <trkpt lat="45.6958" lon="4.69439">
        <ele>298.4</ele>
        <time>2019-09-22T07:24:06Z</time>
      </trkpt>
      <trkpt lat="45.69591" lon="4.6944">
        <ele>298.3</ele>
        <time>2019-09-22T07:24:08Z</time>
      </trkpt>
      <trkpt lat="45.69614" lon="4.69439">
        <ele>298.2</ele>
        <time>2019-09-22T07:24:12Z</time>
      </trkpt>
      <trkpt lat="45.6962" lon="4.69438">
        <ele>297.9</ele>
        <time>2019-09-22T07:24:13Z</time>
      </trkpt>
      <trkpt lat="45.6965" lon="4.69427">
        <ele>297.7</ele>
        <time>2019-09-22T07:24:18Z</time>
      </trkpt>
      <trkpt lat="45.69698" lon="4.69403">
        <ele>296.9</ele>
        <time>2019-09-22T07:24:26Z</time>
      </trkpt>
      <trkpt lat="45.69727" lon="4.69382">
        <ele>297.7</ele>
        <time>2019-09-22T07:24:31Z</time>
      </trkpt>
      <trkpt lat="45.69732" lon="4.69377">
        <ele>297.9</ele>
        <time>2019-09-22T07:24:32Z</time>
      </trkpt>
      <trkpt lat="45.69778" lon="4.69337">
        <ele>298.2</ele>
        <time>2019-09-22T07:24:41Z</time>
      </trkpt>
      <trkpt lat="45.69797" lon="4.69321">
        <ele>299</ele>
        <time>2019-09-22T07:24:45Z</time>
      </trkpt>
      <trkpt lat="45.69804" lon="4.69311">
        <ele>299.4</ele>
        <time>2019-09-22T07:24:47Z</time>
      </trkpt>
      <trkpt lat="45.69812" lon="4.69307">
        <ele>299.9</ele>
        <time>2019-09-22T07:24:49Z</time>
      </trkpt>
      <trkpt lat="45.69817" lon="4.69304">
        <ele>300.2</ele>
        <time>2019-09-22T07:24:50Z</time>
      </trkpt>
      <trkpt lat="45.69833" lon="4.69289">
        <ele>301.3</ele>
        <time>2019-09-22T07:24:54Z</time>
      </trkpt>
      <trkpt lat="45.69835" lon="4.69284">
        <ele>301.5</ele>
        <time>2019-09-22T07:24:55Z</time>
      </trkpt>
      <trkpt lat="45.69838" lon="4.69272">
        <ele>301.9</ele>
        <time>2019-09-22T07:24:57Z</time>
      </trkpt>
      <trkpt lat="45.69841" lon="4.69254">
        <ele>302.5</ele>
        <time>2019-09-22T07:25:00Z</time>
      </trkpt>
      <trkpt lat="45.69842" lon="4.69243">
        <ele>302.8</ele>
        <time>2019-09-22T07:25:02Z</time>
      </trkpt>
      <trkpt lat="45.69844" lon="4.69225">
        <ele>303.4</ele>
        <time>2019-09-22T07:25:05Z</time>
      </trkpt>
      <trkpt lat="45.69846" lon="4.69214">
        <ele>303.7</ele>
        <time>2019-09-22T07:25:07Z</time>
      </trkpt>
      <trkpt lat="45.69847" lon="4.69209">
        <ele>303.8</ele>
        <time>2019-09-22T07:25:08Z</time>
      </trkpt>
      <trkpt lat="45.69852" lon="4.69192">
        <ele>304.4</ele>
        <time>2019-09-22T07:25:11Z</time>
      </trkpt>
      <trkpt lat="45.69859" lon="4.69169">
        <ele>305.2</ele>
        <time>2019-09-22T07:25:15Z</time>
      </trkpt>
      <trkpt lat="45.69868" lon="4.69141">
        <ele>306</ele>
        <time>2019-09-22T07:25:20Z</time>
      </trkpt>
      <trkpt lat="45.69876" lon="4.69117">
        <ele>306.7</ele>
        <time>2019-09-22T07:25:24Z</time>
      </trkpt>
      <trkpt lat="45.69879" lon="4.69105">
        <ele>307</ele>
        <time>2019-09-22T07:25:26Z</time>
      </trkpt>
      <trkpt lat="45.69883" lon="4.69093">
        <ele>307.3</ele>
        <time>2019-09-22T07:25:28Z</time>
      </trkpt>
      <trkpt lat="45.69891" lon="4.69059">
        <ele>308.4</ele>
        <time>2019-09-22T07:25:34Z</time>
      </trkpt>
      <trkpt lat="45.69892" lon="4.69053">
        <ele>308.5</ele>
        <time>2019-09-22T07:25:35Z</time>
      </trkpt>
      <trkpt lat="45.69894" lon="4.69028">
        <ele>308.8</ele>
        <time>2019-09-22T07:25:39Z</time>
      </trkpt>
      <trkpt lat="45.69895" lon="4.69002">
        <ele>309.1</ele>
        <time>2019-09-22T07:25:43Z</time>
      </trkpt>
      <trkpt lat="45.69896" lon="4.68983">
        <ele>309.3</ele>
        <time>2019-09-22T07:25:46Z</time>
      </trkpt>
      <trkpt lat="45.69898" lon="4.68934">
        <ele>310.3</ele>
        <time>2019-09-22T07:25:54Z</time>
      </trkpt>
      <trkpt lat="45.69903" lon="4.68865">
        <ele>312.3</ele>
        <time>2019-09-22T07:26:05Z</time>
      </trkpt>
      <trkpt lat="45.69903" lon="4.68859">
        <ele>312.6</ele>
        <time>2019-09-22T07:26:06Z</time>
      </trkpt>
      <trkpt lat="45.69906" lon="4.68823">
        <ele>314.5</ele>
        <time>2019-09-22T07:26:12Z</time>
      </trkpt>
      <trkpt lat="45.69909" lon="4.68779">
        <ele>316.3</ele>
        <time>2019-09-22T07:26:19Z</time>
      </trkpt>
      <trkpt lat="45.6991" lon="4.68766">
        <ele>316.8</ele>
        <time>2019-09-22T07:26:21Z</time>
      </trkpt>
      <trkpt lat="45.69912" lon="4.68754">
        <ele>317</ele>
        <time>2019-09-22T07:26:23Z</time>
      </trkpt>
      <trkpt lat="45.69915" lon="4.68744">
        <ele>317.3</ele>
        <time>2019-09-22T07:26:25Z</time>
      </trkpt>
      <trkpt lat="45.69917" lon="4.68738">
        <ele>317.4</ele>
        <time>2019-09-22T07:26:26Z</time>
      </trkpt>
      <trkpt lat="45.69919" lon="4.68734">
        <ele>317.3</ele>
        <time>2019-09-22T07:26:27Z</time>
      </trkpt>
      <trkpt lat="45.69923" lon="4.68723">
        <ele>317.5</ele>
        <time>2019-09-22T07:26:29Z</time>
      </trkpt>
      <trkpt lat="45.69925" lon="4.68718">
        <ele>317.5</ele>
        <time>2019-09-22T07:26:30Z</time>
      </trkpt>
      <trkpt lat="45.69927" lon="4.68713">
        <ele>317.6</ele>
        <time>2019-09-22T07:26:31Z</time>
      </trkpt>
      <trkpt lat="45.6993" lon="4.68708">
        <ele>317.7</ele>
        <time>2019-09-22T07:26:32Z</time>
      </trkpt>
      <trkpt lat="45.69935" lon="4.68697">
        <ele>317.8</ele>
        <time>2019-09-22T07:26:34Z</time>
      </trkpt>
      <trkpt lat="45.69945" lon="4.68685">
        <ele>318</ele>
        <time>2019-09-22T07:26:37Z</time>
      </trkpt>
      <trkpt lat="45.69948" lon="4.68682">
        <ele>318</ele>
        <time>2019-09-22T07:26:38Z</time>
      </trkpt>
      <trkpt lat="45.69952" lon="4.68672">
        <ele>318.4</ele>
        <time>2019-09-22T07:26:40Z</time>
      </trkpt>
      <trkpt lat="45.69954" lon="4.68666">
        <ele>318.5</ele>
        <time>2019-09-22T07:26:41Z</time>
      </trkpt>
      <trkpt lat="45.69957" lon="4.68655">
        <ele>318.7</ele>
        <time>2019-09-22T07:26:43Z</time>
      </trkpt>
      <trkpt lat="45.69958" lon="4.68649">
        <ele>318.8</ele>
        <time>2019-09-22T07:26:44Z</time>
      </trkpt>
      <trkpt lat="45.69964" lon="4.68616">
        <ele>319.3</ele>
        <time>2019-09-22T07:26:49Z</time>
      </trkpt>
      <trkpt lat="45.69975" lon="4.6856">
        <ele>319.7</ele>
        <time>2019-09-22T07:26:58Z</time>
      </trkpt>
      <trkpt lat="45.69983" lon="4.6851">
        <ele>321.3</ele>
        <time>2019-09-22T07:27:06Z</time>
      </trkpt>
      <trkpt lat="45.69991" lon="4.68469">
        <ele>322.6</ele>
        <time>2019-09-22T07:27:13Z</time>
      </trkpt>
      <trkpt lat="45.69992" lon="4.68463">
        <ele>322.8</ele>
        <time>2019-09-22T07:27:14Z</time>
      </trkpt>
      <trkpt lat="45.69995" lon="4.68437">
        <ele>323.3</ele>
        <time>2019-09-22T07:27:19Z</time>
      </trkpt>
      <trkpt lat="45.69995" lon="4.68427">
        <ele>323.6</ele>
        <time>2019-09-22T07:27:21Z</time>
      </trkpt>
      <trkpt lat="45.69992" lon="4.68409">
        <ele>324.3</ele>
        <time>2019-09-22T07:27:25Z</time>
      </trkpt>
      <trkpt lat="45.69989" lon="4.68394">
        <ele>324.8</ele>
        <time>2019-09-22T07:27:28Z</time>
      </trkpt>
      <trkpt lat="45.69988" lon="4.68389">
        <ele>325</ele>
        <time>2019-09-22T07:27:29Z</time>
      </trkpt>
      <trkpt lat="45.69983" lon="4.68362">
        <ele>326.3</ele>
        <time>2019-09-22T07:27:35Z</time>
      </trkpt>
      <trkpt lat="45.69983" lon="4.68358">
        <ele>326.6</ele>
        <time>2019-09-22T07:27:36Z</time>
      </trkpt>
      <trkpt lat="45.69981" lon="4.68344">
        <ele>327.2</ele>
        <time>2019-09-22T07:27:39Z</time>
      </trkpt>
      <trkpt lat="45.69978" lon="4.68332">
        <ele>327.8</ele>
        <time>2019-09-22T07:27:42Z</time>
      </trkpt>
      <trkpt lat="45.69977" lon="4.68327">
        <ele>328</ele>
        <time>2019-09-22T07:27:43Z</time>
      </trkpt>
      <trkpt lat="45.69976" lon="4.68318">
        <ele>328.3</ele>
        <time>2019-09-22T07:27:45Z</time>
      </trkpt>
      <trkpt lat="45.69973" lon="4.68294">
        <ele>329.1</ele>
        <time>2019-09-22T07:27:50Z</time>
      </trkpt>
      <trkpt lat="45.69972" lon="4.6827">
        <ele>330.6</ele>
        <time>2019-09-22T07:27:55Z</time>
      </trkpt>
      <trkpt lat="45.69973" lon="4.68257">
        <ele>331.5</ele>
        <time>2019-09-22T07:27:58Z</time>
      </trkpt>
      <trkpt lat="45.69975" lon="4.68249">
        <ele>332.1</ele>
        <time>2019-09-22T07:28:00Z</time>
      </trkpt>
      <trkpt lat="45.69978" lon="4.68237">
        <ele>333</ele>
        <time>2019-09-22T07:28:04Z</time>
      </trkpt>
      <trkpt lat="45.69979" lon="4.68234">
        <ele>333.2</ele>
        <time>2019-09-22T07:28:05Z</time>
      </trkpt>
      <trkpt lat="45.69981" lon="4.68224">
        <ele>333.8</ele>
        <time>2019-09-22T07:28:08Z</time>
      </trkpt>
      <trkpt lat="45.69983" lon="4.68212">
        <ele>334.5</ele>
        <time>2019-09-22T07:28:11Z</time>
      </trkpt>
      <trkpt lat="45.69984" lon="4.68209">
        <ele>334.7</ele>
        <time>2019-09-22T07:28:12Z</time>
      </trkpt>
      <trkpt lat="45.6999" lon="4.68193">
        <ele>335.8</ele>
        <time>2019-09-22T07:28:17Z</time>
      </trkpt>
      <trkpt lat="45.69993" lon="4.68187">
        <ele>336.2</ele>
        <time>2019-09-22T07:28:19Z</time>
      </trkpt>
      <trkpt lat="45.69999" lon="4.68169">
        <ele>337.2</ele>
        <time>2019-09-22T07:28:25Z</time>
      </trkpt>
      <trkpt lat="45.7" lon="4.68166">
        <ele>337.4</ele>
        <time>2019-09-22T07:28:26Z</time>
      </trkpt>
      <trkpt lat="45.70004" lon="4.68151">
        <ele>338.6</ele>
        <time>2019-09-22T07:28:31Z</time>
      </trkpt>
      <trkpt lat="45.70005" lon="4.68148">
        <ele>338.8</ele>
        <time>2019-09-22T07:28:32Z</time>
      </trkpt>
      <trkpt lat="45.70013" lon="4.68128">
        <ele>340.4</ele>
        <time>2019-09-22T07:28:39Z</time>
      </trkpt>
      <trkpt lat="45.70015" lon="4.68123">
        <ele>340.8</ele>
        <time>2019-09-22T07:28:41Z</time>
      </trkpt>
      <trkpt lat="45.70022" lon="4.68103">
        <ele>341.8</ele>
        <time>2019-09-22T07:28:48Z</time>
      </trkpt>
      <trkpt lat="45.70024" lon="4.68089">
        <ele>342.3</ele>
        <time>2019-09-22T07:28:52Z</time>
      </trkpt>
      <trkpt lat="45.70025" lon="4.68081">
        <ele>342.6</ele>
        <time>2019-09-22T07:28:54Z</time>
      </trkpt>
      <trkpt lat="45.70031" lon="4.68055">
        <ele>343.4</ele>
        <time>2019-09-22T07:29:00Z</time>
      </trkpt>
      <trkpt lat="45.70041" lon="4.68022">
        <ele>344.6</ele>
        <time>2019-09-22T07:29:07Z</time>
      </trkpt>
      <trkpt lat="45.70056" lon="4.67989">
        <ele>345.5</ele>
        <time>2019-09-22T07:29:15Z</time>
      </trkpt>
      <trkpt lat="45.70058" lon="4.67989">
        <ele>345.6</ele>
        <time>2019-09-22T07:29:16Z</time>
      </trkpt>
      <trkpt lat="45.70061" lon="4.67993">
        <ele>345.8</ele>
        <time>2019-09-22T07:29:18Z</time>
      </trkpt>
      <trkpt lat="45.70065" lon="4.67999">
        <ele>346</ele>
        <time>2019-09-22T07:29:20Z</time>
      </trkpt>
      <trkpt lat="45.70074" lon="4.68014">
        <ele>346.4</ele>
        <time>2019-09-22T07:29:23Z</time>
      </trkpt>
      <trkpt lat="45.70084" lon="4.68028">
        <ele>347</ele>
        <time>2019-09-22T07:29:26Z</time>
      </trkpt>
      <trkpt lat="45.70094" lon="4.68034">
        <ele>347.2</ele>
        <time>2019-09-22T07:29:29Z</time>
      </trkpt>
      <trkpt lat="45.70105" lon="4.68026">
        <ele>347.7</ele>
        <time>2019-09-22T07:29:33Z</time>
      </trkpt>
      <trkpt lat="45.70117" lon="4.68006">
        <ele>348.5</ele>
        <time>2019-09-22T07:29:38Z</time>
      </trkpt>
      <trkpt lat="45.70122" lon="4.67999">
        <ele>348.6</ele>
        <time>2019-09-22T07:29:40Z</time>
      </trkpt>
      <trkpt lat="45.70125" lon="4.67995">
        <ele>348.7</ele>
        <time>2019-09-22T07:29:41Z</time>
      </trkpt>
      <trkpt lat="45.70137" lon="4.67975">
        <ele>348.8</ele>
        <time>2019-09-22T07:29:46Z</time>
      </trkpt>
      <trkpt lat="45.70139" lon="4.67971">
        <ele>348.8</ele>
        <time>2019-09-22T07:29:47Z</time>
      </trkpt>
      <trkpt lat="45.70149" lon="4.67953">
        <ele>348.8</ele>
        <time>2019-09-22T07:29:51Z</time>
      </trkpt>
      <trkpt lat="45.70155" lon="4.67945">
        <ele>348.8</ele>
        <time>2019-09-22T07:29:53Z</time>
      </trkpt>
      <trkpt lat="45.70171" lon="4.67938">
        <ele>348.4</ele>
        <time>2019-09-22T07:29:57Z</time>
      </trkpt>
      <trkpt lat="45.70175" lon="4.67938">
        <ele>348.3</ele>
        <time>2019-09-22T07:29:58Z</time>
      </trkpt>
      <trkpt lat="45.70213" lon="4.67938">
        <ele>347.6</ele>
        <time>2019-09-22T07:30:06Z</time>
      </trkpt>
      <trkpt lat="45.7026" lon="4.67936">
        <ele>346.4</ele>
        <time>2019-09-22T07:30:15Z</time>
      </trkpt>
      <trkpt lat="45.7027" lon="4.67933">
        <ele>346.2</ele>
        <time>2019-09-22T07:30:17Z</time>
      </trkpt>
      <trkpt lat="45.70286" lon="4.67923">
        <ele>346</ele>
        <time>2019-09-22T07:30:20Z</time>
      </trkpt>
      <trkpt lat="45.70292" lon="4.67919">
        <ele>346.1</ele>
        <time>2019-09-22T07:30:21Z</time>
      </trkpt>
      <trkpt lat="45.70312" lon="4.67909">
        <ele>346.3</ele>
        <time>2019-09-22T07:30:25Z</time>
      </trkpt>
      <trkpt lat="45.70317" lon="4.67908">
        <ele>346.4</ele>
        <time>2019-09-22T07:30:26Z</time>
      </trkpt>
      <trkpt lat="45.7035" lon="4.67909">
        <ele>346.8</ele>
        <time>2019-09-22T07:30:32Z</time>
      </trkpt>
      <trkpt lat="45.70372" lon="4.67909">
        <ele>346.2</ele>
        <time>2019-09-22T07:30:36Z</time>
      </trkpt>
      <trkpt lat="45.70375" lon="4.67904">
        <ele>346</ele>
        <time>2019-09-22T07:30:37Z</time>
      </trkpt>
      <trkpt lat="45.70373" lon="4.67892">
        <ele>346.2</ele>
        <time>2019-09-22T07:30:39Z</time>
      </trkpt>
      <trkpt lat="45.70368" lon="4.67877">
        <ele>346.5</ele>
        <time>2019-09-22T07:30:42Z</time>
      </trkpt>
      <trkpt lat="45.70367" lon="4.67868">
        <ele>346.6</ele>
        <time>2019-09-22T07:30:44Z</time>
      </trkpt>
      <trkpt lat="45.70375" lon="4.67865">
        <ele>346.4</ele>
        <time>2019-09-22T07:30:47Z</time>
      </trkpt>
      <trkpt lat="45.70379" lon="4.67866">
        <ele>346.3</ele>
        <time>2019-09-22T07:30:48Z</time>
      </trkpt>
      <trkpt lat="45.70398" lon="4.67871">
        <ele>345.9</ele>
        <time>2019-09-22T07:30:52Z</time>
      </trkpt>
      <trkpt lat="45.70436" lon="4.67871">
        <ele>345.4</ele>
        <time>2019-09-22T07:30:58Z</time>
      </trkpt>
      <trkpt lat="45.70443" lon="4.67871">
        <ele>345.2</ele>
        <time>2019-09-22T07:30:59Z</time>
      </trkpt>
      <trkpt lat="45.70466" lon="4.67868">
        <ele>344.7</ele>
        <time>2019-09-22T07:31:02Z</time>
      </trkpt>
      <trkpt lat="45.70481" lon="4.67863">
        <ele>344.4</ele>
        <time>2019-09-22T07:31:04Z</time>
      </trkpt>
      <trkpt lat="45.70487" lon="4.67857">
        <ele>344.3</ele>
        <time>2019-09-22T07:31:05Z</time>
      </trkpt>
      <trkpt lat="45.70493" lon="4.67841">
        <ele>343.8</ele>
        <time>2019-09-22T07:31:07Z</time>
      </trkpt>
      <trkpt lat="45.70493" lon="4.67832">
        <ele>343.5</ele>
        <time>2019-09-22T07:31:08Z</time>
      </trkpt>
      <trkpt lat="45.70491" lon="4.67814">
        <ele>342.5</ele>
        <time>2019-09-22T07:31:10Z</time>
      </trkpt>
      <trkpt lat="45.70484" lon="4.67764">
        <ele>339.7</ele>
        <time>2019-09-22T07:31:15Z</time>
      </trkpt>
      <trkpt lat="45.70483" lon="4.67753">
        <ele>339.2</ele>
        <time>2019-09-22T07:31:16Z</time>
      </trkpt>
      <trkpt lat="45.70479" lon="4.67718">
        <ele>338.5</ele>
        <time>2019-09-22T07:31:19Z</time>
      </trkpt>
      <trkpt lat="45.70479" lon="4.67708">
        <ele>338.6</ele>
        <time>2019-09-22T07:31:20Z</time>
      </trkpt>
      <trkpt lat="45.70481" lon="4.67699">
        <ele>339</ele>
        <time>2019-09-22T07:31:21Z</time>
      </trkpt>
      <trkpt lat="45.70492" lon="4.6768">
        <ele>340.8</ele>
        <time>2019-09-22T07:31:24Z</time>
      </trkpt>
      <trkpt lat="45.70506" lon="4.67683">
        <ele>342.5</ele>
        <time>2019-09-22T07:31:27Z</time>
      </trkpt>
      <trkpt lat="45.7052" lon="4.67699">
        <ele>345.1</ele>
        <time>2019-09-22T07:31:32Z</time>
      </trkpt>
      <trkpt lat="45.70537" lon="4.67718">
        <ele>347.8</ele>
        <time>2019-09-22T07:31:39Z</time>
      </trkpt>
      <trkpt lat="45.70546" lon="4.67724">
        <ele>349</ele>
        <time>2019-09-22T07:31:44Z</time>
      </trkpt>
      <trkpt lat="45.70557" lon="4.6773">
        <ele>350.2</ele>
        <time>2019-09-22T07:31:50Z</time>
      </trkpt>
      <trkpt lat="45.70559" lon="4.67731">
        <ele>350.5</ele>
        <time>2019-09-22T07:31:51Z</time>
      </trkpt>
      <trkpt lat="45.70565" lon="4.67735">
        <ele>351.3</ele>
        <time>2019-09-22T07:31:55Z</time>
      </trkpt>
      <trkpt lat="45.70573" lon="4.6774">
        <ele>352.3</ele>
        <time>2019-09-22T07:32:00Z</time>
      </trkpt>
      <trkpt lat="45.70585" lon="4.67748">
        <ele>354</ele>
        <time>2019-09-22T07:32:07Z</time>
      </trkpt>
      <trkpt lat="45.70598" lon="4.67758">
        <ele>354.9</ele>
        <time>2019-09-22T07:32:13Z</time>
      </trkpt>
      <trkpt lat="45.706" lon="4.6776">
        <ele>355</ele>
        <time>2019-09-22T07:32:14Z</time>
      </trkpt>
      <trkpt lat="45.70609" lon="4.67766">
        <ele>355.5</ele>
        <time>2019-09-22T07:32:18Z</time>
      </trkpt>
      <trkpt lat="45.70616" lon="4.67773">
        <ele>355.7</ele>
        <time>2019-09-22T07:32:21Z</time>
      </trkpt>
      <trkpt lat="45.70632" lon="4.67791">
        <ele>355.5</ele>
        <time>2019-09-22T07:32:26Z</time>
      </trkpt>
      <trkpt lat="45.70637" lon="4.67796">
        <ele>355.1</ele>
        <time>2019-09-22T07:32:27Z</time>
      </trkpt>
      <trkpt lat="45.70657" lon="4.67818">
        <ele>352.6</ele>
        <time>2019-09-22T07:32:31Z</time>
      </trkpt>
      <trkpt lat="45.70687" lon="4.67844">
        <ele>350.5</ele>
        <time>2019-09-22T07:32:36Z</time>
      </trkpt>
      <trkpt lat="45.70694" lon="4.67847">
        <ele>350.4</ele>
        <time>2019-09-22T07:32:37Z</time>
      </trkpt>
      <trkpt lat="45.70729" lon="4.67859">
        <ele>349.7</ele>
        <time>2019-09-22T07:32:43Z</time>
      </trkpt>
      <trkpt lat="45.70765" lon="4.67864">
        <ele>349.4</ele>
        <time>2019-09-22T07:32:50Z</time>
      </trkpt>
      <trkpt lat="45.70794" lon="4.67865">
        <ele>349.3</ele>
        <time>2019-09-22T07:32:55Z</time>
      </trkpt>
      <trkpt lat="45.708" lon="4.67865">
        <ele>349.3</ele>
        <time>2019-09-22T07:32:56Z</time>
      </trkpt>
      <trkpt lat="45.70812" lon="4.67866">
        <ele>349.3</ele>
        <time>2019-09-22T07:32:58Z</time>
      </trkpt>
      <trkpt lat="45.70845" lon="4.67865">
        <ele>348.9</ele>
        <time>2019-09-22T07:33:03Z</time>
      </trkpt>
      <trkpt lat="45.70868" lon="4.67865">
        <ele>348.4</ele>
        <time>2019-09-22T07:33:06Z</time>
      </trkpt>
      <trkpt lat="45.7089" lon="4.67867">
        <ele>348.3</ele>
        <time>2019-09-22T07:33:09Z</time>
      </trkpt>
      <trkpt lat="45.70898" lon="4.67869">
        <ele>348.2</ele>
        <time>2019-09-22T07:33:10Z</time>
      </trkpt>
      <trkpt lat="45.70912" lon="4.67876">
        <ele>347.9</ele>
        <time>2019-09-22T07:33:12Z</time>
      </trkpt>
      <trkpt lat="45.70919" lon="4.6788">
        <ele>347.7</ele>
        <time>2019-09-22T07:33:13Z</time>
      </trkpt>
      <trkpt lat="45.70933" lon="4.67886">
        <ele>347.2</ele>
        <time>2019-09-22T07:33:15Z</time>
      </trkpt>
      <trkpt lat="45.7094" lon="4.67888">
        <ele>346.9</ele>
        <time>2019-09-22T07:33:16Z</time>
      </trkpt>
      <trkpt lat="45.70952" lon="4.67891">
        <ele>346.4</ele>
        <time>2019-09-22T07:33:18Z</time>
      </trkpt>
      <trkpt lat="45.70966" lon="4.67892">
        <ele>345.9</ele>
        <time>2019-09-22T07:33:21Z</time>
      </trkpt>
      <trkpt lat="45.7097" lon="4.67892">
        <ele>345.7</ele>
        <time>2019-09-22T07:33:22Z</time>
      </trkpt>
      <trkpt lat="45.70989" lon="4.67887">
        <ele>345.2</ele>
        <time>2019-09-22T07:33:27Z</time>
      </trkpt>
      <trkpt lat="45.70993" lon="4.67885">
        <ele>345.2</ele>
        <time>2019-09-22T07:33:28Z</time>
      </trkpt>
      <trkpt lat="45.71003" lon="4.67881">
        <ele>345.2</ele>
        <time>2019-09-22T07:33:32Z</time>
      </trkpt>
      <trkpt lat="45.71008" lon="4.67878">
        <ele>345.2</ele>
        <time>2019-09-22T07:33:34Z</time>
      </trkpt>
      <trkpt lat="45.71007" lon="4.67866">
        <ele>345.9</ele>
        <time>2019-09-22T07:33:37Z</time>
      </trkpt>
      <trkpt lat="45.71006" lon="4.67861">
        <ele>346.2</ele>
        <time>2019-09-22T07:33:38Z</time>
      </trkpt>
      <trkpt lat="45.71003" lon="4.67844">
        <ele>347</ele>
        <time>2019-09-22T07:33:42Z</time>
      </trkpt>
      <trkpt lat="45.71004" lon="4.67826">
        <ele>348.1</ele>
        <time>2019-09-22T07:33:46Z</time>
      </trkpt>
      <trkpt lat="45.71003" lon="4.67818">
        <ele>348.6</ele>
        <time>2019-09-22T07:33:48Z</time>
      </trkpt>
      <trkpt lat="45.71003" lon="4.67805">
        <ele>349.4</ele>
        <time>2019-09-22T07:33:51Z</time>
      </trkpt>
      <trkpt lat="45.71004" lon="4.67784">
        <ele>350.6</ele>
        <time>2019-09-22T07:33:56Z</time>
      </trkpt>
      <trkpt lat="45.71005" lon="4.67773">
        <ele>351.2</ele>
        <time>2019-09-22T07:33:59Z</time>
      </trkpt>
      <trkpt lat="45.71007" lon="4.67761">
        <ele>351.8</ele>
        <time>2019-09-22T07:34:02Z</time>
      </trkpt>
      <trkpt lat="45.71007" lon="4.67757">
        <ele>352</ele>
        <time>2019-09-22T07:34:03Z</time>
      </trkpt>
      <trkpt lat="45.71001" lon="4.67737">
        <ele>353.1</ele>
        <time>2019-09-22T07:34:08Z</time>
      </trkpt>
      <trkpt lat="45.70999" lon="4.67734">
        <ele>353.3</ele>
        <time>2019-09-22T07:34:09Z</time>
      </trkpt>
      <trkpt lat="45.70992" lon="4.67711">
        <ele>355.2</ele>
        <time>2019-09-22T07:34:15Z</time>
      </trkpt>
      <trkpt lat="45.70991" lon="4.67706">
        <ele>355.5</ele>
        <time>2019-09-22T07:34:16Z</time>
      </trkpt>
      <trkpt lat="45.70987" lon="4.67682">
        <ele>357.4</ele>
        <time>2019-09-22T07:34:22Z</time>
      </trkpt>
      <trkpt lat="45.70986" lon="4.67674">
        <ele>357.9</ele>
        <time>2019-09-22T07:34:24Z</time>
      </trkpt>
      <trkpt lat="45.70979" lon="4.67651">
        <ele>359.6</ele>
        <time>2019-09-22T07:34:30Z</time>
      </trkpt>
      <trkpt lat="45.70978" lon="4.67647">
        <ele>359.8</ele>
        <time>2019-09-22T07:34:31Z</time>
      </trkpt>
      <trkpt lat="45.70976" lon="4.67634">
        <ele>360.6</ele>
        <time>2019-09-22T07:34:34Z</time>
      </trkpt>
      <trkpt lat="45.70975" lon="4.67625">
        <ele>361.2</ele>
        <time>2019-09-22T07:34:36Z</time>
      </trkpt>
      <trkpt lat="45.70974" lon="4.67622">
        <ele>361.5</ele>
        <time>2019-09-22T07:34:37Z</time>
      </trkpt>
      <trkpt lat="45.70972" lon="4.67603">
        <ele>362.4</ele>
        <time>2019-09-22T07:34:42Z</time>
      </trkpt>
      <trkpt lat="45.70971" lon="4.67596">
        <ele>362.7</ele>
        <time>2019-09-22T07:34:44Z</time>
      </trkpt>
      <trkpt lat="45.70969" lon="4.67587">
        <ele>363</ele>
        <time>2019-09-22T07:34:47Z</time>
      </trkpt>
      <trkpt lat="45.70965" lon="4.67574">
        <ele>363.4</ele>
        <time>2019-09-22T07:34:51Z</time>
      </trkpt>
      <trkpt lat="45.70964" lon="4.67567">
        <ele>363.6</ele>
        <time>2019-09-22T07:34:53Z</time>
      </trkpt>
      <trkpt lat="45.70961" lon="4.67553">
        <ele>364</ele>
        <time>2019-09-22T07:34:57Z</time>
      </trkpt>
      <trkpt lat="45.7096" lon="4.67547">
        <ele>364.1</ele>
        <time>2019-09-22T07:34:59Z</time>
      </trkpt>
      <trkpt lat="45.70956" lon="4.67529">
        <ele>364.8</ele>
        <time>2019-09-22T07:35:05Z</time>
      </trkpt>
      <trkpt lat="45.70955" lon="4.67521">
        <ele>365</ele>
        <time>2019-09-22T07:35:08Z</time>
      </trkpt>
      <trkpt lat="45.70954" lon="4.67515">
        <ele>365.1</ele>
        <time>2019-09-22T07:35:10Z</time>
      </trkpt>
      <trkpt lat="45.70955" lon="4.675">
        <ele>365.6</ele>
        <time>2019-09-22T07:35:15Z</time>
      </trkpt>
      <trkpt lat="45.70957" lon="4.67486">
        <ele>366.1</ele>
        <time>2019-09-22T07:35:20Z</time>
      </trkpt>
      <trkpt lat="45.70959" lon="4.67471">
        <ele>366.7</ele>
        <time>2019-09-22T07:35:25Z</time>
      </trkpt>
      <trkpt lat="45.70962" lon="4.67452">
        <ele>367.3</ele>
        <time>2019-09-22T07:35:32Z</time>
      </trkpt>
      <trkpt lat="45.70964" lon="4.67426">
        <ele>368</ele>
        <time>2019-09-22T07:35:38Z</time>
      </trkpt>
      <trkpt lat="45.70963" lon="4.67386">
        <ele>368.7</ele>
        <time>2019-09-22T07:35:44Z</time>
      </trkpt>
      <trkpt lat="45.7096" lon="4.67373">
        <ele>368.8</ele>
        <time>2019-09-22T07:35:46Z</time>
      </trkpt>
      <trkpt lat="45.70952" lon="4.67353">
        <ele>368.9</ele>
        <time>2019-09-22T07:35:49Z</time>
      </trkpt>
      <trkpt lat="45.7094" lon="4.67329">
        <ele>369.1</ele>
        <time>2019-09-22T07:35:53Z</time>
      </trkpt>
      <trkpt lat="45.70931" lon="4.6731">
        <ele>369.2</ele>
        <time>2019-09-22T07:35:56Z</time>
      </trkpt>
      <trkpt lat="45.70915" lon="4.67277">
        <ele>370.1</ele>
        <time>2019-09-22T07:36:02Z</time>
      </trkpt>
      <trkpt lat="45.70914" lon="4.67272">
        <ele>370.2</ele>
        <time>2019-09-22T07:36:03Z</time>
      </trkpt>
      <trkpt lat="45.70911" lon="4.67263">
        <ele>370.5</ele>
        <time>2019-09-22T07:36:05Z</time>
      </trkpt>
      <trkpt lat="45.70905" lon="4.67242">
        <ele>371.1</ele>
        <time>2019-09-22T07:36:09Z</time>
      </trkpt>
      <trkpt lat="45.70904" lon="4.67236">
        <ele>371.2</ele>
        <time>2019-09-22T07:36:10Z</time>
      </trkpt>
      <trkpt lat="45.70903" lon="4.6723">
        <ele>371.3</ele>
        <time>2019-09-22T07:36:11Z</time>
      </trkpt>
      <trkpt lat="45.70899" lon="4.67187">
        <ele>372</ele>
        <time>2019-09-22T07:36:19Z</time>
      </trkpt>
      <trkpt lat="45.709" lon="4.67175">
        <ele>372.2</ele>
        <time>2019-09-22T07:36:21Z</time>
      </trkpt>
      <trkpt lat="45.70908" lon="4.6717">
        <ele>371.6</ele>
        <time>2019-09-22T07:36:23Z</time>
      </trkpt>
      <trkpt lat="45.70919" lon="4.67168">
        <ele>371</ele>
        <time>2019-09-22T07:36:25Z</time>
      </trkpt>
      <trkpt lat="45.70924" lon="4.67166">
        <ele>370.6</ele>
        <time>2019-09-22T07:36:26Z</time>
      </trkpt>
      <trkpt lat="45.7093" lon="4.67163">
        <ele>370.3</ele>
        <time>2019-09-22T07:36:27Z</time>
      </trkpt>
      <trkpt lat="45.70936" lon="4.6716">
        <ele>370.1</ele>
        <time>2019-09-22T07:36:28Z</time>
      </trkpt>
      <trkpt lat="45.70947" lon="4.67156">
        <ele>369.6</ele>
        <time>2019-09-22T07:36:30Z</time>
      </trkpt>
      <trkpt lat="45.7096" lon="4.67152">
        <ele>369.2</ele>
        <time>2019-09-22T07:36:32Z</time>
      </trkpt>
      <trkpt lat="45.70977" lon="4.67144">
        <ele>368.8</ele>
        <time>2019-09-22T07:36:35Z</time>
      </trkpt>
      <trkpt lat="45.70978" lon="4.67138">
        <ele>368.8</ele>
        <time>2019-09-22T07:36:36Z</time>
      </trkpt>
      <trkpt lat="45.70976" lon="4.67126">
        <ele>370.9</ele>
        <time>2019-09-22T07:36:39Z</time>
      </trkpt>
      <trkpt lat="45.70974" lon="4.67122">
        <ele>371.4</ele>
        <time>2019-09-22T07:36:40Z</time>
      </trkpt>
      <trkpt lat="45.70967" lon="4.67109">
        <ele>372.9</ele>
        <time>2019-09-22T07:36:44Z</time>
      </trkpt>
      <trkpt lat="45.70964" lon="4.67103">
        <ele>373.5</ele>
        <time>2019-09-22T07:36:46Z</time>
      </trkpt>
      <trkpt lat="45.70962" lon="4.67097">
        <ele>374.1</ele>
        <time>2019-09-22T07:36:48Z</time>
      </trkpt>
      <trkpt lat="45.70957" lon="4.67086">
        <ele>375.2</ele>
        <time>2019-09-22T07:36:52Z</time>
      </trkpt>
      <trkpt lat="45.70956" lon="4.67083">
        <ele>375.5</ele>
        <time>2019-09-22T07:36:53Z</time>
      </trkpt>
      <trkpt lat="45.70953" lon="4.67075">
        <ele>376.3</ele>
        <time>2019-09-22T07:36:56Z</time>
      </trkpt>
      <trkpt lat="45.70949" lon="4.67067">
        <ele>377.3</ele>
        <time>2019-09-22T07:37:00Z</time>
      </trkpt>
      <trkpt lat="45.70945" lon="4.67057">
        <ele>378.4</ele>
        <time>2019-09-22T07:37:04Z</time>
      </trkpt>
      <trkpt lat="45.70942" lon="4.67052">
        <ele>379</ele>
        <time>2019-09-22T07:37:06Z</time>
      </trkpt>
      <trkpt lat="45.70939" lon="4.67047">
        <ele>379.5</ele>
        <time>2019-09-22T07:37:08Z</time>
      </trkpt>
      <trkpt lat="45.70935" lon="4.67038">
        <ele>380.5</ele>
        <time>2019-09-22T07:37:12Z</time>
      </trkpt>
      <trkpt lat="45.70933" lon="4.67036">
        <ele>380.7</ele>
        <time>2019-09-22T07:37:13Z</time>
      </trkpt>
      <trkpt lat="45.7093" lon="4.67029">
        <ele>381.4</ele>
        <time>2019-09-22T07:37:16Z</time>
      </trkpt>
      <trkpt lat="45.70928" lon="4.67023">
        <ele>382</ele>
        <time>2019-09-22T07:37:19Z</time>
      </trkpt>
      <trkpt lat="45.70927" lon="4.67021">
        <ele>382.2</ele>
        <time>2019-09-22T07:37:20Z</time>
      </trkpt>
      <trkpt lat="45.70924" lon="4.67013">
        <ele>382.9</ele>
        <time>2019-09-22T07:37:24Z</time>
      </trkpt>
      <trkpt lat="45.70924" lon="4.67011">
        <ele>383.2</ele>
        <time>2019-09-22T07:37:25Z</time>
      </trkpt>
      <trkpt lat="45.70922" lon="4.67002">
        <ele>383.9</ele>
        <time>2019-09-22T07:37:28Z</time>
      </trkpt>
      <trkpt lat="45.70921" lon="4.67">
        <ele>384.1</ele>
        <time>2019-09-22T07:37:29Z</time>
      </trkpt>
      <trkpt lat="45.7092" lon="4.66994">
        <ele>384.7</ele>
        <time>2019-09-22T07:37:31Z</time>
      </trkpt>
      <trkpt lat="45.70919" lon="4.66992">
        <ele>384.9</ele>
        <time>2019-09-22T07:37:32Z</time>
      </trkpt>
      <trkpt lat="45.70918" lon="4.66986">
        <ele>385.3</ele>
        <time>2019-09-22T07:37:34Z</time>
      </trkpt>
      <trkpt lat="45.70915" lon="4.66978">
        <ele>385.9</ele>
        <time>2019-09-22T07:37:37Z</time>
      </trkpt>
      <trkpt lat="45.70914" lon="4.6697">
        <ele>386.4</ele>
        <time>2019-09-22T07:37:40Z</time>
      </trkpt>
      <trkpt lat="45.70912" lon="4.66963">
        <ele>386.9</ele>
        <time>2019-09-22T07:37:43Z</time>
      </trkpt>
      <trkpt lat="45.7091" lon="4.66955">
        <ele>387.4</ele>
        <time>2019-09-22T07:37:46Z</time>
      </trkpt>
      <trkpt lat="45.70909" lon="4.66953">
        <ele>387.6</ele>
        <time>2019-09-22T07:37:47Z</time>
      </trkpt>
      <trkpt lat="45.70908" lon="4.66946">
        <ele>388</ele>
        <time>2019-09-22T07:37:49Z</time>
      </trkpt>
      <trkpt lat="45.70906" lon="4.6694">
        <ele>388.4</ele>
        <time>2019-09-22T07:37:51Z</time>
      </trkpt>
      <trkpt lat="45.70904" lon="4.66934">
        <ele>388.8</ele>
        <time>2019-09-22T07:37:53Z</time>
      </trkpt>
      <trkpt lat="45.70903" lon="4.66928">
        <ele>389.2</ele>
        <time>2019-09-22T07:37:55Z</time>
      </trkpt>
      <trkpt lat="45.70901" lon="4.66921">
        <ele>389.8</ele>
        <time>2019-09-22T07:37:58Z</time>
      </trkpt>
      <trkpt lat="45.709" lon="4.66915">
        <ele>390.2</ele>
        <time>2019-09-22T07:38:01Z</time>
      </trkpt>
      <trkpt lat="45.70898" lon="4.66907">
        <ele>390.8</ele>
        <time>2019-09-22T07:38:04Z</time>
      </trkpt>
      <trkpt lat="45.70896" lon="4.66894">
        <ele>391.8</ele>
        <time>2019-09-22T07:38:09Z</time>
      </trkpt>
      <trkpt lat="45.70892" lon="4.66875">
        <ele>393.2</ele>
        <time>2019-09-22T07:38:15Z</time>
      </trkpt>
      <trkpt lat="45.70888" lon="4.66859">
        <ele>394.2</ele>
        <time>2019-09-22T07:38:21Z</time>
      </trkpt>
      <trkpt lat="45.70885" lon="4.66853">
        <ele>394.6</ele>
        <time>2019-09-22T07:38:24Z</time>
      </trkpt>
      <trkpt lat="45.70882" lon="4.66846">
        <ele>395.1</ele>
        <time>2019-09-22T07:38:28Z</time>
      </trkpt>
      <trkpt lat="45.70876" lon="4.66838">
        <ele>396.2</ele>
        <time>2019-09-22T07:38:34Z</time>
      </trkpt>
      <trkpt lat="45.70875" lon="4.66836">
        <ele>396.4</ele>
        <time>2019-09-22T07:38:35Z</time>
      </trkpt>
      <trkpt lat="45.70865" lon="4.66828">
        <ele>397.5</ele>
        <time>2019-09-22T07:38:42Z</time>
      </trkpt>
      <trkpt lat="45.70864" lon="4.66827">
        <ele>397.7</ele>
        <time>2019-09-22T07:38:43Z</time>
      </trkpt>
      <trkpt lat="45.7085" lon="4.66819">
        <ele>398.9</ele>
        <time>2019-09-22T07:38:50Z</time>
      </trkpt>
      <trkpt lat="45.70834" lon="4.6681">
        <ele>400</ele>
        <time>2019-09-22T07:38:58Z</time>
      </trkpt>
      <trkpt lat="45.70818" lon="4.66799">
        <ele>401.2</ele>
        <time>2019-09-22T07:39:08Z</time>
      </trkpt>
      <trkpt lat="45.70815" lon="4.66796">
        <ele>401.4</ele>
        <time>2019-09-22T07:39:10Z</time>
      </trkpt>
      <trkpt lat="45.70817" lon="4.66791">
        <ele>401.8</ele>
        <time>2019-09-22T07:39:13Z</time>
      </trkpt>
      <trkpt lat="45.70819" lon="4.6679">
        <ele>402</ele>
        <time>2019-09-22T07:39:14Z</time>
      </trkpt>
      <trkpt lat="45.70828" lon="4.66785">
        <ele>403.1</ele>
        <time>2019-09-22T07:39:19Z</time>
      </trkpt>
      <trkpt lat="45.7083" lon="4.66784">
        <ele>403.1</ele>
        <time>2019-09-22T07:39:20Z</time>
      </trkpt>
      <trkpt lat="45.7084" lon="4.66775">
        <ele>403.7</ele>
        <time>2019-09-22T07:39:26Z</time>
      </trkpt>
      <trkpt lat="45.70858" lon="4.66761">
        <ele>404.6</ele>
        <time>2019-09-22T07:39:34Z</time>
      </trkpt>
      <trkpt lat="45.70867" lon="4.66754">
        <ele>404.7</ele>
        <time>2019-09-22T07:39:38Z</time>
      </trkpt>
      <trkpt lat="45.70875" lon="4.66746">
        <ele>404.7</ele>
        <time>2019-09-22T07:39:42Z</time>
      </trkpt>
      <trkpt lat="45.70892" lon="4.66735">
        <ele>404.8</ele>
        <time>2019-09-22T07:39:49Z</time>
      </trkpt>
      <trkpt lat="45.7091" lon="4.6672">
        <ele>405.4</ele>
        <time>2019-09-22T07:39:56Z</time>
      </trkpt>
      <trkpt lat="45.70927" lon="4.66709">
        <ele>406.2</ele>
        <time>2019-09-22T07:40:02Z</time>
      </trkpt>
      <trkpt lat="45.70952" lon="4.66691">
        <ele>407.3</ele>
        <time>2019-09-22T07:40:10Z</time>
      </trkpt>
      <trkpt lat="45.70967" lon="4.6668">
        <ele>407.7</ele>
        <time>2019-09-22T07:40:15Z</time>
      </trkpt>
      <trkpt lat="45.70981" lon="4.6667">
        <ele>408</ele>
        <time>2019-09-22T07:40:19Z</time>
      </trkpt>
      <trkpt lat="45.70997" lon="4.66664">
        <ele>408.5</ele>
        <time>2019-09-22T07:40:24Z</time>
      </trkpt>
      <trkpt lat="45.71017" lon="4.66666">
        <ele>409.4</ele>
        <time>2019-09-22T07:40:29Z</time>
      </trkpt>
      <trkpt lat="45.7102" lon="4.66665">
        <ele>409.6</ele>
        <time>2019-09-22T07:40:30Z</time>
      </trkpt>
      <trkpt lat="45.71035" lon="4.66653">
        <ele>410.4</ele>
        <time>2019-09-22T07:40:35Z</time>
      </trkpt>
      <trkpt lat="45.71048" lon="4.66646">
        <ele>411.5</ele>
        <time>2019-09-22T07:40:39Z</time>
      </trkpt>
      <trkpt lat="45.71051" lon="4.66646">
        <ele>411.8</ele>
        <time>2019-09-22T07:40:40Z</time>
      </trkpt>
      <trkpt lat="45.71062" lon="4.66646">
        <ele>412.6</ele>
        <time>2019-09-22T07:40:43Z</time>
      </trkpt>
      <trkpt lat="45.71077" lon="4.66648">
        <ele>413.5</ele>
        <time>2019-09-22T07:40:48Z</time>
      </trkpt>
      <trkpt lat="45.71084" lon="4.66648">
        <ele>413.8</ele>
        <time>2019-09-22T07:40:50Z</time>
      </trkpt>
      <trkpt lat="45.71099" lon="4.6665">
        <ele>414.6</ele>
        <time>2019-09-22T07:40:55Z</time>
      </trkpt>
      <trkpt lat="45.71102" lon="4.66651">
        <ele>414.7</ele>
        <time>2019-09-22T07:40:56Z</time>
      </trkpt>
      <trkpt lat="45.71124" lon="4.66651">
        <ele>415.8</ele>
        <time>2019-09-22T07:41:03Z</time>
      </trkpt>
      <trkpt lat="45.71157" lon="4.66642">
        <ele>416.9</ele>
        <time>2019-09-22T07:41:14Z</time>
      </trkpt>
      <trkpt lat="45.71185" lon="4.66626">
        <ele>418.3</ele>
        <time>2019-09-22T07:41:24Z</time>
      </trkpt>
      <trkpt lat="45.71196" lon="4.66621">
        <ele>418.6</ele>
        <time>2019-09-22T07:41:28Z</time>
      </trkpt>
      <trkpt lat="45.7121" lon="4.66612">
        <ele>418.8</ele>
        <time>2019-09-22T07:41:33Z</time>
      </trkpt>
      <trkpt lat="45.71227" lon="4.66599">
        <ele>419.2</ele>
        <time>2019-09-22T07:41:40Z</time>
      </trkpt>
      <trkpt lat="45.71248" lon="4.66586">
        <ele>420</ele>
        <time>2019-09-22T07:41:47Z</time>
      </trkpt>
      <trkpt lat="45.71261" lon="4.66583">
        <ele>420.3</ele>
        <time>2019-09-22T07:41:50Z</time>
      </trkpt>
      <trkpt lat="45.71278" lon="4.66579">
        <ele>420.2</ele>
        <time>2019-09-22T07:41:54Z</time>
      </trkpt>
      <trkpt lat="45.71322" lon="4.6657">
        <ele>419.1</ele>
        <time>2019-09-22T07:42:03Z</time>
      </trkpt>
      <trkpt lat="45.71356" lon="4.66562">
        <ele>419.5</ele>
        <time>2019-09-22T07:42:10Z</time>
      </trkpt>
      <trkpt lat="45.71375" lon="4.66558">
        <ele>420</ele>
        <time>2019-09-22T07:42:15Z</time>
      </trkpt>
      <trkpt lat="45.71404" lon="4.66543">
        <ele>421.2</ele>
        <time>2019-09-22T07:42:23Z</time>
      </trkpt>
      <trkpt lat="45.71422" lon="4.66528">
        <ele>422.2</ele>
        <time>2019-09-22T07:42:28Z</time>
      </trkpt>
      <trkpt lat="45.71426" lon="4.66525">
        <ele>422.4</ele>
        <time>2019-09-22T07:42:29Z</time>
      </trkpt>
      <trkpt lat="45.71456" lon="4.66507">
        <ele>424.7</ele>
        <time>2019-09-22T07:42:37Z</time>
      </trkpt>
      <trkpt lat="45.71469" lon="4.665">
        <ele>425.9</ele>
        <time>2019-09-22T07:42:40Z</time>
      </trkpt>
      <trkpt lat="45.71488" lon="4.66489">
        <ele>427.7</ele>
        <time>2019-09-22T07:42:45Z</time>
      </trkpt>
      <trkpt lat="45.71494" lon="4.66483">
        <ele>428.2</ele>
        <time>2019-09-22T07:42:47Z</time>
      </trkpt>
      <trkpt lat="45.71504" lon="4.66476">
        <ele>428.2</ele>
        <time>2019-09-22T07:42:51Z</time>
      </trkpt>
      <trkpt lat="45.71514" lon="4.66467">
        <ele>428.1</ele>
        <time>2019-09-22T07:42:55Z</time>
      </trkpt>
      <trkpt lat="45.71521" lon="4.6646">
        <ele>428</ele>
        <time>2019-09-22T07:42:58Z</time>
      </trkpt>
      <trkpt lat="45.71523" lon="4.66458">
        <ele>428</ele>
        <time>2019-09-22T07:42:59Z</time>
      </trkpt>
      <trkpt lat="45.71532" lon="4.6645">
        <ele>427.9</ele>
        <time>2019-09-22T07:43:02Z</time>
      </trkpt>
      <trkpt lat="45.71541" lon="4.66442">
        <ele>427.8</ele>
        <time>2019-09-22T07:43:06Z</time>
      </trkpt>
      <trkpt lat="45.71543" lon="4.6644">
        <ele>427.9</ele>
        <time>2019-09-22T07:43:07Z</time>
      </trkpt>
      <trkpt lat="45.71546" lon="4.66438">
        <ele>427.9</ele>
        <time>2019-09-22T07:43:08Z</time>
      </trkpt>
      <trkpt lat="45.7155" lon="4.66434">
        <ele>427.9</ele>
        <time>2019-09-22T07:43:10Z</time>
      </trkpt>
      <trkpt lat="45.71556" lon="4.66426">
        <ele>428.1</ele>
        <time>2019-09-22T07:43:13Z</time>
      </trkpt>
      <trkpt lat="45.71561" lon="4.6642">
        <ele>428.1</ele>
        <time>2019-09-22T07:43:15Z</time>
      </trkpt>
      <trkpt lat="45.71565" lon="4.66414">
        <ele>428.1</ele>
        <time>2019-09-22T07:43:17Z</time>
      </trkpt>
      <trkpt lat="45.71576" lon="4.66398">
        <ele>428.3</ele>
        <time>2019-09-22T07:43:22Z</time>
      </trkpt>
      <trkpt lat="45.7158" lon="4.6639">
        <ele>428.4</ele>
        <time>2019-09-22T07:43:24Z</time>
      </trkpt>
      <trkpt lat="45.71587" lon="4.66379">
        <ele>428.8</ele>
        <time>2019-09-22T07:43:27Z</time>
      </trkpt>
      <trkpt lat="45.71594" lon="4.66363">
        <ele>429.5</ele>
        <time>2019-09-22T07:43:31Z</time>
      </trkpt>
      <trkpt lat="45.71598" lon="4.66356">
        <ele>429.9</ele>
        <time>2019-09-22T07:43:33Z</time>
      </trkpt>
      <trkpt lat="45.71607" lon="4.66339">
        <ele>430.9</ele>
        <time>2019-09-22T07:43:38Z</time>
      </trkpt>
      <trkpt lat="45.71614" lon="4.66325">
        <ele>431.8</ele>
        <time>2019-09-22T07:43:42Z</time>
      </trkpt>
      <trkpt lat="45.71615" lon="4.66322">
        <ele>432.1</ele>
        <time>2019-09-22T07:43:43Z</time>
      </trkpt>
      <trkpt lat="45.7162" lon="4.66311">
        <ele>432.8</ele>
        <time>2019-09-22T07:43:46Z</time>
      </trkpt>
      <trkpt lat="45.7163" lon="4.66294">
        <ele>434.1</ele>
        <time>2019-09-22T07:43:51Z</time>
      </trkpt>
      <trkpt lat="45.71631" lon="4.6629">
        <ele>434.3</ele>
        <time>2019-09-22T07:43:52Z</time>
      </trkpt>
      <trkpt lat="45.71638" lon="4.66277">
        <ele>435.2</ele>
        <time>2019-09-22T07:43:56Z</time>
      </trkpt>
      <trkpt lat="45.71644" lon="4.66263">
        <ele>436</ele>
        <time>2019-09-22T07:44:00Z</time>
      </trkpt>
      <trkpt lat="45.7165" lon="4.66243">
        <ele>436.7</ele>
        <time>2019-09-22T07:44:05Z</time>
      </trkpt>
      <trkpt lat="45.71651" lon="4.66237">
        <ele>437</ele>
        <time>2019-09-22T07:45:55Z</time>
      </trkpt>
      <trkpt lat="45.71652" lon="4.66235">
        <ele>437</ele>
        <time>2019-09-22T07:45:56Z</time>
      </trkpt>
      <trkpt lat="45.71653" lon="4.66232">
        <ele>437.1</ele>
        <time>2019-09-22T07:45:57Z</time>
      </trkpt>
      <trkpt lat="45.71656" lon="4.66209">
        <ele>437.8</ele>
        <time>2019-09-22T07:46:02Z</time>
      </trkpt>
      <trkpt lat="45.71656" lon="4.66196">
        <ele>438</ele>
        <time>2019-09-22T07:46:06Z</time>
      </trkpt>
      <trkpt lat="45.71657" lon="4.66194">
        <ele>438</ele>
        <time>2019-09-22T07:46:08Z</time>
      </trkpt>
      <trkpt lat="45.71658" lon="4.66195">
        <ele>438</ele>
        <time>2019-09-22T07:46:10Z</time>
      </trkpt>
      <trkpt lat="45.71668" lon="4.66197">
        <ele>435.9</ele>
        <time>2019-09-22T07:46:14Z</time>
      </trkpt>
      <trkpt lat="45.71673" lon="4.66195">
        <ele>435</ele>
        <time>2019-09-22T07:46:16Z</time>
      </trkpt>
      <trkpt lat="45.71682" lon="4.66191">
        <ele>433</ele>
        <time>2019-09-22T07:46:19Z</time>
      </trkpt>
      <trkpt lat="45.71686" lon="4.6619">
        <ele>432.1</ele>
        <time>2019-09-22T07:46:20Z</time>
      </trkpt>
      <trkpt lat="45.71691" lon="4.66189">
        <ele>431.3</ele>
        <time>2019-09-22T07:46:21Z</time>
      </trkpt>
      <trkpt lat="45.717" lon="4.66186">
        <ele>429.5</ele>
        <time>2019-09-22T07:46:23Z</time>
      </trkpt>
      <trkpt lat="45.71709" lon="4.66181">
        <ele>428</ele>
        <time>2019-09-22T07:46:25Z</time>
      </trkpt>
      <trkpt lat="45.71713" lon="4.66177">
        <ele>427.5</ele>
        <time>2019-09-22T07:46:26Z</time>
      </trkpt>
      <trkpt lat="45.71724" lon="4.66173">
        <ele>426.6</ele>
        <time>2019-09-22T07:46:28Z</time>
      </trkpt>
      <trkpt lat="45.7173" lon="4.66171">
        <ele>426.1</ele>
        <time>2019-09-22T07:46:29Z</time>
      </trkpt>
      <trkpt lat="45.71737" lon="4.66169">
        <ele>425.7</ele>
        <time>2019-09-22T07:46:30Z</time>
      </trkpt>
      <trkpt lat="45.7175" lon="4.66166">
        <ele>425.2</ele>
        <time>2019-09-22T07:46:32Z</time>
      </trkpt>
      <trkpt lat="45.71762" lon="4.66164">
        <ele>425</ele>
        <time>2019-09-22T07:46:34Z</time>
      </trkpt>
      <trkpt lat="45.71772" lon="4.6616">
        <ele>424.8</ele>
        <time>2019-09-22T07:46:36Z</time>
      </trkpt>
      <trkpt lat="45.71782" lon="4.66152">
        <ele>424.5</ele>
        <time>2019-09-22T07:46:38Z</time>
      </trkpt>
      <trkpt lat="45.71791" lon="4.66143">
        <ele>424.1</ele>
        <time>2019-09-22T07:46:40Z</time>
      </trkpt>
      <trkpt lat="45.71798" lon="4.66133">
        <ele>423.5</ele>
        <time>2019-09-22T07:46:42Z</time>
      </trkpt>
      <trkpt lat="45.71804" lon="4.66122">
        <ele>422.5</ele>
        <time>2019-09-22T07:46:44Z</time>
      </trkpt>
      <trkpt lat="45.71807" lon="4.66116">
        <ele>421.9</ele>
        <time>2019-09-22T07:46:45Z</time>
      </trkpt>
      <trkpt lat="45.71811" lon="4.66109">
        <ele>421.3</ele>
        <time>2019-09-22T07:46:46Z</time>
      </trkpt>
      <trkpt lat="45.71819" lon="4.66098">
        <ele>419.9</ele>
        <time>2019-09-22T07:46:48Z</time>
      </trkpt>
      <trkpt lat="45.71827" lon="4.66087">
        <ele>418.8</ele>
        <time>2019-09-22T07:46:50Z</time>
      </trkpt>
      <trkpt lat="45.71835" lon="4.66076">
        <ele>417.4</ele>
        <time>2019-09-22T07:46:52Z</time>
      </trkpt>
      <trkpt lat="45.71843" lon="4.66063">
        <ele>415.9</ele>
        <time>2019-09-22T07:46:54Z</time>
      </trkpt>
      <trkpt lat="45.71846" lon="4.66055">
        <ele>415.2</ele>
        <time>2019-09-22T07:46:55Z</time>
      </trkpt>
      <trkpt lat="45.7185" lon="4.66048">
        <ele>414.4</ele>
        <time>2019-09-22T07:46:56Z</time>
      </trkpt>
      <trkpt lat="45.71856" lon="4.66034">
        <ele>412.4</ele>
        <time>2019-09-22T07:46:58Z</time>
      </trkpt>
      <trkpt lat="45.71858" lon="4.6603">
        <ele>411.8</ele>
        <time>2019-09-22T07:46:59Z</time>
      </trkpt>
      <trkpt lat="45.71862" lon="4.66018">
        <ele>410.3</ele>
        <time>2019-09-22T07:47:01Z</time>
      </trkpt>
      <trkpt lat="45.71866" lon="4.66013">
        <ele>409.5</ele>
        <time>2019-09-22T07:47:02Z</time>
      </trkpt>
      <trkpt lat="45.7187" lon="4.6601">
        <ele>408.7</ele>
        <time>2019-09-22T07:47:03Z</time>
      </trkpt>
      <trkpt lat="45.71877" lon="4.66003">
        <ele>407.2</ele>
        <time>2019-09-22T07:47:05Z</time>
      </trkpt>
      <trkpt lat="45.71885" lon="4.65994">
        <ele>406.1</ele>
        <time>2019-09-22T07:47:07Z</time>
      </trkpt>
      <trkpt lat="45.71893" lon="4.65985">
        <ele>405.3</ele>
        <time>2019-09-22T07:47:09Z</time>
      </trkpt>
      <trkpt lat="45.71897" lon="4.65981">
        <ele>404.8</ele>
        <time>2019-09-22T07:47:10Z</time>
      </trkpt>
      <trkpt lat="45.71899" lon="4.65977">
        <ele>404.4</ele>
        <time>2019-09-22T07:47:11Z</time>
      </trkpt>
      <trkpt lat="45.71902" lon="4.65973">
        <ele>403.9</ele>
        <time>2019-09-22T07:47:12Z</time>
      </trkpt>
      <trkpt lat="45.71906" lon="4.65971">
        <ele>403.4</ele>
        <time>2019-09-22T07:47:13Z</time>
      </trkpt>
      <trkpt lat="45.71913" lon="4.65964">
        <ele>402.1</ele>
        <time>2019-09-22T07:47:15Z</time>
      </trkpt>
      <trkpt lat="45.71916" lon="4.65959">
        <ele>401.3</ele>
        <time>2019-09-22T07:47:16Z</time>
      </trkpt>
      <trkpt lat="45.71919" lon="4.65955">
        <ele>400.8</ele>
        <time>2019-09-22T07:47:17Z</time>
      </trkpt>
      <trkpt lat="45.71928" lon="4.65946">
        <ele>399.4</ele>
        <time>2019-09-22T07:47:19Z</time>
      </trkpt>
      <trkpt lat="45.71938" lon="4.65934">
        <ele>397.1</ele>
        <time>2019-09-22T07:47:21Z</time>
      </trkpt>
      <trkpt lat="45.71942" lon="4.6593">
        <ele>395.7</ele>
        <time>2019-09-22T07:47:22Z</time>
      </trkpt>
      <trkpt lat="45.71946" lon="4.65925">
        <ele>394</ele>
        <time>2019-09-22T07:47:23Z</time>
      </trkpt>
      <trkpt lat="45.71951" lon="4.65921">
        <ele>391.9</ele>
        <time>2019-09-22T07:47:25Z</time>
      </trkpt>
      <trkpt lat="45.71955" lon="4.65918">
        <ele>390.4</ele>
        <time>2019-09-22T07:47:27Z</time>
      </trkpt>
      <trkpt lat="45.71958" lon="4.65915">
        <ele>389.4</ele>
        <time>2019-09-22T07:47:29Z</time>
      </trkpt>
      <trkpt lat="45.71959" lon="4.65914">
        <ele>389</ele>
        <time>2019-09-22T07:47:30Z</time>
      </trkpt>
      <trkpt lat="45.71962" lon="4.65911">
        <ele>388</ele>
        <time>2019-09-22T07:47:43Z</time>
      </trkpt>
      <trkpt lat="45.71966" lon="4.65907">
        <ele>386.9</ele>
        <time>2019-09-22T07:47:45Z</time>
      </trkpt>
      <trkpt lat="45.71973" lon="4.65901">
        <ele>385.5</ele>
        <time>2019-09-22T07:47:49Z</time>
      </trkpt>
      <trkpt lat="45.71977" lon="4.65896">
        <ele>384.6</ele>
        <time>2019-09-22T07:47:51Z</time>
      </trkpt>
      <trkpt lat="45.7198" lon="4.65893">
        <ele>384.1</ele>
        <time>2019-09-22T07:47:52Z</time>
      </trkpt>
      <trkpt lat="45.71989" lon="4.65886">
        <ele>382.1</ele>
        <time>2019-09-22T07:47:55Z</time>
      </trkpt>
      <trkpt lat="45.71991" lon="4.65884">
        <ele>381.6</ele>
        <time>2019-09-22T07:47:56Z</time>
      </trkpt>
      <trkpt lat="45.71998" lon="4.65882">
        <ele>380.5</ele>
        <time>2019-09-22T07:47:58Z</time>
      </trkpt>
      <trkpt lat="45.72004" lon="4.65881">
        <ele>379.5</ele>
        <time>2019-09-22T07:48:00Z</time>
      </trkpt>
      <trkpt lat="45.72016" lon="4.65879">
        <ele>378</ele>
        <time>2019-09-22T07:48:03Z</time>
      </trkpt>
      <trkpt lat="45.72028" lon="4.65877">
        <ele>376.6</ele>
        <time>2019-09-22T07:48:06Z</time>
      </trkpt>
      <trkpt lat="45.72036" lon="4.65876">
        <ele>375.7</ele>
        <time>2019-09-22T07:48:08Z</time>
      </trkpt>
      <trkpt lat="45.72044" lon="4.65876">
        <ele>374.6</ele>
        <time>2019-09-22T07:48:10Z</time>
      </trkpt>
      <trkpt lat="45.72053" lon="4.65876">
        <ele>373.7</ele>
        <time>2019-09-22T07:48:13Z</time>
      </trkpt>
      <trkpt lat="45.72059" lon="4.65868">
        <ele>372.9</ele>
        <time>2019-09-22T07:48:27Z</time>
      </trkpt>
      <trkpt lat="45.72061" lon="4.6586">
        <ele>372.2</ele>
        <time>2019-09-22T07:48:29Z</time>
      </trkpt>
      <trkpt lat="45.72063" lon="4.65855">
        <ele>371.8</ele>
        <time>2019-09-22T07:48:30Z</time>
      </trkpt>
      <trkpt lat="45.72067" lon="4.65843">
        <ele>370.7</ele>
        <time>2019-09-22T07:48:32Z</time>
      </trkpt>
      <trkpt lat="45.72073" lon="4.65828">
        <ele>369.1</ele>
        <time>2019-09-22T07:48:34Z</time>
      </trkpt>
      <trkpt lat="45.72079" lon="4.65812">
        <ele>367.1</ele>
        <time>2019-09-22T07:48:36Z</time>
      </trkpt>
      <trkpt lat="45.72083" lon="4.65799">
        <ele>365.8</ele>
        <time>2019-09-22T07:48:38Z</time>
      </trkpt>
      <trkpt lat="45.72087" lon="4.65794">
        <ele>365.1</ele>
        <time>2019-09-22T07:48:39Z</time>
      </trkpt>
      <trkpt lat="45.72091" lon="4.65789">
        <ele>364.5</ele>
        <time>2019-09-22T07:48:40Z</time>
      </trkpt>
      <trkpt lat="45.721" lon="4.6578">
        <ele>363.4</ele>
        <time>2019-09-22T07:48:42Z</time>
      </trkpt>
      <trkpt lat="45.72104" lon="4.65775">
        <ele>362.9</ele>
        <time>2019-09-22T07:48:43Z</time>
      </trkpt>
      <trkpt lat="45.72108" lon="4.65771">
        <ele>362.6</ele>
        <time>2019-09-22T07:48:44Z</time>
      </trkpt>
      <trkpt lat="45.72117" lon="4.65761">
        <ele>362.1</ele>
        <time>2019-09-22T07:48:46Z</time>
      </trkpt>
      <trkpt lat="45.72127" lon="4.65751">
        <ele>361.7</ele>
        <time>2019-09-22T07:48:48Z</time>
      </trkpt>
      <trkpt lat="45.72139" lon="4.65739">
        <ele>361.3</ele>
        <time>2019-09-22T07:48:51Z</time>
      </trkpt>
      <trkpt lat="45.72143" lon="4.65732">
        <ele>361.2</ele>
        <time>2019-09-22T07:48:53Z</time>
      </trkpt>
      <trkpt lat="45.72144" lon="4.65726">
        <ele>361.1</ele>
        <time>2019-09-22T07:48:54Z</time>
      </trkpt>
      <trkpt lat="45.72144" lon="4.65719">
        <ele>361.1</ele>
        <time>2019-09-22T07:48:55Z</time>
      </trkpt>
      <trkpt lat="45.72143" lon="4.6571">
        <ele>360.6</ele>
        <time>2019-09-22T07:48:56Z</time>
      </trkpt>
      <trkpt lat="45.72145" lon="4.65701">
        <ele>360.1</ele>
        <time>2019-09-22T07:48:57Z</time>
      </trkpt>
      <trkpt lat="45.72148" lon="4.65693">
        <ele>359.8</ele>
        <time>2019-09-22T07:48:58Z</time>
      </trkpt>
      <trkpt lat="45.72151" lon="4.65686">
        <ele>359.6</ele>
        <time>2019-09-22T07:48:59Z</time>
      </trkpt>
      <trkpt lat="45.7216" lon="4.65672">
        <ele>359.4</ele>
        <time>2019-09-22T07:49:01Z</time>
      </trkpt>
      <trkpt lat="45.72176" lon="4.6565">
        <ele>359.5</ele>
        <time>2019-09-22T07:49:05Z</time>
      </trkpt>
      <trkpt lat="45.7218" lon="4.65647">
        <ele>359.6</ele>
        <time>2019-09-22T07:49:06Z</time>
      </trkpt>
      <trkpt lat="45.72183" lon="4.65646">
        <ele>359.6</ele>
        <time>2019-09-22T07:49:07Z</time>
      </trkpt>
      <trkpt lat="45.7219" lon="4.65642">
        <ele>359.5</ele>
        <time>2019-09-22T07:49:09Z</time>
      </trkpt>
      <trkpt lat="45.72194" lon="4.65634">
        <ele>359.3</ele>
        <time>2019-09-22T07:49:11Z</time>
      </trkpt>
      <trkpt lat="45.72195" lon="4.65629">
        <ele>359.2</ele>
        <time>2019-09-22T07:49:12Z</time>
      </trkpt>
      <trkpt lat="45.72189" lon="4.65604">
        <ele>358.6</ele>
        <time>2019-09-22T07:49:16Z</time>
      </trkpt>
      <trkpt lat="45.72186" lon="4.65598">
        <ele>358.4</ele>
        <time>2019-09-22T07:49:17Z</time>
      </trkpt>
      <trkpt lat="45.72177" lon="4.65571">
        <ele>357.4</ele>
        <time>2019-09-22T07:49:21Z</time>
      </trkpt>
      <trkpt lat="45.72175" lon="4.65558">
        <ele>357</ele>
        <time>2019-09-22T07:49:23Z</time>
      </trkpt>
      <trkpt lat="45.72175" lon="4.6552">
        <ele>354.8</ele>
        <time>2019-09-22T07:49:28Z</time>
      </trkpt>
      <trkpt lat="45.72174" lon="4.65511">
        <ele>354.2</ele>
        <time>2019-09-22T07:49:29Z</time>
      </trkpt>
      <trkpt lat="45.72165" lon="4.65459">
        <ele>350.9</ele>
        <time>2019-09-22T07:49:34Z</time>
      </trkpt>
      <trkpt lat="45.72163" lon="4.65438">
        <ele>349.6</ele>
        <time>2019-09-22T07:49:36Z</time>
      </trkpt>
      <trkpt lat="45.72163" lon="4.6542">
        <ele>348.4</ele>
        <time>2019-09-22T07:49:38Z</time>
      </trkpt>
      <trkpt lat="45.72169" lon="4.65401">
        <ele>348.1</ele>
        <time>2019-09-22T07:49:40Z</time>
      </trkpt>
      <trkpt lat="45.72176" lon="4.65392">
        <ele>348.1</ele>
        <time>2019-09-22T07:49:41Z</time>
      </trkpt>
      <trkpt lat="45.72188" lon="4.65376">
        <ele>348.2</ele>
        <time>2019-09-22T07:49:43Z</time>
      </trkpt>
      <trkpt lat="45.72194" lon="4.65369">
        <ele>348.5</ele>
        <time>2019-09-22T07:49:44Z</time>
      </trkpt>
      <trkpt lat="45.72201" lon="4.65366">
        <ele>348.8</ele>
        <time>2019-09-22T07:49:45Z</time>
      </trkpt>
      <trkpt lat="45.7222" lon="4.65373">
        <ele>349.9</ele>
        <time>2019-09-22T07:49:48Z</time>
      </trkpt>
      <trkpt lat="45.72232" lon="4.65398">
        <ele>351.8</ele>
        <time>2019-09-22T07:49:52Z</time>
      </trkpt>
      <trkpt lat="45.72234" lon="4.65405">
        <ele>352.2</ele>
        <time>2019-09-22T07:49:53Z</time>
      </trkpt>
      <trkpt lat="45.72236" lon="4.65411">
        <ele>352.6</ele>
        <time>2019-09-22T07:49:54Z</time>
      </trkpt>
      <trkpt lat="45.72239" lon="4.65417">
        <ele>352.9</ele>
        <time>2019-09-22T07:49:55Z</time>
      </trkpt>
      <trkpt lat="45.72245" lon="4.65427">
        <ele>353.8</ele>
        <time>2019-09-22T07:49:57Z</time>
      </trkpt>
      <trkpt lat="45.72257" lon="4.65436">
        <ele>354.8</ele>
        <time>2019-09-22T07:50:00Z</time>
      </trkpt>
      <trkpt lat="45.72262" lon="4.65437">
        <ele>355.2</ele>
        <time>2019-09-22T07:50:01Z</time>
      </trkpt>
      <trkpt lat="45.72267" lon="4.65437">
        <ele>355.5</ele>
        <time>2019-09-22T07:50:02Z</time>
      </trkpt>
      <trkpt lat="45.7228" lon="4.65438">
        <ele>356.5</ele>
        <time>2019-09-22T07:50:05Z</time>
      </trkpt>
      <trkpt lat="45.72288" lon="4.65437">
        <ele>357.2</ele>
        <time>2019-09-22T07:50:07Z</time>
      </trkpt>
      <trkpt lat="45.72291" lon="4.65437">
        <ele>357.6</ele>
        <time>2019-09-22T07:50:08Z</time>
      </trkpt>
      <trkpt lat="45.72301" lon="4.65438">
        <ele>358.6</ele>
        <time>2019-09-22T07:50:11Z</time>
      </trkpt>
      <trkpt lat="45.7231" lon="4.6544">
        <ele>359.4</ele>
        <time>2019-09-22T07:50:14Z</time>
      </trkpt>
      <trkpt lat="45.72313" lon="4.65441">
        <ele>359.7</ele>
        <time>2019-09-22T07:50:15Z</time>
      </trkpt>
      <trkpt lat="45.72326" lon="4.65447">
        <ele>361</ele>
        <time>2019-09-22T07:50:20Z</time>
      </trkpt>
      <trkpt lat="45.72336" lon="4.65454">
        <ele>362</ele>
        <time>2019-09-22T07:50:24Z</time>
      </trkpt>
      <trkpt lat="45.72338" lon="4.65455">
        <ele>362.3</ele>
        <time>2019-09-22T07:50:25Z</time>
      </trkpt>
      <trkpt lat="45.7235" lon="4.65468">
        <ele>363.5</ele>
        <time>2019-09-22T07:50:31Z</time>
      </trkpt>
      <trkpt lat="45.72352" lon="4.6547">
        <ele>363.7</ele>
        <time>2019-09-22T07:50:32Z</time>
      </trkpt>
      <trkpt lat="45.72363" lon="4.6548">
        <ele>364.6</ele>
        <time>2019-09-22T07:50:37Z</time>
      </trkpt>
      <trkpt lat="45.72371" lon="4.65485">
        <ele>365.3</ele>
        <time>2019-09-22T07:50:41Z</time>
      </trkpt>
      <trkpt lat="45.72375" lon="4.65487">
        <ele>365.7</ele>
        <time>2019-09-22T07:50:43Z</time>
      </trkpt>
      <trkpt lat="45.72389" lon="4.65491">
        <ele>366.9</ele>
        <time>2019-09-22T07:50:49Z</time>
      </trkpt>
      <trkpt lat="45.72395" lon="4.65493">
        <ele>367.5</ele>
        <time>2019-09-22T07:50:52Z</time>
      </trkpt>
      <trkpt lat="45.72406" lon="4.655">
        <ele>368.4</ele>
        <time>2019-09-22T07:50:57Z</time>
      </trkpt>
      <trkpt lat="45.72418" lon="4.65508">
        <ele>369.1</ele>
        <time>2019-09-22T07:51:03Z</time>
      </trkpt>
      <trkpt lat="45.72427" lon="4.65513">
        <ele>369.7</ele>
        <time>2019-09-22T07:51:07Z</time>
      </trkpt>
      <trkpt lat="45.72446" lon="4.65516">
        <ele>371.5</ele>
        <time>2019-09-22T07:51:16Z</time>
      </trkpt>
      <trkpt lat="45.72448" lon="4.65516">
        <ele>371.8</ele>
        <time>2019-09-22T07:51:17Z</time>
      </trkpt>
      <trkpt lat="45.72462" lon="4.65512">
        <ele>373.2</ele>
        <time>2019-09-22T07:51:23Z</time>
      </trkpt>
      <trkpt lat="45.72464" lon="4.65511">
        <ele>373.4</ele>
        <time>2019-09-22T07:51:24Z</time>
      </trkpt>
      <trkpt lat="45.7247" lon="4.65507">
        <ele>373.9</ele>
        <time>2019-09-22T07:51:27Z</time>
      </trkpt>
      <trkpt lat="45.72482" lon="4.65496">
        <ele>375.2</ele>
        <time>2019-09-22T07:51:33Z</time>
      </trkpt>
      <trkpt lat="45.72496" lon="4.65484">
        <ele>376.6</ele>
        <time>2019-09-22T07:51:40Z</time>
      </trkpt>
      <trkpt lat="45.72503" lon="4.65475">
        <ele>377.4</ele>
        <time>2019-09-22T07:51:44Z</time>
      </trkpt>
      <trkpt lat="45.72507" lon="4.65471">
        <ele>377.8</ele>
        <time>2019-09-22T07:51:46Z</time>
      </trkpt>
      <trkpt lat="45.72516" lon="4.65461">
        <ele>378.8</ele>
        <time>2019-09-22T07:51:51Z</time>
      </trkpt>
      <trkpt lat="45.72522" lon="4.65455">
        <ele>379.3</ele>
        <time>2019-09-22T07:51:54Z</time>
      </trkpt>
      <trkpt lat="45.72526" lon="4.65453">
        <ele>379.8</ele>
        <time>2019-09-22T07:51:56Z</time>
      </trkpt>
      <trkpt lat="45.72539" lon="4.65448">
        <ele>381.1</ele>
        <time>2019-09-22T07:52:02Z</time>
      </trkpt>
      <trkpt lat="45.72541" lon="4.65447">
        <ele>381.3</ele>
        <time>2019-09-22T07:52:03Z</time>
      </trkpt>
      <trkpt lat="45.72551" lon="4.65446">
        <ele>382.5</ele>
        <time>2019-09-22T07:52:07Z</time>
      </trkpt>
      <trkpt lat="45.72563" lon="4.65442">
        <ele>383.6</ele>
        <time>2019-09-22T07:52:12Z</time>
      </trkpt>
      <trkpt lat="45.72565" lon="4.65441">
        <ele>383.8</ele>
        <time>2019-09-22T07:52:13Z</time>
      </trkpt>
      <trkpt lat="45.72573" lon="4.65438">
        <ele>384.3</ele>
        <time>2019-09-22T07:52:16Z</time>
      </trkpt>
      <trkpt lat="45.72584" lon="4.65432">
        <ele>385.1</ele>
        <time>2019-09-22T07:52:21Z</time>
      </trkpt>
      <trkpt lat="45.72586" lon="4.65431">
        <ele>385.2</ele>
        <time>2019-09-22T07:52:22Z</time>
      </trkpt>
      <trkpt lat="45.72598" lon="4.65428">
        <ele>386.1</ele>
        <time>2019-09-22T07:52:27Z</time>
      </trkpt>
      <trkpt lat="45.72608" lon="4.65428">
        <ele>386.6</ele>
        <time>2019-09-22T07:52:31Z</time>
      </trkpt>
      <trkpt lat="45.72616" lon="4.65434">
        <ele>386.5</ele>
        <time>2019-09-22T07:52:34Z</time>
      </trkpt>
      <trkpt lat="45.7262" lon="4.65441">
        <ele>386.3</ele>
        <time>2019-09-22T07:52:36Z</time>
      </trkpt>
      <trkpt lat="45.72627" lon="4.65463">
        <ele>386.1</ele>
        <time>2019-09-22T07:52:41Z</time>
      </trkpt>
      <trkpt lat="45.72629" lon="4.65473">
        <ele>386</ele>
        <time>2019-09-22T07:52:43Z</time>
      </trkpt>
      <trkpt lat="45.72634" lon="4.65491">
        <ele>385.9</ele>
        <time>2019-09-22T07:52:47Z</time>
      </trkpt>
      <trkpt lat="45.72637" lon="4.65497">
        <ele>385.9</ele>
        <time>2019-09-22T07:52:49Z</time>
      </trkpt>
      <trkpt lat="45.72648" lon="4.65504">
        <ele>385.8</ele>
        <time>2019-09-22T07:52:54Z</time>
      </trkpt>
      <trkpt lat="45.7265" lon="4.65506">
        <ele>385.7</ele>
        <time>2019-09-22T07:52:56Z</time>
      </trkpt>
      <trkpt lat="45.72656" lon="4.65508">
        <ele>385.7</ele>
        <time>2019-09-22T07:53:00Z</time>
      </trkpt>
      <trkpt lat="45.72657" lon="4.65509">
        <ele>385.7</ele>
        <time>2019-09-22T07:53:01Z</time>
      </trkpt>
      <trkpt lat="45.72664" lon="4.65508">
        <ele>386.2</ele>
        <time>2019-09-22T07:53:06Z</time>
      </trkpt>
      <trkpt lat="45.72665" lon="4.65508">
        <ele>386.3</ele>
        <time>2019-09-22T07:53:07Z</time>
      </trkpt>
      <trkpt lat="45.72677" lon="4.65505">
        <ele>387.4</ele>
        <time>2019-09-22T07:53:12Z</time>
      </trkpt>
      <trkpt lat="45.72687" lon="4.65508">
        <ele>388.4</ele>
        <time>2019-09-22T07:53:17Z</time>
      </trkpt>
      <trkpt lat="45.72701" lon="4.65516">
        <ele>389.7</ele>
        <time>2019-09-22T07:53:24Z</time>
      </trkpt>
      <trkpt lat="45.72715" lon="4.6552">
        <ele>391</ele>
        <time>2019-09-22T07:53:30Z</time>
      </trkpt>
      <trkpt lat="45.72717" lon="4.65521">
        <ele>391.2</ele>
        <time>2019-09-22T07:53:31Z</time>
      </trkpt>
      <trkpt lat="45.7274" lon="4.65526">
        <ele>392.8</ele>
        <time>2019-09-22T07:53:39Z</time>
      </trkpt>
      <trkpt lat="45.72763" lon="4.65525">
        <ele>393.8</ele>
        <time>2019-09-22T07:53:45Z</time>
      </trkpt>
      <trkpt lat="45.72791" lon="4.65523">
        <ele>394.6</ele>
        <time>2019-09-22T07:53:52Z</time>
      </trkpt>
      <trkpt lat="45.7282" lon="4.65534">
        <ele>395.3</ele>
        <time>2019-09-22T07:53:58Z</time>
      </trkpt>
      <trkpt lat="45.72837" lon="4.65542">
        <ele>395.5</ele>
        <time>2019-09-22T07:54:02Z</time>
      </trkpt>
      <trkpt lat="45.72848" lon="4.65547">
        <ele>395.6</ele>
        <time>2019-09-22T07:54:05Z</time>
      </trkpt>
      <trkpt lat="45.72876" lon="4.65556">
        <ele>393.6</ele>
        <time>2019-09-22T07:54:12Z</time>
      </trkpt>
      <trkpt lat="45.72913" lon="4.6556">
        <ele>390.3</ele>
        <time>2019-09-22T07:54:19Z</time>
      </trkpt>
      <trkpt lat="45.72953" lon="4.65562">
        <ele>385.7</ele>
        <time>2019-09-22T07:54:26Z</time>
      </trkpt>
      <trkpt lat="45.72958" lon="4.65563">
        <ele>385.2</ele>
        <time>2019-09-22T07:54:27Z</time>
      </trkpt>
      <trkpt lat="45.72981" lon="4.65568">
        <ele>382.9</ele>
        <time>2019-09-22T07:54:31Z</time>
      </trkpt>
      <trkpt lat="45.72997" lon="4.65572">
        <ele>381.9</ele>
        <time>2019-09-22T07:54:34Z</time>
      </trkpt>
      <trkpt lat="45.73002" lon="4.65574">
        <ele>381.5</ele>
        <time>2019-09-22T07:54:35Z</time>
      </trkpt>
      <trkpt lat="45.73013" lon="4.65578">
        <ele>380.5</ele>
        <time>2019-09-22T07:54:38Z</time>
      </trkpt>
      <trkpt lat="45.73016" lon="4.65581">
        <ele>380.2</ele>
        <time>2019-09-22T07:54:39Z</time>
      </trkpt>
      <trkpt lat="45.73028" lon="4.65594">
        <ele>378.9</ele>
        <time>2019-09-22T07:54:43Z</time>
      </trkpt>
      <trkpt lat="45.73036" lon="4.65603">
        <ele>378.2</ele>
        <time>2019-09-22T07:54:45Z</time>
      </trkpt>
      <trkpt lat="45.73052" lon="4.65615">
        <ele>377</ele>
        <time>2019-09-22T07:54:48Z</time>
      </trkpt>
      <trkpt lat="45.73072" lon="4.65627">
        <ele>375.2</ele>
        <time>2019-09-22T07:54:51Z</time>
      </trkpt>
      <trkpt lat="45.7308" lon="4.6563">
        <ele>374.6</ele>
        <time>2019-09-22T07:54:52Z</time>
      </trkpt>
      <trkpt lat="45.73088" lon="4.65632">
        <ele>374.1</ele>
        <time>2019-09-22T07:54:53Z</time>
      </trkpt>
      <trkpt lat="45.73107" lon="4.65632">
        <ele>372.8</ele>
        <time>2019-09-22T07:54:55Z</time>
      </trkpt>
      <trkpt lat="45.73125" lon="4.65631">
        <ele>371.7</ele>
        <time>2019-09-22T07:54:57Z</time>
      </trkpt>
      <trkpt lat="45.73135" lon="4.65631">
        <ele>371.1</ele>
        <time>2019-09-22T07:54:58Z</time>
      </trkpt>
      <trkpt lat="45.73144" lon="4.6563">
        <ele>370.5</ele>
        <time>2019-09-22T07:54:59Z</time>
      </trkpt>
      <trkpt lat="45.73161" lon="4.65629">
        <ele>369.1</ele>
        <time>2019-09-22T07:55:01Z</time>
      </trkpt>
      <trkpt lat="45.73168" lon="4.65629">
        <ele>368.5</ele>
        <time>2019-09-22T07:55:02Z</time>
      </trkpt>
      <trkpt lat="45.73174" lon="4.65629">
        <ele>368.1</ele>
        <time>2019-09-22T07:55:03Z</time>
      </trkpt>
      <trkpt lat="45.73185" lon="4.65629">
        <ele>367.2</ele>
        <time>2019-09-22T07:55:05Z</time>
      </trkpt>
      <trkpt lat="45.73195" lon="4.65627">
        <ele>366.6</ele>
        <time>2019-09-22T07:55:07Z</time>
      </trkpt>
      <trkpt lat="45.73204" lon="4.65624">
        <ele>365.8</ele>
        <time>2019-09-22T07:55:09Z</time>
      </trkpt>
      <trkpt lat="45.73213" lon="4.65621">
        <ele>365.3</ele>
        <time>2019-09-22T07:55:11Z</time>
      </trkpt>
      <trkpt lat="45.73224" lon="4.65616">
        <ele>365</ele>
        <time>2019-09-22T07:55:13Z</time>
      </trkpt>
      <trkpt lat="45.73229" lon="4.65613">
        <ele>364.9</ele>
        <time>2019-09-22T07:55:14Z</time>
      </trkpt>
      <trkpt lat="45.73244" lon="4.65605">
        <ele>364.7</ele>
        <time>2019-09-22T07:55:17Z</time>
      </trkpt>
      <trkpt lat="45.73249" lon="4.65603">
        <ele>364.6</ele>
        <time>2019-09-22T07:55:18Z</time>
      </trkpt>
      <trkpt lat="45.73255" lon="4.65602">
        <ele>364.6</ele>
        <time>2019-09-22T07:55:19Z</time>
      </trkpt>
      <trkpt lat="45.73268" lon="4.65604">
        <ele>364.4</ele>
        <time>2019-09-22T07:55:21Z</time>
      </trkpt>
      <trkpt lat="45.73274" lon="4.65608">
        <ele>363.9</ele>
        <time>2019-09-22T07:55:22Z</time>
      </trkpt>
      <trkpt lat="45.7328" lon="4.65613">
        <ele>363.7</ele>
        <time>2019-09-22T07:55:23Z</time>
      </trkpt>
      <trkpt lat="45.73289" lon="4.65624">
        <ele>364.1</ele>
        <time>2019-09-22T07:55:25Z</time>
      </trkpt>
      <trkpt lat="45.73293" lon="4.65627">
        <ele>364.4</ele>
        <time>2019-09-22T07:55:26Z</time>
      </trkpt>
      <trkpt lat="45.73298" lon="4.65634">
        <ele>364.9</ele>
        <time>2019-09-22T07:55:28Z</time>
      </trkpt>
      <trkpt lat="45.73309" lon="4.65651">
        <ele>366.1</ele>
        <time>2019-09-22T07:55:34Z</time>
      </trkpt>
      <trkpt lat="45.73313" lon="4.65659">
        <ele>366.5</ele>
        <time>2019-09-22T07:55:37Z</time>
      </trkpt>
      <trkpt lat="45.73317" lon="4.65665">
        <ele>367</ele>
        <time>2019-09-22T07:55:40Z</time>
      </trkpt>
      <trkpt lat="45.73321" lon="4.6567">
        <ele>367.4</ele>
        <time>2019-09-22T07:55:43Z</time>
      </trkpt>
      <trkpt lat="45.73328" lon="4.65676">
        <ele>367.9</ele>
        <time>2019-09-22T07:55:47Z</time>
      </trkpt>
      <trkpt lat="45.73334" lon="4.6568">
        <ele>368.4</ele>
        <time>2019-09-22T07:55:51Z</time>
      </trkpt>
      <trkpt lat="45.73339" lon="4.6568">
        <ele>368.8</ele>
        <time>2019-09-22T07:55:54Z</time>
      </trkpt>
      <trkpt lat="45.73341" lon="4.6568">
        <ele>368.9</ele>
        <time>2019-09-22T07:55:55Z</time>
      </trkpt>
      <trkpt lat="45.73346" lon="4.65677">
        <ele>369.2</ele>
        <time>2019-09-22T07:55:58Z</time>
      </trkpt>
      <trkpt lat="45.73351" lon="4.65673">
        <ele>369.5</ele>
        <time>2019-09-22T07:56:01Z</time>
      </trkpt>
      <trkpt lat="45.73356" lon="4.65669">
        <ele>369.9</ele>
        <time>2019-09-22T07:56:04Z</time>
      </trkpt>
      <trkpt lat="45.73362" lon="4.65662">
        <ele>370.3</ele>
        <time>2019-09-22T07:56:08Z</time>
      </trkpt>
      <trkpt lat="45.73367" lon="4.65657">
        <ele>370.7</ele>
        <time>2019-09-22T07:56:11Z</time>
      </trkpt>
      <trkpt lat="45.73371" lon="4.65654">
        <ele>370.9</ele>
        <time>2019-09-22T07:56:13Z</time>
      </trkpt>
      <trkpt lat="45.73382" lon="4.65644">
        <ele>371.7</ele>
        <time>2019-09-22T07:56:19Z</time>
      </trkpt>
      <trkpt lat="45.73388" lon="4.65641">
        <ele>372</ele>
        <time>2019-09-22T07:56:22Z</time>
      </trkpt>
      <trkpt lat="45.73397" lon="4.65635">
        <ele>372.7</ele>
        <time>2019-09-22T07:56:27Z</time>
      </trkpt>
      <trkpt lat="45.73405" lon="4.65631">
        <ele>373.2</ele>
        <time>2019-09-22T07:56:31Z</time>
      </trkpt>
      <trkpt lat="45.73413" lon="4.65628">
        <ele>373.5</ele>
        <time>2019-09-22T07:56:35Z</time>
      </trkpt>
      <trkpt lat="45.73417" lon="4.65627">
        <ele>373.7</ele>
        <time>2019-09-22T07:56:37Z</time>
      </trkpt>
      <trkpt lat="45.73424" lon="4.65627">
        <ele>374</ele>
        <time>2019-09-22T07:56:40Z</time>
      </trkpt>
      <trkpt lat="45.73433" lon="4.65626">
        <ele>374.4</ele>
        <time>2019-09-22T07:56:44Z</time>
      </trkpt>
      <trkpt lat="45.73442" lon="4.65625">
        <ele>374.7</ele>
        <time>2019-09-22T07:56:48Z</time>
      </trkpt>
      <trkpt lat="45.73447" lon="4.65625">
        <ele>374.9</ele>
        <time>2019-09-22T07:56:50Z</time>
      </trkpt>
      <trkpt lat="45.73458" lon="4.65626">
        <ele>375.4</ele>
        <time>2019-09-22T07:56:55Z</time>
      </trkpt>
      <trkpt lat="45.73467" lon="4.65628">
        <ele>375.8</ele>
        <time>2019-09-22T07:56:59Z</time>
      </trkpt>
      <trkpt lat="45.73474" lon="4.65629">
        <ele>376.6</ele>
        <time>2019-09-22T07:57:03Z</time>
      </trkpt>
      <trkpt lat="45.73479" lon="4.6563">
        <ele>377.2</ele>
        <time>2019-09-22T07:57:05Z</time>
      </trkpt>
      <trkpt lat="45.73486" lon="4.6563">
        <ele>377.8</ele>
        <time>2019-09-22T07:57:08Z</time>
      </trkpt>
      <trkpt lat="45.73493" lon="4.65631">
        <ele>378.5</ele>
        <time>2019-09-22T07:57:11Z</time>
      </trkpt>
      <trkpt lat="45.73495" lon="4.65632">
        <ele>378.7</ele>
        <time>2019-09-22T07:57:12Z</time>
      </trkpt>
      <trkpt lat="45.735" lon="4.65632">
        <ele>379.3</ele>
        <time>2019-09-22T07:57:14Z</time>
      </trkpt>
      <trkpt lat="45.73509" lon="4.65634">
        <ele>380.2</ele>
        <time>2019-09-22T07:57:18Z</time>
      </trkpt>
      <trkpt lat="45.73512" lon="4.65635">
        <ele>380.4</ele>
        <time>2019-09-22T07:57:19Z</time>
      </trkpt>
      <trkpt lat="45.73518" lon="4.65637">
        <ele>381.2</ele>
        <time>2019-09-22T07:57:22Z</time>
      </trkpt>
      <trkpt lat="45.73528" lon="4.65638">
        <ele>382.3</ele>
        <time>2019-09-22T07:57:26Z</time>
      </trkpt>
      <trkpt lat="45.73531" lon="4.65638">
        <ele>382.8</ele>
        <time>2019-09-22T07:57:28Z</time>
      </trkpt>
      <trkpt lat="45.73533" lon="4.65638">
        <ele>383.1</ele>
        <time>2019-09-22T07:57:29Z</time>
      </trkpt>
      <trkpt lat="45.7354" lon="4.65638">
        <ele>383.9</ele>
        <time>2019-09-22T07:57:32Z</time>
      </trkpt>
      <trkpt lat="45.73546" lon="4.65639">
        <ele>384.7</ele>
        <time>2019-09-22T07:57:35Z</time>
      </trkpt>
      <trkpt lat="45.73548" lon="4.6564">
        <ele>385</ele>
        <time>2019-09-22T07:57:36Z</time>
      </trkpt>
      <trkpt lat="45.7355" lon="4.65639">
        <ele>385.3</ele>
        <time>2019-09-22T07:57:37Z</time>
      </trkpt>
      <trkpt lat="45.73556" lon="4.65639">
        <ele>386.1</ele>
        <time>2019-09-22T07:57:40Z</time>
      </trkpt>
      <trkpt lat="45.73564" lon="4.65637">
        <ele>387</ele>
        <time>2019-09-22T07:57:44Z</time>
      </trkpt>
      <trkpt lat="45.73565" lon="4.65637">
        <ele>387.2</ele>
        <time>2019-09-22T07:57:45Z</time>
      </trkpt>
      <trkpt lat="45.73571" lon="4.65637">
        <ele>387.8</ele>
        <time>2019-09-22T07:57:48Z</time>
      </trkpt>
      <trkpt lat="45.73578" lon="4.65637">
        <ele>388.7</ele>
        <time>2019-09-22T07:57:52Z</time>
      </trkpt>
      <trkpt lat="45.73579" lon="4.65638">
        <ele>388.8</ele>
        <time>2019-09-22T07:57:53Z</time>
      </trkpt>
      <trkpt lat="45.73591" lon="4.65639">
        <ele>389.7</ele>
        <time>2019-09-22T07:58:00Z</time>
      </trkpt>
      <trkpt lat="45.73593" lon="4.6564">
        <ele>389.8</ele>
        <time>2019-09-22T07:58:01Z</time>
      </trkpt>
      <trkpt lat="45.736" lon="4.65639">
        <ele>390.5</ele>
        <time>2019-09-22T07:58:05Z</time>
      </trkpt>
      <trkpt lat="45.73606" lon="4.65639">
        <ele>391.1</ele>
        <time>2019-09-22T07:58:08Z</time>
      </trkpt>
      <trkpt lat="45.73612" lon="4.6564">
        <ele>391.7</ele>
        <time>2019-09-22T07:58:11Z</time>
      </trkpt>
      <trkpt lat="45.73621" lon="4.6564">
        <ele>392.5</ele>
        <time>2019-09-22T07:58:15Z</time>
      </trkpt>
      <trkpt lat="45.73626" lon="4.65641">
        <ele>393</ele>
        <time>2019-09-22T07:58:17Z</time>
      </trkpt>
      <trkpt lat="45.73637" lon="4.6564">
        <ele>394.1</ele>
        <time>2019-09-22T07:58:22Z</time>
      </trkpt>
      <trkpt lat="45.73646" lon="4.6564">
        <ele>395</ele>
        <time>2019-09-22T07:58:26Z</time>
      </trkpt>
      <trkpt lat="45.73657" lon="4.65642">
        <ele>396.2</ele>
        <time>2019-09-22T07:58:31Z</time>
      </trkpt>
      <trkpt lat="45.73664" lon="4.65642">
        <ele>396.9</ele>
        <time>2019-09-22T07:58:34Z</time>
      </trkpt>
      <trkpt lat="45.73666" lon="4.65642">
        <ele>397.2</ele>
        <time>2019-09-22T07:58:35Z</time>
      </trkpt>
      <trkpt lat="45.73672" lon="4.65642">
        <ele>397.9</ele>
        <time>2019-09-22T07:58:38Z</time>
      </trkpt>
      <trkpt lat="45.73683" lon="4.65644">
        <ele>399</ele>
        <time>2019-09-22T07:58:43Z</time>
      </trkpt>
      <trkpt lat="45.73691" lon="4.65644">
        <ele>400</ele>
        <time>2019-09-22T07:58:47Z</time>
      </trkpt>
      <trkpt lat="45.73695" lon="4.65644">
        <ele>400.6</ele>
        <time>2019-09-22T07:58:49Z</time>
      </trkpt>
      <trkpt lat="45.73697" lon="4.65645">
        <ele>400.9</ele>
        <time>2019-09-22T07:58:50Z</time>
      </trkpt>
      <trkpt lat="45.73706" lon="4.65647">
        <ele>401.7</ele>
        <time>2019-09-22T07:58:54Z</time>
      </trkpt>
      <trkpt lat="45.73713" lon="4.65649">
        <ele>402.7</ele>
        <time>2019-09-22T07:58:58Z</time>
      </trkpt>
      <trkpt lat="45.73715" lon="4.65648">
        <ele>402.9</ele>
        <time>2019-09-22T07:58:59Z</time>
      </trkpt>
      <trkpt lat="45.73728" lon="4.65643">
        <ele>404.4</ele>
        <time>2019-09-22T07:59:06Z</time>
      </trkpt>
      <trkpt lat="45.73732" lon="4.65643">
        <ele>404.8</ele>
        <time>2019-09-22T07:59:08Z</time>
      </trkpt>
      <trkpt lat="45.7374" lon="4.65646">
        <ele>406</ele>
        <time>2019-09-22T07:59:13Z</time>
      </trkpt>
      <trkpt lat="45.73744" lon="4.65648">
        <ele>406.4</ele>
        <time>2019-09-22T07:59:15Z</time>
      </trkpt>
      <trkpt lat="45.73757" lon="4.6565">
        <ele>407.9</ele>
        <time>2019-09-22T07:59:22Z</time>
      </trkpt>
      <trkpt lat="45.73763" lon="4.65653">
        <ele>408.9</ele>
        <time>2019-09-22T07:59:26Z</time>
      </trkpt>
      <trkpt lat="45.7377" lon="4.65657">
        <ele>409.9</ele>
        <time>2019-09-22T07:59:30Z</time>
      </trkpt>
      <trkpt lat="45.73772" lon="4.65658">
        <ele>410.2</ele>
        <time>2019-09-22T07:59:31Z</time>
      </trkpt>
      <trkpt lat="45.73779" lon="4.65662">
        <ele>411.4</ele>
        <time>2019-09-22T07:59:35Z</time>
      </trkpt>
      <trkpt lat="45.73785" lon="4.65665">
        <ele>412.3</ele>
        <time>2019-09-22T07:59:38Z</time>
      </trkpt>
      <trkpt lat="45.7379" lon="4.65666">
        <ele>413.2</ele>
        <time>2019-09-22T07:59:41Z</time>
      </trkpt>
      <trkpt lat="45.73798" lon="4.65666">
        <ele>415.1</ele>
        <time>2019-09-22T07:59:46Z</time>
      </trkpt>
      <trkpt lat="45.73799" lon="4.65667">
        <ele>415.2</ele>
        <time>2019-09-22T07:59:47Z</time>
      </trkpt>
      <trkpt lat="45.73804" lon="4.6567">
        <ele>416.1</ele>
        <time>2019-09-22T07:59:50Z</time>
      </trkpt>
      <trkpt lat="45.73808" lon="4.65673">
        <ele>416.7</ele>
        <time>2019-09-22T07:59:52Z</time>
      </trkpt>
      <trkpt lat="45.73814" lon="4.65675">
        <ele>418.1</ele>
        <time>2019-09-22T07:59:55Z</time>
      </trkpt>
      <trkpt lat="45.7382" lon="4.65679">
        <ele>419.9</ele>
        <time>2019-09-22T07:59:59Z</time>
      </trkpt>
      <trkpt lat="45.73823" lon="4.6568">
        <ele>420.5</ele>
        <time>2019-09-22T08:00:01Z</time>
      </trkpt>
      <trkpt lat="45.73826" lon="4.65681">
        <ele>421.2</ele>
        <time>2019-09-22T08:00:03Z</time>
      </trkpt>
      <trkpt lat="45.73831" lon="4.65685">
        <ele>422.4</ele>
        <time>2019-09-22T08:00:06Z</time>
      </trkpt>
      <trkpt lat="45.73834" lon="4.65688">
        <ele>423</ele>
        <time>2019-09-22T08:00:08Z</time>
      </trkpt>
      <trkpt lat="45.73835" lon="4.65691">
        <ele>423.4</ele>
        <time>2019-09-22T08:00:09Z</time>
      </trkpt>
      <trkpt lat="45.73837" lon="4.65694">
        <ele>424.1</ele>
        <time>2019-09-22T08:00:11Z</time>
      </trkpt>
      <trkpt lat="45.7384" lon="4.65696">
        <ele>424.8</ele>
        <time>2019-09-22T08:00:13Z</time>
      </trkpt>
      <trkpt lat="45.73847" lon="4.65699">
        <ele>426.5</ele>
        <time>2019-09-22T08:00:16Z</time>
      </trkpt>
      <trkpt lat="45.73861" lon="4.65701">
        <ele>429.3</ele>
        <time>2019-09-22T08:00:24Z</time>
      </trkpt>
      <trkpt lat="45.73865" lon="4.65701">
        <ele>430.1</ele>
        <time>2019-09-22T08:00:26Z</time>
      </trkpt>
      <trkpt lat="45.73875" lon="4.65702">
        <ele>432.1</ele>
        <time>2019-09-22T08:00:31Z</time>
      </trkpt>
      <trkpt lat="45.73878" lon="4.65704">
        <ele>432.6</ele>
        <time>2019-09-22T08:00:32Z</time>
      </trkpt>
      <trkpt lat="45.73894" lon="4.65713">
        <ele>435.8</ele>
        <time>2019-09-22T08:00:41Z</time>
      </trkpt>
      <trkpt lat="45.73903" lon="4.65717">
        <ele>437.6</ele>
        <time>2019-09-22T08:00:46Z</time>
      </trkpt>
      <trkpt lat="45.73905" lon="4.65717">
        <ele>437.9</ele>
        <time>2019-09-22T08:00:47Z</time>
      </trkpt>
      <trkpt lat="45.73915" lon="4.65718">
        <ele>439.1</ele>
        <time>2019-09-22T08:00:51Z</time>
      </trkpt>
      <trkpt lat="45.73923" lon="4.65716">
        <ele>440.4</ele>
        <time>2019-09-22T08:00:55Z</time>
      </trkpt>
      <trkpt lat="45.73926" lon="4.65716">
        <ele>440.4</ele>
        <time>2019-09-22T08:00:57Z</time>
      </trkpt>
      <trkpt lat="45.73936" lon="4.6571">
        <ele>440.4</ele>
        <time>2019-09-22T08:01:03Z</time>
      </trkpt>
      <trkpt lat="45.73938" lon="4.65708">
        <ele>440.4</ele>
        <time>2019-09-22T08:01:04Z</time>
      </trkpt>
      <trkpt lat="45.73944" lon="4.65702">
        <ele>440.5</ele>
        <time>2019-09-22T08:01:08Z</time>
      </trkpt>
      <trkpt lat="45.73946" lon="4.65699">
        <ele>440.5</ele>
        <time>2019-09-22T08:01:10Z</time>
      </trkpt>
      <trkpt lat="45.73961" lon="4.65686">
        <ele>440.6</ele>
        <time>2019-09-22T08:01:20Z</time>
      </trkpt>
      <trkpt lat="45.73964" lon="4.65684">
        <ele>440.7</ele>
        <time>2019-09-22T08:01:22Z</time>
      </trkpt>
      <trkpt lat="45.73975" lon="4.65677">
        <ele>441.2</ele>
        <time>2019-09-22T08:01:29Z</time>
      </trkpt>
      <trkpt lat="45.73985" lon="4.65676">
        <ele>442.1</ele>
        <time>2019-09-22T08:01:34Z</time>
      </trkpt>
      <trkpt lat="45.73989" lon="4.65676">
        <ele>442.7</ele>
        <time>2019-09-22T08:01:36Z</time>
      </trkpt>
      <trkpt lat="45.74003" lon="4.65668">
        <ele>444.7</ele>
        <time>2019-09-22T08:01:44Z</time>
      </trkpt>
      <trkpt lat="45.74007" lon="4.65665">
        <ele>445.2</ele>
        <time>2019-09-22T08:01:46Z</time>
      </trkpt>
      <trkpt lat="45.74014" lon="4.65658">
        <ele>447.3</ele>
        <time>2019-09-22T08:01:52Z</time>
      </trkpt>
      <trkpt lat="45.74016" lon="4.65658">
        <ele>447.6</ele>
        <time>2019-09-22T08:01:53Z</time>
      </trkpt>
      <trkpt lat="45.74019" lon="4.65666">
        <ele>449</ele>
        <time>2019-09-22T08:01:58Z</time>
      </trkpt>
      <trkpt lat="45.74026" lon="4.65674">
        <ele>450.4</ele>
        <time>2019-09-22T08:02:04Z</time>
      </trkpt>
      <trkpt lat="45.74032" lon="4.65679">
        <ele>451.2</ele>
        <time>2019-09-22T08:02:09Z</time>
      </trkpt>
      <trkpt lat="45.74035" lon="4.6568">
        <ele>451.5</ele>
        <time>2019-09-22T08:02:12Z</time>
      </trkpt>
      <trkpt lat="45.74037" lon="4.65681">
        <ele>451.6</ele>
        <time>2019-09-22T08:02:13Z</time>
      </trkpt>
      <trkpt lat="45.74039" lon="4.65682">
        <ele>451.8</ele>
        <time>2019-09-22T08:02:15Z</time>
      </trkpt>
      <trkpt lat="45.74043" lon="4.65683">
        <ele>452</ele>
        <time>2019-09-22T08:02:18Z</time>
      </trkpt>
      <trkpt lat="45.74046" lon="4.65683">
        <ele>452.2</ele>
        <time>2019-09-22T08:02:20Z</time>
      </trkpt>
      <trkpt lat="45.74047" lon="4.65684">
        <ele>452.3</ele>
        <time>2019-09-22T08:02:21Z</time>
      </trkpt>
      <trkpt lat="45.74051" lon="4.65685">
        <ele>452.5</ele>
        <time>2019-09-22T08:02:24Z</time>
      </trkpt>
      <trkpt lat="45.74055" lon="4.65686">
        <ele>452.7</ele>
        <time>2019-09-22T08:02:27Z</time>
      </trkpt>
      <trkpt lat="45.74057" lon="4.65685">
        <ele>452.9</ele>
        <time>2019-09-22T08:02:29Z</time>
      </trkpt>
      <trkpt lat="45.74058" lon="4.65684">
        <ele>453</ele>
        <time>2019-09-22T08:02:30Z</time>
      </trkpt>
      <trkpt lat="45.74061" lon="4.65676">
        <ele>452.9</ele>
        <time>2019-09-22T08:02:34Z</time>
      </trkpt>
      <trkpt lat="45.74063" lon="4.65671">
        <ele>452.7</ele>
        <time>2019-09-22T08:02:36Z</time>
      </trkpt>
      <trkpt lat="45.74064" lon="4.65659">
        <ele>452.5</ele>
        <time>2019-09-22T08:02:38Z</time>
      </trkpt>
      <trkpt lat="45.74063" lon="4.65654">
        <ele>452.4</ele>
        <time>2019-09-22T08:02:39Z</time>
      </trkpt>
      <trkpt lat="45.74063" lon="4.65647">
        <ele>452.2</ele>
        <time>2019-09-22T08:02:40Z</time>
      </trkpt>
      <trkpt lat="45.74062" lon="4.65633">
        <ele>451.6</ele>
        <time>2019-09-22T08:02:42Z</time>
      </trkpt>
      <trkpt lat="45.74061" lon="4.65626">
        <ele>451.3</ele>
        <time>2019-09-22T08:02:43Z</time>
      </trkpt>
      <trkpt lat="45.74062" lon="4.65612">
        <ele>450.8</ele>
        <time>2019-09-22T08:02:45Z</time>
      </trkpt>
      <trkpt lat="45.74063" lon="4.65597">
        <ele>450.2</ele>
        <time>2019-09-22T08:02:48Z</time>
      </trkpt>
      <trkpt lat="45.74065" lon="4.65594">
        <ele>450</ele>
        <time>2019-09-22T08:02:49Z</time>
      </trkpt>
      <trkpt lat="45.74067" lon="4.65593">
        <ele>449.8</ele>
        <time>2019-09-22T08:02:50Z</time>
      </trkpt>
      <trkpt lat="45.74068" lon="4.65592">
        <ele>449.6</ele>
        <time>2019-09-22T08:02:51Z</time>
      </trkpt>
      <trkpt lat="45.74078" lon="4.65583">
        <ele>451.2</ele>
        <time>2019-09-22T08:02:59Z</time>
      </trkpt>
      <trkpt lat="45.74086" lon="4.65565">
        <ele>452</ele>
        <time>2019-09-22T08:03:06Z</time>
      </trkpt>
      <trkpt lat="45.74097" lon="4.65546">
        <ele>451.7</ele>
        <time>2019-09-22T08:03:13Z</time>
      </trkpt>
      <trkpt lat="45.7411" lon="4.65529">
        <ele>451.7</ele>
        <time>2019-09-22T08:03:19Z</time>
      </trkpt>
      <trkpt lat="45.74121" lon="4.65516">
        <ele>451.8</ele>
        <time>2019-09-22T08:03:24Z</time>
      </trkpt>
      <trkpt lat="45.74124" lon="4.65513">
        <ele>451.8</ele>
        <time>2019-09-22T08:03:25Z</time>
      </trkpt>
      <trkpt lat="45.74141" lon="4.65492">
        <ele>451.1</ele>
        <time>2019-09-22T08:03:31Z</time>
      </trkpt>
      <trkpt lat="45.74145" lon="4.65488">
        <ele>450.9</ele>
        <time>2019-09-22T08:03:32Z</time>
      </trkpt>
      <trkpt lat="45.7416" lon="4.65474">
        <ele>450.6</ele>
        <time>2019-09-22T08:03:36Z</time>
      </trkpt>
      <trkpt lat="45.74168" lon="4.65466">
        <ele>450.7</ele>
        <time>2019-09-22T08:03:38Z</time>
      </trkpt>
      <trkpt lat="45.74195" lon="4.65441">
        <ele>451.6</ele>
        <time>2019-09-22T08:03:45Z</time>
      </trkpt>
      <trkpt lat="45.7422" lon="4.65413">
        <ele>452.8</ele>
        <time>2019-09-22T08:03:53Z</time>
      </trkpt>
      <trkpt lat="45.74228" lon="4.654">
        <ele>453.1</ele>
        <time>2019-09-22T08:03:56Z</time>
      </trkpt>
      <trkpt lat="45.74237" lon="4.65382">
        <ele>453.2</ele>
        <time>2019-09-22T08:04:00Z</time>
      </trkpt>
      <trkpt lat="45.74239" lon="4.65377">
        <ele>453.2</ele>
        <time>2019-09-22T08:04:01Z</time>
      </trkpt>
      <trkpt lat="45.7425" lon="4.65354">
        <ele>453.2</ele>
        <time>2019-09-22T08:04:06Z</time>
      </trkpt>
      <trkpt lat="45.74258" lon="4.65337">
        <ele>453.1</ele>
        <time>2019-09-22T08:04:09Z</time>
      </trkpt>
      <trkpt lat="45.74265" lon="4.65327">
        <ele>453</ele>
        <time>2019-09-22T08:04:11Z</time>
      </trkpt>
      <trkpt lat="45.74292" lon="4.65298">
        <ele>455.7</ele>
        <time>2019-09-22T08:04:17Z</time>
      </trkpt>
      <trkpt lat="45.74312" lon="4.65295">
        <ele>459</ele>
        <time>2019-09-22T08:04:21Z</time>
      </trkpt>
      <trkpt lat="45.74325" lon="4.65295">
        <ele>461.6</ele>
        <time>2019-09-22T08:04:24Z</time>
      </trkpt>
      <trkpt lat="45.74332" lon="4.65297">
        <ele>463.2</ele>
        <time>2019-09-22T08:04:26Z</time>
      </trkpt>
      <trkpt lat="45.74345" lon="4.65301">
        <ele>465.7</ele>
        <time>2019-09-22T08:04:30Z</time>
      </trkpt>
      <trkpt lat="45.74351" lon="4.65303">
        <ele>466.7</ele>
        <time>2019-09-22T08:04:32Z</time>
      </trkpt>
      <trkpt lat="45.74356" lon="4.65305">
        <ele>467.5</ele>
        <time>2019-09-22T08:04:34Z</time>
      </trkpt>
      <trkpt lat="45.74364" lon="4.65304">
        <ele>468.7</ele>
        <time>2019-09-22T08:04:38Z</time>
      </trkpt>
      <trkpt lat="45.74373" lon="4.65298">
        <ele>470.3</ele>
        <time>2019-09-22T08:04:43Z</time>
      </trkpt>
      <trkpt lat="45.74376" lon="4.65295">
        <ele>471</ele>
        <time>2019-09-22T08:04:45Z</time>
      </trkpt>
      <trkpt lat="45.74381" lon="4.65291">
        <ele>471.9</ele>
        <time>2019-09-22T08:04:48Z</time>
      </trkpt>
      <trkpt lat="45.74386" lon="4.65284">
        <ele>473.4</ele>
        <time>2019-09-22T08:04:52Z</time>
      </trkpt>
      <trkpt lat="45.74389" lon="4.65281">
        <ele>473.9</ele>
        <time>2019-09-22T08:04:54Z</time>
      </trkpt>
      <trkpt lat="45.7439" lon="4.65279">
        <ele>474.1</ele>
        <time>2019-09-22T08:04:55Z</time>
      </trkpt>
      <trkpt lat="45.74393" lon="4.65275">
        <ele>474.8</ele>
        <time>2019-09-22T08:04:58Z</time>
      </trkpt>
      <trkpt lat="45.74396" lon="4.65272">
        <ele>475.2</ele>
        <time>2019-09-22T08:05:00Z</time>
      </trkpt>
      <trkpt lat="45.74398" lon="4.65268">
        <ele>475.9</ele>
        <time>2019-09-22T08:05:03Z</time>
      </trkpt>
      <trkpt lat="45.744" lon="4.65264">
        <ele>476.3</ele>
        <time>2019-09-22T08:05:05Z</time>
      </trkpt>
      <trkpt lat="45.74401" lon="4.65258">
        <ele>477</ele>
        <time>2019-09-22T08:05:08Z</time>
      </trkpt>
      <trkpt lat="45.74401" lon="4.65254">
        <ele>477.4</ele>
        <time>2019-09-22T08:05:10Z</time>
      </trkpt>
      <trkpt lat="45.74401" lon="4.65249">
        <ele>477.9</ele>
        <time>2019-09-22T08:05:12Z</time>
      </trkpt>
      <trkpt lat="45.74401" lon="4.65237">
        <ele>478.7</ele>
        <time>2019-09-22T08:05:17Z</time>
      </trkpt>
      <trkpt lat="45.74399" lon="4.65233">
        <ele>478.7</ele>
        <time>2019-09-22T08:05:19Z</time>
      </trkpt>
      <trkpt lat="45.74396" lon="4.65225">
        <ele>478.7</ele>
        <time>2019-09-22T08:05:22Z</time>
      </trkpt>
      <trkpt lat="45.74392" lon="4.65213">
        <ele>478.8</ele>
        <time>2019-09-22T08:05:26Z</time>
      </trkpt>
      <trkpt lat="45.74383" lon="4.65194">
        <ele>479.2</ele>
        <time>2019-09-22T08:05:33Z</time>
      </trkpt>
      <trkpt lat="45.74377" lon="4.65169">
        <ele>479.8</ele>
        <time>2019-09-22T08:05:42Z</time>
      </trkpt>
      <trkpt lat="45.74376" lon="4.65166">
        <ele>479.8</ele>
        <time>2019-09-22T08:05:43Z</time>
      </trkpt>
      <trkpt lat="45.74376" lon="4.65151">
        <ele>480.2</ele>
        <time>2019-09-22T08:05:49Z</time>
      </trkpt>
      <trkpt lat="45.74376" lon="4.65149">
        <ele>480.3</ele>
        <time>2019-09-22T08:05:50Z</time>
      </trkpt>
      <trkpt lat="45.74376" lon="4.65142">
        <ele>480.6</ele>
        <time>2019-09-22T08:05:53Z</time>
      </trkpt>
      <trkpt lat="45.74376" lon="4.65134">
        <ele>480.9</ele>
        <time>2019-09-22T08:05:56Z</time>
      </trkpt>
      <trkpt lat="45.74375" lon="4.65123">
        <ele>481.3</ele>
        <time>2019-09-22T08:06:00Z</time>
      </trkpt>
      <trkpt lat="45.74375" lon="4.65113">
        <ele>481.5</ele>
        <time>2019-09-22T08:06:04Z</time>
      </trkpt>
      <trkpt lat="45.74376" lon="4.65104">
        <ele>481.4</ele>
        <time>2019-09-22T08:06:08Z</time>
      </trkpt>
      <trkpt lat="45.74377" lon="4.65102">
        <ele>481.3</ele>
        <time>2019-09-22T08:06:09Z</time>
      </trkpt>
      <trkpt lat="45.74377" lon="4.65095">
        <ele>481.1</ele>
        <time>2019-09-22T08:06:14Z</time>
      </trkpt>
      <trkpt lat="45.74376" lon="4.65092">
        <ele>481.1</ele>
        <time>2019-09-22T08:06:31Z</time>
      </trkpt>
      <trkpt lat="45.74369" lon="4.65076">
        <ele>480.8</ele>
        <time>2019-09-22T08:06:36Z</time>
      </trkpt>
      <trkpt lat="45.74357" lon="4.65043">
        <ele>482.5</ele>
        <time>2019-09-22T08:06:43Z</time>
      </trkpt>
      <trkpt lat="45.74357" lon="4.6503">
        <ele>483.7</ele>
        <time>2019-09-22T08:06:47Z</time>
      </trkpt>
      <trkpt lat="45.74358" lon="4.65023">
        <ele>484.6</ele>
        <time>2019-09-22T08:06:52Z</time>
      </trkpt>
      <trkpt lat="45.7436" lon="4.65009">
        <ele>486.3</ele>
        <time>2019-09-22T08:06:59Z</time>
      </trkpt>
      <trkpt lat="45.74362" lon="4.64999">
        <ele>487.9</ele>
        <time>2019-09-22T08:07:04Z</time>
      </trkpt>
      <trkpt lat="45.74362" lon="4.64996">
        <ele>488.4</ele>
        <time>2019-09-22T08:07:06Z</time>
      </trkpt>
      <trkpt lat="45.74363" lon="4.64988">
        <ele>489.6</ele>
        <time>2019-09-22T08:07:10Z</time>
      </trkpt>
      <trkpt lat="45.74363" lon="4.64983">
        <ele>490.5</ele>
        <time>2019-09-22T08:07:13Z</time>
      </trkpt>
      <trkpt lat="45.74364" lon="4.64981">
        <ele>490.8</ele>
        <time>2019-09-22T08:07:14Z</time>
      </trkpt>
      <trkpt lat="45.74364" lon="4.64977">
        <ele>491.3</ele>
        <time>2019-09-22T08:07:16Z</time>
      </trkpt>
      <trkpt lat="45.74365" lon="4.64973">
        <ele>492</ele>
        <time>2019-09-22T08:07:19Z</time>
      </trkpt>
      <trkpt lat="45.74365" lon="4.64969">
        <ele>492.8</ele>
        <time>2019-09-22T08:07:22Z</time>
      </trkpt>
      <trkpt lat="45.74366" lon="4.64964">
        <ele>493.6</ele>
        <time>2019-09-22T08:07:25Z</time>
      </trkpt>
      <trkpt lat="45.74366" lon="4.64962">
        <ele>494</ele>
        <time>2019-09-22T08:07:26Z</time>
      </trkpt>
      <trkpt lat="45.74367" lon="4.64958">
        <ele>494.7</ele>
        <time>2019-09-22T08:07:29Z</time>
      </trkpt>
      <trkpt lat="45.74367" lon="4.64954">
        <ele>495.3</ele>
        <time>2019-09-22T08:07:31Z</time>
      </trkpt>
      <trkpt lat="45.74368" lon="4.64949">
        <ele>496</ele>
        <time>2019-09-22T08:07:34Z</time>
      </trkpt>
      <trkpt lat="45.74368" lon="4.64946">
        <ele>496.6</ele>
        <time>2019-09-22T08:07:37Z</time>
      </trkpt>
      <trkpt lat="45.74369" lon="4.64944">
        <ele>496.9</ele>
        <time>2019-09-22T08:07:38Z</time>
      </trkpt>
      <trkpt lat="45.74369" lon="4.64941">
        <ele>497.3</ele>
        <time>2019-09-22T08:07:40Z</time>
      </trkpt>
      <trkpt lat="45.74369" lon="4.6494">
        <ele>497.5</ele>
        <time>2019-09-22T08:07:41Z</time>
      </trkpt>
      <trkpt lat="45.74369" lon="4.64934">
        <ele>498.4</ele>
        <time>2019-09-22T08:07:46Z</time>
      </trkpt>
      <trkpt lat="45.7437" lon="4.64926">
        <ele>499.5</ele>
        <time>2019-09-22T08:07:52Z</time>
      </trkpt>
      <trkpt lat="45.7437" lon="4.64925">
        <ele>499.7</ele>
        <time>2019-09-22T08:07:53Z</time>
      </trkpt>
      <trkpt lat="45.74369" lon="4.64924">
        <ele>499.9</ele>
        <time>2019-09-22T08:07:54Z</time>
      </trkpt>
      <trkpt lat="45.74369" lon="4.64918">
        <ele>500.6</ele>
        <time>2019-09-22T08:07:58Z</time>
      </trkpt>
      <trkpt lat="45.74369" lon="4.64916">
        <ele>500.8</ele>
        <time>2019-09-22T08:07:59Z</time>
      </trkpt>
      <trkpt lat="45.74369" lon="4.64915">
        <ele>501</ele>
        <time>2019-09-22T08:08:00Z</time>
      </trkpt>
      <trkpt lat="45.74368" lon="4.64909">
        <ele>501.7</ele>
        <time>2019-09-22T08:08:04Z</time>
      </trkpt>
      <trkpt lat="45.74368" lon="4.64904">
        <ele>502.2</ele>
        <time>2019-09-22T08:08:07Z</time>
      </trkpt>
      <trkpt lat="45.74368" lon="4.64899">
        <ele>502.7</ele>
        <time>2019-09-22T08:08:10Z</time>
      </trkpt>
      <trkpt lat="45.74369" lon="4.64895">
        <ele>503.1</ele>
        <time>2019-09-22T08:08:13Z</time>
      </trkpt>
      <trkpt lat="45.74367" lon="4.64886">
        <ele>504.1</ele>
        <time>2019-09-22T08:08:20Z</time>
      </trkpt>
      <trkpt lat="45.74367" lon="4.64884">
        <ele>504.3</ele>
        <time>2019-09-22T08:08:21Z</time>
      </trkpt>
      <trkpt lat="45.74366" lon="4.64875">
        <ele>505.2</ele>
        <time>2019-09-22T08:08:27Z</time>
      </trkpt>
      <trkpt lat="45.74365" lon="4.64869">
        <ele>505.8</ele>
        <time>2019-09-22T08:08:31Z</time>
      </trkpt>
      <trkpt lat="45.74365" lon="4.64862">
        <ele>506.3</ele>
        <time>2019-09-22T08:08:35Z</time>
      </trkpt>
      <trkpt lat="45.74363" lon="4.64852">
        <ele>507.2</ele>
        <time>2019-09-22T08:08:41Z</time>
      </trkpt>
      <trkpt lat="45.74363" lon="4.64848">
        <ele>507.4</ele>
        <time>2019-09-22T08:08:44Z</time>
      </trkpt>
      <trkpt lat="45.74362" lon="4.64843">
        <ele>507.8</ele>
        <time>2019-09-22T08:08:47Z</time>
      </trkpt>
      <trkpt lat="45.74361" lon="4.64834">
        <ele>508.3</ele>
        <time>2019-09-22T08:08:52Z</time>
      </trkpt>
      <trkpt lat="45.74361" lon="4.64828">
        <ele>508.6</ele>
        <time>2019-09-22T08:08:56Z</time>
      </trkpt>
      <trkpt lat="45.74359" lon="4.64818">
        <ele>509.1</ele>
        <time>2019-09-22T08:09:02Z</time>
      </trkpt>
      <trkpt lat="45.74359" lon="4.64815">
        <ele>509.3</ele>
        <time>2019-09-22T08:09:04Z</time>
      </trkpt>
      <trkpt lat="45.74359" lon="4.64805">
        <ele>510.9</ele>
        <time>2019-09-22T08:09:09Z</time>
      </trkpt>
      <trkpt lat="45.74359" lon="4.64802">
        <ele>511</ele>
        <time>2019-09-22T08:09:11Z</time>
      </trkpt>
      <trkpt lat="45.74359" lon="4.64799">
        <ele>511.1</ele>
        <time>2019-09-22T08:09:13Z</time>
      </trkpt>
      <trkpt lat="45.74362" lon="4.64796">
        <ele>511.3</ele>
        <time>2019-09-22T08:09:16Z</time>
      </trkpt>
      <trkpt lat="45.74362" lon="4.64795">
        <ele>511.7</ele>
        <time>2019-09-22T08:09:17Z</time>
      </trkpt>
      <trkpt lat="45.74364" lon="4.64793">
        <ele>511.8</ele>
        <time>2019-09-22T08:09:19Z</time>
      </trkpt>
      <trkpt lat="45.74368" lon="4.64787">
        <ele>512.2</ele>
        <time>2019-09-22T08:09:23Z</time>
      </trkpt>
      <trkpt lat="45.74374" lon="4.64774">
        <ele>512.9</ele>
        <time>2019-09-22T08:09:31Z</time>
      </trkpt>
      <trkpt lat="45.74374" lon="4.64772">
        <ele>513</ele>
        <time>2019-09-22T08:09:32Z</time>
      </trkpt>
      <trkpt lat="45.74373" lon="4.64754">
        <ele>513.9</ele>
        <time>2019-09-22T08:09:40Z</time>
      </trkpt>
      <trkpt lat="45.74373" lon="4.64748">
        <ele>515.2</ele>
        <time>2019-09-22T08:09:42Z</time>
      </trkpt>
      <trkpt lat="45.74377" lon="4.64738">
        <ele>515.9</ele>
        <time>2019-09-22T08:09:48Z</time>
      </trkpt>
      <trkpt lat="45.74378" lon="4.64737">
        <ele>515.9</ele>
        <time>2019-09-22T08:09:49Z</time>
      </trkpt>
      <trkpt lat="45.74382" lon="4.64736">
        <ele>516.3</ele>
        <time>2019-09-22T08:09:53Z</time>
      </trkpt>
      <trkpt lat="45.74385" lon="4.64736">
        <ele>517.8</ele>
        <time>2019-09-22T08:09:55Z</time>
      </trkpt>
      <trkpt lat="45.74392" lon="4.64737">
        <ele>519.4</ele>
        <time>2019-09-22T08:10:00Z</time>
      </trkpt>
      <trkpt lat="45.74397" lon="4.64734">
        <ele>520.4</ele>
        <time>2019-09-22T08:10:04Z</time>
      </trkpt>
      <trkpt lat="45.744" lon="4.64732">
        <ele>521.3</ele>
        <time>2019-09-22T08:10:07Z</time>
      </trkpt>
      <trkpt lat="45.74406" lon="4.64729">
        <ele>522.2</ele>
        <time>2019-09-22T08:10:12Z</time>
      </trkpt>
      <trkpt lat="45.74409" lon="4.64727">
        <ele>522.8</ele>
        <time>2019-09-22T08:10:15Z</time>
      </trkpt>
      <trkpt lat="45.74418" lon="4.64721">
        <ele>524.5</ele>
        <time>2019-09-22T08:10:22Z</time>
      </trkpt>
      <trkpt lat="45.74419" lon="4.64721">
        <ele>524.7</ele>
        <time>2019-09-22T08:10:23Z</time>
      </trkpt>
      <trkpt lat="45.7442" lon="4.64721">
        <ele>524.9</ele>
        <time>2019-09-22T08:10:24Z</time>
      </trkpt>
      <trkpt lat="45.74422" lon="4.6472">
        <ele>525.1</ele>
        <time>2019-09-22T08:10:25Z</time>
      </trkpt>
      <trkpt lat="45.74425" lon="4.64719">
        <ele>525.7</ele>
        <time>2019-09-22T08:10:28Z</time>
      </trkpt>
      <trkpt lat="45.7443" lon="4.6472">
        <ele>526.6</ele>
        <time>2019-09-22T08:10:32Z</time>
      </trkpt>
      <trkpt lat="45.74431" lon="4.6472">
        <ele>526.8</ele>
        <time>2019-09-22T08:10:33Z</time>
      </trkpt>
      <trkpt lat="45.74432" lon="4.64719">
        <ele>527</ele>
        <time>2019-09-22T08:10:34Z</time>
      </trkpt>
      <trkpt lat="45.74436" lon="4.64717">
        <ele>527.9</ele>
        <time>2019-09-22T08:10:37Z</time>
      </trkpt>
      <trkpt lat="45.74439" lon="4.64714">
        <ele>528.7</ele>
        <time>2019-09-22T08:10:40Z</time>
      </trkpt>
      <trkpt lat="45.74443" lon="4.64711">
        <ele>529.6</ele>
        <time>2019-09-22T08:10:43Z</time>
      </trkpt>
      <trkpt lat="45.74446" lon="4.64709">
        <ele>530.4</ele>
        <time>2019-09-22T08:10:46Z</time>
      </trkpt>
      <trkpt lat="45.74451" lon="4.64706">
        <ele>531.4</ele>
        <time>2019-09-22T08:10:50Z</time>
      </trkpt>
      <trkpt lat="45.74454" lon="4.64706">
        <ele>532</ele>
        <time>2019-09-22T08:10:53Z</time>
      </trkpt>
      <trkpt lat="45.74457" lon="4.64709">
        <ele>532.6</ele>
        <time>2019-09-22T08:10:56Z</time>
      </trkpt>
      <trkpt lat="45.74458" lon="4.64709">
        <ele>532.8</ele>
        <time>2019-09-22T08:10:57Z</time>
      </trkpt>
      <trkpt lat="45.74459" lon="4.64712">
        <ele>533.1</ele>
        <time>2019-09-22T08:10:59Z</time>
      </trkpt>
      <trkpt lat="45.74461" lon="4.64714">
        <ele>533.5</ele>
        <time>2019-09-22T08:11:01Z</time>
      </trkpt>
      <trkpt lat="45.74464" lon="4.64719">
        <ele>534.4</ele>
        <time>2019-09-22T08:11:05Z</time>
      </trkpt>
      <trkpt lat="45.74466" lon="4.64722">
        <ele>534.8</ele>
        <time>2019-09-22T08:11:07Z</time>
      </trkpt>
      <trkpt lat="45.74471" lon="4.64725">
        <ele>535.7</ele>
        <time>2019-09-22T08:11:12Z</time>
      </trkpt>
      <trkpt lat="45.74479" lon="4.64728">
        <ele>536.9</ele>
        <time>2019-09-22T08:11:19Z</time>
      </trkpt>
      <trkpt lat="45.74483" lon="4.64728">
        <ele>537.5</ele>
        <time>2019-09-22T08:11:23Z</time>
      </trkpt>
      <trkpt lat="45.7449" lon="4.64727">
        <ele>538.5</ele>
        <time>2019-09-22T08:11:29Z</time>
      </trkpt>
      <trkpt lat="45.74497" lon="4.64727">
        <ele>539.4</ele>
        <time>2019-09-22T08:11:34Z</time>
      </trkpt>
      <trkpt lat="45.745" lon="4.64726">
        <ele>539.8</ele>
        <time>2019-09-22T08:11:36Z</time>
      </trkpt>
      <trkpt lat="45.74503" lon="4.64725">
        <ele>540.2</ele>
        <time>2019-09-22T08:11:39Z</time>
      </trkpt>
      <trkpt lat="45.74506" lon="4.64723">
        <ele>540.6</ele>
        <time>2019-09-22T08:11:42Z</time>
      </trkpt>
      <trkpt lat="45.74511" lon="4.64722">
        <ele>541.1</ele>
        <time>2019-09-22T08:11:46Z</time>
      </trkpt>
      <trkpt lat="45.74514" lon="4.64721">
        <ele>541.4</ele>
        <time>2019-09-22T08:11:48Z</time>
      </trkpt>
      <trkpt lat="45.74515" lon="4.64721">
        <ele>541.6</ele>
        <time>2019-09-22T08:11:49Z</time>
      </trkpt>
      <trkpt lat="45.74521" lon="4.64718">
        <ele>542.2</ele>
        <time>2019-09-22T08:11:54Z</time>
      </trkpt>
      <trkpt lat="45.74526" lon="4.64717">
        <ele>542.7</ele>
        <time>2019-09-22T08:11:58Z</time>
      </trkpt>
      <trkpt lat="45.74533" lon="4.64714">
        <ele>543.3</ele>
        <time>2019-09-22T08:12:04Z</time>
      </trkpt>
      <trkpt lat="45.74535" lon="4.64714">
        <ele>543.4</ele>
        <time>2019-09-22T08:12:05Z</time>
      </trkpt>
      <trkpt lat="45.74541" lon="4.6471">
        <ele>543.8</ele>
        <time>2019-09-22T08:12:10Z</time>
      </trkpt>
      <trkpt lat="45.74546" lon="4.64708">
        <ele>544</ele>
        <time>2019-09-22T08:12:15Z</time>
      </trkpt>
      <trkpt lat="45.74551" lon="4.64703">
        <ele>544.3</ele>
        <time>2019-09-22T08:12:19Z</time>
      </trkpt>
      <trkpt lat="45.74554" lon="4.64694">
        <ele>545.2</ele>
        <time>2019-09-22T08:12:24Z</time>
      </trkpt>
      <trkpt lat="45.74554" lon="4.64692">
        <ele>545.4</ele>
        <time>2019-09-22T08:12:25Z</time>
      </trkpt>
      <trkpt lat="45.74552" lon="4.64685">
        <ele>545.9</ele>
        <time>2019-09-22T08:12:29Z</time>
      </trkpt>
      <trkpt lat="45.7455" lon="4.64676">
        <ele>546.5</ele>
        <time>2019-09-22T08:12:34Z</time>
      </trkpt>
      <trkpt lat="45.74549" lon="4.64675">
        <ele>546.7</ele>
        <time>2019-09-22T08:12:35Z</time>
      </trkpt>
      <trkpt lat="45.74545" lon="4.64662">
        <ele>547.7</ele>
        <time>2019-09-22T08:12:41Z</time>
      </trkpt>
      <trkpt lat="45.74537" lon="4.64643">
        <ele>548.9</ele>
        <time>2019-09-22T08:12:51Z</time>
      </trkpt>
      <trkpt lat="45.7453" lon="4.64626">
        <ele>550.2</ele>
        <time>2019-09-22T08:12:59Z</time>
      </trkpt>
      <trkpt lat="45.74528" lon="4.64617">
        <ele>550.8</ele>
        <time>2019-09-22T08:13:03Z</time>
      </trkpt>
      <trkpt lat="45.74526" lon="4.6461">
        <ele>551.2</ele>
        <time>2019-09-22T08:13:06Z</time>
      </trkpt>
      <trkpt lat="45.74524" lon="4.64599">
        <ele>552</ele>
        <time>2019-09-22T08:13:11Z</time>
      </trkpt>
      <trkpt lat="45.74522" lon="4.64591">
        <ele>552.6</ele>
        <time>2019-09-22T08:13:15Z</time>
      </trkpt>
      <trkpt lat="45.7452" lon="4.64581">
        <ele>553.4</ele>
        <time>2019-09-22T08:13:19Z</time>
      </trkpt>
      <trkpt lat="45.74517" lon="4.64569">
        <ele>554.3</ele>
        <time>2019-09-22T08:13:24Z</time>
      </trkpt>
      <trkpt lat="45.74516" lon="4.64567">
        <ele>554.5</ele>
        <time>2019-09-22T08:13:25Z</time>
      </trkpt>
      <trkpt lat="45.74512" lon="4.64549">
        <ele>556.2</ele>
        <time>2019-09-22T08:13:33Z</time>
      </trkpt>
      <trkpt lat="45.74511" lon="4.64546">
        <ele>556.6</ele>
        <time>2019-09-22T08:13:35Z</time>
      </trkpt>
      <trkpt lat="45.74509" lon="4.64538">
        <ele>557.2</ele>
        <time>2019-09-22T08:13:38Z</time>
      </trkpt>
      <trkpt lat="45.74508" lon="4.64536">
        <ele>557.4</ele>
        <time>2019-09-22T08:13:39Z</time>
      </trkpt>
      <trkpt lat="45.74506" lon="4.64519">
        <ele>558.8</ele>
        <time>2019-09-22T08:13:46Z</time>
      </trkpt>
      <trkpt lat="45.74504" lon="4.64502">
        <ele>560.2</ele>
        <time>2019-09-22T08:13:53Z</time>
      </trkpt>
      <trkpt lat="45.74504" lon="4.64495">
        <ele>560.7</ele>
        <time>2019-09-22T08:13:56Z</time>
      </trkpt>
      <trkpt lat="45.74503" lon="4.64493">
        <ele>560.9</ele>
        <time>2019-09-22T08:13:57Z</time>
      </trkpt>
      <trkpt lat="45.74502" lon="4.64479">
        <ele>561.9</ele>
        <time>2019-09-22T08:14:03Z</time>
      </trkpt>
      <trkpt lat="45.74501" lon="4.64472">
        <ele>562.4</ele>
        <time>2019-09-22T08:14:06Z</time>
      </trkpt>
      <trkpt lat="45.74499" lon="4.64467">
        <ele>562.9</ele>
        <time>2019-09-22T08:14:09Z</time>
      </trkpt>
      <trkpt lat="45.74498" lon="4.64458">
        <ele>563.6</ele>
        <time>2019-09-22T08:14:13Z</time>
      </trkpt>
      <trkpt lat="45.74497" lon="4.64445">
        <ele>564.8</ele>
        <time>2019-09-22T08:14:18Z</time>
      </trkpt>
      <trkpt lat="45.74497" lon="4.64437">
        <ele>565.5</ele>
        <time>2019-09-22T08:14:21Z</time>
      </trkpt>
      <trkpt lat="45.74497" lon="4.64435">
        <ele>565.7</ele>
        <time>2019-09-22T08:14:22Z</time>
      </trkpt>
      <trkpt lat="45.74497" lon="4.6443">
        <ele>566</ele>
        <time>2019-09-22T08:14:24Z</time>
      </trkpt>
      <trkpt lat="45.74497" lon="4.6442">
        <ele>566.8</ele>
        <time>2019-09-22T08:14:28Z</time>
      </trkpt>
      <trkpt lat="45.74496" lon="4.64412">
        <ele>567.4</ele>
        <time>2019-09-22T08:14:31Z</time>
      </trkpt>
      <trkpt lat="45.74496" lon="4.6441">
        <ele>567.5</ele>
        <time>2019-09-22T08:14:32Z</time>
      </trkpt>
      <trkpt lat="45.74494" lon="4.64398">
        <ele>568.4</ele>
        <time>2019-09-22T08:14:37Z</time>
      </trkpt>
      <trkpt lat="45.74494" lon="4.64393">
        <ele>568.8</ele>
        <time>2019-09-22T08:14:39Z</time>
      </trkpt>
      <trkpt lat="45.74495" lon="4.64389">
        <ele>569.2</ele>
        <time>2019-09-22T08:14:41Z</time>
      </trkpt>
      <trkpt lat="45.74498" lon="4.64385">
        <ele>569.7</ele>
        <time>2019-09-22T08:14:44Z</time>
      </trkpt>
      <trkpt lat="45.745" lon="4.64385">
        <ele>569.8</ele>
        <time>2019-09-22T08:14:45Z</time>
      </trkpt>
      <trkpt lat="45.74504" lon="4.64388">
        <ele>570.3</ele>
        <time>2019-09-22T08:14:48Z</time>
      </trkpt>
      <trkpt lat="45.74509" lon="4.64393">
        <ele>570.8</ele>
        <time>2019-09-22T08:14:51Z</time>
      </trkpt>
      <trkpt lat="45.7451" lon="4.64395">
        <ele>570.9</ele>
        <time>2019-09-22T08:14:52Z</time>
      </trkpt>
      <trkpt lat="45.74511" lon="4.64397">
        <ele>571.1</ele>
        <time>2019-09-22T08:14:53Z</time>
      </trkpt>
      <trkpt lat="45.74515" lon="4.64404">
        <ele>571.6</ele>
        <time>2019-09-22T08:14:57Z</time>
      </trkpt>
      <trkpt lat="45.74523" lon="4.64413">
        <ele>572.6</ele>
        <time>2019-09-22T08:15:03Z</time>
      </trkpt>
      <trkpt lat="45.74523" lon="4.64415">
        <ele>572.8</ele>
        <time>2019-09-22T08:15:04Z</time>
      </trkpt>
      <trkpt lat="45.74528" lon="4.64429">
        <ele>573.8</ele>
        <time>2019-09-22T08:15:10Z</time>
      </trkpt>
      <trkpt lat="45.74532" lon="4.6444">
        <ele>574.9</ele>
        <time>2019-09-22T08:15:15Z</time>
      </trkpt>
      <trkpt lat="45.74535" lon="4.64446">
        <ele>575.5</ele>
        <time>2019-09-22T08:15:18Z</time>
      </trkpt>
      <trkpt lat="45.74536" lon="4.64447">
        <ele>575.7</ele>
        <time>2019-09-22T08:15:19Z</time>
      </trkpt>
      <trkpt lat="45.74544" lon="4.64458">
        <ele>576.7</ele>
        <time>2019-09-22T08:15:25Z</time>
      </trkpt>
      <trkpt lat="45.74549" lon="4.64462">
        <ele>577.2</ele>
        <time>2019-09-22T08:15:28Z</time>
      </trkpt>
      <trkpt lat="45.74553" lon="4.64467">
        <ele>577.7</ele>
        <time>2019-09-22T08:15:32Z</time>
      </trkpt>
      <trkpt lat="45.74554" lon="4.64469">
        <ele>577.8</ele>
        <time>2019-09-22T08:15:33Z</time>
      </trkpt>
      <trkpt lat="45.74566" lon="4.64476">
        <ele>579.8</ele>
        <time>2019-09-22T08:15:40Z</time>
      </trkpt>
      <trkpt lat="45.74574" lon="4.6448">
        <ele>581.1</ele>
        <time>2019-09-22T08:15:44Z</time>
      </trkpt>
      <trkpt lat="45.74581" lon="4.64485">
        <ele>581.9</ele>
        <time>2019-09-22T08:15:48Z</time>
      </trkpt>
      <trkpt lat="45.74585" lon="4.64488">
        <ele>582.4</ele>
        <time>2019-09-22T08:15:51Z</time>
      </trkpt>
      <trkpt lat="45.7459" lon="4.64491">
        <ele>582.8</ele>
        <time>2019-09-22T08:15:54Z</time>
      </trkpt>
      <trkpt lat="45.74595" lon="4.64493">
        <ele>583.3</ele>
        <time>2019-09-22T08:15:57Z</time>
      </trkpt>
      <trkpt lat="45.74597" lon="4.64493">
        <ele>583.5</ele>
        <time>2019-09-22T08:15:58Z</time>
      </trkpt>
      <trkpt lat="45.74605" lon="4.64492">
        <ele>584.4</ele>
        <time>2019-09-22T08:16:02Z</time>
      </trkpt>
      <trkpt lat="45.74611" lon="4.6449">
        <ele>585.3</ele>
        <time>2019-09-22T08:16:05Z</time>
      </trkpt>
      <trkpt lat="45.74622" lon="4.64488">
        <ele>586.7</ele>
        <time>2019-09-22T08:16:10Z</time>
      </trkpt>
      <trkpt lat="45.74625" lon="4.64487">
        <ele>587.2</ele>
        <time>2019-09-22T08:16:12Z</time>
      </trkpt>
      <trkpt lat="45.74637" lon="4.64485">
        <ele>588.7</ele>
        <time>2019-09-22T08:16:18Z</time>
      </trkpt>
      <trkpt lat="45.74641" lon="4.64485">
        <ele>589.1</ele>
        <time>2019-09-22T08:16:20Z</time>
      </trkpt>
      <trkpt lat="45.74646" lon="4.64484">
        <ele>589.6</ele>
        <time>2019-09-22T08:16:23Z</time>
      </trkpt>
      <trkpt lat="45.74652" lon="4.64483">
        <ele>590.2</ele>
        <time>2019-09-22T08:16:26Z</time>
      </trkpt>
      <trkpt lat="45.74656" lon="4.64482">
        <ele>590.6</ele>
        <time>2019-09-22T08:16:28Z</time>
      </trkpt>
      <trkpt lat="45.74664" lon="4.64479">
        <ele>591.6</ele>
        <time>2019-09-22T08:16:33Z</time>
      </trkpt>
      <trkpt lat="45.74667" lon="4.64477">
        <ele>592</ele>
        <time>2019-09-22T08:16:35Z</time>
      </trkpt>
      <trkpt lat="45.74677" lon="4.64466">
        <ele>594.3</ele>
        <time>2019-09-22T08:16:43Z</time>
      </trkpt>
      <trkpt lat="45.74679" lon="4.64464">
        <ele>594.9</ele>
        <time>2019-09-22T08:16:45Z</time>
      </trkpt>
      <trkpt lat="45.74686" lon="4.64455">
        <ele>596.6</ele>
        <time>2019-09-22T08:16:51Z</time>
      </trkpt>
      <trkpt lat="45.7469" lon="4.64451">
        <ele>597.4</ele>
        <time>2019-09-22T08:16:54Z</time>
      </trkpt>
      <trkpt lat="45.74694" lon="4.64444">
        <ele>598.4</ele>
        <time>2019-09-22T08:16:58Z</time>
      </trkpt>
      <trkpt lat="45.74697" lon="4.6444">
        <ele>599</ele>
        <time>2019-09-22T08:17:01Z</time>
      </trkpt>
      <trkpt lat="45.74699" lon="4.64434">
        <ele>599.5</ele>
        <time>2019-09-22T08:17:04Z</time>
      </trkpt>
      <trkpt lat="45.74703" lon="4.64428">
        <ele>600</ele>
        <time>2019-09-22T08:17:08Z</time>
      </trkpt>
      <trkpt lat="45.74705" lon="4.64426">
        <ele>600.2</ele>
        <time>2019-09-22T08:17:09Z</time>
      </trkpt>
      <trkpt lat="45.7471" lon="4.64417">
        <ele>600.8</ele>
        <time>2019-09-22T08:17:14Z</time>
      </trkpt>
      <trkpt lat="45.74713" lon="4.64412">
        <ele>601.2</ele>
        <time>2019-09-22T08:17:17Z</time>
      </trkpt>
      <trkpt lat="45.74714" lon="4.6441">
        <ele>601.3</ele>
        <time>2019-09-22T08:17:18Z</time>
      </trkpt>
      <trkpt lat="45.74719" lon="4.64402">
        <ele>601.9</ele>
        <time>2019-09-22T08:17:23Z</time>
      </trkpt>
      <trkpt lat="45.74723" lon="4.64397">
        <ele>602.2</ele>
        <time>2019-09-22T08:17:26Z</time>
      </trkpt>
      <trkpt lat="45.74729" lon="4.64389">
        <ele>602.8</ele>
        <time>2019-09-22T08:17:31Z</time>
      </trkpt>
      <trkpt lat="45.7473" lon="4.64388">
        <ele>602.9</ele>
        <time>2019-09-22T08:17:32Z</time>
      </trkpt>
      <trkpt lat="45.7474" lon="4.64374">
        <ele>604.2</ele>
        <time>2019-09-22T08:17:40Z</time>
      </trkpt>
      <trkpt lat="45.74742" lon="4.64373">
        <ele>604.3</ele>
        <time>2019-09-22T08:17:41Z</time>
      </trkpt>
      <trkpt lat="45.74751" lon="4.64361">
        <ele>605.3</ele>
        <time>2019-09-22T08:17:48Z</time>
      </trkpt>
      <trkpt lat="45.74754" lon="4.64356">
        <ele>605.6</ele>
        <time>2019-09-22T08:17:51Z</time>
      </trkpt>
      <trkpt lat="45.74758" lon="4.64351">
        <ele>606.1</ele>
        <time>2019-09-22T08:17:54Z</time>
      </trkpt>
      <trkpt lat="45.74764" lon="4.64344">
        <ele>607</ele>
        <time>2019-09-22T08:17:59Z</time>
      </trkpt>
      <trkpt lat="45.7477" lon="4.64336">
        <ele>607.9</ele>
        <time>2019-09-22T08:18:03Z</time>
      </trkpt>
      <trkpt lat="45.74775" lon="4.64332">
        <ele>608.7</ele>
        <time>2019-09-22T08:18:07Z</time>
      </trkpt>
      <trkpt lat="45.74785" lon="4.64322">
        <ele>610</ele>
        <time>2019-09-22T08:18:14Z</time>
      </trkpt>
      <trkpt lat="45.74787" lon="4.64318">
        <ele>610.4</ele>
        <time>2019-09-22T08:18:16Z</time>
      </trkpt>
      <trkpt lat="45.74792" lon="4.64312">
        <ele>611.1</ele>
        <time>2019-09-22T08:18:20Z</time>
      </trkpt>
      <trkpt lat="45.74793" lon="4.64309">
        <ele>611.3</ele>
        <time>2019-09-22T08:18:21Z</time>
      </trkpt>
      <trkpt lat="45.74795" lon="4.64303">
        <ele>611.9</ele>
        <time>2019-09-22T08:18:24Z</time>
      </trkpt>
      <trkpt lat="45.74798" lon="4.64297">
        <ele>612.3</ele>
        <time>2019-09-22T08:18:27Z</time>
      </trkpt>
      <trkpt lat="45.748" lon="4.64294">
        <ele>612.6</ele>
        <time>2019-09-22T08:18:29Z</time>
      </trkpt>
      <trkpt lat="45.74805" lon="4.64288">
        <ele>613.4</ele>
        <time>2019-09-22T08:18:33Z</time>
      </trkpt>
      <trkpt lat="45.74809" lon="4.64282">
        <ele>614</ele>
        <time>2019-09-22T08:18:36Z</time>
      </trkpt>
      <trkpt lat="45.74815" lon="4.64273">
        <ele>615</ele>
        <time>2019-09-22T08:18:42Z</time>
      </trkpt>
      <trkpt lat="45.74818" lon="4.6427">
        <ele>615.3</ele>
        <time>2019-09-22T08:18:44Z</time>
      </trkpt>
      <trkpt lat="45.74827" lon="4.64259">
        <ele>616.5</ele>
        <time>2019-09-22T08:18:52Z</time>
      </trkpt>
      <trkpt lat="45.74834" lon="4.64253">
        <ele>617.4</ele>
        <time>2019-09-22T08:18:57Z</time>
      </trkpt>
      <trkpt lat="45.74835" lon="4.64251">
        <ele>617.6</ele>
        <time>2019-09-22T08:18:58Z</time>
      </trkpt>
      <trkpt lat="45.74842" lon="4.64241">
        <ele>618.6</ele>
        <time>2019-09-22T08:19:03Z</time>
      </trkpt>
      <trkpt lat="45.74845" lon="4.64235">
        <ele>619</ele>
        <time>2019-09-22T08:19:06Z</time>
      </trkpt>
      <trkpt lat="45.74849" lon="4.64228">
        <ele>619.5</ele>
        <time>2019-09-22T08:19:10Z</time>
      </trkpt>
      <trkpt lat="45.74853" lon="4.64222">
        <ele>620.1</ele>
        <time>2019-09-22T08:19:13Z</time>
      </trkpt>
      <trkpt lat="45.74856" lon="4.64218">
        <ele>620.6</ele>
        <time>2019-09-22T08:19:15Z</time>
      </trkpt>
      <trkpt lat="45.74861" lon="4.64209">
        <ele>621.5</ele>
        <time>2019-09-22T08:19:19Z</time>
      </trkpt>
      <trkpt lat="45.74862" lon="4.64206">
        <ele>621.8</ele>
        <time>2019-09-22T08:19:20Z</time>
      </trkpt>
      <trkpt lat="45.74868" lon="4.64195">
        <ele>622.5</ele>
        <time>2019-09-22T08:19:25Z</time>
      </trkpt>
      <trkpt lat="45.7487" lon="4.64191">
        <ele>622.9</ele>
        <time>2019-09-22T08:19:27Z</time>
      </trkpt>
      <trkpt lat="45.74876" lon="4.64183">
        <ele>623.6</ele>
        <time>2019-09-22T08:19:31Z</time>
      </trkpt>
      <trkpt lat="45.74885" lon="4.64168">
        <ele>624.8</ele>
        <time>2019-09-22T08:19:37Z</time>
      </trkpt>
      <trkpt lat="45.74888" lon="4.64164">
        <ele>625.2</ele>
        <time>2019-09-22T08:19:39Z</time>
      </trkpt>
      <trkpt lat="45.74896" lon="4.64149">
        <ele>626.2</ele>
        <time>2019-09-22T08:19:45Z</time>
      </trkpt>
      <trkpt lat="45.74898" lon="4.64145">
        <ele>626.5</ele>
        <time>2019-09-22T08:19:47Z</time>
      </trkpt>
      <trkpt lat="45.74905" lon="4.64133">
        <ele>627.3</ele>
        <time>2019-09-22T08:19:53Z</time>
      </trkpt>
      <trkpt lat="45.74911" lon="4.64124">
        <ele>627.9</ele>
        <time>2019-09-22T08:19:57Z</time>
      </trkpt>
      <trkpt lat="45.74916" lon="4.64114">
        <ele>628.4</ele>
        <time>2019-09-22T08:20:01Z</time>
      </trkpt>
      <trkpt lat="45.74928" lon="4.64093">
        <ele>629.6</ele>
        <time>2019-09-22T08:20:10Z</time>
      </trkpt>
      <trkpt lat="45.74945" lon="4.64069">
        <ele>631.3</ele>
        <time>2019-09-22T08:20:21Z</time>
      </trkpt>
      <trkpt lat="45.7495" lon="4.64059">
        <ele>631.9</ele>
        <time>2019-09-22T08:20:25Z</time>
      </trkpt>
      <trkpt lat="45.74954" lon="4.64052">
        <ele>632.3</ele>
        <time>2019-09-22T08:20:28Z</time>
      </trkpt>
      <trkpt lat="45.74961" lon="4.64039">
        <ele>633.4</ele>
        <time>2019-09-22T08:20:33Z</time>
      </trkpt>
      <trkpt lat="45.74968" lon="4.64028">
        <ele>634.4</ele>
        <time>2019-09-22T08:20:38Z</time>
      </trkpt>
      <trkpt lat="45.74969" lon="4.64026">
        <ele>634.6</ele>
        <time>2019-09-22T08:20:39Z</time>
      </trkpt>
      <trkpt lat="45.74975" lon="4.64016">
        <ele>635.8</ele>
        <time>2019-09-22T08:20:44Z</time>
      </trkpt>
      <trkpt lat="45.74978" lon="4.6401">
        <ele>636.6</ele>
        <time>2019-09-22T08:20:47Z</time>
      </trkpt>
      <trkpt lat="45.74979" lon="4.64007">
        <ele>636.9</ele>
        <time>2019-09-22T08:20:48Z</time>
      </trkpt>
      <trkpt lat="45.74984" lon="4.63999">
        <ele>638.1</ele>
        <time>2019-09-22T08:20:53Z</time>
      </trkpt>
      <trkpt lat="45.74985" lon="4.63997">
        <ele>638.4</ele>
        <time>2019-09-22T08:20:54Z</time>
      </trkpt>
      <trkpt lat="45.74989" lon="4.63992">
        <ele>639.1</ele>
        <time>2019-09-22T08:20:57Z</time>
      </trkpt>
      <trkpt lat="45.74992" lon="4.63988">
        <ele>639.7</ele>
        <time>2019-09-22T08:21:00Z</time>
      </trkpt>
      <trkpt lat="45.74993" lon="4.63986">
        <ele>639.9</ele>
        <time>2019-09-22T08:21:01Z</time>
      </trkpt>
      <trkpt lat="45.74997" lon="4.63979">
        <ele>640.8</ele>
        <time>2019-09-22T08:21:05Z</time>
      </trkpt>
      <trkpt lat="45.75001" lon="4.63974">
        <ele>641.9</ele>
        <time>2019-09-22T08:21:08Z</time>
      </trkpt>
      <trkpt lat="45.75005" lon="4.6397">
        <ele>642.7</ele>
        <time>2019-09-22T08:21:11Z</time>
      </trkpt>
      <trkpt lat="45.75007" lon="4.63964">
        <ele>643.5</ele>
        <time>2019-09-22T08:21:14Z</time>
      </trkpt>
      <trkpt lat="45.7501" lon="4.6396">
        <ele>644.3</ele>
        <time>2019-09-22T08:21:17Z</time>
      </trkpt>
      <trkpt lat="45.75011" lon="4.63959">
        <ele>644.6</ele>
        <time>2019-09-22T08:21:18Z</time>
      </trkpt>
      <trkpt lat="45.75016" lon="4.63953">
        <ele>645.4</ele>
        <time>2019-09-22T08:21:23Z</time>
      </trkpt>
      <trkpt lat="45.75019" lon="4.63949">
        <ele>645.8</ele>
        <time>2019-09-22T08:21:26Z</time>
      </trkpt>
      <trkpt lat="45.7502" lon="4.63947">
        <ele>645.9</ele>
        <time>2019-09-22T08:21:27Z</time>
      </trkpt>
      <trkpt lat="45.75024" lon="4.63942">
        <ele>646.5</ele>
        <time>2019-09-22T08:21:31Z</time>
      </trkpt>
      <trkpt lat="45.75027" lon="4.63938">
        <ele>647</ele>
        <time>2019-09-22T08:21:34Z</time>
      </trkpt>
      <trkpt lat="45.75032" lon="4.63932">
        <ele>647.7</ele>
        <time>2019-09-22T08:21:38Z</time>
      </trkpt>
      <trkpt lat="45.75036" lon="4.63929">
        <ele>648.1</ele>
        <time>2019-09-22T08:21:41Z</time>
      </trkpt>
      <trkpt lat="45.75039" lon="4.63926">
        <ele>648.5</ele>
        <time>2019-09-22T08:21:43Z</time>
      </trkpt>
      <trkpt lat="45.75046" lon="4.63916">
        <ele>649.3</ele>
        <time>2019-09-22T08:21:50Z</time>
      </trkpt>
      <trkpt lat="45.75048" lon="4.63915">
        <ele>649.4</ele>
        <time>2019-09-22T08:21:51Z</time>
      </trkpt>
      <trkpt lat="45.7505" lon="4.63913">
        <ele>649.5</ele>
        <time>2019-09-22T08:21:53Z</time>
      </trkpt>
      <trkpt lat="45.75055" lon="4.63911">
        <ele>649.6</ele>
        <time>2019-09-22T08:21:57Z</time>
      </trkpt>
      <trkpt lat="45.75057" lon="4.63911">
        <ele>649.6</ele>
        <time>2019-09-22T08:21:58Z</time>
      </trkpt>
      <trkpt lat="45.75063" lon="4.63907">
        <ele>649.8</ele>
        <time>2019-09-22T08:22:02Z</time>
      </trkpt>
      <trkpt lat="45.75068" lon="4.63903">
        <ele>649.9</ele>
        <time>2019-09-22T08:22:06Z</time>
      </trkpt>
      <trkpt lat="45.7507" lon="4.63902">
        <ele>649.9</ele>
        <time>2019-09-22T08:22:07Z</time>
      </trkpt>
      <trkpt lat="45.75076" lon="4.63896">
        <ele>650</ele>
        <time>2019-09-22T08:22:12Z</time>
      </trkpt>
      <trkpt lat="45.75077" lon="4.63894">
        <ele>650</ele>
        <time>2019-09-22T08:22:13Z</time>
      </trkpt>
      <trkpt lat="45.75085" lon="4.63888">
        <ele>650.1</ele>
        <time>2019-09-22T08:22:19Z</time>
      </trkpt>
      <trkpt lat="45.75088" lon="4.63886">
        <ele>650.1</ele>
        <time>2019-09-22T08:22:21Z</time>
      </trkpt>
      <trkpt lat="45.75095" lon="4.6388">
        <ele>650.2</ele>
        <time>2019-09-22T08:22:26Z</time>
      </trkpt>
      <trkpt lat="45.75097" lon="4.63879">
        <ele>650.2</ele>
        <time>2019-09-22T08:22:27Z</time>
      </trkpt>
      <trkpt lat="45.75102" lon="4.63874">
        <ele>650.2</ele>
        <time>2019-09-22T08:22:30Z</time>
      </trkpt>
      <trkpt lat="45.75107" lon="4.63867">
        <ele>651.1</ele>
        <time>2019-09-22T08:22:35Z</time>
      </trkpt>
      <trkpt lat="45.75109" lon="4.63865">
        <ele>651.3</ele>
        <time>2019-09-22T08:22:36Z</time>
      </trkpt>
      <trkpt lat="45.75118" lon="4.63859">
        <ele>652.3</ele>
        <time>2019-09-22T08:22:41Z</time>
      </trkpt>
      <trkpt lat="45.75119" lon="4.63858">
        <ele>652.5</ele>
        <time>2019-09-22T08:22:42Z</time>
      </trkpt>
      <trkpt lat="45.75131" lon="4.63851">
        <ele>653.7</ele>
        <time>2019-09-22T08:25:45Z</time>
      </trkpt>
      <trkpt lat="45.75144" lon="4.63846">
        <ele>654.8</ele>
        <time>2019-09-22T08:25:50Z</time>
      </trkpt>
      <trkpt lat="45.75166" lon="4.63843">
        <ele>656.5</ele>
        <time>2019-09-22T08:25:56Z</time>
      </trkpt>
      <trkpt lat="45.75186" lon="4.63837">
        <ele>658</ele>
        <time>2019-09-22T08:26:03Z</time>
      </trkpt>
      <trkpt lat="45.75206" lon="4.63823">
        <ele>658.8</ele>
        <time>2019-09-22T08:26:10Z</time>
      </trkpt>
      <trkpt lat="45.7521" lon="4.63818">
        <ele>659.1</ele>
        <time>2019-09-22T08:26:12Z</time>
      </trkpt>
      <trkpt lat="45.75219" lon="4.63809">
        <ele>659.7</ele>
        <time>2019-09-22T08:26:16Z</time>
      </trkpt>
      <trkpt lat="45.7522" lon="4.63807">
        <ele>659.8</ele>
        <time>2019-09-22T08:26:17Z</time>
      </trkpt>
      <trkpt lat="45.75233" lon="4.63784">
        <ele>660.9</ele>
        <time>2019-09-22T08:26:25Z</time>
      </trkpt>
      <trkpt lat="45.75245" lon="4.63761">
        <ele>661.6</ele>
        <time>2019-09-22T08:26:33Z</time>
      </trkpt>
      <trkpt lat="45.75257" lon="4.63737">
        <ele>662.1</ele>
        <time>2019-09-22T08:26:41Z</time>
      </trkpt>
      <trkpt lat="45.75263" lon="4.63723">
        <ele>662.3</ele>
        <time>2019-09-22T08:26:45Z</time>
      </trkpt>
      <trkpt lat="45.75269" lon="4.63705">
        <ele>662.4</ele>
        <time>2019-09-22T08:26:50Z</time>
      </trkpt>
      <trkpt lat="45.75271" lon="4.6369">
        <ele>662.4</ele>
        <time>2019-09-22T08:26:55Z</time>
      </trkpt>
      <trkpt lat="45.75271" lon="4.63685">
        <ele>662.4</ele>
        <time>2019-09-22T08:26:57Z</time>
      </trkpt>
      <trkpt lat="45.75269" lon="4.63671">
        <ele>662.5</ele>
        <time>2019-09-22T08:27:03Z</time>
      </trkpt>
      <trkpt lat="45.75268" lon="4.63659">
        <ele>662.7</ele>
        <time>2019-09-22T08:27:08Z</time>
      </trkpt>
      <trkpt lat="45.75267" lon="4.63654">
        <ele>662.8</ele>
        <time>2019-09-22T08:27:10Z</time>
      </trkpt>
      <trkpt lat="45.75267" lon="4.63649">
        <ele>662.9</ele>
        <time>2019-09-22T08:27:12Z</time>
      </trkpt>
      <trkpt lat="45.75265" lon="4.63641">
        <ele>663.2</ele>
        <time>2019-09-22T08:27:16Z</time>
      </trkpt>
      <trkpt lat="45.75263" lon="4.63637">
        <ele>663.3</ele>
        <time>2019-09-22T08:27:18Z</time>
      </trkpt>
      <trkpt lat="45.75262" lon="4.63632">
        <ele>663.5</ele>
        <time>2019-09-22T08:27:20Z</time>
      </trkpt>
      <trkpt lat="45.7526" lon="4.63619">
        <ele>664.2</ele>
        <time>2019-09-22T08:27:26Z</time>
      </trkpt>
      <trkpt lat="45.7526" lon="4.63612">
        <ele>664.6</ele>
        <time>2019-09-22T08:27:29Z</time>
      </trkpt>
      <trkpt lat="45.75261" lon="4.63597">
        <ele>665.4</ele>
        <time>2019-09-22T08:27:35Z</time>
      </trkpt>
      <trkpt lat="45.75254" lon="4.63554">
        <ele>668.8</ele>
        <time>2019-09-22T08:27:56Z</time>
      </trkpt>
      <trkpt lat="45.75254" lon="4.63552">
        <ele>669</ele>
        <time>2019-09-22T08:27:57Z</time>
      </trkpt>
      <trkpt lat="45.75253" lon="4.63535">
        <ele>671.1</ele>
        <time>2019-09-22T08:28:05Z</time>
      </trkpt>
      <trkpt lat="45.75253" lon="4.63526">
        <ele>672</ele>
        <time>2019-09-22T08:28:09Z</time>
      </trkpt>
      <trkpt lat="45.75251" lon="4.63515">
        <ele>673.1</ele>
        <time>2019-09-22T08:28:14Z</time>
      </trkpt>
      <trkpt lat="45.75251" lon="4.63512">
        <ele>673.3</ele>
        <time>2019-09-22T08:28:15Z</time>
      </trkpt>
      <trkpt lat="45.75249" lon="4.635">
        <ele>674.6</ele>
        <time>2019-09-22T08:28:21Z</time>
      </trkpt>
      <trkpt lat="45.75249" lon="4.63498">
        <ele>674.8</ele>
        <time>2019-09-22T08:28:22Z</time>
      </trkpt>
      <trkpt lat="45.75247" lon="4.6349">
        <ele>675.7</ele>
        <time>2019-09-22T08:28:26Z</time>
      </trkpt>
      <trkpt lat="45.75247" lon="4.63484">
        <ele>676.4</ele>
        <time>2019-09-22T08:28:29Z</time>
      </trkpt>
      <trkpt lat="45.75247" lon="4.63479">
        <ele>676.9</ele>
        <time>2019-09-22T08:28:31Z</time>
      </trkpt>
      <trkpt lat="45.75247" lon="4.63472">
        <ele>677.5</ele>
        <time>2019-09-22T08:28:34Z</time>
      </trkpt>
      <trkpt lat="45.75246" lon="4.63467">
        <ele>677.8</ele>
        <time>2019-09-22T08:28:36Z</time>
      </trkpt>
      <trkpt lat="45.75247" lon="4.63462">
        <ele>678.2</ele>
        <time>2019-09-22T08:28:38Z</time>
      </trkpt>
      <trkpt lat="45.75246" lon="4.63446">
        <ele>679.3</ele>
        <time>2019-09-22T08:28:45Z</time>
      </trkpt>
      <trkpt lat="45.75246" lon="4.63444">
        <ele>679.4</ele>
        <time>2019-09-22T08:28:46Z</time>
      </trkpt>
      <trkpt lat="45.75247" lon="4.63433">
        <ele>680.1</ele>
        <time>2019-09-22T08:28:51Z</time>
      </trkpt>
      <trkpt lat="45.75247" lon="4.63429">
        <ele>680.4</ele>
        <time>2019-09-22T08:28:53Z</time>
      </trkpt>
      <trkpt lat="45.75248" lon="4.6342">
        <ele>680.9</ele>
        <time>2019-09-22T08:28:57Z</time>
      </trkpt>
      <trkpt lat="45.75249" lon="4.63413">
        <ele>681.2</ele>
        <time>2019-09-22T08:29:00Z</time>
      </trkpt>
      <trkpt lat="45.7525" lon="4.63411">
        <ele>681.2</ele>
        <time>2019-09-22T08:29:01Z</time>
      </trkpt>
      <trkpt lat="45.75256" lon="4.63397">
        <ele>681.9</ele>
        <time>2019-09-22T08:29:08Z</time>
      </trkpt>
      <trkpt lat="45.75266" lon="4.6338">
        <ele>682.7</ele>
        <time>2019-09-22T08:29:16Z</time>
      </trkpt>
      <trkpt lat="45.75273" lon="4.63362">
        <ele>683.4</ele>
        <time>2019-09-22T08:29:23Z</time>
      </trkpt>
      <trkpt lat="45.75274" lon="4.63358">
        <ele>683.6</ele>
        <time>2019-09-22T08:29:25Z</time>
      </trkpt>
      <trkpt lat="45.75278" lon="4.63348">
        <ele>684</ele>
        <time>2019-09-22T08:29:29Z</time>
      </trkpt>
      <trkpt lat="45.7529" lon="4.63324">
        <ele>684.9</ele>
        <time>2019-09-22T08:29:38Z</time>
      </trkpt>
      <trkpt lat="45.75292" lon="4.63318">
        <ele>685.1</ele>
        <time>2019-09-22T08:29:40Z</time>
      </trkpt>
      <trkpt lat="45.75302" lon="4.633">
        <ele>685.4</ele>
        <time>2019-09-22T08:29:46Z</time>
      </trkpt>
      <trkpt lat="45.75312" lon="4.63282">
        <ele>685.4</ele>
        <time>2019-09-22T08:29:52Z</time>
      </trkpt>
      <trkpt lat="45.75314" lon="4.63279">
        <ele>685.3</ele>
        <time>2019-09-22T08:29:53Z</time>
      </trkpt>
      <trkpt lat="45.75323" lon="4.63261">
        <ele>685.4</ele>
        <time>2019-09-22T08:29:59Z</time>
      </trkpt>
      <trkpt lat="45.75324" lon="4.63259">
        <ele>685.5</ele>
        <time>2019-09-22T08:30:00Z</time>
      </trkpt>
      <trkpt lat="45.75329" lon="4.63248">
        <ele>685.8</ele>
        <time>2019-09-22T08:30:04Z</time>
      </trkpt>
      <trkpt lat="45.75333" lon="4.63241">
        <ele>686.2</ele>
        <time>2019-09-22T08:30:07Z</time>
      </trkpt>
      <trkpt lat="45.75334" lon="4.63239">
        <ele>686.4</ele>
        <time>2019-09-22T08:30:08Z</time>
      </trkpt>
      <trkpt lat="45.7534" lon="4.63226">
        <ele>687</ele>
        <time>2019-09-22T08:30:13Z</time>
      </trkpt>
      <trkpt lat="45.75342" lon="4.63221">
        <ele>687.3</ele>
        <time>2019-09-22T08:30:15Z</time>
      </trkpt>
      <trkpt lat="45.75346" lon="4.63214">
        <ele>687.8</ele>
        <time>2019-09-22T08:30:18Z</time>
      </trkpt>
      <trkpt lat="45.75353" lon="4.63202">
        <ele>688.5</ele>
        <time>2019-09-22T08:30:24Z</time>
      </trkpt>
      <trkpt lat="45.75354" lon="4.632">
        <ele>688.6</ele>
        <time>2019-09-22T08:30:25Z</time>
      </trkpt>
      <trkpt lat="45.75358" lon="4.63194">
        <ele>689</ele>
        <time>2019-09-22T08:30:28Z</time>
      </trkpt>
      <trkpt lat="45.75364" lon="4.63184">
        <ele>689.5</ele>
        <time>2019-09-22T08:31:17Z</time>
      </trkpt>
      <trkpt lat="45.75376" lon="4.63163">
        <ele>690.4</ele>
        <time>2019-09-22T08:31:25Z</time>
      </trkpt>
      <trkpt lat="45.75392" lon="4.63134">
        <ele>691.8</ele>
        <time>2019-09-22T08:31:33Z</time>
      </trkpt>
      <trkpt lat="45.75397" lon="4.63126">
        <ele>692.1</ele>
        <time>2019-09-22T08:31:35Z</time>
      </trkpt>
      <trkpt lat="45.75411" lon="4.63096">
        <ele>692.9</ele>
        <time>2019-09-22T08:31:42Z</time>
      </trkpt>
      <trkpt lat="45.75426" lon="4.63058">
        <ele>693.1</ele>
        <time>2019-09-22T08:31:50Z</time>
      </trkpt>
      <trkpt lat="45.7544" lon="4.63013">
        <ele>693.3</ele>
        <time>2019-09-22T08:31:58Z</time>
      </trkpt>
      <trkpt lat="45.75455" lon="4.62966">
        <ele>693.9</ele>
        <time>2019-09-22T08:32:06Z</time>
      </trkpt>
      <trkpt lat="45.7547" lon="4.62924">
        <ele>695.1</ele>
        <time>2019-09-22T08:32:14Z</time>
      </trkpt>
      <trkpt lat="45.75483" lon="4.62888">
        <ele>696.2</ele>
        <time>2019-09-22T08:32:21Z</time>
      </trkpt>
      <trkpt lat="45.75499" lon="4.62846">
        <ele>697.3</ele>
        <time>2019-09-22T08:32:29Z</time>
      </trkpt>
      <trkpt lat="45.755" lon="4.62842">
        <ele>697.5</ele>
        <time>2019-09-22T08:32:30Z</time>
      </trkpt>
      <trkpt lat="45.75508" lon="4.6281">
        <ele>698.6</ele>
        <time>2019-09-22T08:32:36Z</time>
      </trkpt>
      <trkpt lat="45.7551" lon="4.628">
        <ele>699</ele>
        <time>2019-09-22T08:32:38Z</time>
      </trkpt>
      <trkpt lat="45.75517" lon="4.62778">
        <ele>700.2</ele>
        <time>2019-09-22T08:32:43Z</time>
      </trkpt>
      <trkpt lat="45.75524" lon="4.62759">
        <ele>701.4</ele>
        <time>2019-09-22T08:32:47Z</time>
      </trkpt>
      <trkpt lat="45.75528" lon="4.62744">
        <ele>702.4</ele>
        <time>2019-09-22T08:32:50Z</time>
      </trkpt>
      <trkpt lat="45.75531" lon="4.62735">
        <ele>703.2</ele>
        <time>2019-09-22T08:32:52Z</time>
      </trkpt>
      <trkpt lat="45.75543" lon="4.62703">
        <ele>706.2</ele>
        <time>2019-09-22T08:32:59Z</time>
      </trkpt>
      <trkpt lat="45.7555" lon="4.62686">
        <ele>707.9</ele>
        <time>2019-09-22T08:33:04Z</time>
      </trkpt>
      <trkpt lat="45.75551" lon="4.62683">
        <ele>708.2</ele>
        <time>2019-09-22T08:33:05Z</time>
      </trkpt>
      <trkpt lat="45.7556" lon="4.6266">
        <ele>710.4</ele>
        <time>2019-09-22T08:33:12Z</time>
      </trkpt>
      <trkpt lat="45.75562" lon="4.62657">
        <ele>710.5</ele>
        <time>2019-09-22T08:33:13Z</time>
      </trkpt>
      <trkpt lat="45.75568" lon="4.62643">
        <ele>711.3</ele>
        <time>2019-09-22T08:33:19Z</time>
      </trkpt>
      <trkpt lat="45.75569" lon="4.62641">
        <ele>711.4</ele>
        <time>2019-09-22T08:33:20Z</time>
      </trkpt>
      <trkpt lat="45.75575" lon="4.62625">
        <ele>712.4</ele>
        <time>2019-09-22T08:33:27Z</time>
      </trkpt>
      <trkpt lat="45.75582" lon="4.62613">
        <ele>713.3</ele>
        <time>2019-09-22T08:33:33Z</time>
      </trkpt>
      <trkpt lat="45.75586" lon="4.62607">
        <ele>713.8</ele>
        <time>2019-09-22T08:33:37Z</time>
      </trkpt>
      <trkpt lat="45.75589" lon="4.62602">
        <ele>714.1</ele>
        <time>2019-09-22T08:33:39Z</time>
      </trkpt>
      <trkpt lat="45.75592" lon="4.62596">
        <ele>714.6</ele>
        <time>2019-09-22T08:33:44Z</time>
      </trkpt>
      <trkpt lat="45.75593" lon="4.62591">
        <ele>714.9</ele>
        <time>2019-09-22T08:33:46Z</time>
      </trkpt>
      <trkpt lat="45.75596" lon="4.62582">
        <ele>715.6</ele>
        <time>2019-09-22T08:33:50Z</time>
      </trkpt>
      <trkpt lat="45.75597" lon="4.62579">
        <ele>715.8</ele>
        <time>2019-09-22T08:33:51Z</time>
      </trkpt>
      <trkpt lat="45.75602" lon="4.62565">
        <ele>717.2</ele>
        <time>2019-09-22T08:33:58Z</time>
      </trkpt>
      <trkpt lat="45.75602" lon="4.62564">
        <ele>717.4</ele>
        <time>2019-09-22T08:33:59Z</time>
      </trkpt>
      <trkpt lat="45.75605" lon="4.62542">
        <ele>719.2</ele>
        <time>2019-09-22T08:34:07Z</time>
      </trkpt>
      <trkpt lat="45.75606" lon="4.62532">
        <ele>720.1</ele>
        <time>2019-09-22T08:34:11Z</time>
      </trkpt>
      <trkpt lat="45.75608" lon="4.6252">
        <ele>721.1</ele>
        <time>2019-09-22T08:34:16Z</time>
      </trkpt>
      <trkpt lat="45.75611" lon="4.62507">
        <ele>722.2</ele>
        <time>2019-09-22T08:34:23Z</time>
      </trkpt>
      <trkpt lat="45.75612" lon="4.62503">
        <ele>722.6</ele>
        <time>2019-09-22T08:34:25Z</time>
      </trkpt>
      <trkpt lat="45.75612" lon="4.6249">
        <ele>723.5</ele>
        <time>2019-09-22T08:34:30Z</time>
      </trkpt>
      <trkpt lat="45.75612" lon="4.62483">
        <ele>724.1</ele>
        <time>2019-09-22T08:34:33Z</time>
      </trkpt>
      <trkpt lat="45.75613" lon="4.62472">
        <ele>724.8</ele>
        <time>2019-09-22T08:34:37Z</time>
      </trkpt>
      <trkpt lat="45.75617" lon="4.62453">
        <ele>725.9</ele>
        <time>2019-09-22T08:34:46Z</time>
      </trkpt>
      <trkpt lat="45.75618" lon="4.62441">
        <ele>726.6</ele>
        <time>2019-09-22T08:34:51Z</time>
      </trkpt>
      <trkpt lat="45.75619" lon="4.62436">
        <ele>726.8</ele>
        <time>2019-09-22T08:34:53Z</time>
      </trkpt>
      <trkpt lat="45.75621" lon="4.62424">
        <ele>727.4</ele>
        <time>2019-09-22T08:34:58Z</time>
      </trkpt>
      <trkpt lat="45.75622" lon="4.6242">
        <ele>727.5</ele>
        <time>2019-09-22T08:35:00Z</time>
      </trkpt>
      <trkpt lat="45.75623" lon="4.62416">
        <ele>727.7</ele>
        <time>2019-09-22T08:35:02Z</time>
      </trkpt>
      <trkpt lat="45.75624" lon="4.62411">
        <ele>727.9</ele>
        <time>2019-09-22T08:35:04Z</time>
      </trkpt>
      <trkpt lat="45.75625" lon="4.62402">
        <ele>728.3</ele>
        <time>2019-09-22T08:35:07Z</time>
      </trkpt>
      <trkpt lat="45.75625" lon="4.62399">
        <ele>728.4</ele>
        <time>2019-09-22T08:35:08Z</time>
      </trkpt>
      <trkpt lat="45.75623" lon="4.62383">
        <ele>729</ele>
        <time>2019-09-22T08:35:13Z</time>
      </trkpt>
      <trkpt lat="45.75623" lon="4.62377">
        <ele>729.2</ele>
        <time>2019-09-22T08:35:14Z</time>
      </trkpt>
      <trkpt lat="45.75622" lon="4.62373">
        <ele>729.3</ele>
        <time>2019-09-22T08:35:15Z</time>
      </trkpt>
      <trkpt lat="45.75619" lon="4.62346">
        <ele>730.4</ele>
        <time>2019-09-22T08:35:22Z</time>
      </trkpt>
      <trkpt lat="45.75617" lon="4.62341">
        <ele>730.6</ele>
        <time>2019-09-22T08:35:23Z</time>
      </trkpt>
      <trkpt lat="45.75617" lon="4.62336">
        <ele>730.8</ele>
        <time>2019-09-22T08:35:24Z</time>
      </trkpt>
      <trkpt lat="45.75614" lon="4.62326">
        <ele>731.2</ele>
        <time>2019-09-22T08:35:27Z</time>
      </trkpt>
      <trkpt lat="45.75611" lon="4.62318">
        <ele>731.6</ele>
        <time>2019-09-22T08:35:29Z</time>
      </trkpt>
      <trkpt lat="45.75609" lon="4.62308">
        <ele>732.1</ele>
        <time>2019-09-22T08:35:31Z</time>
      </trkpt>
      <trkpt lat="45.75608" lon="4.62304">
        <ele>732.3</ele>
        <time>2019-09-22T08:35:32Z</time>
      </trkpt>
      <trkpt lat="45.75605" lon="4.62295">
        <ele>732.8</ele>
        <time>2019-09-22T08:35:34Z</time>
      </trkpt>
      <trkpt lat="45.75603" lon="4.62287">
        <ele>733.2</ele>
        <time>2019-09-22T08:35:36Z</time>
      </trkpt>
      <trkpt lat="45.75602" lon="4.62283">
        <ele>733.5</ele>
        <time>2019-09-22T08:35:38Z</time>
      </trkpt>
      <trkpt lat="45.75601" lon="4.6228">
        <ele>733.6</ele>
        <time>2019-09-22T08:35:39Z</time>
      </trkpt>
      <trkpt lat="45.756" lon="4.62274">
        <ele>733.9</ele>
        <time>2019-09-22T08:35:41Z</time>
      </trkpt>
      <trkpt lat="45.75599" lon="4.62268">
        <ele>734.3</ele>
        <time>2019-09-22T08:35:43Z</time>
      </trkpt>
      <trkpt lat="45.75599" lon="4.62258">
        <ele>734.8</ele>
        <time>2019-09-22T08:35:46Z</time>
      </trkpt>
      <trkpt lat="45.75599" lon="4.62255">
        <ele>735.1</ele>
        <time>2019-09-22T08:35:47Z</time>
      </trkpt>
      <trkpt lat="45.75598" lon="4.62248">
        <ele>735.5</ele>
        <time>2019-09-22T08:35:49Z</time>
      </trkpt>
      <trkpt lat="45.75599" lon="4.62235">
        <ele>736.3</ele>
        <time>2019-09-22T08:35:54Z</time>
      </trkpt>
      <trkpt lat="45.75599" lon="4.62232">
        <ele>736.5</ele>
        <time>2019-09-22T08:35:55Z</time>
      </trkpt>
      <trkpt lat="45.756" lon="4.62221">
        <ele>737.3</ele>
        <time>2019-09-22T08:35:59Z</time>
      </trkpt>
      <trkpt lat="45.756" lon="4.62206">
        <ele>738.3</ele>
        <time>2019-09-22T08:36:04Z</time>
      </trkpt>
      <trkpt lat="45.756" lon="4.62198">
        <ele>738.9</ele>
        <time>2019-09-22T08:36:07Z</time>
      </trkpt>
      <trkpt lat="45.756" lon="4.62188">
        <ele>739.6</ele>
        <time>2019-09-22T08:36:11Z</time>
      </trkpt>
      <trkpt lat="45.75599" lon="4.62183">
        <ele>739.9</ele>
        <time>2019-09-22T08:36:13Z</time>
      </trkpt>
      <trkpt lat="45.75599" lon="4.6218">
        <ele>740.1</ele>
        <time>2019-09-22T08:36:14Z</time>
      </trkpt>
      <trkpt lat="45.756" lon="4.62168">
        <ele>740.9</ele>
        <time>2019-09-22T08:36:18Z</time>
      </trkpt>
      <trkpt lat="45.756" lon="4.6216">
        <ele>741.4</ele>
        <time>2019-09-22T08:36:21Z</time>
      </trkpt>
      <trkpt lat="45.75599" lon="4.6215">
        <ele>742.1</ele>
        <time>2019-09-22T08:36:25Z</time>
      </trkpt>
      <trkpt lat="45.756" lon="4.6214">
        <ele>742.7</ele>
        <time>2019-09-22T08:36:29Z</time>
      </trkpt>
      <trkpt lat="45.75601" lon="4.62131">
        <ele>743.3</ele>
        <time>2019-09-22T08:36:32Z</time>
      </trkpt>
      <trkpt lat="45.75602" lon="4.62121">
        <ele>744</ele>
        <time>2019-09-22T08:36:36Z</time>
      </trkpt>
      <trkpt lat="45.75603" lon="4.6211">
        <ele>744.7</ele>
        <time>2019-09-22T08:36:39Z</time>
      </trkpt>
      <trkpt lat="45.75604" lon="4.62097">
        <ele>745.5</ele>
        <time>2019-09-22T08:36:44Z</time>
      </trkpt>
      <trkpt lat="45.75608" lon="4.62077">
        <ele>746.6</ele>
        <time>2019-09-22T08:36:53Z</time>
      </trkpt>
      <trkpt lat="45.75607" lon="4.62061">
        <ele>747.3</ele>
        <time>2019-09-22T08:36:59Z</time>
      </trkpt>
      <trkpt lat="45.75604" lon="4.62034">
        <ele>748.4</ele>
        <time>2019-09-22T08:37:06Z</time>
      </trkpt>
      <trkpt lat="45.75603" lon="4.62022">
        <ele>748.8</ele>
        <time>2019-09-22T08:37:09Z</time>
      </trkpt>
      <trkpt lat="45.75601" lon="4.62008">
        <ele>749.2</ele>
        <time>2019-09-22T08:37:13Z</time>
      </trkpt>
      <trkpt lat="45.75601" lon="4.62003">
        <ele>749.4</ele>
        <time>2019-09-22T08:37:14Z</time>
      </trkpt>
      <trkpt lat="45.75601" lon="4.61997">
        <ele>749.6</ele>
        <time>2019-09-22T08:37:16Z</time>
      </trkpt>
      <trkpt lat="45.756" lon="4.61986">
        <ele>749.9</ele>
        <time>2019-09-22T08:37:19Z</time>
      </trkpt>
      <trkpt lat="45.756" lon="4.61976">
        <ele>750.2</ele>
        <time>2019-09-22T08:37:22Z</time>
      </trkpt>
      <trkpt lat="45.756" lon="4.61962">
        <ele>750.6</ele>
        <time>2019-09-22T08:37:26Z</time>
      </trkpt>
      <trkpt lat="45.756" lon="4.61949">
        <ele>751</ele>
        <time>2019-09-22T08:37:30Z</time>
      </trkpt>
      <trkpt lat="45.756" lon="4.61924">
        <ele>751.8</ele>
        <time>2019-09-22T08:37:38Z</time>
      </trkpt>
      <trkpt lat="45.756" lon="4.61911">
        <ele>752.2</ele>
        <time>2019-09-22T08:37:42Z</time>
      </trkpt>
      <trkpt lat="45.75599" lon="4.61892">
        <ele>752.8</ele>
        <time>2019-09-22T08:37:47Z</time>
      </trkpt>
      <trkpt lat="45.75598" lon="4.6185">
        <ele>754.1</ele>
        <time>2019-09-22T08:37:56Z</time>
      </trkpt>
      <trkpt lat="45.75604" lon="4.61828">
        <ele>754.7</ele>
        <time>2019-09-22T08:38:03Z</time>
      </trkpt>
      <trkpt lat="45.75606" lon="4.61824">
        <ele>754.9</ele>
        <time>2019-09-22T08:38:04Z</time>
      </trkpt>
      <trkpt lat="45.75613" lon="4.61812">
        <ele>755.2</ele>
        <time>2019-09-22T08:38:08Z</time>
      </trkpt>
      <trkpt lat="45.75617" lon="4.61807">
        <ele>755.3</ele>
        <time>2019-09-22T08:38:10Z</time>
      </trkpt>
      <trkpt lat="45.75619" lon="4.61804">
        <ele>755.3</ele>
        <time>2019-09-22T08:38:11Z</time>
      </trkpt>
      <trkpt lat="45.75625" lon="4.61789">
        <ele>754.5</ele>
        <time>2019-09-22T08:38:16Z</time>
      </trkpt>
      <trkpt lat="45.75626" lon="4.61787">
        <ele>754.5</ele>
        <time>2019-09-22T08:38:17Z</time>
      </trkpt>
      <trkpt lat="45.75625" lon="4.61783">
        <ele>754.5</ele>
        <time>2019-09-22T08:38:18Z</time>
      </trkpt>
      <trkpt lat="45.75625" lon="4.61782">
        <ele>754.5</ele>
        <time>2019-09-22T08:38:19Z</time>
      </trkpt>
      <trkpt lat="45.75625" lon="4.61781">
        <ele>754.5</ele>
        <time>2019-09-22T08:38:20Z</time>
      </trkpt>
      <trkpt lat="45.75626" lon="4.61781">
        <ele>754.5</ele>
        <time>2019-09-22T08:38:21Z</time>
      </trkpt>
      <trkpt lat="45.75627" lon="4.61784">
        <ele>754.4</ele>
        <time>2019-09-22T08:38:24Z</time>
      </trkpt>
      <trkpt lat="45.75628" lon="4.61785">
        <ele>754.1</ele>
        <time>2019-09-22T08:39:46Z</time>
      </trkpt>
      <trkpt lat="45.75629" lon="4.61789">
        <ele>754.1</ele>
        <time>2019-09-22T08:39:48Z</time>
      </trkpt>
      <trkpt lat="45.75633" lon="4.61799">
        <ele>754.1</ele>
        <time>2019-09-22T08:39:51Z</time>
      </trkpt>
      <trkpt lat="45.75637" lon="4.61808">
        <ele>754.1</ele>
        <time>2019-09-22T08:39:53Z</time>
      </trkpt>
      <trkpt lat="45.75641" lon="4.61816">
        <ele>754.2</ele>
        <time>2019-09-22T08:39:55Z</time>
      </trkpt>
      <trkpt lat="45.75648" lon="4.61834">
        <ele>754.3</ele>
        <time>2019-09-22T08:39:59Z</time>
      </trkpt>
      <trkpt lat="45.75653" lon="4.61844">
        <ele>754.4</ele>
        <time>2019-09-22T08:40:01Z</time>
      </trkpt>
      <trkpt lat="45.75658" lon="4.61854">
        <ele>754.6</ele>
        <time>2019-09-22T08:40:03Z</time>
      </trkpt>
      <trkpt lat="45.75666" lon="4.61869">
        <ele>754.8</ele>
        <time>2019-09-22T08:40:06Z</time>
      </trkpt>
      <trkpt lat="45.75683" lon="4.61903">
        <ele>755.5</ele>
        <time>2019-09-22T08:40:13Z</time>
      </trkpt>
      <trkpt lat="45.75693" lon="4.61914">
        <ele>755.8</ele>
        <time>2019-09-22T08:40:17Z</time>
      </trkpt>
      <trkpt lat="45.75697" lon="4.61911">
        <ele>755.8</ele>
        <time>2019-09-22T08:40:19Z</time>
      </trkpt>
      <trkpt lat="45.75701" lon="4.61903">
        <ele>755.2</ele>
        <time>2019-09-22T08:40:21Z</time>
      </trkpt>
      <trkpt lat="45.75702" lon="4.61898">
        <ele>754.7</ele>
        <time>2019-09-22T08:40:22Z</time>
      </trkpt>
      <trkpt lat="45.75704" lon="4.61885">
        <ele>754.1</ele>
        <time>2019-09-22T08:40:24Z</time>
      </trkpt>
      <trkpt lat="45.75701" lon="4.6186">
        <ele>752.9</ele>
        <time>2019-09-22T08:40:27Z</time>
      </trkpt>
      <trkpt lat="45.75698" lon="4.61852">
        <ele>752.6</ele>
        <time>2019-09-22T08:40:28Z</time>
      </trkpt>
      <trkpt lat="45.75695" lon="4.61844">
        <ele>752.1</ele>
        <time>2019-09-22T08:40:29Z</time>
      </trkpt>
      <trkpt lat="45.75693" lon="4.61829">
        <ele>750.4</ele>
        <time>2019-09-22T08:40:31Z</time>
      </trkpt>
      <trkpt lat="45.75694" lon="4.61815">
        <ele>749.2</ele>
        <time>2019-09-22T08:40:33Z</time>
      </trkpt>
      <trkpt lat="45.75693" lon="4.61797">
        <ele>747.8</ele>
        <time>2019-09-22T08:40:36Z</time>
      </trkpt>
      <trkpt lat="45.75693" lon="4.61785">
        <ele>746.9</ele>
        <time>2019-09-22T08:40:38Z</time>
      </trkpt>
      <trkpt lat="45.75692" lon="4.61773">
        <ele>746.9</ele>
        <time>2019-09-22T08:40:41Z</time>
      </trkpt>
      <trkpt lat="45.75692" lon="4.6177">
        <ele>746.9</ele>
        <time>2019-09-22T08:40:42Z</time>
      </trkpt>
      <trkpt lat="45.75694" lon="4.61762">
        <ele>745.9</ele>
        <time>2019-09-22T08:46:04Z</time>
      </trkpt>
      <trkpt lat="45.75696" lon="4.61761">
        <ele>745.3</ele>
        <time>2019-09-22T08:46:05Z</time>
      </trkpt>
      <trkpt lat="45.75698" lon="4.61763">
        <ele>745.3</ele>
        <time>2019-09-22T08:46:12Z</time>
      </trkpt>
      <trkpt lat="45.757" lon="4.61766">
        <ele>744.8</ele>
        <time>2019-09-22T08:46:13Z</time>
      </trkpt>
      <trkpt lat="45.75701" lon="4.61769">
        <ele>744.8</ele>
        <time>2019-09-22T08:46:14Z</time>
      </trkpt>
      <trkpt lat="45.75701" lon="4.61773">
        <ele>745</ele>
        <time>2019-09-22T08:46:16Z</time>
      </trkpt>
      <trkpt lat="45.75701" lon="4.61775">
        <ele>745.3</ele>
        <time>2019-09-22T08:46:18Z</time>
      </trkpt>
      <trkpt lat="45.75702" lon="4.61781">
        <ele>745</ele>
        <time>2019-09-22T08:46:21Z</time>
      </trkpt>
      <trkpt lat="45.75702" lon="4.61785">
        <ele>745.3</ele>
        <time>2019-09-22T08:46:23Z</time>
      </trkpt>
      <trkpt lat="45.75703" lon="4.61787">
        <ele>745.7</ele>
        <time>2019-09-22T08:46:24Z</time>
      </trkpt>
      <trkpt lat="45.757" lon="4.61796">
        <ele>746.9</ele>
        <time>2019-09-22T08:46:30Z</time>
      </trkpt>
      <trkpt lat="45.757" lon="4.61799">
        <ele>747</ele>
        <time>2019-09-22T08:46:32Z</time>
      </trkpt>
      <trkpt lat="45.757" lon="4.6181">
        <ele>748.2</ele>
        <time>2019-09-22T08:46:38Z</time>
      </trkpt>
      <trkpt lat="45.75696" lon="4.61832">
        <ele>750.7</ele>
        <time>2019-09-22T08:46:52Z</time>
      </trkpt>
      <trkpt lat="45.75699" lon="4.61839">
        <ele>751.2</ele>
        <time>2019-09-22T08:46:55Z</time>
      </trkpt>
      <trkpt lat="45.75705" lon="4.6186">
        <ele>752.5</ele>
        <time>2019-09-22T08:47:02Z</time>
      </trkpt>
      <trkpt lat="45.75696" lon="4.61906">
        <ele>755.8</ele>
        <time>2019-09-22T08:48:23Z</time>
      </trkpt>
      <trkpt lat="45.75692" lon="4.61901">
        <ele>755.7</ele>
        <time>2019-09-22T08:48:26Z</time>
      </trkpt>
      <trkpt lat="45.75687" lon="4.61893">
        <ele>755.6</ele>
        <time>2019-09-22T08:48:29Z</time>
      </trkpt>
      <trkpt lat="45.75676" lon="4.61869">
        <ele>755</ele>
        <time>2019-09-22T08:48:35Z</time>
      </trkpt>
      <trkpt lat="45.75666" lon="4.61846">
        <ele>754.6</ele>
        <time>2019-09-22T08:48:40Z</time>
      </trkpt>
      <trkpt lat="45.75664" lon="4.61842">
        <ele>754.6</ele>
        <time>2019-09-22T08:48:41Z</time>
      </trkpt>
      <trkpt lat="45.75647" lon="4.61806">
        <ele>754.2</ele>
        <time>2019-09-22T08:48:48Z</time>
      </trkpt>
      <trkpt lat="45.75631" lon="4.61771">
        <ele>754.1</ele>
        <time>2019-09-22T08:48:55Z</time>
      </trkpt>
      <trkpt lat="45.75629" lon="4.61768">
        <ele>754.1</ele>
        <time>2019-09-22T08:49:34Z</time>
      </trkpt>
      <trkpt lat="45.75628" lon="4.61769">
        <ele>754.1</ele>
        <time>2019-09-22T08:49:35Z</time>
      </trkpt>
      <trkpt lat="45.75626" lon="4.6177">
        <ele>754.1</ele>
        <time>2019-09-22T08:49:37Z</time>
      </trkpt>
      <trkpt lat="45.75623" lon="4.61774">
        <ele>754.1</ele>
        <time>2019-09-22T08:49:40Z</time>
      </trkpt>
      <trkpt lat="45.75622" lon="4.61775">
        <ele>754.4</ele>
        <time>2019-09-22T08:49:41Z</time>
      </trkpt>
      <trkpt lat="45.75621" lon="4.61777">
        <ele>754.5</ele>
        <time>2019-09-22T08:49:42Z</time>
      </trkpt>
      <trkpt lat="45.75613" lon="4.61784">
        <ele>755</ele>
        <time>2019-09-22T08:49:46Z</time>
      </trkpt>
      <trkpt lat="45.75596" lon="4.61791">
        <ele>755.8</ele>
        <time>2019-09-22T08:49:53Z</time>
      </trkpt>
      <trkpt lat="45.75591" lon="4.61789">
        <ele>755.9</ele>
        <time>2019-09-22T08:49:56Z</time>
      </trkpt>
      <trkpt lat="45.75584" lon="4.61783">
        <ele>756.3</ele>
        <time>2019-09-22T08:50:00Z</time>
      </trkpt>
      <trkpt lat="45.7558" lon="4.6177">
        <ele>757.3</ele>
        <time>2019-09-22T08:50:07Z</time>
      </trkpt>
      <trkpt lat="45.75579" lon="4.61767">
        <ele>757.5</ele>
        <time>2019-09-22T08:50:08Z</time>
      </trkpt>
      <trkpt lat="45.75569" lon="4.61753">
        <ele>759.5</ele>
        <time>2019-09-22T08:50:13Z</time>
      </trkpt>
      <trkpt lat="45.7556" lon="4.6174">
        <ele>761.3</ele>
        <time>2019-09-22T08:50:20Z</time>
      </trkpt>
      <trkpt lat="45.75554" lon="4.61728">
        <ele>763</ele>
        <time>2019-09-22T08:50:26Z</time>
      </trkpt>
      <trkpt lat="45.75546" lon="4.61714">
        <ele>765.2</ele>
        <time>2019-09-22T08:50:34Z</time>
      </trkpt>
      <trkpt lat="45.75544" lon="4.61711">
        <ele>765.8</ele>
        <time>2019-09-22T08:50:36Z</time>
      </trkpt>
      <trkpt lat="45.75542" lon="4.61709">
        <ele>766.1</ele>
        <time>2019-09-22T08:50:37Z</time>
      </trkpt>
      <trkpt lat="45.7554" lon="4.61705">
        <ele>766.6</ele>
        <time>2019-09-22T08:50:40Z</time>
      </trkpt>
      <trkpt lat="45.75535" lon="4.617">
        <ele>767.6</ele>
        <time>2019-09-22T08:50:44Z</time>
      </trkpt>
      <trkpt lat="45.75534" lon="4.61699">
        <ele>767.8</ele>
        <time>2019-09-22T08:50:45Z</time>
      </trkpt>
      <trkpt lat="45.75532" lon="4.61696">
        <ele>768.3</ele>
        <time>2019-09-22T08:50:47Z</time>
      </trkpt>
      <trkpt lat="45.75528" lon="4.61692">
        <ele>769</ele>
        <time>2019-09-22T08:50:50Z</time>
      </trkpt>
      <trkpt lat="45.75526" lon="4.6169">
        <ele>769.3</ele>
        <time>2019-09-22T08:50:52Z</time>
      </trkpt>
      <trkpt lat="45.75525" lon="4.61688">
        <ele>769.5</ele>
        <time>2019-09-22T08:50:53Z</time>
      </trkpt>
      <trkpt lat="45.755" lon="4.61665">
        <ele>773.4</ele>
        <time>2019-09-22T08:51:08Z</time>
      </trkpt>
      <trkpt lat="45.75496" lon="4.61662">
        <ele>774</ele>
        <time>2019-09-22T08:51:10Z</time>
      </trkpt>
      <trkpt lat="45.75489" lon="4.61658">
        <ele>774.9</ele>
        <time>2019-09-22T08:51:13Z</time>
      </trkpt>
      <trkpt lat="45.75485" lon="4.61656">
        <ele>775.3</ele>
        <time>2019-09-22T08:51:15Z</time>
      </trkpt>
      <trkpt lat="45.75478" lon="4.61653">
        <ele>776.2</ele>
        <time>2019-09-22T08:51:19Z</time>
      </trkpt>
      <trkpt lat="45.75472" lon="4.61648">
        <ele>776.9</ele>
        <time>2019-09-22T08:51:23Z</time>
      </trkpt>
      <trkpt lat="45.75469" lon="4.61648">
        <ele>777.1</ele>
        <time>2019-09-22T08:51:24Z</time>
      </trkpt>
      <trkpt lat="45.75465" lon="4.61647">
        <ele>777.5</ele>
        <time>2019-09-22T08:51:26Z</time>
      </trkpt>
      <trkpt lat="45.75461" lon="4.61646">
        <ele>777.8</ele>
        <time>2019-09-22T08:51:28Z</time>
      </trkpt>
      <trkpt lat="45.75451" lon="4.61644">
        <ele>778.6</ele>
        <time>2019-09-22T08:51:33Z</time>
      </trkpt>
      <trkpt lat="45.75438" lon="4.61638">
        <ele>779.6</ele>
        <time>2019-09-22T08:51:40Z</time>
      </trkpt>
      <trkpt lat="45.75434" lon="4.61637">
        <ele>779.8</ele>
        <time>2019-09-22T08:51:42Z</time>
      </trkpt>
      <trkpt lat="45.75428" lon="4.61635">
        <ele>780.2</ele>
        <time>2019-09-22T08:51:45Z</time>
      </trkpt>
      <trkpt lat="45.75426" lon="4.61634">
        <ele>780.3</ele>
        <time>2019-09-22T08:51:46Z</time>
      </trkpt>
      <trkpt lat="45.75417" lon="4.61628">
        <ele>780.9</ele>
        <time>2019-09-22T08:51:51Z</time>
      </trkpt>
      <trkpt lat="45.75413" lon="4.61623">
        <ele>781.1</ele>
        <time>2019-09-22T08:51:54Z</time>
      </trkpt>
      <trkpt lat="45.75408" lon="4.6162">
        <ele>781.4</ele>
        <time>2019-09-22T08:51:57Z</time>
      </trkpt>
      <trkpt lat="45.754" lon="4.61616">
        <ele>781.8</ele>
        <time>2019-09-22T08:52:01Z</time>
      </trkpt>
      <trkpt lat="45.75389" lon="4.61608">
        <ele>782.4</ele>
        <time>2019-09-22T08:52:07Z</time>
      </trkpt>
      <trkpt lat="45.75378" lon="4.616">
        <ele>783.2</ele>
        <time>2019-09-22T08:52:13Z</time>
      </trkpt>
      <trkpt lat="45.7536" lon="4.61588">
        <ele>784.4</ele>
        <time>2019-09-22T08:52:22Z</time>
      </trkpt>
      <trkpt lat="45.75346" lon="4.61584">
        <ele>785</ele>
        <time>2019-09-22T08:52:28Z</time>
      </trkpt>
      <trkpt lat="45.75341" lon="4.61583">
        <ele>785.2</ele>
        <time>2019-09-22T08:52:30Z</time>
      </trkpt>
      <trkpt lat="45.75326" lon="4.61579">
        <ele>785.5</ele>
        <time>2019-09-22T08:52:34Z</time>
      </trkpt>
      <trkpt lat="45.75319" lon="4.61578">
        <ele>785.4</ele>
        <time>2019-09-22T08:52:36Z</time>
      </trkpt>
      <trkpt lat="45.75305" lon="4.61571">
        <ele>784.9</ele>
        <time>2019-09-22T08:52:41Z</time>
      </trkpt>
      <trkpt lat="45.75297" lon="4.61552">
        <ele>783.7</ele>
        <time>2019-09-22T08:52:47Z</time>
      </trkpt>
      <trkpt lat="45.75292" lon="4.61516">
        <ele>781.3</ele>
        <time>2019-09-22T08:52:52Z</time>
      </trkpt>
      <trkpt lat="45.75283" lon="4.61458">
        <ele>777.7</ele>
        <time>2019-09-22T08:52:58Z</time>
      </trkpt>
      <trkpt lat="45.75279" lon="4.61421">
        <ele>776.1</ele>
        <time>2019-09-22T08:53:01Z</time>
      </trkpt>
      <trkpt lat="45.75278" lon="4.61398">
        <ele>775.6</ele>
        <time>2019-09-22T08:53:03Z</time>
      </trkpt>
      <trkpt lat="45.75276" lon="4.61388">
        <ele>775.3</ele>
        <time>2019-09-22T08:53:04Z</time>
      </trkpt>
      <trkpt lat="45.75274" lon="4.61369">
        <ele>774.5</ele>
        <time>2019-09-22T08:53:06Z</time>
      </trkpt>
      <trkpt lat="45.75272" lon="4.61351">
        <ele>773.4</ele>
        <time>2019-09-22T08:53:08Z</time>
      </trkpt>
      <trkpt lat="45.7527" lon="4.61334">
        <ele>772.4</ele>
        <time>2019-09-22T08:53:10Z</time>
      </trkpt>
      <trkpt lat="45.75264" lon="4.61291">
        <ele>769.9</ele>
        <time>2019-09-22T08:53:15Z</time>
      </trkpt>
      <trkpt lat="45.75262" lon="4.61284">
        <ele>769.5</ele>
        <time>2019-09-22T08:53:16Z</time>
      </trkpt>
      <trkpt lat="45.75252" lon="4.61247">
        <ele>767.4</ele>
        <time>2019-09-22T08:53:21Z</time>
      </trkpt>
      <trkpt lat="45.75246" lon="4.61222">
        <ele>766.1</ele>
        <time>2019-09-22T08:53:24Z</time>
      </trkpt>
      <trkpt lat="45.7524" lon="4.612">
        <ele>765.1</ele>
        <time>2019-09-22T08:53:27Z</time>
      </trkpt>
      <trkpt lat="45.75227" lon="4.61173">
        <ele>763.6</ele>
        <time>2019-09-22T08:53:32Z</time>
      </trkpt>
      <trkpt lat="45.75217" lon="4.61154">
        <ele>762.5</ele>
        <time>2019-09-22T08:53:36Z</time>
      </trkpt>
      <trkpt lat="45.75209" lon="4.6114">
        <ele>761.8</ele>
        <time>2019-09-22T08:53:39Z</time>
      </trkpt>
      <trkpt lat="45.75202" lon="4.61131">
        <ele>761.4</ele>
        <time>2019-09-22T08:53:41Z</time>
      </trkpt>
      <trkpt lat="45.75185" lon="4.61109">
        <ele>760.9</ele>
        <time>2019-09-22T08:53:46Z</time>
      </trkpt>
      <trkpt lat="45.7517" lon="4.61085">
        <ele>760.9</ele>
        <time>2019-09-22T08:53:52Z</time>
      </trkpt>
      <trkpt lat="45.75163" lon="4.61065">
        <ele>760.8</ele>
        <time>2019-09-22T08:53:56Z</time>
      </trkpt>
      <trkpt lat="45.75156" lon="4.61045">
        <ele>760.6</ele>
        <time>2019-09-22T08:53:59Z</time>
      </trkpt>
      <trkpt lat="45.75151" lon="4.61035">
        <ele>760.2</ele>
        <time>2019-09-22T08:54:01Z</time>
      </trkpt>
      <trkpt lat="45.75144" lon="4.61029">
        <ele>759.7</ele>
        <time>2019-09-22T08:54:03Z</time>
      </trkpt>
      <trkpt lat="45.75132" lon="4.61025">
        <ele>758.6</ele>
        <time>2019-09-22T08:54:05Z</time>
      </trkpt>
      <trkpt lat="45.75119" lon="4.61022">
        <ele>757.7</ele>
        <time>2019-09-22T08:54:07Z</time>
      </trkpt>
      <trkpt lat="45.75096" lon="4.61019">
        <ele>756.9</ele>
        <time>2019-09-22T08:54:12Z</time>
      </trkpt>
      <trkpt lat="45.75072" lon="4.61021">
        <ele>756.7</ele>
        <time>2019-09-22T09:00:37Z</time>
      </trkpt>
      <trkpt lat="45.75067" lon="4.61023">
        <ele>756.7</ele>
        <time>2019-09-22T09:00:39Z</time>
      </trkpt>
      <trkpt lat="45.75062" lon="4.61025">
        <ele>756.6</ele>
        <time>2019-09-22T09:00:41Z</time>
      </trkpt>
      <trkpt lat="45.75058" lon="4.61028">
        <ele>756.5</ele>
        <time>2019-09-22T09:00:43Z</time>
      </trkpt>
      <trkpt lat="45.75056" lon="4.61029">
        <ele>756.4</ele>
        <time>2019-09-22T09:00:44Z</time>
      </trkpt>
      <trkpt lat="45.75044" lon="4.61031">
        <ele>756.3</ele>
        <time>2019-09-22T09:00:49Z</time>
      </trkpt>
      <trkpt lat="45.75031" lon="4.61034">
        <ele>756.6</ele>
        <time>2019-09-22T09:00:54Z</time>
      </trkpt>
      <trkpt lat="45.75027" lon="4.61035">
        <ele>756.8</ele>
        <time>2019-09-22T09:00:56Z</time>
      </trkpt>
      <trkpt lat="45.75017" lon="4.61036">
        <ele>757.3</ele>
        <time>2019-09-22T09:01:00Z</time>
      </trkpt>
      <trkpt lat="45.75012" lon="4.61037">
        <ele>757.6</ele>
        <time>2019-09-22T09:01:02Z</time>
      </trkpt>
      <trkpt lat="45.75006" lon="4.6104">
        <ele>757.9</ele>
        <time>2019-09-22T09:01:04Z</time>
      </trkpt>
      <trkpt lat="45.74991" lon="4.61049">
        <ele>758.6</ele>
        <time>2019-09-22T09:01:09Z</time>
      </trkpt>
      <trkpt lat="45.74969" lon="4.61063">
        <ele>758.3</ele>
        <time>2019-09-22T09:01:16Z</time>
      </trkpt>
      <trkpt lat="45.74944" lon="4.61075">
        <ele>756.2</ele>
        <time>2019-09-22T09:01:22Z</time>
      </trkpt>
      <trkpt lat="45.74934" lon="4.61081">
        <ele>755.4</ele>
        <time>2019-09-22T09:01:24Z</time>
      </trkpt>
      <trkpt lat="45.7491" lon="4.61097">
        <ele>753.6</ele>
        <time>2019-09-22T09:01:29Z</time>
      </trkpt>
      <trkpt lat="45.74898" lon="4.61099">
        <ele>753.1</ele>
        <time>2019-09-22T09:01:31Z</time>
      </trkpt>
      <trkpt lat="45.7489" lon="4.61099">
        <ele>752.9</ele>
        <time>2019-09-22T09:01:33Z</time>
      </trkpt>
      <trkpt lat="45.74888" lon="4.61098">
        <ele>752.9</ele>
        <time>2019-09-22T09:01:34Z</time>
      </trkpt>
      <trkpt lat="45.74881" lon="4.61095">
        <ele>752.8</ele>
        <time>2019-09-22T09:01:37Z</time>
      </trkpt>
      <trkpt lat="45.74878" lon="4.61095">
        <ele>752.8</ele>
        <time>2019-09-22T09:01:38Z</time>
      </trkpt>
      <trkpt lat="45.74874" lon="4.61094">
        <ele>752.7</ele>
        <time>2019-09-22T09:01:39Z</time>
      </trkpt>
      <trkpt lat="45.74865" lon="4.61094">
        <ele>752.5</ele>
        <time>2019-09-22T09:01:42Z</time>
      </trkpt>
      <trkpt lat="45.74862" lon="4.61094">
        <ele>752.4</ele>
        <time>2019-09-22T09:01:43Z</time>
      </trkpt>
      <trkpt lat="45.74859" lon="4.61095">
        <ele>752.2</ele>
        <time>2019-09-22T09:01:44Z</time>
      </trkpt>
      <trkpt lat="45.7485" lon="4.61096">
        <ele>751.5</ele>
        <time>2019-09-22T09:01:47Z</time>
      </trkpt>
      <trkpt lat="45.74847" lon="4.61097">
        <ele>751.2</ele>
        <time>2019-09-22T09:01:48Z</time>
      </trkpt>
      <trkpt lat="45.74837" lon="4.61105">
        <ele>749.8</ele>
        <time>2019-09-22T09:01:53Z</time>
      </trkpt>
      <trkpt lat="45.74836" lon="4.61105">
        <ele>749.6</ele>
        <time>2019-09-22T09:01:54Z</time>
      </trkpt>
      <trkpt lat="45.74833" lon="4.61108">
        <ele>749.2</ele>
        <time>2019-09-22T09:01:56Z</time>
      </trkpt>
      <trkpt lat="45.74827" lon="4.61115">
        <ele>747.9</ele>
        <time>2019-09-22T09:02:00Z</time>
      </trkpt>
      <trkpt lat="45.74823" lon="4.61119">
        <ele>747.2</ele>
        <time>2019-09-22T09:02:02Z</time>
      </trkpt>
      <trkpt lat="45.74818" lon="4.61125">
        <ele>746.1</ele>
        <time>2019-09-22T09:02:05Z</time>
      </trkpt>
      <trkpt lat="45.74816" lon="4.61127">
        <ele>745.7</ele>
        <time>2019-09-22T09:02:06Z</time>
      </trkpt>
      <trkpt lat="45.74804" lon="4.61138">
        <ele>743.3</ele>
        <time>2019-09-22T09:02:11Z</time>
      </trkpt>
      <trkpt lat="45.74802" lon="4.61139">
        <ele>742.9</ele>
        <time>2019-09-22T09:02:12Z</time>
      </trkpt>
      <trkpt lat="45.74799" lon="4.61141">
        <ele>742.4</ele>
        <time>2019-09-22T09:02:14Z</time>
      </trkpt>
      <trkpt lat="45.74798" lon="4.61143">
        <ele>742.1</ele>
        <time>2019-09-22T09:02:15Z</time>
      </trkpt>
      <trkpt lat="45.74797" lon="4.61145">
        <ele>741.8</ele>
        <time>2019-09-22T09:02:16Z</time>
      </trkpt>
      <trkpt lat="45.74796" lon="4.61147">
        <ele>741.4</ele>
        <time>2019-09-22T09:02:17Z</time>
      </trkpt>
      <trkpt lat="45.74792" lon="4.61153">
        <ele>740.3</ele>
        <time>2019-09-22T09:02:29Z</time>
      </trkpt>
      <trkpt lat="45.74792" lon="4.61156">
        <ele>740</ele>
        <time>2019-09-22T09:02:30Z</time>
      </trkpt>
      <trkpt lat="45.74791" lon="4.61168">
        <ele>738.5</ele>
        <time>2019-09-22T09:02:34Z</time>
      </trkpt>
      <trkpt lat="45.74789" lon="4.61178">
        <ele>736.3</ele>
        <time>2019-09-22T09:02:36Z</time>
      </trkpt>
      <trkpt lat="45.74785" lon="4.61191">
        <ele>736</ele>
        <time>2019-09-22T09:02:39Z</time>
      </trkpt>
      <trkpt lat="45.74781" lon="4.612">
        <ele>735.8</ele>
        <time>2019-09-22T09:02:41Z</time>
      </trkpt>
      <trkpt lat="45.74766" lon="4.61231">
        <ele>731.4</ele>
        <time>2019-09-22T09:02:47Z</time>
      </trkpt>
      <trkpt lat="45.7475" lon="4.61267">
        <ele>728.3</ele>
        <time>2019-09-22T09:02:52Z</time>
      </trkpt>
      <trkpt lat="45.74739" lon="4.61291">
        <ele>726.4</ele>
        <time>2019-09-22T09:02:55Z</time>
      </trkpt>
      <trkpt lat="45.74724" lon="4.6132">
        <ele>724.9</ele>
        <time>2019-09-22T09:02:59Z</time>
      </trkpt>
      <trkpt lat="45.74711" lon="4.61342">
        <ele>724.1</ele>
        <time>2019-09-22T09:03:03Z</time>
      </trkpt>
      <trkpt lat="45.74708" lon="4.61346">
        <ele>723.8</ele>
        <time>2019-09-22T09:03:04Z</time>
      </trkpt>
      <trkpt lat="45.74695" lon="4.61358">
        <ele>725</ele>
        <time>2019-09-22T09:03:08Z</time>
      </trkpt>
      <trkpt lat="45.74688" lon="4.61363">
        <ele>726</ele>
        <time>2019-09-22T09:03:10Z</time>
      </trkpt>
      <trkpt lat="45.74672" lon="4.6137">
        <ele>728.3</ele>
        <time>2019-09-22T09:03:14Z</time>
      </trkpt>
      <trkpt lat="45.74666" lon="4.61372">
        <ele>729.4</ele>
        <time>2019-09-22T09:03:16Z</time>
      </trkpt>
      <trkpt lat="45.74645" lon="4.61374">
        <ele>733.2</ele>
        <time>2019-09-22T09:03:21Z</time>
      </trkpt>
      <trkpt lat="45.74641" lon="4.61374">
        <ele>733.9</ele>
        <time>2019-09-22T09:03:22Z</time>
      </trkpt>
      <trkpt lat="45.74624" lon="4.61372">
        <ele>737.2</ele>
        <time>2019-09-22T09:03:27Z</time>
      </trkpt>
      <trkpt lat="45.74612" lon="4.61371">
        <ele>739.3</ele>
        <time>2019-09-22T09:03:31Z</time>
      </trkpt>
      <trkpt lat="45.74606" lon="4.61371">
        <ele>740.1</ele>
        <time>2019-09-22T09:03:33Z</time>
      </trkpt>
      <trkpt lat="45.74594" lon="4.61372">
        <ele>741.9</ele>
        <time>2019-09-22T09:03:39Z</time>
      </trkpt>
      <trkpt lat="45.74579" lon="4.61372">
        <ele>743.8</ele>
        <time>2019-09-22T09:03:46Z</time>
      </trkpt>
      <trkpt lat="45.7457" lon="4.61371">
        <ele>745.1</ele>
        <time>2019-09-22T09:03:52Z</time>
      </trkpt>
      <trkpt lat="45.7456" lon="4.61371">
        <ele>746.5</ele>
        <time>2019-09-22T09:03:59Z</time>
      </trkpt>
      <trkpt lat="45.74557" lon="4.61371">
        <ele>747</ele>
        <time>2019-09-22T09:04:01Z</time>
      </trkpt>
      <trkpt lat="45.74547" lon="4.61372">
        <ele>748.8</ele>
        <time>2019-09-22T09:04:06Z</time>
      </trkpt>
      <trkpt lat="45.7454" lon="4.61372">
        <ele>749.9</ele>
        <time>2019-09-22T09:04:09Z</time>
      </trkpt>
      <trkpt lat="45.74537" lon="4.61371">
        <ele>750.5</ele>
        <time>2019-09-22T09:04:11Z</time>
      </trkpt>
      <trkpt lat="45.74516" lon="4.6137">
        <ele>753.2</ele>
        <time>2019-09-22T09:04:25Z</time>
      </trkpt>
      <trkpt lat="45.74509" lon="4.61368">
        <ele>753.7</ele>
        <time>2019-09-22T09:04:29Z</time>
      </trkpt>
      <trkpt lat="45.74487" lon="4.61374">
        <ele>754.5</ele>
        <time>2019-09-22T09:04:45Z</time>
      </trkpt>
      <trkpt lat="45.74471" lon="4.61385">
        <ele>754.7</ele>
        <time>2019-09-22T09:04:53Z</time>
      </trkpt>
      <trkpt lat="45.74451" lon="4.61393">
        <ele>754.7</ele>
        <time>2019-09-22T09:05:00Z</time>
      </trkpt>
      <trkpt lat="45.74445" lon="4.61396">
        <ele>754.7</ele>
        <time>2019-09-22T09:05:02Z</time>
      </trkpt>
      <trkpt lat="45.74436" lon="4.614">
        <ele>754.7</ele>
        <time>2019-09-22T09:05:05Z</time>
      </trkpt>
      <trkpt lat="45.7442" lon="4.61399">
        <ele>754.4</ele>
        <time>2019-09-22T09:05:09Z</time>
      </trkpt>
      <trkpt lat="45.74407" lon="4.61395">
        <ele>754.1</ele>
        <time>2019-09-22T09:05:12Z</time>
      </trkpt>
      <trkpt lat="45.74383" lon="4.61388">
        <ele>753.8</ele>
        <time>2019-09-22T09:05:18Z</time>
      </trkpt>
      <trkpt lat="45.74367" lon="4.61379">
        <ele>753.4</ele>
        <time>2019-09-22T09:05:22Z</time>
      </trkpt>
      <trkpt lat="45.74356" lon="4.61374">
        <ele>753.2</ele>
        <time>2019-09-22T09:05:25Z</time>
      </trkpt>
      <trkpt lat="45.74344" lon="4.61368">
        <ele>753.2</ele>
        <time>2019-09-22T09:05:29Z</time>
      </trkpt>
      <trkpt lat="45.74339" lon="4.61365">
        <ele>753.4</ele>
        <time>2019-09-22T09:05:31Z</time>
      </trkpt>
      <trkpt lat="45.74336" lon="4.61364">
        <ele>753.4</ele>
        <time>2019-09-22T09:05:32Z</time>
      </trkpt>
      <trkpt lat="45.74331" lon="4.61362">
        <ele>753.6</ele>
        <time>2019-09-22T09:05:34Z</time>
      </trkpt>
      <trkpt lat="45.74322" lon="4.61357">
        <ele>753.9</ele>
        <time>2019-09-22T09:05:38Z</time>
      </trkpt>
      <trkpt lat="45.74318" lon="4.61355">
        <ele>754</ele>
        <time>2019-09-22T09:05:40Z</time>
      </trkpt>
      <trkpt lat="45.74309" lon="4.61353">
        <ele>754.4</ele>
        <time>2019-09-22T09:05:45Z</time>
      </trkpt>
      <trkpt lat="45.74306" lon="4.61352">
        <ele>754.6</ele>
        <time>2019-09-22T09:05:47Z</time>
      </trkpt>
      <trkpt lat="45.74302" lon="4.61349">
        <ele>754.9</ele>
        <time>2019-09-22T09:05:50Z</time>
      </trkpt>
      <trkpt lat="45.743" lon="4.61348">
        <ele>755.1</ele>
        <time>2019-09-22T09:05:51Z</time>
      </trkpt>
      <trkpt lat="45.74293" lon="4.61345">
        <ele>755.9</ele>
        <time>2019-09-22T09:05:56Z</time>
      </trkpt>
      <trkpt lat="45.7429" lon="4.61337">
        <ele>756.8</ele>
        <time>2019-09-22T09:06:03Z</time>
      </trkpt>
      <trkpt lat="45.74291" lon="4.61336">
        <ele>756.9</ele>
        <time>2019-09-22T09:06:04Z</time>
      </trkpt>
      <trkpt lat="45.74292" lon="4.61334">
        <ele>757.3</ele>
        <time>2019-09-22T09:06:06Z</time>
      </trkpt>
      <trkpt lat="45.74294" lon="4.61332">
        <ele>757.6</ele>
        <time>2019-09-22T09:06:08Z</time>
      </trkpt>
      <trkpt lat="45.74297" lon="4.61328">
        <ele>758.3</ele>
        <time>2019-09-22T09:06:11Z</time>
      </trkpt>
      <trkpt lat="45.74302" lon="4.61319">
        <ele>759.4</ele>
        <time>2019-09-22T09:06:17Z</time>
      </trkpt>
      <trkpt lat="45.74305" lon="4.61317">
        <ele>759.8</ele>
        <time>2019-09-22T09:06:19Z</time>
      </trkpt>
      <trkpt lat="45.74307" lon="4.61316">
        <ele>760</ele>
        <time>2019-09-22T09:06:20Z</time>
      </trkpt>
      <trkpt lat="45.74312" lon="4.61312">
        <ele>760.7</ele>
        <time>2019-09-22T09:06:24Z</time>
      </trkpt>
      <trkpt lat="45.74315" lon="4.61308">
        <ele>761.2</ele>
        <time>2019-09-22T09:06:27Z</time>
      </trkpt>
      <trkpt lat="45.74316" lon="4.61307">
        <ele>761.4</ele>
        <time>2019-09-22T09:06:28Z</time>
      </trkpt>
      <trkpt lat="45.7432" lon="4.61304">
        <ele>761.9</ele>
        <time>2019-09-22T09:06:31Z</time>
      </trkpt>
      <trkpt lat="45.74324" lon="4.61301">
        <ele>762.4</ele>
        <time>2019-09-22T09:06:34Z</time>
      </trkpt>
      <trkpt lat="45.74325" lon="4.613">
        <ele>762.6</ele>
        <time>2019-09-22T09:06:35Z</time>
      </trkpt>
      <trkpt lat="45.74327" lon="4.61297">
        <ele>762.9</ele>
        <time>2019-09-22T09:06:38Z</time>
      </trkpt>
      <trkpt lat="45.7433" lon="4.61293">
        <ele>763.4</ele>
        <time>2019-09-22T09:06:42Z</time>
      </trkpt>
      <trkpt lat="45.74336" lon="4.61283">
        <ele>764.5</ele>
        <time>2019-09-22T09:06:50Z</time>
      </trkpt>
      <trkpt lat="45.74339" lon="4.61281">
        <ele>764.9</ele>
        <time>2019-09-22T09:06:53Z</time>
      </trkpt>
      <trkpt lat="45.74342" lon="4.61279">
        <ele>765.2</ele>
        <time>2019-09-22T09:06:56Z</time>
      </trkpt>
      <trkpt lat="45.74343" lon="4.61279">
        <ele>765.4</ele>
        <time>2019-09-22T09:06:57Z</time>
      </trkpt>
      <trkpt lat="45.74348" lon="4.61277">
        <ele>765.9</ele>
        <time>2019-09-22T09:07:01Z</time>
      </trkpt>
      <trkpt lat="45.74351" lon="4.61276">
        <ele>766.2</ele>
        <time>2019-09-22T09:07:04Z</time>
      </trkpt>
      <trkpt lat="45.74352" lon="4.61274">
        <ele>766.4</ele>
        <time>2019-09-22T09:07:05Z</time>
      </trkpt>
      <trkpt lat="45.74355" lon="4.61269">
        <ele>766.7</ele>
        <time>2019-09-22T09:07:08Z</time>
      </trkpt>
      <trkpt lat="45.74353" lon="4.61265">
        <ele>766.9</ele>
        <time>2019-09-22T09:07:11Z</time>
      </trkpt>
      <trkpt lat="45.74352" lon="4.61264">
        <ele>767</ele>
        <time>2019-09-22T09:07:12Z</time>
      </trkpt>
      <trkpt lat="45.74348" lon="4.6126">
        <ele>768.1</ele>
        <time>2019-09-22T09:07:15Z</time>
      </trkpt>
      <trkpt lat="45.74344" lon="4.61257">
        <ele>768.6</ele>
        <time>2019-09-22T09:07:18Z</time>
      </trkpt>
      <trkpt lat="45.74338" lon="4.61254">
        <ele>769.2</ele>
        <time>2019-09-22T09:07:22Z</time>
      </trkpt>
      <trkpt lat="45.74333" lon="4.61251">
        <ele>769.7</ele>
        <time>2019-09-22T09:07:25Z</time>
      </trkpt>
      <trkpt lat="45.74318" lon="4.6125">
        <ele>771.3</ele>
        <time>2019-09-22T09:07:33Z</time>
      </trkpt>
      <trkpt lat="45.74299" lon="4.61246">
        <ele>773.1</ele>
        <time>2019-09-22T09:07:42Z</time>
      </trkpt>
      <trkpt lat="45.7428" lon="4.6124">
        <ele>774.8</ele>
        <time>2019-09-22T09:07:51Z</time>
      </trkpt>
      <trkpt lat="45.74261" lon="4.61237">
        <ele>776.6</ele>
        <time>2019-09-22T09:07:59Z</time>
      </trkpt>
      <trkpt lat="45.7425" lon="4.61236">
        <ele>777.5</ele>
        <time>2019-09-22T09:08:04Z</time>
      </trkpt>
      <trkpt lat="45.74246" lon="4.61236">
        <ele>777.9</ele>
        <time>2019-09-22T09:08:06Z</time>
      </trkpt>
      <trkpt lat="45.74243" lon="4.61236">
        <ele>778</ele>
        <time>2019-09-22T09:08:07Z</time>
      </trkpt>
      <trkpt lat="45.74233" lon="4.61237">
        <ele>778.8</ele>
        <time>2019-09-22T09:08:12Z</time>
      </trkpt>
      <trkpt lat="45.74228" lon="4.61237">
        <ele>779.2</ele>
        <time>2019-09-22T09:08:14Z</time>
      </trkpt>
      <trkpt lat="45.74226" lon="4.61236">
        <ele>779.4</ele>
        <time>2019-09-22T09:08:15Z</time>
      </trkpt>
      <trkpt lat="45.74218" lon="4.61238">
        <ele>780</ele>
        <time>2019-09-22T09:08:19Z</time>
      </trkpt>
      <trkpt lat="45.74216" lon="4.61239">
        <ele>780.1</ele>
        <time>2019-09-22T09:08:20Z</time>
      </trkpt>
      <trkpt lat="45.7421" lon="4.61239">
        <ele>780.7</ele>
        <time>2019-09-22T09:08:23Z</time>
      </trkpt>
      <trkpt lat="45.74202" lon="4.61242">
        <ele>781.3</ele>
        <time>2019-09-22T09:08:26Z</time>
      </trkpt>
      <trkpt lat="45.742" lon="4.61243">
        <ele>781.5</ele>
        <time>2019-09-22T09:08:27Z</time>
      </trkpt>
      <trkpt lat="45.74195" lon="4.61245">
        <ele>781.8</ele>
        <time>2019-09-22T09:08:29Z</time>
      </trkpt>
      <trkpt lat="45.74185" lon="4.61248">
        <ele>782.5</ele>
        <time>2019-09-22T09:08:33Z</time>
      </trkpt>
      <trkpt lat="45.7418" lon="4.61249">
        <ele>782.9</ele>
        <time>2019-09-22T09:08:35Z</time>
      </trkpt>
      <trkpt lat="45.74175" lon="4.61251">
        <ele>783.2</ele>
        <time>2019-09-22T09:08:37Z</time>
      </trkpt>
      <trkpt lat="45.74166" lon="4.61254">
        <ele>783.9</ele>
        <time>2019-09-22T09:08:41Z</time>
      </trkpt>
      <trkpt lat="45.7416" lon="4.61255">
        <ele>784.3</ele>
        <time>2019-09-22T09:08:43Z</time>
      </trkpt>
      <trkpt lat="45.74155" lon="4.61255">
        <ele>784.7</ele>
        <time>2019-09-22T09:08:45Z</time>
      </trkpt>
      <trkpt lat="45.74144" lon="4.6126">
        <ele>785.5</ele>
        <time>2019-09-22T09:08:49Z</time>
      </trkpt>
      <trkpt lat="45.74131" lon="4.61265">
        <ele>786.3</ele>
        <time>2019-09-22T09:08:54Z</time>
      </trkpt>
      <trkpt lat="45.74127" lon="4.61268">
        <ele>786.6</ele>
        <time>2019-09-22T09:08:56Z</time>
      </trkpt>
      <trkpt lat="45.74121" lon="4.61277">
        <ele>787.1</ele>
        <time>2019-09-22T09:08:59Z</time>
      </trkpt>
      <trkpt lat="45.74118" lon="4.6128">
        <ele>786.8</ele>
        <time>2019-09-22T09:09:02Z</time>
      </trkpt>
      <trkpt lat="45.74116" lon="4.61283">
        <ele>786.4</ele>
        <time>2019-09-22T09:09:04Z</time>
      </trkpt>
      <trkpt lat="45.74113" lon="4.61287">
        <ele>786.1</ele>
        <time>2019-09-22T09:09:23Z</time>
      </trkpt>
      <trkpt lat="45.7411" lon="4.6129">
        <ele>785.8</ele>
        <time>2019-09-22T09:09:24Z</time>
      </trkpt>
      <trkpt lat="45.74096" lon="4.61311">
        <ele>783.7</ele>
        <time>2019-09-22T09:09:28Z</time>
      </trkpt>
      <trkpt lat="45.7409" lon="4.6132">
        <ele>782.9</ele>
        <time>2019-09-22T09:09:29Z</time>
      </trkpt>
      <trkpt lat="45.7408" lon="4.61339">
        <ele>781.2</ele>
        <time>2019-09-22T09:09:31Z</time>
      </trkpt>
      <trkpt lat="45.74069" lon="4.61363">
        <ele>778.2</ele>
        <time>2019-09-22T09:09:33Z</time>
      </trkpt>
      <trkpt lat="45.74055" lon="4.61385">
        <ele>775.7</ele>
        <time>2019-09-22T09:09:35Z</time>
      </trkpt>
      <trkpt lat="45.74048" lon="4.61392">
        <ele>774.6</ele>
        <time>2019-09-22T09:09:36Z</time>
      </trkpt>
      <trkpt lat="45.74041" lon="4.61398">
        <ele>773.3</ele>
        <time>2019-09-22T09:09:37Z</time>
      </trkpt>
      <trkpt lat="45.74027" lon="4.61409">
        <ele>770</ele>
        <time>2019-09-22T09:09:39Z</time>
      </trkpt>
      <trkpt lat="45.7402" lon="4.61416">
        <ele>768.4</ele>
        <time>2019-09-22T09:09:40Z</time>
      </trkpt>
      <trkpt lat="45.74013" lon="4.61422">
        <ele>767.1</ele>
        <time>2019-09-22T09:09:41Z</time>
      </trkpt>
      <trkpt lat="45.73998" lon="4.61432">
        <ele>765.5</ele>
        <time>2019-09-22T09:09:43Z</time>
      </trkpt>
      <trkpt lat="45.7398" lon="4.61437">
        <ele>764</ele>
        <time>2019-09-22T09:09:45Z</time>
      </trkpt>
      <trkpt lat="45.73958" lon="4.61442">
        <ele>762.1</ele>
        <time>2019-09-22T09:09:47Z</time>
      </trkpt>
      <trkpt lat="45.73947" lon="4.61447">
        <ele>761.6</ele>
        <time>2019-09-22T09:09:48Z</time>
      </trkpt>
      <trkpt lat="45.73936" lon="4.61454">
        <ele>761.3</ele>
        <time>2019-09-22T09:09:49Z</time>
      </trkpt>
      <trkpt lat="45.73903" lon="4.61479">
        <ele>761.4</ele>
        <time>2019-09-22T09:09:52Z</time>
      </trkpt>
      <trkpt lat="45.73894" lon="4.61491">
        <ele>762.1</ele>
        <time>2019-09-22T09:09:53Z</time>
      </trkpt>
      <trkpt lat="45.73886" lon="4.61502">
        <ele>763.2</ele>
        <time>2019-09-22T09:09:54Z</time>
      </trkpt>
      <trkpt lat="45.73878" lon="4.61514">
        <ele>764.3</ele>
        <time>2019-09-22T09:09:55Z</time>
      </trkpt>
      <trkpt lat="45.73862" lon="4.61535">
        <ele>765.6</ele>
        <time>2019-09-22T09:09:57Z</time>
      </trkpt>
      <trkpt lat="45.73854" lon="4.61544">
        <ele>765.9</ele>
        <time>2019-09-22T09:09:58Z</time>
      </trkpt>
      <trkpt lat="45.73844" lon="4.61551">
        <ele>765.5</ele>
        <time>2019-09-22T09:09:59Z</time>
      </trkpt>
      <trkpt lat="45.73825" lon="4.6156">
        <ele>762.8</ele>
        <time>2019-09-22T09:10:01Z</time>
      </trkpt>
      <trkpt lat="45.73806" lon="4.61564">
        <ele>759.5</ele>
        <time>2019-09-22T09:10:03Z</time>
      </trkpt>
      <trkpt lat="45.73797" lon="4.61563">
        <ele>758.3</ele>
        <time>2019-09-22T09:10:04Z</time>
      </trkpt>
      <trkpt lat="45.73789" lon="4.61562">
        <ele>757.2</ele>
        <time>2019-09-22T09:10:05Z</time>
      </trkpt>
      <trkpt lat="45.7378" lon="4.61561">
        <ele>756</ele>
        <time>2019-09-22T09:10:06Z</time>
      </trkpt>
      <trkpt lat="45.73771" lon="4.6156">
        <ele>754.8</ele>
        <time>2019-09-22T09:10:07Z</time>
      </trkpt>
      <trkpt lat="45.73762" lon="4.61559">
        <ele>753.3</ele>
        <time>2019-09-22T09:10:08Z</time>
      </trkpt>
      <trkpt lat="45.73753" lon="4.61558">
        <ele>751.6</ele>
        <time>2019-09-22T09:10:09Z</time>
      </trkpt>
      <trkpt lat="45.73744" lon="4.61557">
        <ele>749.6</ele>
        <time>2019-09-22T09:10:10Z</time>
      </trkpt>
      <trkpt lat="45.73735" lon="4.61556">
        <ele>747.5</ele>
        <time>2019-09-22T09:10:11Z</time>
      </trkpt>
      <trkpt lat="45.73727" lon="4.61558">
        <ele>745.4</ele>
        <time>2019-09-22T09:10:12Z</time>
      </trkpt>
      <trkpt lat="45.73718" lon="4.61563">
        <ele>743.2</ele>
        <time>2019-09-22T09:10:13Z</time>
      </trkpt>
      <trkpt lat="45.73709" lon="4.61577">
        <ele>741</ele>
        <time>2019-09-22T09:10:14Z</time>
      </trkpt>
      <trkpt lat="45.73702" lon="4.61593">
        <ele>739.1</ele>
        <time>2019-09-22T09:10:15Z</time>
      </trkpt>
      <trkpt lat="45.73696" lon="4.61606">
        <ele>737.5</ele>
        <time>2019-09-22T09:10:16Z</time>
      </trkpt>
      <trkpt lat="45.7369" lon="4.61616">
        <ele>735.9</ele>
        <time>2019-09-22T09:10:17Z</time>
      </trkpt>
      <trkpt lat="45.73684" lon="4.61625">
        <ele>734.4</ele>
        <time>2019-09-22T09:10:18Z</time>
      </trkpt>
      <trkpt lat="45.73679" lon="4.61632">
        <ele>733.2</ele>
        <time>2019-09-22T09:10:19Z</time>
      </trkpt>
      <trkpt lat="45.73674" lon="4.61637">
        <ele>732.2</ele>
        <time>2019-09-22T09:10:20Z</time>
      </trkpt>
      <trkpt lat="45.73669" lon="4.6164">
        <ele>731.3</ele>
        <time>2019-09-22T09:10:21Z</time>
      </trkpt>
      <trkpt lat="45.73663" lon="4.61641">
        <ele>730.4</ele>
        <time>2019-09-22T09:10:22Z</time>
      </trkpt>
      <trkpt lat="45.73657" lon="4.6164">
        <ele>729.5</ele>
        <time>2019-09-22T09:10:23Z</time>
      </trkpt>
      <trkpt lat="45.7365" lon="4.61636">
        <ele>728.9</ele>
        <time>2019-09-22T09:10:24Z</time>
      </trkpt>
      <trkpt lat="45.73643" lon="4.61632">
        <ele>728.4</ele>
        <time>2019-09-22T09:10:25Z</time>
      </trkpt>
      <trkpt lat="45.73636" lon="4.61628">
        <ele>728</ele>
        <time>2019-09-22T09:10:26Z</time>
      </trkpt>
      <trkpt lat="45.73629" lon="4.61623">
        <ele>727.6</ele>
        <time>2019-09-22T09:10:27Z</time>
      </trkpt>
      <trkpt lat="45.73616" lon="4.61613">
        <ele>726.7</ele>
        <time>2019-09-22T09:10:29Z</time>
      </trkpt>
      <trkpt lat="45.73609" lon="4.61607">
        <ele>726.1</ele>
        <time>2019-09-22T09:10:30Z</time>
      </trkpt>
      <trkpt lat="45.73604" lon="4.616">
        <ele>725.5</ele>
        <time>2019-09-22T09:10:31Z</time>
      </trkpt>
      <trkpt lat="45.73599" lon="4.61592">
        <ele>724.9</ele>
        <time>2019-09-22T09:10:32Z</time>
      </trkpt>
      <trkpt lat="45.73594" lon="4.61583">
        <ele>724.4</ele>
        <time>2019-09-22T09:10:33Z</time>
      </trkpt>
      <trkpt lat="45.73588" lon="4.61564">
        <ele>723.6</ele>
        <time>2019-09-22T09:10:35Z</time>
      </trkpt>
      <trkpt lat="45.73585" lon="4.61554">
        <ele>723.3</ele>
        <time>2019-09-22T09:10:36Z</time>
      </trkpt>
      <trkpt lat="45.73581" lon="4.61544">
        <ele>723</ele>
        <time>2019-09-22T09:10:37Z</time>
      </trkpt>
      <trkpt lat="45.73576" lon="4.61521">
        <ele>722.6</ele>
        <time>2019-09-22T09:10:39Z</time>
      </trkpt>
      <trkpt lat="45.73574" lon="4.61509">
        <ele>722.5</ele>
        <time>2019-09-22T09:10:40Z</time>
      </trkpt>
      <trkpt lat="45.73573" lon="4.61497">
        <ele>722.4</ele>
        <time>2019-09-22T09:10:41Z</time>
      </trkpt>
      <trkpt lat="45.7357" lon="4.61455">
        <ele>721.8</ele>
        <time>2019-09-22T09:10:45Z</time>
      </trkpt>
      <trkpt lat="45.73569" lon="4.61445">
        <ele>721.6</ele>
        <time>2019-09-22T09:10:46Z</time>
      </trkpt>
      <trkpt lat="45.73568" lon="4.61416">
        <ele>720.8</ele>
        <time>2019-09-22T09:10:49Z</time>
      </trkpt>
      <trkpt lat="45.73565" lon="4.61378">
        <ele>719.5</ele>
        <time>2019-09-22T09:10:53Z</time>
      </trkpt>
      <trkpt lat="45.73562" lon="4.61368">
        <ele>719.2</ele>
        <time>2019-09-22T09:10:54Z</time>
      </trkpt>
      <trkpt lat="45.73555" lon="4.61347">
        <ele>718.7</ele>
        <time>2019-09-22T09:10:56Z</time>
      </trkpt>
      <trkpt lat="45.73551" lon="4.61336">
        <ele>718.8</ele>
        <time>2019-09-22T09:10:57Z</time>
      </trkpt>
      <trkpt lat="45.7354" lon="4.61317">
        <ele>719.3</ele>
        <time>2019-09-22T09:10:59Z</time>
      </trkpt>
      <trkpt lat="45.73523" lon="4.61291">
        <ele>717.2</ele>
        <time>2019-09-22T09:11:02Z</time>
      </trkpt>
      <trkpt lat="45.73511" lon="4.61275">
        <ele>715.2</ele>
        <time>2019-09-22T09:11:04Z</time>
      </trkpt>
      <trkpt lat="45.73507" lon="4.61267">
        <ele>715</ele>
        <time>2019-09-22T09:11:05Z</time>
      </trkpt>
      <trkpt lat="45.73502" lon="4.61258">
        <ele>714.8</ele>
        <time>2019-09-22T09:11:06Z</time>
      </trkpt>
      <trkpt lat="45.73499" lon="4.6125">
        <ele>714.6</ele>
        <time>2019-09-22T09:11:07Z</time>
      </trkpt>
      <trkpt lat="45.73486" lon="4.61221">
        <ele>714.2</ele>
        <time>2019-09-22T09:11:10Z</time>
      </trkpt>
      <trkpt lat="45.73477" lon="4.61199">
        <ele>713.9</ele>
        <time>2019-09-22T09:11:12Z</time>
      </trkpt>
      <trkpt lat="45.73473" lon="4.61188">
        <ele>713.8</ele>
        <time>2019-09-22T09:11:13Z</time>
      </trkpt>
      <trkpt lat="45.73469" lon="4.61164">
        <ele>713.6</ele>
        <time>2019-09-22T09:11:15Z</time>
      </trkpt>
      <trkpt lat="45.73469" lon="4.61143">
        <ele>713.5</ele>
        <time>2019-09-22T09:11:17Z</time>
      </trkpt>
      <trkpt lat="45.73469" lon="4.61124">
        <ele>713.4</ele>
        <time>2019-09-22T09:11:19Z</time>
      </trkpt>
      <trkpt lat="45.73467" lon="4.61115">
        <ele>713.5</ele>
        <time>2019-09-22T09:11:20Z</time>
      </trkpt>
      <trkpt lat="45.7346" lon="4.61092">
        <ele>714</ele>
        <time>2019-09-22T09:11:23Z</time>
      </trkpt>
      <trkpt lat="45.7345" lon="4.61086">
        <ele>714.9</ele>
        <time>2019-09-22T09:11:26Z</time>
      </trkpt>
      <trkpt lat="45.73437" lon="4.61097">
        <ele>716.3</ele>
        <time>2019-09-22T09:11:30Z</time>
      </trkpt>
      <trkpt lat="45.73419" lon="4.61108">
        <ele>717.5</ele>
        <time>2019-09-22T09:11:35Z</time>
      </trkpt>
      <trkpt lat="45.73409" lon="4.61119">
        <ele>716.5</ele>
        <time>2019-09-22T09:11:38Z</time>
      </trkpt>
      <trkpt lat="45.73401" lon="4.6113">
        <ele>715.6</ele>
        <time>2019-09-22T09:11:40Z</time>
      </trkpt>
      <trkpt lat="45.73397" lon="4.61137">
        <ele>715.2</ele>
        <time>2019-09-22T09:11:41Z</time>
      </trkpt>
      <trkpt lat="45.73393" lon="4.61144">
        <ele>714.9</ele>
        <time>2019-09-22T09:11:42Z</time>
      </trkpt>
      <trkpt lat="45.73383" lon="4.61161">
        <ele>714.5</ele>
        <time>2019-09-22T09:11:44Z</time>
      </trkpt>
      <trkpt lat="45.73377" lon="4.61169">
        <ele>714.5</ele>
        <time>2019-09-22T09:11:45Z</time>
      </trkpt>
      <trkpt lat="45.73361" lon="4.61192">
        <ele>713.8</ele>
        <time>2019-09-22T09:11:48Z</time>
      </trkpt>
      <trkpt lat="45.73348" lon="4.6121">
        <ele>711.9</ele>
        <time>2019-09-22T09:11:51Z</time>
      </trkpt>
      <trkpt lat="45.73344" lon="4.61214">
        <ele>711.3</ele>
        <time>2019-09-22T09:11:52Z</time>
      </trkpt>
      <trkpt lat="45.73329" lon="4.61226">
        <ele>708.9</ele>
        <time>2019-09-22T09:11:55Z</time>
      </trkpt>
      <trkpt lat="45.73324" lon="4.6123">
        <ele>708.1</ele>
        <time>2019-09-22T09:11:56Z</time>
      </trkpt>
      <trkpt lat="45.7332" lon="4.61231">
        <ele>707.6</ele>
        <time>2019-09-22T09:11:57Z</time>
      </trkpt>
      <trkpt lat="45.73314" lon="4.61232">
        <ele>707</ele>
        <time>2019-09-22T09:11:59Z</time>
      </trkpt>
      <trkpt lat="45.73309" lon="4.61225">
        <ele>706.3</ele>
        <time>2019-09-22T09:12:01Z</time>
      </trkpt>
      <trkpt lat="45.73307" lon="4.61218">
        <ele>705.9</ele>
        <time>2019-09-22T09:12:02Z</time>
      </trkpt>
      <trkpt lat="45.73306" lon="4.61211">
        <ele>705.4</ele>
        <time>2019-09-22T09:12:03Z</time>
      </trkpt>
      <trkpt lat="45.73305" lon="4.61203">
        <ele>705</ele>
        <time>2019-09-22T09:12:04Z</time>
      </trkpt>
      <trkpt lat="45.73303" lon="4.61196">
        <ele>704.6</ele>
        <time>2019-09-22T09:12:05Z</time>
      </trkpt>
      <trkpt lat="45.73302" lon="4.61188">
        <ele>704.1</ele>
        <time>2019-09-22T09:12:06Z</time>
      </trkpt>
      <trkpt lat="45.73299" lon="4.61181">
        <ele>703.5</ele>
        <time>2019-09-22T09:12:07Z</time>
      </trkpt>
      <trkpt lat="45.73293" lon="4.61166">
        <ele>701.9</ele>
        <time>2019-09-22T09:12:09Z</time>
      </trkpt>
      <trkpt lat="45.7329" lon="4.6116">
        <ele>701.1</ele>
        <time>2019-09-22T09:12:10Z</time>
      </trkpt>
      <trkpt lat="45.73286" lon="4.61154">
        <ele>700.4</ele>
        <time>2019-09-22T09:12:11Z</time>
      </trkpt>
      <trkpt lat="45.7328" lon="4.61144">
        <ele>699.5</ele>
        <time>2019-09-22T09:12:13Z</time>
      </trkpt>
      <trkpt lat="45.73275" lon="4.61137">
        <ele>698.9</ele>
        <time>2019-09-22T09:12:15Z</time>
      </trkpt>
      <trkpt lat="45.7327" lon="4.6113">
        <ele>698</ele>
        <time>2019-09-22T09:12:17Z</time>
      </trkpt>
      <trkpt lat="45.73263" lon="4.61122">
        <ele>696.9</ele>
        <time>2019-09-22T09:12:19Z</time>
      </trkpt>
      <trkpt lat="45.73259" lon="4.61117">
        <ele>696.3</ele>
        <time>2019-09-22T09:12:20Z</time>
      </trkpt>
      <trkpt lat="45.73256" lon="4.61111">
        <ele>695.8</ele>
        <time>2019-09-22T09:12:21Z</time>
      </trkpt>
      <trkpt lat="45.73248" lon="4.611">
        <ele>694.4</ele>
        <time>2019-09-22T09:12:23Z</time>
      </trkpt>
      <trkpt lat="45.73241" lon="4.6109">
        <ele>692.9</ele>
        <time>2019-09-22T09:12:25Z</time>
      </trkpt>
      <trkpt lat="45.73235" lon="4.61082">
        <ele>691.6</ele>
        <time>2019-09-22T09:12:27Z</time>
      </trkpt>
      <trkpt lat="45.7323" lon="4.61077">
        <ele>690.4</ele>
        <time>2019-09-22T09:12:29Z</time>
      </trkpt>
      <trkpt lat="45.73225" lon="4.61074">
        <ele>689.5</ele>
        <time>2019-09-22T09:12:31Z</time>
      </trkpt>
      <trkpt lat="45.73222" lon="4.61072">
        <ele>688.9</ele>
        <time>2019-09-22T09:12:32Z</time>
      </trkpt>
      <trkpt lat="45.73219" lon="4.61072">
        <ele>688.3</ele>
        <time>2019-09-22T09:12:33Z</time>
      </trkpt>
      <trkpt lat="45.73216" lon="4.61071">
        <ele>687.5</ele>
        <time>2019-09-22T09:12:35Z</time>
      </trkpt>
      <trkpt lat="45.73211" lon="4.61072">
        <ele>686.5</ele>
        <time>2019-09-22T09:12:37Z</time>
      </trkpt>
      <trkpt lat="45.73209" lon="4.61072">
        <ele>686</ele>
        <time>2019-09-22T09:12:38Z</time>
      </trkpt>
      <trkpt lat="45.73206" lon="4.61072">
        <ele>685.7</ele>
        <time>2019-09-22T09:12:39Z</time>
      </trkpt>
      <trkpt lat="45.73202" lon="4.61072">
        <ele>684.5</ele>
        <time>2019-09-22T09:12:41Z</time>
      </trkpt>
      <trkpt lat="45.73198" lon="4.61071">
        <ele>684.1</ele>
        <time>2019-09-22T09:12:43Z</time>
      </trkpt>
      <trkpt lat="45.73196" lon="4.6107">
        <ele>683.9</ele>
        <time>2019-09-22T09:12:44Z</time>
      </trkpt>
      <trkpt lat="45.73193" lon="4.61068">
        <ele>683.6</ele>
        <time>2019-09-22T09:12:45Z</time>
      </trkpt>
      <trkpt lat="45.73188" lon="4.61067">
        <ele>683.2</ele>
        <time>2019-09-22T09:12:47Z</time>
      </trkpt>
      <trkpt lat="45.73187" lon="4.61069">
        <ele>683</ele>
        <time>2019-09-22T09:12:48Z</time>
      </trkpt>
      <trkpt lat="45.73185" lon="4.6107">
        <ele>682.8</ele>
        <time>2019-09-22T09:12:49Z</time>
      </trkpt>
      <trkpt lat="45.73181" lon="4.61073">
        <ele>681.6</ele>
        <time>2019-09-22T09:12:51Z</time>
      </trkpt>
      <trkpt lat="45.73177" lon="4.61078">
        <ele>681.3</ele>
        <time>2019-09-22T09:12:53Z</time>
      </trkpt>
      <trkpt lat="45.73173" lon="4.61081">
        <ele>681.1</ele>
        <time>2019-09-22T09:12:55Z</time>
      </trkpt>
      <trkpt lat="45.73164" lon="4.61085">
        <ele>680.7</ele>
        <time>2019-09-22T09:12:58Z</time>
      </trkpt>
      <trkpt lat="45.73156" lon="4.61089">
        <ele>680.5</ele>
        <time>2019-09-22T09:13:01Z</time>
      </trkpt>
      <trkpt lat="45.73152" lon="4.61091">
        <ele>680.4</ele>
        <time>2019-09-22T09:13:02Z</time>
      </trkpt>
      <trkpt lat="45.7315" lon="4.61093">
        <ele>680.3</ele>
        <time>2019-09-22T09:13:03Z</time>
      </trkpt>
      <trkpt lat="45.7314" lon="4.61098">
        <ele>680</ele>
        <time>2019-09-22T09:13:06Z</time>
      </trkpt>
      <trkpt lat="45.73131" lon="4.61102">
        <ele>679.7</ele>
        <time>2019-09-22T09:13:09Z</time>
      </trkpt>
      <trkpt lat="45.73124" lon="4.61106">
        <ele>679.5</ele>
        <time>2019-09-22T09:13:11Z</time>
      </trkpt>
      <trkpt lat="45.73116" lon="4.61111">
        <ele>679.3</ele>
        <time>2019-09-22T09:13:13Z</time>
      </trkpt>
      <trkpt lat="45.73107" lon="4.61116">
        <ele>679.2</ele>
        <time>2019-09-22T09:13:15Z</time>
      </trkpt>
      <trkpt lat="45.731" lon="4.61122">
        <ele>679.1</ele>
        <time>2019-09-22T09:13:17Z</time>
      </trkpt>
      <trkpt lat="45.73093" lon="4.61128">
        <ele>678.9</ele>
        <time>2019-09-22T09:13:19Z</time>
      </trkpt>
      <trkpt lat="45.73085" lon="4.61138">
        <ele>678.6</ele>
        <time>2019-09-22T09:13:21Z</time>
      </trkpt>
      <trkpt lat="45.73066" lon="4.61158">
        <ele>677.6</ele>
        <time>2019-09-22T09:13:25Z</time>
      </trkpt>
      <trkpt lat="45.73055" lon="4.61167">
        <ele>676.8</ele>
        <time>2019-09-22T09:13:27Z</time>
      </trkpt>
      <trkpt lat="45.73039" lon="4.61181">
        <ele>675.6</ele>
        <time>2019-09-22T09:13:30Z</time>
      </trkpt>
      <trkpt lat="45.73028" lon="4.6119">
        <ele>674.8</ele>
        <time>2019-09-22T09:13:32Z</time>
      </trkpt>
      <trkpt lat="45.73015" lon="4.61202">
        <ele>673.8</ele>
        <time>2019-09-22T09:13:34Z</time>
      </trkpt>
      <trkpt lat="45.73009" lon="4.61207">
        <ele>673.5</ele>
        <time>2019-09-22T09:13:35Z</time>
      </trkpt>
      <trkpt lat="45.73003" lon="4.6121">
        <ele>673.9</ele>
        <time>2019-09-22T09:13:36Z</time>
      </trkpt>
      <trkpt lat="45.72989" lon="4.61217">
        <ele>674.8</ele>
        <time>2019-09-22T09:13:39Z</time>
      </trkpt>
      <trkpt lat="45.72986" lon="4.61219">
        <ele>675</ele>
        <time>2019-09-22T09:13:40Z</time>
      </trkpt>
      <trkpt lat="45.72982" lon="4.61223">
        <ele>675.2</ele>
        <time>2019-09-22T09:13:42Z</time>
      </trkpt>
      <trkpt lat="45.7298" lon="4.61223">
        <ele>675.3</ele>
        <time>2019-09-22T09:13:43Z</time>
      </trkpt>
      <trkpt lat="45.72977" lon="4.61225">
        <ele>675.4</ele>
        <time>2019-09-22T09:13:44Z</time>
      </trkpt>
      <trkpt lat="45.72971" lon="4.61227">
        <ele>675.7</ele>
        <time>2019-09-22T09:13:46Z</time>
      </trkpt>
      <trkpt lat="45.72965" lon="4.61229">
        <ele>675.9</ele>
        <time>2019-09-22T09:13:48Z</time>
      </trkpt>
      <trkpt lat="45.72963" lon="4.6123">
        <ele>675.9</ele>
        <time>2019-09-22T09:13:49Z</time>
      </trkpt>
      <trkpt lat="45.7296" lon="4.6123">
        <ele>676</ele>
        <time>2019-09-22T09:13:50Z</time>
      </trkpt>
      <trkpt lat="45.72954" lon="4.6123">
        <ele>676.2</ele>
        <time>2019-09-22T09:13:52Z</time>
      </trkpt>
      <trkpt lat="45.72948" lon="4.61231">
        <ele>676.3</ele>
        <time>2019-09-22T09:13:54Z</time>
      </trkpt>
      <trkpt lat="45.72941" lon="4.6123">
        <ele>676.3</ele>
        <time>2019-09-22T09:13:56Z</time>
      </trkpt>
      <trkpt lat="45.72935" lon="4.6123">
        <ele>676.4</ele>
        <time>2019-09-22T09:13:58Z</time>
      </trkpt>
      <trkpt lat="45.72926" lon="4.61225">
        <ele>676.4</ele>
        <time>2019-09-22T09:14:01Z</time>
      </trkpt>
      <trkpt lat="45.72922" lon="4.61223">
        <ele>676.4</ele>
        <time>2019-09-22T09:14:02Z</time>
      </trkpt>
      <trkpt lat="45.72919" lon="4.61221">
        <ele>676.3</ele>
        <time>2019-09-22T09:14:03Z</time>
      </trkpt>
      <trkpt lat="45.72908" lon="4.61214">
        <ele>676.3</ele>
        <time>2019-09-22T09:14:07Z</time>
      </trkpt>
      <trkpt lat="45.72905" lon="4.61213">
        <ele>676.3</ele>
        <time>2019-09-22T09:14:08Z</time>
      </trkpt>
      <trkpt lat="45.72896" lon="4.61207">
        <ele>676.3</ele>
        <time>2019-09-22T09:14:11Z</time>
      </trkpt>
      <trkpt lat="45.72881" lon="4.61195">
        <ele>676.2</ele>
        <time>2019-09-22T09:14:16Z</time>
      </trkpt>
      <trkpt lat="45.72868" lon="4.61186">
        <ele>675.9</ele>
        <time>2019-09-22T09:14:20Z</time>
      </trkpt>
      <trkpt lat="45.7286" lon="4.61181">
        <ele>675.7</ele>
        <time>2019-09-22T09:14:22Z</time>
      </trkpt>
      <trkpt lat="45.72857" lon="4.61178">
        <ele>675.6</ele>
        <time>2019-09-22T09:14:23Z</time>
      </trkpt>
      <trkpt lat="45.72844" lon="4.61172">
        <ele>675.2</ele>
        <time>2019-09-22T09:14:26Z</time>
      </trkpt>
      <trkpt lat="45.72835" lon="4.61167">
        <ele>674.9</ele>
        <time>2019-09-22T09:14:28Z</time>
      </trkpt>
      <trkpt lat="45.72819" lon="4.61161">
        <ele>674.4</ele>
        <time>2019-09-22T09:14:31Z</time>
      </trkpt>
      <trkpt lat="45.72805" lon="4.61158">
        <ele>673.8</ele>
        <time>2019-09-22T09:14:33Z</time>
      </trkpt>
      <trkpt lat="45.72792" lon="4.61158">
        <ele>673.4</ele>
        <time>2019-09-22T09:14:35Z</time>
      </trkpt>
      <trkpt lat="45.72781" lon="4.61163">
        <ele>673.3</ele>
        <time>2019-09-22T09:14:37Z</time>
      </trkpt>
      <trkpt lat="45.72771" lon="4.61168">
        <ele>673.2</ele>
        <time>2019-09-22T09:14:39Z</time>
      </trkpt>
      <trkpt lat="45.72762" lon="4.61172">
        <ele>673.2</ele>
        <time>2019-09-22T09:14:41Z</time>
      </trkpt>
      <trkpt lat="45.72753" lon="4.61176">
        <ele>673.2</ele>
        <time>2019-09-22T09:14:43Z</time>
      </trkpt>
      <trkpt lat="45.72747" lon="4.6118">
        <ele>673.2</ele>
        <time>2019-09-22T09:14:45Z</time>
      </trkpt>
      <trkpt lat="45.72744" lon="4.61182">
        <ele>673.2</ele>
        <time>2019-09-22T09:14:46Z</time>
      </trkpt>
      <trkpt lat="45.72737" lon="4.61189">
        <ele>673.2</ele>
        <time>2019-09-22T09:14:50Z</time>
      </trkpt>
      <trkpt lat="45.72732" lon="4.61195">
        <ele>673.2</ele>
        <time>2019-09-22T09:14:52Z</time>
      </trkpt>
      <trkpt lat="45.72719" lon="4.61203">
        <ele>673.1</ele>
        <time>2019-09-22T09:14:56Z</time>
      </trkpt>
      <trkpt lat="45.72693" lon="4.61213">
        <ele>672.5</ele>
        <time>2019-09-22T09:15:02Z</time>
      </trkpt>
      <trkpt lat="45.7267" lon="4.61221">
        <ele>671.6</ele>
        <time>2019-09-22T09:15:07Z</time>
      </trkpt>
      <trkpt lat="45.72665" lon="4.61223">
        <ele>671.4</ele>
        <time>2019-09-22T09:15:08Z</time>
      </trkpt>
      <trkpt lat="45.72654" lon="4.61224">
        <ele>670.8</ele>
        <time>2019-09-22T09:15:10Z</time>
      </trkpt>
      <trkpt lat="45.72636" lon="4.61217">
        <ele>670</ele>
        <time>2019-09-22T09:15:13Z</time>
      </trkpt>
      <trkpt lat="45.72629" lon="4.61214">
        <ele>669.7</ele>
        <time>2019-09-22T09:15:14Z</time>
      </trkpt>
      <trkpt lat="45.72609" lon="4.61204">
        <ele>669.2</ele>
        <time>2019-09-22T09:15:18Z</time>
      </trkpt>
      <trkpt lat="45.72594" lon="4.61201">
        <ele>669.3</ele>
        <time>2019-09-22T09:15:22Z</time>
      </trkpt>
      <trkpt lat="45.7258" lon="4.61206">
        <ele>669.7</ele>
        <time>2019-09-22T09:15:25Z</time>
      </trkpt>
      <trkpt lat="45.72572" lon="4.61211">
        <ele>669.9</ele>
        <time>2019-09-22T09:15:27Z</time>
      </trkpt>
      <trkpt lat="45.72555" lon="4.61225">
        <ele>670</ele>
        <time>2019-09-22T09:15:33Z</time>
      </trkpt>
      <trkpt lat="45.7255" lon="4.61231">
        <ele>670</ele>
        <time>2019-09-22T09:15:38Z</time>
      </trkpt>
      <trkpt lat="45.72546" lon="4.6124">
        <ele>670.1</ele>
        <time>2019-09-22T09:15:42Z</time>
      </trkpt>
      <trkpt lat="45.72543" lon="4.61246">
        <ele>670.1</ele>
        <time>2019-09-22T09:15:44Z</time>
      </trkpt>
      <trkpt lat="45.72538" lon="4.61253">
        <ele>670.1</ele>
        <time>2019-09-22T09:15:46Z</time>
      </trkpt>
      <trkpt lat="45.72531" lon="4.61264">
        <ele>670.1</ele>
        <time>2019-09-22T09:15:48Z</time>
      </trkpt>
      <trkpt lat="45.72528" lon="4.61268">
        <ele>670.1</ele>
        <time>2019-09-22T09:15:49Z</time>
      </trkpt>
      <trkpt lat="45.72517" lon="4.6128">
        <ele>670</ele>
        <time>2019-09-22T09:15:53Z</time>
      </trkpt>
      <trkpt lat="45.72509" lon="4.61286">
        <ele>669.9</ele>
        <time>2019-09-22T09:15:56Z</time>
      </trkpt>
      <trkpt lat="45.725" lon="4.61293">
        <ele>669.9</ele>
        <time>2019-09-22T09:15:59Z</time>
      </trkpt>
      <trkpt lat="45.72476" lon="4.613">
        <ele>669.9</ele>
        <time>2019-09-22T09:16:05Z</time>
      </trkpt>
      <trkpt lat="45.72443" lon="4.61308">
        <ele>670.6</ele>
        <time>2019-09-22T09:16:13Z</time>
      </trkpt>
      <trkpt lat="45.7244" lon="4.61308">
        <ele>670.6</ele>
        <time>2019-09-22T09:16:14Z</time>
      </trkpt>
      <trkpt lat="45.72433" lon="4.61306">
        <ele>670.8</ele>
        <time>2019-09-22T09:16:18Z</time>
      </trkpt>
      <trkpt lat="45.72432" lon="4.61307">
        <ele>670.7</ele>
        <time>2019-09-22T09:16:19Z</time>
      </trkpt>
      <trkpt lat="45.72433" lon="4.61313">
        <ele>669.9</ele>
        <time>2019-09-22T09:16:22Z</time>
      </trkpt>
      <trkpt lat="45.72434" lon="4.61315">
        <ele>669.6</ele>
        <time>2019-09-22T09:16:23Z</time>
      </trkpt>
      <trkpt lat="45.7244" lon="4.61325">
        <ele>668</ele>
        <time>2019-09-22T09:16:27Z</time>
      </trkpt>
      <trkpt lat="45.7244" lon="4.61327">
        <ele>667.7</ele>
        <time>2019-09-22T09:16:28Z</time>
      </trkpt>
      <trkpt lat="45.72442" lon="4.6134">
        <ele>666.1</ele>
        <time>2019-09-22T09:16:32Z</time>
      </trkpt>
      <trkpt lat="45.72442" lon="4.61345">
        <ele>665.5</ele>
        <time>2019-09-22T09:16:33Z</time>
      </trkpt>
      <trkpt lat="45.72444" lon="4.6136">
        <ele>664</ele>
        <time>2019-09-22T09:16:36Z</time>
      </trkpt>
      <trkpt lat="45.72445" lon="4.61364">
        <ele>663.7</ele>
        <time>2019-09-22T09:16:37Z</time>
      </trkpt>
      <trkpt lat="45.72447" lon="4.61369">
        <ele>663.2</ele>
        <time>2019-09-22T09:16:58Z</time>
      </trkpt>
      <trkpt lat="45.72447" lon="4.61373">
        <ele>662.8</ele>
        <time>2019-09-22T09:16:59Z</time>
      </trkpt>
      <trkpt lat="45.7245" lon="4.61391">
        <ele>661.3</ele>
        <time>2019-09-22T09:17:02Z</time>
      </trkpt>
      <trkpt lat="45.72452" lon="4.61405">
        <ele>660</ele>
        <time>2019-09-22T09:17:04Z</time>
      </trkpt>
      <trkpt lat="45.72457" lon="4.61426">
        <ele>657.6</ele>
        <time>2019-09-22T09:17:07Z</time>
      </trkpt>
      <trkpt lat="45.7246" lon="4.61434">
        <ele>656.6</ele>
        <time>2019-09-22T09:17:08Z</time>
      </trkpt>
      <trkpt lat="45.72464" lon="4.61442">
        <ele>655.4</ele>
        <time>2019-09-22T09:17:09Z</time>
      </trkpt>
      <trkpt lat="45.72471" lon="4.61457">
        <ele>653.2</ele>
        <time>2019-09-22T09:17:11Z</time>
      </trkpt>
      <trkpt lat="45.72478" lon="4.61472">
        <ele>651</ele>
        <time>2019-09-22T09:17:13Z</time>
      </trkpt>
      <trkpt lat="45.72486" lon="4.61486">
        <ele>649</ele>
        <time>2019-09-22T09:17:15Z</time>
      </trkpt>
      <trkpt lat="45.72489" lon="4.61491">
        <ele>648.2</ele>
        <time>2019-09-22T09:17:16Z</time>
      </trkpt>
      <trkpt lat="45.72492" lon="4.61497">
        <ele>647.5</ele>
        <time>2019-09-22T09:17:17Z</time>
      </trkpt>
      <trkpt lat="45.72499" lon="4.6151">
        <ele>645.7</ele>
        <time>2019-09-22T09:17:19Z</time>
      </trkpt>
      <trkpt lat="45.72501" lon="4.61516">
        <ele>644.8</ele>
        <time>2019-09-22T09:17:20Z</time>
      </trkpt>
      <trkpt lat="45.72503" lon="4.61522">
        <ele>644.1</ele>
        <time>2019-09-22T09:17:21Z</time>
      </trkpt>
      <trkpt lat="45.7251" lon="4.61536">
        <ele>642.1</ele>
        <time>2019-09-22T09:17:23Z</time>
      </trkpt>
      <trkpt lat="45.72517" lon="4.61551">
        <ele>640.2</ele>
        <time>2019-09-22T09:17:25Z</time>
      </trkpt>
      <trkpt lat="45.72522" lon="4.61567">
        <ele>638.7</ele>
        <time>2019-09-22T09:17:27Z</time>
      </trkpt>
      <trkpt lat="45.72527" lon="4.61585">
        <ele>637.5</ele>
        <time>2019-09-22T09:17:29Z</time>
      </trkpt>
      <trkpt lat="45.72531" lon="4.61593">
        <ele>637</ele>
        <time>2019-09-22T09:17:30Z</time>
      </trkpt>
      <trkpt lat="45.72534" lon="4.61603">
        <ele>636.3</ele>
        <time>2019-09-22T09:17:31Z</time>
      </trkpt>
      <trkpt lat="45.72539" lon="4.61625">
        <ele>635.2</ele>
        <time>2019-09-22T09:17:33Z</time>
      </trkpt>
      <trkpt lat="45.7254" lon="4.61637">
        <ele>634.8</ele>
        <time>2019-09-22T09:17:34Z</time>
      </trkpt>
      <trkpt lat="45.72541" lon="4.61648">
        <ele>634.4</ele>
        <time>2019-09-22T09:17:35Z</time>
      </trkpt>
      <trkpt lat="45.7254" lon="4.61666">
        <ele>633.1</ele>
        <time>2019-09-22T09:17:37Z</time>
      </trkpt>
      <trkpt lat="45.7254" lon="4.61675">
        <ele>632.4</ele>
        <time>2019-09-22T09:17:38Z</time>
      </trkpt>
      <trkpt lat="45.72541" lon="4.6168">
        <ele>631.9</ele>
        <time>2019-09-22T09:17:39Z</time>
      </trkpt>
      <trkpt lat="45.72541" lon="4.61682">
        <ele>631.6</ele>
        <time>2019-09-22T09:17:40Z</time>
      </trkpt>
      <trkpt lat="45.72541" lon="4.61684">
        <ele>631.4</ele>
        <time>2019-09-22T09:17:41Z</time>
      </trkpt>
      <trkpt lat="45.72542" lon="4.61688">
        <ele>631</ele>
        <time>2019-09-22T09:18:06Z</time>
      </trkpt>
      <trkpt lat="45.72542" lon="4.61691">
        <ele>630.6</ele>
        <time>2019-09-22T09:18:07Z</time>
      </trkpt>
      <trkpt lat="45.72543" lon="4.61695">
        <ele>630.1</ele>
        <time>2019-09-22T09:18:08Z</time>
      </trkpt>
      <trkpt lat="45.72544" lon="4.61709">
        <ele>628.3</ele>
        <time>2019-09-22T09:18:11Z</time>
      </trkpt>
      <trkpt lat="45.72545" lon="4.61714">
        <ele>627.7</ele>
        <time>2019-09-22T09:18:12Z</time>
      </trkpt>
      <trkpt lat="45.72544" lon="4.61726">
        <ele>626.8</ele>
        <time>2019-09-22T09:18:14Z</time>
      </trkpt>
      <trkpt lat="45.72545" lon="4.61745">
        <ele>625.6</ele>
        <time>2019-09-22T09:18:16Z</time>
      </trkpt>
      <trkpt lat="45.72548" lon="4.61767">
        <ele>624.7</ele>
        <time>2019-09-22T09:18:18Z</time>
      </trkpt>
      <trkpt lat="45.72549" lon="4.61789">
        <ele>623.4</ele>
        <time>2019-09-22T09:18:20Z</time>
      </trkpt>
      <trkpt lat="45.72548" lon="4.61799">
        <ele>622.3</ele>
        <time>2019-09-22T09:18:21Z</time>
      </trkpt>
      <trkpt lat="45.72546" lon="4.61808">
        <ele>621.1</ele>
        <time>2019-09-22T09:18:22Z</time>
      </trkpt>
      <trkpt lat="45.72544" lon="4.61816">
        <ele>620</ele>
        <time>2019-09-22T09:18:23Z</time>
      </trkpt>
      <trkpt lat="45.72542" lon="4.61823">
        <ele>619.1</ele>
        <time>2019-09-22T09:18:24Z</time>
      </trkpt>
      <trkpt lat="45.72537" lon="4.61835">
        <ele>616.9</ele>
        <time>2019-09-22T09:18:26Z</time>
      </trkpt>
      <trkpt lat="45.72536" lon="4.61842">
        <ele>615.8</ele>
        <time>2019-09-22T09:18:27Z</time>
      </trkpt>
      <trkpt lat="45.72534" lon="4.61849">
        <ele>614.4</ele>
        <time>2019-09-22T09:18:28Z</time>
      </trkpt>
      <trkpt lat="45.72529" lon="4.61863">
        <ele>612</ele>
        <time>2019-09-22T09:18:30Z</time>
      </trkpt>
      <trkpt lat="45.72527" lon="4.61867">
        <ele>611.3</ele>
        <time>2019-09-22T09:18:31Z</time>
      </trkpt>
      <trkpt lat="45.72526" lon="4.61872">
        <ele>610.6</ele>
        <time>2019-09-22T09:18:32Z</time>
      </trkpt>
      <trkpt lat="45.72528" lon="4.61881">
        <ele>609.5</ele>
        <time>2019-09-22T09:18:34Z</time>
      </trkpt>
      <trkpt lat="45.7253" lon="4.61886">
        <ele>608.7</ele>
        <time>2019-09-22T09:18:35Z</time>
      </trkpt>
      <trkpt lat="45.72531" lon="4.61891">
        <ele>608</ele>
        <time>2019-09-22T09:18:36Z</time>
      </trkpt>
      <trkpt lat="45.72534" lon="4.61897">
        <ele>607.2</ele>
        <time>2019-09-22T09:18:37Z</time>
      </trkpt>
      <trkpt lat="45.72537" lon="4.61902">
        <ele>606.4</ele>
        <time>2019-09-22T09:18:38Z</time>
      </trkpt>
      <trkpt lat="45.72544" lon="4.6191">
        <ele>604.9</ele>
        <time>2019-09-22T09:18:40Z</time>
      </trkpt>
      <trkpt lat="45.72554" lon="4.61918">
        <ele>603.4</ele>
        <time>2019-09-22T09:18:42Z</time>
      </trkpt>
      <trkpt lat="45.72559" lon="4.61922">
        <ele>602.8</ele>
        <time>2019-09-22T09:18:43Z</time>
      </trkpt>
      <trkpt lat="45.72564" lon="4.61926">
        <ele>602.3</ele>
        <time>2019-09-22T09:18:44Z</time>
      </trkpt>
      <trkpt lat="45.7257" lon="4.61929">
        <ele>601.8</ele>
        <time>2019-09-22T09:18:45Z</time>
      </trkpt>
      <trkpt lat="45.72583" lon="4.61936">
        <ele>600.9</ele>
        <time>2019-09-22T09:18:47Z</time>
      </trkpt>
      <trkpt lat="45.72597" lon="4.61941">
        <ele>599.9</ele>
        <time>2019-09-22T09:18:49Z</time>
      </trkpt>
      <trkpt lat="45.72604" lon="4.61944">
        <ele>599.3</ele>
        <time>2019-09-22T09:18:50Z</time>
      </trkpt>
      <trkpt lat="45.7261" lon="4.61948">
        <ele>598.6</ele>
        <time>2019-09-22T09:18:51Z</time>
      </trkpt>
      <trkpt lat="45.72616" lon="4.61952">
        <ele>597.8</ele>
        <time>2019-09-22T09:18:52Z</time>
      </trkpt>
      <trkpt lat="45.7262" lon="4.61955">
        <ele>597.2</ele>
        <time>2019-09-22T09:18:53Z</time>
      </trkpt>
      <trkpt lat="45.72622" lon="4.61958">
        <ele>596.7</ele>
        <time>2019-09-22T09:18:54Z</time>
      </trkpt>
      <trkpt lat="45.72626" lon="4.61961">
        <ele>596.1</ele>
        <time>2019-09-22T09:18:55Z</time>
      </trkpt>
      <trkpt lat="45.72634" lon="4.61968">
        <ele>594.7</ele>
        <time>2019-09-22T09:18:57Z</time>
      </trkpt>
      <trkpt lat="45.72644" lon="4.61979">
        <ele>592.6</ele>
        <time>2019-09-22T09:18:59Z</time>
      </trkpt>
      <trkpt lat="45.72655" lon="4.61993">
        <ele>590.7</ele>
        <time>2019-09-22T09:19:01Z</time>
      </trkpt>
      <trkpt lat="45.72665" lon="4.62007">
        <ele>589.2</ele>
        <time>2019-09-22T09:19:03Z</time>
      </trkpt>
      <trkpt lat="45.72674" lon="4.6202">
        <ele>587.6</ele>
        <time>2019-09-22T09:19:05Z</time>
      </trkpt>
      <trkpt lat="45.72684" lon="4.62032">
        <ele>586.2</ele>
        <time>2019-09-22T09:19:07Z</time>
      </trkpt>
      <trkpt lat="45.72688" lon="4.62035">
        <ele>585.8</ele>
        <time>2019-09-22T09:19:08Z</time>
      </trkpt>
      <trkpt lat="45.72692" lon="4.6204">
        <ele>585.1</ele>
        <time>2019-09-22T09:19:09Z</time>
      </trkpt>
      <trkpt lat="45.72702" lon="4.6205">
        <ele>583.4</ele>
        <time>2019-09-22T09:19:11Z</time>
      </trkpt>
      <trkpt lat="45.72708" lon="4.62055">
        <ele>582.5</ele>
        <time>2019-09-22T09:19:12Z</time>
      </trkpt>
      <trkpt lat="45.72713" lon="4.62059">
        <ele>581.6</ele>
        <time>2019-09-22T09:19:13Z</time>
      </trkpt>
      <trkpt lat="45.72724" lon="4.62065">
        <ele>580.2</ele>
        <time>2019-09-22T09:19:15Z</time>
      </trkpt>
      <trkpt lat="45.72733" lon="4.6207">
        <ele>579.1</ele>
        <time>2019-09-22T09:19:17Z</time>
      </trkpt>
      <trkpt lat="45.72741" lon="4.62075">
        <ele>576.4</ele>
        <time>2019-09-22T09:19:19Z</time>
      </trkpt>
      <trkpt lat="45.72743" lon="4.62081">
        <ele>575.1</ele>
        <time>2019-09-22T09:19:20Z</time>
      </trkpt>
      <trkpt lat="45.72741" lon="4.62088">
        <ele>573.9</ele>
        <time>2019-09-22T09:19:21Z</time>
      </trkpt>
      <trkpt lat="45.72732" lon="4.62095">
        <ele>572</ele>
        <time>2019-09-22T09:19:23Z</time>
      </trkpt>
      <trkpt lat="45.72721" lon="4.62101">
        <ele>570.7</ele>
        <time>2019-09-22T09:19:25Z</time>
      </trkpt>
      <trkpt lat="45.7271" lon="4.62109">
        <ele>569.6</ele>
        <time>2019-09-22T09:19:27Z</time>
      </trkpt>
      <trkpt lat="45.72705" lon="4.62113">
        <ele>569</ele>
        <time>2019-09-22T09:19:28Z</time>
      </trkpt>
      <trkpt lat="45.72699" lon="4.62117">
        <ele>568.5</ele>
        <time>2019-09-22T09:19:29Z</time>
      </trkpt>
      <trkpt lat="45.72689" lon="4.62123">
        <ele>567.4</ele>
        <time>2019-09-22T09:19:31Z</time>
      </trkpt>
      <trkpt lat="45.72677" lon="4.62127">
        <ele>566</ele>
        <time>2019-09-22T09:19:33Z</time>
      </trkpt>
      <trkpt lat="45.72671" lon="4.62129">
        <ele>565.3</ele>
        <time>2019-09-22T09:19:34Z</time>
      </trkpt>
      <trkpt lat="45.72665" lon="4.62129">
        <ele>564.3</ele>
        <time>2019-09-22T09:19:35Z</time>
      </trkpt>
      <trkpt lat="45.72659" lon="4.62128">
        <ele>563.1</ele>
        <time>2019-09-22T09:19:36Z</time>
      </trkpt>
      <trkpt lat="45.72654" lon="4.62128">
        <ele>562</ele>
        <time>2019-09-22T09:19:37Z</time>
      </trkpt>
      <trkpt lat="45.72649" lon="4.62127">
        <ele>561</ele>
        <time>2019-09-22T09:19:38Z</time>
      </trkpt>
      <trkpt lat="45.72639" lon="4.6212">
        <ele>558.8</ele>
        <time>2019-09-22T09:19:40Z</time>
      </trkpt>
      <trkpt lat="45.72634" lon="4.62116">
        <ele>557.6</ele>
        <time>2019-09-22T09:19:41Z</time>
      </trkpt>
      <trkpt lat="45.7263" lon="4.62111">
        <ele>556.5</ele>
        <time>2019-09-22T09:19:42Z</time>
      </trkpt>
      <trkpt lat="45.72625" lon="4.62106">
        <ele>555.5</ele>
        <time>2019-09-22T09:19:43Z</time>
      </trkpt>
      <trkpt lat="45.72619" lon="4.62102">
        <ele>554.3</ele>
        <time>2019-09-22T09:19:44Z</time>
      </trkpt>
      <trkpt lat="45.72613" lon="4.621">
        <ele>553.4</ele>
        <time>2019-09-22T09:19:45Z</time>
      </trkpt>
      <trkpt lat="45.72609" lon="4.62097">
        <ele>552.6</ele>
        <time>2019-09-22T09:19:46Z</time>
      </trkpt>
      <trkpt lat="45.72604" lon="4.62095">
        <ele>552</ele>
        <time>2019-09-22T09:19:47Z</time>
      </trkpt>
      <trkpt lat="45.72599" lon="4.62093">
        <ele>551.4</ele>
        <time>2019-09-22T09:19:48Z</time>
      </trkpt>
      <trkpt lat="45.72593" lon="4.62091">
        <ele>550.8</ele>
        <time>2019-09-22T09:19:49Z</time>
      </trkpt>
      <trkpt lat="45.72587" lon="4.62089">
        <ele>550.2</ele>
        <time>2019-09-22T09:19:50Z</time>
      </trkpt>
      <trkpt lat="45.7258" lon="4.6209">
        <ele>549.6</ele>
        <time>2019-09-22T09:19:51Z</time>
      </trkpt>
      <trkpt lat="45.72574" lon="4.6209">
        <ele>549</ele>
        <time>2019-09-22T09:19:52Z</time>
      </trkpt>
      <trkpt lat="45.72568" lon="4.62092">
        <ele>548.4</ele>
        <time>2019-09-22T09:19:53Z</time>
      </trkpt>
      <trkpt lat="45.72563" lon="4.62096">
        <ele>547.8</ele>
        <time>2019-09-22T09:19:54Z</time>
      </trkpt>
      <trkpt lat="45.72556" lon="4.62111">
        <ele>546.3</ele>
        <time>2019-09-22T09:19:56Z</time>
      </trkpt>
      <trkpt lat="45.72554" lon="4.6212">
        <ele>545.4</ele>
        <time>2019-09-22T09:19:57Z</time>
      </trkpt>
      <trkpt lat="45.72552" lon="4.62129">
        <ele>544.5</ele>
        <time>2019-09-22T09:19:58Z</time>
      </trkpt>
      <trkpt lat="45.72551" lon="4.62149">
        <ele>542.4</ele>
        <time>2019-09-22T09:20:00Z</time>
      </trkpt>
      <trkpt lat="45.72551" lon="4.62157">
        <ele>541.5</ele>
        <time>2019-09-22T09:20:01Z</time>
      </trkpt>
      <trkpt lat="45.72551" lon="4.62164">
        <ele>540.7</ele>
        <time>2019-09-22T09:20:02Z</time>
      </trkpt>
      <trkpt lat="45.72549" lon="4.6218">
        <ele>539.5</ele>
        <time>2019-09-22T09:20:04Z</time>
      </trkpt>
      <trkpt lat="45.72545" lon="4.62197">
        <ele>538.4</ele>
        <time>2019-09-22T09:20:06Z</time>
      </trkpt>
      <trkpt lat="45.72542" lon="4.62206">
        <ele>537.7</ele>
        <time>2019-09-22T09:20:07Z</time>
      </trkpt>
      <trkpt lat="45.72539" lon="4.62215">
        <ele>537.2</ele>
        <time>2019-09-22T09:20:08Z</time>
      </trkpt>
      <trkpt lat="45.72529" lon="4.6223">
        <ele>536.1</ele>
        <time>2019-09-22T09:20:10Z</time>
      </trkpt>
      <trkpt lat="45.72519" lon="4.62245">
        <ele>534.6</ele>
        <time>2019-09-22T09:20:12Z</time>
      </trkpt>
      <trkpt lat="45.72508" lon="4.62258">
        <ele>533.5</ele>
        <time>2019-09-22T09:20:14Z</time>
      </trkpt>
      <trkpt lat="45.72502" lon="4.62265">
        <ele>533</ele>
        <time>2019-09-22T09:20:15Z</time>
      </trkpt>
      <trkpt lat="45.72498" lon="4.62273">
        <ele>532.5</ele>
        <time>2019-09-22T09:20:16Z</time>
      </trkpt>
      <trkpt lat="45.72485" lon="4.62298">
        <ele>530.8</ele>
        <time>2019-09-22T09:20:19Z</time>
      </trkpt>
      <trkpt lat="45.7248" lon="4.62304">
        <ele>530.3</ele>
        <time>2019-09-22T09:20:20Z</time>
      </trkpt>
      <trkpt lat="45.72473" lon="4.62314">
        <ele>529.5</ele>
        <time>2019-09-22T09:20:22Z</time>
      </trkpt>
      <trkpt lat="45.72465" lon="4.62322">
        <ele>528.7</ele>
        <time>2019-09-22T09:20:24Z</time>
      </trkpt>
      <trkpt lat="45.72462" lon="4.62327">
        <ele>528.2</ele>
        <time>2019-09-22T09:20:25Z</time>
      </trkpt>
      <trkpt lat="45.72461" lon="4.62337">
        <ele>526.9</ele>
        <time>2019-09-22T09:20:27Z</time>
      </trkpt>
      <trkpt lat="45.72462" lon="4.62341">
        <ele>526.4</ele>
        <time>2019-09-22T09:20:28Z</time>
      </trkpt>
      <trkpt lat="45.72464" lon="4.62355">
        <ele>525.1</ele>
        <time>2019-09-22T09:20:30Z</time>
      </trkpt>
      <trkpt lat="45.72465" lon="4.62362">
        <ele>524.4</ele>
        <time>2019-09-22T09:20:31Z</time>
      </trkpt>
      <trkpt lat="45.72465" lon="4.62377">
        <ele>522.7</ele>
        <time>2019-09-22T09:20:33Z</time>
      </trkpt>
      <trkpt lat="45.72465" lon="4.62386">
        <ele>521.8</ele>
        <time>2019-09-22T09:20:34Z</time>
      </trkpt>
      <trkpt lat="45.72462" lon="4.62403">
        <ele>519.9</ele>
        <time>2019-09-22T09:20:36Z</time>
      </trkpt>
      <trkpt lat="45.72458" lon="4.62422">
        <ele>517.8</ele>
        <time>2019-09-22T09:20:38Z</time>
      </trkpt>
      <trkpt lat="45.72454" lon="4.62442">
        <ele>515.6</ele>
        <time>2019-09-22T09:20:40Z</time>
      </trkpt>
      <trkpt lat="45.72452" lon="4.62451">
        <ele>514.6</ele>
        <time>2019-09-22T09:20:41Z</time>
      </trkpt>
      <trkpt lat="45.72449" lon="4.62459">
        <ele>513.3</ele>
        <time>2019-09-22T09:20:42Z</time>
      </trkpt>
      <trkpt lat="45.72446" lon="4.62473">
        <ele>511.1</ele>
        <time>2019-09-22T09:20:44Z</time>
      </trkpt>
      <trkpt lat="45.72445" lon="4.62478">
        <ele>510.3</ele>
        <time>2019-09-22T09:20:45Z</time>
      </trkpt>
      <trkpt lat="45.72444" lon="4.62482">
        <ele>509.7</ele>
        <time>2019-09-22T09:20:46Z</time>
      </trkpt>
      <trkpt lat="45.72444" lon="4.62488">
        <ele>508.8</ele>
        <time>2019-09-22T09:20:48Z</time>
      </trkpt>
      <trkpt lat="45.72443" lon="4.6249">
        <ele>508.4</ele>
        <time>2019-09-22T09:20:49Z</time>
      </trkpt>
      <trkpt lat="45.72442" lon="4.62494">
        <ele>507.5</ele>
        <time>2019-09-22T09:20:51Z</time>
      </trkpt>
      <trkpt lat="45.72441" lon="4.62497">
        <ele>507</ele>
        <time>2019-09-22T09:20:52Z</time>
      </trkpt>
      <trkpt lat="45.72442" lon="4.625">
        <ele>506.5</ele>
        <time>2019-09-22T09:20:53Z</time>
      </trkpt>
      <trkpt lat="45.72439" lon="4.62512">
        <ele>506.2</ele>
        <time>2019-09-22T09:20:56Z</time>
      </trkpt>
      <trkpt lat="45.72438" lon="4.62519">
        <ele>505.9</ele>
        <time>2019-09-22T09:20:57Z</time>
      </trkpt>
      <trkpt lat="45.72433" lon="4.62536">
        <ele>504.9</ele>
        <time>2019-09-22T09:20:59Z</time>
      </trkpt>
      <trkpt lat="45.72429" lon="4.62557">
        <ele>503.4</ele>
        <time>2019-09-22T09:21:01Z</time>
      </trkpt>
      <trkpt lat="45.72427" lon="4.62569">
        <ele>502</ele>
        <time>2019-09-22T09:21:02Z</time>
      </trkpt>
      <trkpt lat="45.72425" lon="4.62588">
        <ele>499.6</ele>
        <time>2019-09-22T09:21:04Z</time>
      </trkpt>
      <trkpt lat="45.72423" lon="4.62594">
        <ele>498.6</ele>
        <time>2019-09-22T09:21:05Z</time>
      </trkpt>
      <trkpt lat="45.7242" lon="4.62598">
        <ele>497.7</ele>
        <time>2019-09-22T09:21:06Z</time>
      </trkpt>
      <trkpt lat="45.72417" lon="4.62599">
        <ele>496.9</ele>
        <time>2019-09-22T09:21:07Z</time>
      </trkpt>
      <trkpt lat="45.72412" lon="4.62596">
        <ele>495.8</ele>
        <time>2019-09-22T09:21:08Z</time>
      </trkpt>
      <trkpt lat="45.72408" lon="4.6259">
        <ele>495.2</ele>
        <time>2019-09-22T09:21:09Z</time>
      </trkpt>
      <trkpt lat="45.72402" lon="4.62575">
        <ele>494.9</ele>
        <time>2019-09-22T09:21:11Z</time>
      </trkpt>
      <trkpt lat="45.72395" lon="4.62558">
        <ele>494.6</ele>
        <time>2019-09-22T09:21:13Z</time>
      </trkpt>
      <trkpt lat="45.72389" lon="4.6254">
        <ele>494.3</ele>
        <time>2019-09-22T09:21:15Z</time>
      </trkpt>
      <trkpt lat="45.72386" lon="4.62531">
        <ele>494.3</ele>
        <time>2019-09-22T09:21:16Z</time>
      </trkpt>
      <trkpt lat="45.72383" lon="4.62521">
        <ele>494.2</ele>
        <time>2019-09-22T09:21:17Z</time>
      </trkpt>
      <trkpt lat="45.72377" lon="4.62498">
        <ele>494.1</ele>
        <time>2019-09-22T09:21:19Z</time>
      </trkpt>
      <trkpt lat="45.72372" lon="4.62473">
        <ele>494.2</ele>
        <time>2019-09-22T09:21:21Z</time>
      </trkpt>
      <trkpt lat="45.72366" lon="4.62453">
        <ele>494.3</ele>
        <time>2019-09-22T09:21:23Z</time>
      </trkpt>
      <trkpt lat="45.72361" lon="4.62431">
        <ele>494.6</ele>
        <time>2019-09-22T09:21:25Z</time>
      </trkpt>
      <trkpt lat="45.72356" lon="4.62414">
        <ele>494.9</ele>
        <time>2019-09-22T09:21:27Z</time>
      </trkpt>
      <trkpt lat="45.72353" lon="4.62403">
        <ele>495.1</ele>
        <time>2019-09-22T09:21:29Z</time>
      </trkpt>
      <trkpt lat="45.72351" lon="4.62398">
        <ele>495.2</ele>
        <time>2019-09-22T09:21:30Z</time>
      </trkpt>
      <trkpt lat="45.72348" lon="4.62388">
        <ele>495.6</ele>
        <time>2019-09-22T09:21:33Z</time>
      </trkpt>
      <trkpt lat="45.72348" lon="4.62384">
        <ele>495.7</ele>
        <time>2019-09-22T09:21:34Z</time>
      </trkpt>
      <trkpt lat="45.72345" lon="4.62368">
        <ele>496.1</ele>
        <time>2019-09-22T09:21:37Z</time>
      </trkpt>
      <trkpt lat="45.72343" lon="4.62362">
        <ele>496.3</ele>
        <time>2019-09-22T09:21:38Z</time>
      </trkpt>
      <trkpt lat="45.72336" lon="4.62341">
        <ele>495.5</ele>
        <time>2019-09-22T09:21:41Z</time>
      </trkpt>
      <trkpt lat="45.72332" lon="4.62335">
        <ele>494.7</ele>
        <time>2019-09-22T09:21:42Z</time>
      </trkpt>
      <trkpt lat="45.72311" lon="4.62317">
        <ele>491.9</ele>
        <time>2019-09-22T09:21:46Z</time>
      </trkpt>
      <trkpt lat="45.72293" lon="4.62306">
        <ele>490.3</ele>
        <time>2019-09-22T09:21:50Z</time>
      </trkpt>
      <trkpt lat="45.72291" lon="4.62308">
        <ele>489.6</ele>
        <time>2019-09-22T09:21:51Z</time>
      </trkpt>
      <trkpt lat="45.72297" lon="4.62322">
        <ele>487</ele>
        <time>2019-09-22T09:21:54Z</time>
      </trkpt>
      <trkpt lat="45.72308" lon="4.62333">
        <ele>484.8</ele>
        <time>2019-09-22T09:21:56Z</time>
      </trkpt>
      <trkpt lat="45.72315" lon="4.62342">
        <ele>483.6</ele>
        <time>2019-09-22T09:21:57Z</time>
      </trkpt>
      <trkpt lat="45.7232" lon="4.62352">
        <ele>482.5</ele>
        <time>2019-09-22T09:21:58Z</time>
      </trkpt>
      <trkpt lat="45.72323" lon="4.62365">
        <ele>481.5</ele>
        <time>2019-09-22T09:21:59Z</time>
      </trkpt>
      <trkpt lat="45.72324" lon="4.62378">
        <ele>480.6</ele>
        <time>2019-09-22T09:22:00Z</time>
      </trkpt>
      <trkpt lat="45.72322" lon="4.62406">
        <ele>478.9</ele>
        <time>2019-09-22T09:22:02Z</time>
      </trkpt>
      <trkpt lat="45.7232" lon="4.6242">
        <ele>478.1</ele>
        <time>2019-09-22T09:22:03Z</time>
      </trkpt>
      <trkpt lat="45.72318" lon="4.62435">
        <ele>477.5</ele>
        <time>2019-09-22T09:22:04Z</time>
      </trkpt>
      <trkpt lat="45.72313" lon="4.62461">
        <ele>476.7</ele>
        <time>2019-09-22T09:22:06Z</time>
      </trkpt>
      <trkpt lat="45.7231" lon="4.62473">
        <ele>476.5</ele>
        <time>2019-09-22T09:22:07Z</time>
      </trkpt>
      <trkpt lat="45.72296" lon="4.62513">
        <ele>475.7</ele>
        <time>2019-09-22T09:22:11Z</time>
      </trkpt>
      <trkpt lat="45.72287" lon="4.62548">
        <ele>474</ele>
        <time>2019-09-22T09:22:14Z</time>
      </trkpt>
      <trkpt lat="45.72281" lon="4.62573">
        <ele>472.8</ele>
        <time>2019-09-22T09:22:16Z</time>
      </trkpt>
      <trkpt lat="45.72277" lon="4.62586">
        <ele>472.5</ele>
        <time>2019-09-22T09:22:17Z</time>
      </trkpt>
      <trkpt lat="45.72272" lon="4.6261">
        <ele>472</ele>
        <time>2019-09-22T09:22:19Z</time>
      </trkpt>
      <trkpt lat="45.72267" lon="4.62634">
        <ele>471.5</ele>
        <time>2019-09-22T09:22:21Z</time>
      </trkpt>
      <trkpt lat="45.72264" lon="4.62656">
        <ele>471.4</ele>
        <time>2019-09-22T09:22:23Z</time>
      </trkpt>
      <trkpt lat="45.72263" lon="4.62667">
        <ele>471.3</ele>
        <time>2019-09-22T09:22:24Z</time>
      </trkpt>
      <trkpt lat="45.72262" lon="4.62717">
        <ele>471.3</ele>
        <time>2019-09-22T09:22:29Z</time>
      </trkpt>
      <trkpt lat="45.72261" lon="4.62726">
        <ele>471.3</ele>
        <time>2019-09-22T09:22:30Z</time>
      </trkpt>
      <trkpt lat="45.72263" lon="4.62766">
        <ele>471.8</ele>
        <time>2019-09-22T09:22:35Z</time>
      </trkpt>
      <trkpt lat="45.72263" lon="4.62803">
        <ele>471</ele>
        <time>2019-09-22T09:22:40Z</time>
      </trkpt>
      <trkpt lat="45.72259" lon="4.62823">
        <ele>469.7</ele>
        <time>2019-09-22T09:22:42Z</time>
      </trkpt>
      <trkpt lat="45.72258" lon="4.62834">
        <ele>468.9</ele>
        <time>2019-09-22T09:22:43Z</time>
      </trkpt>
      <trkpt lat="45.72258" lon="4.62846">
        <ele>468</ele>
        <time>2019-09-22T09:22:44Z</time>
      </trkpt>
      <trkpt lat="45.72259" lon="4.62858">
        <ele>467.2</ele>
        <time>2019-09-22T09:22:45Z</time>
      </trkpt>
      <trkpt lat="45.72262" lon="4.62871">
        <ele>466.4</ele>
        <time>2019-09-22T09:22:46Z</time>
      </trkpt>
      <trkpt lat="45.72266" lon="4.62882">
        <ele>465.6</ele>
        <time>2019-09-22T09:22:47Z</time>
      </trkpt>
      <trkpt lat="45.7227" lon="4.62894">
        <ele>465</ele>
        <time>2019-09-22T09:22:48Z</time>
      </trkpt>
      <trkpt lat="45.72274" lon="4.62906">
        <ele>464.3</ele>
        <time>2019-09-22T09:22:49Z</time>
      </trkpt>
      <trkpt lat="45.72279" lon="4.62917">
        <ele>463.8</ele>
        <time>2019-09-22T09:22:50Z</time>
      </trkpt>
      <trkpt lat="45.72286" lon="4.62926">
        <ele>463.3</ele>
        <time>2019-09-22T09:22:51Z</time>
      </trkpt>
      <trkpt lat="45.72302" lon="4.62936">
        <ele>463.1</ele>
        <time>2019-09-22T09:22:53Z</time>
      </trkpt>
      <trkpt lat="45.72326" lon="4.62936">
        <ele>463.6</ele>
        <time>2019-09-22T09:22:56Z</time>
      </trkpt>
      <trkpt lat="45.72346" lon="4.62927">
        <ele>464</ele>
        <time>2019-09-22T09:22:59Z</time>
      </trkpt>
      <trkpt lat="45.72352" lon="4.62923">
        <ele>464</ele>
        <time>2019-09-22T09:23:00Z</time>
      </trkpt>
      <trkpt lat="45.72389" lon="4.62898">
        <ele>462.7</ele>
        <time>2019-09-22T09:23:06Z</time>
      </trkpt>
      <trkpt lat="45.72426" lon="4.62856">
        <ele>460.6</ele>
        <time>2019-09-22T09:23:12Z</time>
      </trkpt>
      <trkpt lat="45.72444" lon="4.62831">
        <ele>460</ele>
        <time>2019-09-22T09:23:15Z</time>
      </trkpt>
      <trkpt lat="45.72474" lon="4.62795">
        <ele>459.2</ele>
        <time>2019-09-22T09:23:20Z</time>
      </trkpt>
      <trkpt lat="45.7248" lon="4.62789">
        <ele>459</ele>
        <time>2019-09-22T09:23:21Z</time>
      </trkpt>
      <trkpt lat="45.7251" lon="4.62764">
        <ele>459.4</ele>
        <time>2019-09-22T09:23:26Z</time>
      </trkpt>
      <trkpt lat="45.72543" lon="4.62736">
        <ele>461.3</ele>
        <time>2019-09-22T09:23:33Z</time>
      </trkpt>
      <trkpt lat="45.72562" lon="4.62718">
        <ele>462.8</ele>
        <time>2019-09-22T09:23:38Z</time>
      </trkpt>
      <trkpt lat="45.72565" lon="4.62715">
        <ele>463.1</ele>
        <time>2019-09-22T09:23:39Z</time>
      </trkpt>
      <trkpt lat="45.72579" lon="4.62702">
        <ele>464.2</ele>
        <time>2019-09-22T09:23:43Z</time>
      </trkpt>
      <trkpt lat="45.72593" lon="4.6269">
        <ele>465</ele>
        <time>2019-09-22T09:23:47Z</time>
      </trkpt>
      <trkpt lat="45.72596" lon="4.62688">
        <ele>465.1</ele>
        <time>2019-09-22T09:23:48Z</time>
      </trkpt>
      <trkpt lat="45.7261" lon="4.62684">
        <ele>465.7</ele>
        <time>2019-09-22T09:23:52Z</time>
      </trkpt>
      <trkpt lat="45.72614" lon="4.62687">
        <ele>465.8</ele>
        <time>2019-09-22T09:23:53Z</time>
      </trkpt>
      <trkpt lat="45.72623" lon="4.627">
        <ele>467</ele>
        <time>2019-09-22T09:23:56Z</time>
      </trkpt>
      <trkpt lat="45.72639" lon="4.62711">
        <ele>467.8</ele>
        <time>2019-09-22T09:24:00Z</time>
      </trkpt>
      <trkpt lat="45.72652" lon="4.62715">
        <ele>468.1</ele>
        <time>2019-09-22T09:24:02Z</time>
      </trkpt>
      <trkpt lat="45.72664" lon="4.62723">
        <ele>467.8</ele>
        <time>2019-09-22T09:24:04Z</time>
      </trkpt>
      <trkpt lat="45.72669" lon="4.6273">
        <ele>467.6</ele>
        <time>2019-09-22T09:24:05Z</time>
      </trkpt>
      <trkpt lat="45.72669" lon="4.62746">
        <ele>467.4</ele>
        <time>2019-09-22T09:24:07Z</time>
      </trkpt>
      <trkpt lat="45.72664" lon="4.62762">
        <ele>467.3</ele>
        <time>2019-09-22T09:24:10Z</time>
      </trkpt>
      <trkpt lat="45.72662" lon="4.62766">
        <ele>467.2</ele>
        <time>2019-09-22T09:24:11Z</time>
      </trkpt>
      <trkpt lat="45.72657" lon="4.62773">
        <ele>467.2</ele>
        <time>2019-09-22T09:24:13Z</time>
      </trkpt>
      <trkpt lat="45.72649" lon="4.62783">
        <ele>467</ele>
        <time>2019-09-22T09:24:16Z</time>
      </trkpt>
      <trkpt lat="45.72646" lon="4.62785">
        <ele>467</ele>
        <time>2019-09-22T09:24:17Z</time>
      </trkpt>
      <trkpt lat="45.72633" lon="4.62795">
        <ele>466.9</ele>
        <time>2019-09-22T09:24:21Z</time>
      </trkpt>
      <trkpt lat="45.72627" lon="4.628">
        <ele>467</ele>
        <time>2019-09-22T09:24:23Z</time>
      </trkpt>
      <trkpt lat="45.72619" lon="4.62808">
        <ele>467.1</ele>
        <time>2019-09-22T09:24:26Z</time>
      </trkpt>
      <trkpt lat="45.72607" lon="4.62822">
        <ele>467.5</ele>
        <time>2019-09-22T09:24:30Z</time>
      </trkpt>
      <trkpt lat="45.72591" lon="4.6285">
        <ele>467.9</ele>
        <time>2019-09-22T09:24:35Z</time>
      </trkpt>
      <trkpt lat="45.7257" lon="4.6289">
        <ele>468.6</ele>
        <time>2019-09-22T09:24:43Z</time>
      </trkpt>
      <trkpt lat="45.72565" lon="4.62899">
        <ele>468.8</ele>
        <time>2019-09-22T09:24:48Z</time>
      </trkpt>
      <trkpt lat="45.72559" lon="4.62912">
        <ele>468.9</ele>
        <time>2019-09-22T09:24:53Z</time>
      </trkpt>
      <trkpt lat="45.72548" lon="4.62935">
        <ele>469.1</ele>
        <time>2019-09-22T09:24:59Z</time>
      </trkpt>
      <trkpt lat="45.72531" lon="4.62962">
        <ele>469.4</ele>
        <time>2019-09-22T09:25:06Z</time>
      </trkpt>
      <trkpt lat="45.72518" lon="4.6298">
        <ele>469.8</ele>
        <time>2019-09-22T09:25:11Z</time>
      </trkpt>
      <trkpt lat="45.72512" lon="4.62988">
        <ele>470.2</ele>
        <time>2019-09-22T09:25:13Z</time>
      </trkpt>
      <trkpt lat="45.72508" lon="4.62997">
        <ele>470.6</ele>
        <time>2019-09-22T09:25:15Z</time>
      </trkpt>
      <trkpt lat="45.72498" lon="4.63015">
        <ele>471.3</ele>
        <time>2019-09-22T09:25:19Z</time>
      </trkpt>
      <trkpt lat="45.72493" lon="4.6303">
        <ele>472.1</ele>
        <time>2019-09-22T09:25:22Z</time>
      </trkpt>
      <trkpt lat="45.72479" lon="4.63078">
        <ele>474.6</ele>
        <time>2019-09-22T09:25:31Z</time>
      </trkpt>
      <trkpt lat="45.72478" lon="4.63084">
        <ele>474.8</ele>
        <time>2019-09-22T09:25:32Z</time>
      </trkpt>
      <trkpt lat="45.7247" lon="4.63115">
        <ele>474.9</ele>
        <time>2019-09-22T09:25:38Z</time>
      </trkpt>
      <trkpt lat="45.72466" lon="4.63125">
        <ele>474.7</ele>
        <time>2019-09-22T09:25:40Z</time>
      </trkpt>
      <trkpt lat="45.72456" lon="4.63144">
        <ele>474.3</ele>
        <time>2019-09-22T09:25:44Z</time>
      </trkpt>
      <trkpt lat="45.72452" lon="4.63147">
        <ele>474.3</ele>
        <time>2019-09-22T09:25:45Z</time>
      </trkpt>
      <trkpt lat="45.72449" lon="4.63151">
        <ele>474.2</ele>
        <time>2019-09-22T09:25:46Z</time>
      </trkpt>
      <trkpt lat="45.72431" lon="4.63177">
        <ele>474.3</ele>
        <time>2019-09-22T09:25:53Z</time>
      </trkpt>
      <trkpt lat="45.72425" lon="4.63194">
        <ele>474.5</ele>
        <time>2019-09-22T09:25:58Z</time>
      </trkpt>
      <trkpt lat="45.72425" lon="4.63197">
        <ele>474.5</ele>
        <time>2019-09-22T09:25:59Z</time>
      </trkpt>
      <trkpt lat="45.72423" lon="4.63205">
        <ele>474.7</ele>
        <time>2019-09-22T09:26:01Z</time>
      </trkpt>
      <trkpt lat="45.72419" lon="4.63222">
        <ele>475</ele>
        <time>2019-09-22T09:26:07Z</time>
      </trkpt>
      <trkpt lat="45.72418" lon="4.63223">
        <ele>475</ele>
        <time>2019-09-22T09:26:08Z</time>
      </trkpt>
      <trkpt lat="45.72417" lon="4.63229">
        <ele>475.1</ele>
        <time>2019-09-22T09:26:14Z</time>
      </trkpt>
      <trkpt lat="45.7242" lon="4.63225">
        <ele>475.2</ele>
        <time>2019-09-22T09:27:01Z</time>
      </trkpt>
      <trkpt lat="45.72424" lon="4.63212">
        <ele>475</ele>
        <time>2019-09-22T09:27:05Z</time>
      </trkpt>
      <trkpt lat="45.72425" lon="4.63207">
        <ele>474.8</ele>
        <time>2019-09-22T09:27:06Z</time>
      </trkpt>
      <trkpt lat="45.7243" lon="4.63183">
        <ele>474.4</ele>
        <time>2019-09-22T09:27:09Z</time>
      </trkpt>
      <trkpt lat="45.72433" lon="4.63174">
        <ele>474.3</ele>
        <time>2019-09-22T09:27:10Z</time>
      </trkpt>
      <trkpt lat="45.72442" lon="4.63155">
        <ele>474.2</ele>
        <time>2019-09-22T09:27:12Z</time>
      </trkpt>
      <trkpt lat="45.72448" lon="4.63146">
        <ele>474.2</ele>
        <time>2019-09-22T09:27:13Z</time>
      </trkpt>
      <trkpt lat="45.72468" lon="4.63119">
        <ele>474.6</ele>
        <time>2019-09-22T09:27:16Z</time>
      </trkpt>
      <trkpt lat="45.72472" lon="4.63108">
        <ele>474.8</ele>
        <time>2019-09-22T09:27:17Z</time>
      </trkpt>
      <trkpt lat="45.72479" lon="4.63087">
        <ele>475</ele>
        <time>2019-09-22T09:27:19Z</time>
      </trkpt>
      <trkpt lat="45.72488" lon="4.63055">
        <ele>474</ele>
        <time>2019-09-22T09:27:22Z</time>
      </trkpt>
      <trkpt lat="45.72491" lon="4.63044">
        <ele>473.4</ele>
        <time>2019-09-22T09:27:23Z</time>
      </trkpt>
      <trkpt lat="45.72505" lon="4.63004">
        <ele>471.2</ele>
        <time>2019-09-22T09:27:27Z</time>
      </trkpt>
      <trkpt lat="45.72515" lon="4.62987">
        <ele>470.4</ele>
        <time>2019-09-22T09:27:29Z</time>
      </trkpt>
      <trkpt lat="45.7252" lon="4.62978">
        <ele>470</ele>
        <time>2019-09-22T09:27:30Z</time>
      </trkpt>
      <trkpt lat="45.72526" lon="4.62969">
        <ele>469.7</ele>
        <time>2019-09-22T09:27:31Z</time>
      </trkpt>
      <trkpt lat="45.72539" lon="4.62953">
        <ele>469.3</ele>
        <time>2019-09-22T09:27:33Z</time>
      </trkpt>
      <trkpt lat="45.72556" lon="4.62924">
        <ele>469.1</ele>
        <time>2019-09-22T09:27:36Z</time>
      </trkpt>
      <trkpt lat="45.72566" lon="4.62904">
        <ele>468.9</ele>
        <time>2019-09-22T09:27:38Z</time>
      </trkpt>
      <trkpt lat="45.72571" lon="4.62894">
        <ele>468.8</ele>
        <time>2019-09-22T09:27:39Z</time>
      </trkpt>
      <trkpt lat="45.72592" lon="4.62854">
        <ele>468</ele>
        <time>2019-09-22T09:27:43Z</time>
      </trkpt>
      <trkpt lat="45.72607" lon="4.62828">
        <ele>467.6</ele>
        <time>2019-09-22T09:27:46Z</time>
      </trkpt>
      <trkpt lat="45.72632" lon="4.62797">
        <ele>467</ele>
        <time>2019-09-22T09:27:51Z</time>
      </trkpt>
      <trkpt lat="45.72637" lon="4.62793">
        <ele>466.9</ele>
        <time>2019-09-22T09:27:52Z</time>
      </trkpt>
      <trkpt lat="45.72659" lon="4.62772">
        <ele>467.1</ele>
        <time>2019-09-22T09:27:56Z</time>
      </trkpt>
      <trkpt lat="45.72664" lon="4.62765">
        <ele>467.2</ele>
        <time>2019-09-22T09:27:57Z</time>
      </trkpt>
      <trkpt lat="45.72668" lon="4.62756">
        <ele>467.3</ele>
        <time>2019-09-22T09:27:58Z</time>
      </trkpt>
      <trkpt lat="45.72673" lon="4.62736">
        <ele>467.4</ele>
        <time>2019-09-22T09:28:00Z</time>
      </trkpt>
      <trkpt lat="45.72667" lon="4.62719">
        <ele>467.7</ele>
        <time>2019-09-22T09:28:02Z</time>
      </trkpt>
      <trkpt lat="45.72645" lon="4.62709">
        <ele>468</ele>
        <time>2019-09-22T09:28:05Z</time>
      </trkpt>
      <trkpt lat="45.72633" lon="4.62705">
        <ele>467.5</ele>
        <time>2019-09-22T09:28:07Z</time>
      </trkpt>
      <trkpt lat="45.72625" lon="4.627">
        <ele>467.1</ele>
        <time>2019-09-22T09:28:09Z</time>
      </trkpt>
      <trkpt lat="45.7261" lon="4.62685">
        <ele>465.8</ele>
        <time>2019-09-22T09:28:14Z</time>
      </trkpt>
      <trkpt lat="45.72597" lon="4.62686">
        <ele>465.4</ele>
        <time>2019-09-22T09:28:17Z</time>
      </trkpt>
      <trkpt lat="45.72583" lon="4.62698">
        <ele>464.7</ele>
        <time>2019-09-22T09:28:20Z</time>
      </trkpt>
      <trkpt lat="45.72573" lon="4.62708">
        <ele>464</ele>
        <time>2019-09-22T09:28:22Z</time>
      </trkpt>
      <trkpt lat="45.72549" lon="4.6273">
        <ele>462</ele>
        <time>2019-09-22T09:28:26Z</time>
      </trkpt>
      <trkpt lat="45.72542" lon="4.62736">
        <ele>461.5</ele>
        <time>2019-09-22T09:28:27Z</time>
      </trkpt>
      <trkpt lat="45.72521" lon="4.62754">
        <ele>460.1</ele>
        <time>2019-09-22T09:28:30Z</time>
      </trkpt>
      <trkpt lat="45.7249" lon="4.62781">
        <ele>459</ele>
        <time>2019-09-22T09:28:34Z</time>
      </trkpt>
      <trkpt lat="45.72475" lon="4.62793">
        <ele>459.1</ele>
        <time>2019-09-22T09:28:36Z</time>
      </trkpt>
      <trkpt lat="45.72454" lon="4.62812">
        <ele>459.8</ele>
        <time>2019-09-22T09:28:39Z</time>
      </trkpt>
      <trkpt lat="45.72442" lon="4.62827">
        <ele>460</ele>
        <time>2019-09-22T09:28:41Z</time>
      </trkpt>
      <trkpt lat="45.724" lon="4.6288">
        <ele>461.8</ele>
        <time>2019-09-22T09:28:49Z</time>
      </trkpt>
      <trkpt lat="45.72363" lon="4.62911">
        <ele>463.8</ele>
        <time>2019-09-22T09:28:56Z</time>
      </trkpt>
      <trkpt lat="45.72326" lon="4.62929">
        <ele>463.7</ele>
        <time>2019-09-22T09:29:03Z</time>
      </trkpt>
      <trkpt lat="45.72321" lon="4.62931">
        <ele>463.5</ele>
        <time>2019-09-22T09:29:04Z</time>
      </trkpt>
      <trkpt lat="45.72304" lon="4.62932">
        <ele>463.1</ele>
        <time>2019-09-22T09:29:07Z</time>
      </trkpt>
      <trkpt lat="45.72282" lon="4.62917">
        <ele>463.4</ele>
        <time>2019-09-22T09:29:11Z</time>
      </trkpt>
      <trkpt lat="45.72278" lon="4.6291">
        <ele>463.7</ele>
        <time>2019-09-22T09:29:12Z</time>
      </trkpt>
      <trkpt lat="45.72272" lon="4.62897">
        <ele>464.4</ele>
        <time>2019-09-22T09:29:14Z</time>
      </trkpt>
      <trkpt lat="45.7227" lon="4.62892">
        <ele>464.7</ele>
        <time>2019-09-22T09:29:15Z</time>
      </trkpt>
      <trkpt lat="45.72267" lon="4.62882">
        <ele>465.2</ele>
        <time>2019-09-22T09:29:17Z</time>
      </trkpt>
      <trkpt lat="45.72262" lon="4.62865">
        <ele>466.2</ele>
        <time>2019-09-22T09:29:21Z</time>
      </trkpt>
      <trkpt lat="45.7226" lon="4.62854">
        <ele>466.9</ele>
        <time>2019-09-22T09:29:24Z</time>
      </trkpt>
      <trkpt lat="45.72259" lon="4.62843">
        <ele>467.7</ele>
        <time>2019-09-22T09:29:27Z</time>
      </trkpt>
      <trkpt lat="45.72258" lon="4.6284">
        <ele>467.9</ele>
        <time>2019-09-22T09:29:28Z</time>
      </trkpt>
      <trkpt lat="45.72259" lon="4.62826">
        <ele>468.9</ele>
        <time>2019-09-22T09:29:32Z</time>
      </trkpt>
      <trkpt lat="45.7226" lon="4.6282">
        <ele>469.4</ele>
        <time>2019-09-22T09:29:34Z</time>
      </trkpt>
      <trkpt lat="45.72261" lon="4.62814">
        <ele>469.8</ele>
        <time>2019-09-22T09:29:36Z</time>
      </trkpt>
      <trkpt lat="45.72263" lon="4.62805">
        <ele>470.4</ele>
        <time>2019-09-22T09:29:39Z</time>
      </trkpt>
      <trkpt lat="45.72264" lon="4.62792">
        <ele>471.2</ele>
        <time>2019-09-22T09:29:43Z</time>
      </trkpt>
      <trkpt lat="45.72264" lon="4.62782">
        <ele>471.6</ele>
        <time>2019-09-22T09:29:46Z</time>
      </trkpt>
      <trkpt lat="45.72263" lon="4.62767">
        <ele>471.8</ele>
        <time>2019-09-22T09:29:50Z</time>
      </trkpt>
      <trkpt lat="45.72261" lon="4.62727">
        <ele>471.4</ele>
        <time>2019-09-22T09:29:58Z</time>
      </trkpt>
      <trkpt lat="45.72261" lon="4.62682">
        <ele>471.3</ele>
        <time>2019-09-22T09:30:06Z</time>
      </trkpt>
      <trkpt lat="45.72267" lon="4.62628">
        <ele>471.5</ele>
        <time>2019-09-22T09:30:15Z</time>
      </trkpt>
      <trkpt lat="45.72279" lon="4.62582">
        <ele>472.5</ele>
        <time>2019-09-22T09:30:23Z</time>
      </trkpt>
      <trkpt lat="45.72289" lon="4.62536">
        <ele>474.5</ele>
        <time>2019-09-22T09:30:31Z</time>
      </trkpt>
      <trkpt lat="45.72297" lon="4.62511">
        <ele>475.7</ele>
        <time>2019-09-22T09:30:36Z</time>
      </trkpt>
      <trkpt lat="45.72298" lon="4.62506">
        <ele>475.9</ele>
        <time>2019-09-22T09:30:37Z</time>
      </trkpt>
      <trkpt lat="45.72301" lon="4.62498">
        <ele>476.1</ele>
        <time>2019-09-22T09:30:39Z</time>
      </trkpt>
      <trkpt lat="45.72306" lon="4.62481">
        <ele>476.4</ele>
        <time>2019-09-22T09:30:43Z</time>
      </trkpt>
      <trkpt lat="45.72308" lon="4.62477">
        <ele>476.4</ele>
        <time>2019-09-22T09:30:44Z</time>
      </trkpt>
      <trkpt lat="45.72316" lon="4.62446">
        <ele>476.9</ele>
        <time>2019-09-22T09:30:50Z</time>
      </trkpt>
      <trkpt lat="45.72319" lon="4.6242">
        <ele>478</ele>
        <time>2019-09-22T09:30:55Z</time>
      </trkpt>
      <trkpt lat="45.7232" lon="4.62411">
        <ele>478.4</ele>
        <time>2019-09-22T09:30:57Z</time>
      </trkpt>
      <trkpt lat="45.72324" lon="4.62388">
        <ele>479.8</ele>
        <time>2019-09-22T09:31:03Z</time>
      </trkpt>
      <trkpt lat="45.72324" lon="4.62385">
        <ele>480</ele>
        <time>2019-09-22T09:31:04Z</time>
      </trkpt>
      <trkpt lat="45.72325" lon="4.62379">
        <ele>480.4</ele>
        <time>2019-09-22T09:31:06Z</time>
      </trkpt>
      <trkpt lat="45.72324" lon="4.62368">
        <ele>481.2</ele>
        <time>2019-09-22T09:31:09Z</time>
      </trkpt>
      <trkpt lat="45.72324" lon="4.62365">
        <ele>481.4</ele>
        <time>2019-09-22T09:31:10Z</time>
      </trkpt>
      <trkpt lat="45.72323" lon="4.62358">
        <ele>481.9</ele>
        <time>2019-09-22T09:31:12Z</time>
      </trkpt>
      <trkpt lat="45.72317" lon="4.62346">
        <ele>483.1</ele>
        <time>2019-09-22T09:31:16Z</time>
      </trkpt>
      <trkpt lat="45.72312" lon="4.62339">
        <ele>484</ele>
        <time>2019-09-22T09:31:19Z</time>
      </trkpt>
      <trkpt lat="45.72306" lon="4.62334">
        <ele>484.9</ele>
        <time>2019-09-22T09:31:22Z</time>
      </trkpt>
      <trkpt lat="45.72302" lon="4.62329">
        <ele>485.7</ele>
        <time>2019-09-22T09:31:25Z</time>
      </trkpt>
      <trkpt lat="45.72296" lon="4.62323">
        <ele>486.8</ele>
        <time>2019-09-22T09:31:28Z</time>
      </trkpt>
      <trkpt lat="45.72293" lon="4.6232">
        <ele>487.6</ele>
        <time>2019-09-22T09:31:30Z</time>
      </trkpt>
      <trkpt lat="45.72292" lon="4.62318">
        <ele>488.4</ele>
        <time>2019-09-22T09:31:31Z</time>
      </trkpt>
      <trkpt lat="45.72288" lon="4.62317">
        <ele>487.4</ele>
        <time>2019-09-22T09:31:36Z</time>
      </trkpt>
      <trkpt lat="45.72283" lon="4.62329">
        <ele>484.9</ele>
        <time>2019-09-22T09:31:40Z</time>
      </trkpt>
      <trkpt lat="45.72281" lon="4.62335">
        <ele>483.8</ele>
        <time>2019-09-22T09:31:41Z</time>
      </trkpt>
      <trkpt lat="45.72273" lon="4.62347">
        <ele>481.4</ele>
        <time>2019-09-22T09:31:43Z</time>
      </trkpt>
      <trkpt lat="45.72265" lon="4.62357">
        <ele>478.5</ele>
        <time>2019-09-22T09:31:45Z</time>
      </trkpt>
      <trkpt lat="45.72256" lon="4.62367">
        <ele>475.3</ele>
        <time>2019-09-22T09:31:47Z</time>
      </trkpt>
      <trkpt lat="45.72251" lon="4.62372">
        <ele>473.9</ele>
        <time>2019-09-22T09:31:48Z</time>
      </trkpt>
      <trkpt lat="45.72247" lon="4.62377">
        <ele>472.4</ele>
        <time>2019-09-22T09:31:49Z</time>
      </trkpt>
      <trkpt lat="45.72236" lon="4.62387">
        <ele>469.4</ele>
        <time>2019-09-22T09:31:51Z</time>
      </trkpt>
      <trkpt lat="45.72225" lon="4.62396">
        <ele>466.4</ele>
        <time>2019-09-22T09:31:53Z</time>
      </trkpt>
      <trkpt lat="45.7222" lon="4.62401">
        <ele>465</ele>
        <time>2019-09-22T09:31:54Z</time>
      </trkpt>
      <trkpt lat="45.72209" lon="4.62411">
        <ele>462.2</ele>
        <time>2019-09-22T09:31:56Z</time>
      </trkpt>
      <trkpt lat="45.72203" lon="4.62417">
        <ele>460.8</ele>
        <time>2019-09-22T09:31:57Z</time>
      </trkpt>
      <trkpt lat="45.72197" lon="4.62423">
        <ele>459.3</ele>
        <time>2019-09-22T09:31:58Z</time>
      </trkpt>
      <trkpt lat="45.72191" lon="4.6243">
        <ele>457.7</ele>
        <time>2019-09-22T09:31:59Z</time>
      </trkpt>
      <trkpt lat="45.72186" lon="4.62437">
        <ele>456.1</ele>
        <time>2019-09-22T09:32:00Z</time>
      </trkpt>
      <trkpt lat="45.7218" lon="4.62443">
        <ele>454.6</ele>
        <time>2019-09-22T09:32:01Z</time>
      </trkpt>
      <trkpt lat="45.72175" lon="4.6245">
        <ele>453</ele>
        <time>2019-09-22T09:32:02Z</time>
      </trkpt>
      <trkpt lat="45.72168" lon="4.62456">
        <ele>451.4</ele>
        <time>2019-09-22T09:32:03Z</time>
      </trkpt>
      <trkpt lat="45.72162" lon="4.62461">
        <ele>449.7</ele>
        <time>2019-09-22T09:32:04Z</time>
      </trkpt>
      <trkpt lat="45.72156" lon="4.62466">
        <ele>447.9</ele>
        <time>2019-09-22T09:32:05Z</time>
      </trkpt>
      <trkpt lat="45.7215" lon="4.6247">
        <ele>446.2</ele>
        <time>2019-09-22T09:32:06Z</time>
      </trkpt>
      <trkpt lat="45.72146" lon="4.62474">
        <ele>445</ele>
        <time>2019-09-22T09:32:07Z</time>
      </trkpt>
      <trkpt lat="45.72143" lon="4.62478">
        <ele>444.5</ele>
        <time>2019-09-22T09:32:08Z</time>
      </trkpt>
      <trkpt lat="45.72139" lon="4.62481">
        <ele>443.9</ele>
        <time>2019-09-22T09:32:09Z</time>
      </trkpt>
      <trkpt lat="45.72136" lon="4.62485">
        <ele>443.1</ele>
        <time>2019-09-22T09:32:10Z</time>
      </trkpt>
      <trkpt lat="45.72132" lon="4.62489">
        <ele>442.5</ele>
        <time>2019-09-22T09:32:11Z</time>
      </trkpt>
      <trkpt lat="45.72129" lon="4.62493">
        <ele>441.8</ele>
        <time>2019-09-22T09:32:12Z</time>
      </trkpt>
      <trkpt lat="45.72125" lon="4.62497">
        <ele>441</ele>
        <time>2019-09-22T09:32:13Z</time>
      </trkpt>
      <trkpt lat="45.72121" lon="4.62501">
        <ele>440.2</ele>
        <time>2019-09-22T09:32:14Z</time>
      </trkpt>
      <trkpt lat="45.72117" lon="4.62506">
        <ele>439.4</ele>
        <time>2019-09-22T09:32:15Z</time>
      </trkpt>
      <trkpt lat="45.72113" lon="4.62509">
        <ele>438.6</ele>
        <time>2019-09-22T09:32:16Z</time>
      </trkpt>
      <trkpt lat="45.7211" lon="4.62513">
        <ele>437.8</ele>
        <time>2019-09-22T09:32:17Z</time>
      </trkpt>
      <trkpt lat="45.72106" lon="4.62516">
        <ele>437.1</ele>
        <time>2019-09-22T09:32:18Z</time>
      </trkpt>
      <trkpt lat="45.72103" lon="4.62519">
        <ele>436.3</ele>
        <time>2019-09-22T09:32:19Z</time>
      </trkpt>
      <trkpt lat="45.72099" lon="4.62522">
        <ele>435.6</ele>
        <time>2019-09-22T09:32:20Z</time>
      </trkpt>
      <trkpt lat="45.72095" lon="4.62525">
        <ele>434.9</ele>
        <time>2019-09-22T09:32:21Z</time>
      </trkpt>
      <trkpt lat="45.72086" lon="4.62531">
        <ele>433.5</ele>
        <time>2019-09-22T09:32:23Z</time>
      </trkpt>
      <trkpt lat="45.72081" lon="4.62535">
        <ele>432.8</ele>
        <time>2019-09-22T09:32:24Z</time>
      </trkpt>
      <trkpt lat="45.72077" lon="4.6254">
        <ele>432.1</ele>
        <time>2019-09-22T09:32:25Z</time>
      </trkpt>
      <trkpt lat="45.72068" lon="4.62551">
        <ele>430.6</ele>
        <time>2019-09-22T09:32:27Z</time>
      </trkpt>
      <trkpt lat="45.72059" lon="4.62557">
        <ele>429.5</ele>
        <time>2019-09-22T09:32:29Z</time>
      </trkpt>
      <trkpt lat="45.72055" lon="4.62558">
        <ele>429.2</ele>
        <time>2019-09-22T09:32:30Z</time>
      </trkpt>
      <trkpt lat="45.72051" lon="4.62559">
        <ele>428.9</ele>
        <time>2019-09-22T09:32:31Z</time>
      </trkpt>
      <trkpt lat="45.72045" lon="4.62563">
        <ele>428.4</ele>
        <time>2019-09-22T09:32:33Z</time>
      </trkpt>
      <trkpt lat="45.72042" lon="4.62566">
        <ele>428.2</ele>
        <time>2019-09-22T09:32:34Z</time>
      </trkpt>
      <trkpt lat="45.72038" lon="4.62571">
        <ele>428</ele>
        <time>2019-09-22T09:32:36Z</time>
      </trkpt>
      <trkpt lat="45.72036" lon="4.62576">
        <ele>427.8</ele>
        <time>2019-09-22T09:32:38Z</time>
      </trkpt>
      <trkpt lat="45.72034" lon="4.62578">
        <ele>427.8</ele>
        <time>2019-09-22T09:32:39Z</time>
      </trkpt>
      <trkpt lat="45.72032" lon="4.62584">
        <ele>427.6</ele>
        <time>2019-09-22T09:32:41Z</time>
      </trkpt>
      <trkpt lat="45.72029" lon="4.62589">
        <ele>427.4</ele>
        <time>2019-09-22T09:32:43Z</time>
      </trkpt>
      <trkpt lat="45.72028" lon="4.62592">
        <ele>427.3</ele>
        <time>2019-09-22T09:32:44Z</time>
      </trkpt>
      <trkpt lat="45.72022" lon="4.62601">
        <ele>427.2</ele>
        <time>2019-09-22T09:32:48Z</time>
      </trkpt>
      <trkpt lat="45.72019" lon="4.62606">
        <ele>427.1</ele>
        <time>2019-09-22T09:32:50Z</time>
      </trkpt>
      <trkpt lat="45.72015" lon="4.62613">
        <ele>426.9</ele>
        <time>2019-09-22T09:32:53Z</time>
      </trkpt>
      <trkpt lat="45.72009" lon="4.62621">
        <ele>426.7</ele>
        <time>2019-09-22T09:32:56Z</time>
      </trkpt>
      <trkpt lat="45.71994" lon="4.6264">
        <ele>426.2</ele>
        <time>2019-09-22T09:33:01Z</time>
      </trkpt>
      <trkpt lat="45.71991" lon="4.62643">
        <ele>426.1</ele>
        <time>2019-09-22T09:33:02Z</time>
      </trkpt>
      <trkpt lat="45.7198" lon="4.62653">
        <ele>425.7</ele>
        <time>2019-09-22T09:33:06Z</time>
      </trkpt>
      <trkpt lat="45.71972" lon="4.6266">
        <ele>425.3</ele>
        <time>2019-09-22T09:33:08Z</time>
      </trkpt>
      <trkpt lat="45.71965" lon="4.62675">
        <ele>424.7</ele>
        <time>2019-09-22T09:33:10Z</time>
      </trkpt>
      <trkpt lat="45.71959" lon="4.62693">
        <ele>423.9</ele>
        <time>2019-09-22T09:33:12Z</time>
      </trkpt>
      <trkpt lat="45.71956" lon="4.62701">
        <ele>423.5</ele>
        <time>2019-09-22T09:33:13Z</time>
      </trkpt>
      <trkpt lat="45.71949" lon="4.62714">
        <ele>423</ele>
        <time>2019-09-22T09:33:15Z</time>
      </trkpt>
      <trkpt lat="45.71933" lon="4.62737">
        <ele>422.3</ele>
        <time>2019-09-22T09:33:19Z</time>
      </trkpt>
      <trkpt lat="45.71922" lon="4.6275">
        <ele>421.9</ele>
        <time>2019-09-22T09:33:22Z</time>
      </trkpt>
      <trkpt lat="45.71915" lon="4.62759">
        <ele>421.7</ele>
        <time>2019-09-22T09:33:24Z</time>
      </trkpt>
      <trkpt lat="45.71906" lon="4.62767">
        <ele>421.4</ele>
        <time>2019-09-22T09:33:26Z</time>
      </trkpt>
      <trkpt lat="45.71901" lon="4.62771">
        <ele>421.2</ele>
        <time>2019-09-22T09:33:27Z</time>
      </trkpt>
      <trkpt lat="45.71896" lon="4.62773">
        <ele>421</ele>
        <time>2019-09-22T09:33:28Z</time>
      </trkpt>
      <trkpt lat="45.71885" lon="4.62778">
        <ele>420.6</ele>
        <time>2019-09-22T09:33:30Z</time>
      </trkpt>
      <trkpt lat="45.71867" lon="4.62783">
        <ele>420</ele>
        <time>2019-09-22T09:33:33Z</time>
      </trkpt>
      <trkpt lat="45.71861" lon="4.62785">
        <ele>419.8</ele>
        <time>2019-09-22T09:33:34Z</time>
      </trkpt>
      <trkpt lat="45.71836" lon="4.62797">
        <ele>418.7</ele>
        <time>2019-09-22T09:33:38Z</time>
      </trkpt>
      <trkpt lat="45.71823" lon="4.62804">
        <ele>418</ele>
        <time>2019-09-22T09:33:40Z</time>
      </trkpt>
      <trkpt lat="45.71816" lon="4.62809">
        <ele>417.6</ele>
        <time>2019-09-22T09:33:41Z</time>
      </trkpt>
      <trkpt lat="45.71811" lon="4.62815">
        <ele>417.2</ele>
        <time>2019-09-22T09:33:42Z</time>
      </trkpt>
      <trkpt lat="45.71807" lon="4.62823">
        <ele>416.8</ele>
        <time>2019-09-22T09:33:43Z</time>
      </trkpt>
      <trkpt lat="45.71802" lon="4.6283">
        <ele>416.3</ele>
        <time>2019-09-22T09:33:44Z</time>
      </trkpt>
      <trkpt lat="45.71794" lon="4.62842">
        <ele>415.4</ele>
        <time>2019-09-22T09:33:46Z</time>
      </trkpt>
      <trkpt lat="45.7179" lon="4.62846">
        <ele>414.8</ele>
        <time>2019-09-22T09:33:47Z</time>
      </trkpt>
      <trkpt lat="45.71786" lon="4.62848">
        <ele>414.3</ele>
        <time>2019-09-22T09:33:48Z</time>
      </trkpt>
      <trkpt lat="45.71778" lon="4.62847">
        <ele>413.1</ele>
        <time>2019-09-22T09:33:50Z</time>
      </trkpt>
      <trkpt lat="45.71768" lon="4.6284">
        <ele>411.4</ele>
        <time>2019-09-22T09:33:52Z</time>
      </trkpt>
      <trkpt lat="45.71759" lon="4.62831">
        <ele>410</ele>
        <time>2019-09-22T09:33:54Z</time>
      </trkpt>
      <trkpt lat="45.71751" lon="4.62821">
        <ele>408.8</ele>
        <time>2019-09-22T09:33:56Z</time>
      </trkpt>
      <trkpt lat="45.71747" lon="4.62817">
        <ele>408.3</ele>
        <time>2019-09-22T09:33:57Z</time>
      </trkpt>
      <trkpt lat="45.71742" lon="4.62815">
        <ele>407.7</ele>
        <time>2019-09-22T09:33:58Z</time>
      </trkpt>
      <trkpt lat="45.71732" lon="4.62814">
        <ele>406.7</ele>
        <time>2019-09-22T09:34:00Z</time>
      </trkpt>
      <trkpt lat="45.71724" lon="4.62812">
        <ele>406.1</ele>
        <time>2019-09-22T09:34:02Z</time>
      </trkpt>
      <trkpt lat="45.7172" lon="4.62812">
        <ele>405.8</ele>
        <time>2019-09-22T09:34:03Z</time>
      </trkpt>
      <trkpt lat="45.71717" lon="4.62813">
        <ele>405.7</ele>
        <time>2019-09-22T09:34:04Z</time>
      </trkpt>
      <trkpt lat="45.71715" lon="4.62814">
        <ele>405.6</ele>
        <time>2019-09-22T09:34:05Z</time>
      </trkpt>
      <trkpt lat="45.71713" lon="4.62815">
        <ele>405.5</ele>
        <time>2019-09-22T09:34:06Z</time>
      </trkpt>
      <trkpt lat="45.71711" lon="4.62819">
        <ele>405.4</ele>
        <time>2019-09-22T09:34:08Z</time>
      </trkpt>
      <trkpt lat="45.71709" lon="4.62822">
        <ele>405.3</ele>
        <time>2019-09-22T09:34:10Z</time>
      </trkpt>
      <trkpt lat="45.71709" lon="4.62824">
        <ele>405.3</ele>
        <time>2019-09-22T09:34:11Z</time>
      </trkpt>
      <trkpt lat="45.71706" lon="4.62828">
        <ele>404.9</ele>
        <time>2019-09-22T09:34:14Z</time>
      </trkpt>
      <trkpt lat="45.71704" lon="4.62832">
        <ele>404.7</ele>
        <time>2019-09-22T09:34:16Z</time>
      </trkpt>
      <trkpt lat="45.71705" lon="4.62835">
        <ele>404.6</ele>
        <time>2019-09-22T09:34:17Z</time>
      </trkpt>
      <trkpt lat="45.71705" lon="4.62838">
        <ele>404.6</ele>
        <time>2019-09-22T09:34:18Z</time>
      </trkpt>
      <trkpt lat="45.71705" lon="4.62845">
        <ele>404.4</ele>
        <time>2019-09-22T09:34:21Z</time>
      </trkpt>
      <trkpt lat="45.71707" lon="4.6285">
        <ele>404.2</ele>
        <time>2019-09-22T09:34:23Z</time>
      </trkpt>
      <trkpt lat="45.71712" lon="4.62869">
        <ele>403.5</ele>
        <time>2019-09-22T09:34:28Z</time>
      </trkpt>
      <trkpt lat="45.71713" lon="4.62873">
        <ele>403.3</ele>
        <time>2019-09-22T09:34:29Z</time>
      </trkpt>
      <trkpt lat="45.71722" lon="4.62908">
        <ele>402.3</ele>
        <time>2019-09-22T09:34:35Z</time>
      </trkpt>
      <trkpt lat="45.71736" lon="4.62959">
        <ele>400</ele>
        <time>2019-09-22T09:34:42Z</time>
      </trkpt>
      <trkpt lat="45.71744" lon="4.63">
        <ele>398.1</ele>
        <time>2019-09-22T09:34:46Z</time>
      </trkpt>
      <trkpt lat="45.71746" lon="4.63012">
        <ele>397.5</ele>
        <time>2019-09-22T09:34:47Z</time>
      </trkpt>
      <trkpt lat="45.7175" lon="4.63063">
        <ele>395</ele>
        <time>2019-09-22T09:34:51Z</time>
      </trkpt>
      <trkpt lat="45.71758" lon="4.63117">
        <ele>393.4</ele>
        <time>2019-09-22T09:34:55Z</time>
      </trkpt>
      <trkpt lat="45.71759" lon="4.63128">
        <ele>393.4</ele>
        <time>2019-09-22T09:34:56Z</time>
      </trkpt>
      <trkpt lat="45.7176" lon="4.6314">
        <ele>394.1</ele>
        <time>2019-09-22T09:34:57Z</time>
      </trkpt>
      <trkpt lat="45.71758" lon="4.6316">
        <ele>395.9</ele>
        <time>2019-09-22T09:34:59Z</time>
      </trkpt>
      <trkpt lat="45.71756" lon="4.63175">
        <ele>397.6</ele>
        <time>2019-09-22T09:35:02Z</time>
      </trkpt>
      <trkpt lat="45.71749" lon="4.63184">
        <ele>399.2</ele>
        <time>2019-09-22T09:35:08Z</time>
      </trkpt>
      <trkpt lat="45.71743" lon="4.63181">
        <ele>400.6</ele>
        <time>2019-09-22T09:35:12Z</time>
      </trkpt>
      <trkpt lat="45.71741" lon="4.6318">
        <ele>400.9</ele>
        <time>2019-09-22T09:35:13Z</time>
      </trkpt>
      <trkpt lat="45.71734" lon="4.63176">
        <ele>402.6</ele>
        <time>2019-09-22T09:35:18Z</time>
      </trkpt>
      <trkpt lat="45.71731" lon="4.63175">
        <ele>403.4</ele>
        <time>2019-09-22T09:35:21Z</time>
      </trkpt>
      <trkpt lat="45.71728" lon="4.63173">
        <ele>404.1</ele>
        <time>2019-09-22T09:35:24Z</time>
      </trkpt>
      <trkpt lat="45.71723" lon="4.6317">
        <ele>405.1</ele>
        <time>2019-09-22T09:35:28Z</time>
      </trkpt>
      <trkpt lat="45.71722" lon="4.63169">
        <ele>405.4</ele>
        <time>2019-09-22T09:35:29Z</time>
      </trkpt>
      <trkpt lat="45.7172" lon="4.63168">
        <ele>405.8</ele>
        <time>2019-09-22T09:35:31Z</time>
      </trkpt>
      <trkpt lat="45.71718" lon="4.63167">
        <ele>406.3</ele>
        <time>2019-09-22T09:35:33Z</time>
      </trkpt>
      <trkpt lat="45.71694" lon="4.6317">
        <ele>409.9</ele>
        <time>2019-09-22T09:35:52Z</time>
      </trkpt>
      <trkpt lat="45.71693" lon="4.6317">
        <ele>410</ele>
        <time>2019-09-22T09:35:53Z</time>
      </trkpt>
      <trkpt lat="45.71689" lon="4.6317">
        <ele>410.4</ele>
        <time>2019-09-22T09:35:56Z</time>
      </trkpt>
      <trkpt lat="45.71687" lon="4.6317">
        <ele>410.8</ele>
        <time>2019-09-22T09:35:59Z</time>
      </trkpt>
      <trkpt lat="45.71684" lon="4.63169">
        <ele>411</ele>
        <time>2019-09-22T09:36:01Z</time>
      </trkpt>
      <trkpt lat="45.71676" lon="4.63168">
        <ele>412.3</ele>
        <time>2019-09-22T09:36:07Z</time>
      </trkpt>
      <trkpt lat="45.71672" lon="4.63168">
        <ele>412.9</ele>
        <time>2019-09-22T09:36:10Z</time>
      </trkpt>
      <trkpt lat="45.71668" lon="4.63167">
        <ele>413.6</ele>
        <time>2019-09-22T09:36:14Z</time>
      </trkpt>
      <trkpt lat="45.71661" lon="4.63169">
        <ele>414.5</ele>
        <time>2019-09-22T09:36:20Z</time>
      </trkpt>
      <trkpt lat="45.71657" lon="4.63169">
        <ele>414.9</ele>
        <time>2019-09-22T09:36:23Z</time>
      </trkpt>
      <trkpt lat="45.71651" lon="4.63167">
        <ele>415.5</ele>
        <time>2019-09-22T09:36:28Z</time>
      </trkpt>
      <trkpt lat="45.71642" lon="4.63167">
        <ele>416.2</ele>
        <time>2019-09-22T09:36:35Z</time>
      </trkpt>
      <trkpt lat="45.7164" lon="4.63167">
        <ele>416.4</ele>
        <time>2019-09-22T09:36:37Z</time>
      </trkpt>
      <trkpt lat="45.71632" lon="4.63168">
        <ele>416.9</ele>
        <time>2019-09-22T09:36:43Z</time>
      </trkpt>
      <trkpt lat="45.71628" lon="4.63167">
        <ele>417.2</ele>
        <time>2019-09-22T09:36:46Z</time>
      </trkpt>
      <trkpt lat="45.7162" lon="4.63166">
        <ele>418.2</ele>
        <time>2019-09-22T09:36:52Z</time>
      </trkpt>
      <trkpt lat="45.71618" lon="4.63165">
        <ele>418.5</ele>
        <time>2019-09-22T09:36:54Z</time>
      </trkpt>
      <trkpt lat="45.71611" lon="4.63163">
        <ele>419.2</ele>
        <time>2019-09-22T09:36:59Z</time>
      </trkpt>
      <trkpt lat="45.7161" lon="4.63162">
        <ele>419.4</ele>
        <time>2019-09-22T09:37:00Z</time>
      </trkpt>
      <trkpt lat="45.71605" lon="4.6316">
        <ele>420.1</ele>
        <time>2019-09-22T09:37:04Z</time>
      </trkpt>
      <trkpt lat="45.71601" lon="4.63157">
        <ele>420.8</ele>
        <time>2019-09-22T09:37:08Z</time>
      </trkpt>
      <trkpt lat="45.71592" lon="4.63147">
        <ele>422.6</ele>
        <time>2019-09-22T09:37:16Z</time>
      </trkpt>
      <trkpt lat="45.71581" lon="4.63133">
        <ele>424.5</ele>
        <time>2019-09-22T09:37:26Z</time>
      </trkpt>
      <trkpt lat="45.71581" lon="4.63132">
        <ele>424.6</ele>
        <time>2019-09-22T09:37:27Z</time>
      </trkpt>
      <trkpt lat="45.7158" lon="4.6313">
        <ele>424.7</ele>
        <time>2019-09-22T09:37:29Z</time>
      </trkpt>
      <trkpt lat="45.71576" lon="4.63127">
        <ele>425</ele>
        <time>2019-09-22T09:37:32Z</time>
      </trkpt>
      <trkpt lat="45.71573" lon="4.63125">
        <ele>425.3</ele>
        <time>2019-09-22T09:37:51Z</time>
      </trkpt>
      <trkpt lat="45.71567" lon="4.63119">
        <ele>425.7</ele>
        <time>2019-09-22T09:37:55Z</time>
      </trkpt>
      <trkpt lat="45.71558" lon="4.63111">
        <ele>426.2</ele>
        <time>2019-09-22T09:37:59Z</time>
      </trkpt>
      <trkpt lat="45.7155" lon="4.63102">
        <ele>426.9</ele>
        <time>2019-09-22T09:38:03Z</time>
      </trkpt>
      <trkpt lat="45.71529" lon="4.63084">
        <ele>428</ele>
        <time>2019-09-22T09:38:12Z</time>
      </trkpt>
      <trkpt lat="45.7152" lon="4.63083">
        <ele>428.1</ele>
        <time>2019-09-22T09:38:16Z</time>
      </trkpt>
      <trkpt lat="45.71516" lon="4.63087">
        <ele>427.4</ele>
        <time>2019-09-22T09:38:17Z</time>
      </trkpt>
      <trkpt lat="45.71504" lon="4.6311">
        <ele>424.2</ele>
        <time>2019-09-22T09:38:20Z</time>
      </trkpt>
      <trkpt lat="45.71498" lon="4.63138">
        <ele>421.7</ele>
        <time>2019-09-22T09:38:23Z</time>
      </trkpt>
      <trkpt lat="45.71498" lon="4.63153">
        <ele>420.4</ele>
        <time>2019-09-22T09:38:25Z</time>
      </trkpt>
      <trkpt lat="45.71499" lon="4.63158">
        <ele>420</ele>
        <time>2019-09-22T09:38:26Z</time>
      </trkpt>
      <trkpt lat="45.715" lon="4.63168">
        <ele>419.3</ele>
        <time>2019-09-22T09:38:29Z</time>
      </trkpt>
      <trkpt lat="45.71498" lon="4.63169">
        <ele>419.1</ele>
        <time>2019-09-22T09:38:30Z</time>
      </trkpt>
      <trkpt lat="45.71492" lon="4.63164">
        <ele>420.9</ele>
        <time>2019-09-22T09:38:33Z</time>
      </trkpt>
      <trkpt lat="45.7149" lon="4.63161">
        <ele>421.3</ele>
        <time>2019-09-22T09:38:34Z</time>
      </trkpt>
      <trkpt lat="45.71471" lon="4.6315">
        <ele>424.6</ele>
        <time>2019-09-22T09:38:41Z</time>
      </trkpt>
      <trkpt lat="45.71455" lon="4.63145">
        <ele>426.7</ele>
        <time>2019-09-22T09:38:46Z</time>
      </trkpt>
      <trkpt lat="45.71449" lon="4.63143">
        <ele>427.5</ele>
        <time>2019-09-22T09:38:48Z</time>
      </trkpt>
      <trkpt lat="45.71442" lon="4.63142">
        <ele>428.3</ele>
        <time>2019-09-22T09:38:50Z</time>
      </trkpt>
      <trkpt lat="45.71422" lon="4.6314">
        <ele>430.8</ele>
        <time>2019-09-22T09:38:56Z</time>
      </trkpt>
      <trkpt lat="45.71416" lon="4.6314">
        <ele>432.1</ele>
        <time>2019-09-22T09:38:58Z</time>
      </trkpt>
      <trkpt lat="45.71385" lon="4.63142">
        <ele>435.1</ele>
        <time>2019-09-22T09:39:06Z</time>
      </trkpt>
      <trkpt lat="45.71361" lon="4.63147">
        <ele>438.3</ele>
        <time>2019-09-22T09:39:12Z</time>
      </trkpt>
      <trkpt lat="45.71347" lon="4.63155">
        <ele>439.3</ele>
        <time>2019-09-22T09:39:16Z</time>
      </trkpt>
      <trkpt lat="45.71339" lon="4.63159">
        <ele>440.3</ele>
        <time>2019-09-22T09:39:19Z</time>
      </trkpt>
      <trkpt lat="45.71335" lon="4.63159">
        <ele>440.8</ele>
        <time>2019-09-22T09:39:21Z</time>
      </trkpt>
      <trkpt lat="45.71328" lon="4.63157">
        <ele>441.6</ele>
        <time>2019-09-22T09:39:24Z</time>
      </trkpt>
      <trkpt lat="45.71325" lon="4.63156">
        <ele>442</ele>
        <time>2019-09-22T09:39:25Z</time>
      </trkpt>
      <trkpt lat="45.71318" lon="4.63153">
        <ele>443</ele>
        <time>2019-09-22T09:39:28Z</time>
      </trkpt>
      <trkpt lat="45.71312" lon="4.63152">
        <ele>443.7</ele>
        <time>2019-09-22T09:39:30Z</time>
      </trkpt>
      <trkpt lat="45.71307" lon="4.63152">
        <ele>444.2</ele>
        <time>2019-09-22T09:39:32Z</time>
      </trkpt>
      <trkpt lat="45.71305" lon="4.63152">
        <ele>444.4</ele>
        <time>2019-09-22T09:39:33Z</time>
      </trkpt>
      <trkpt lat="45.71303" lon="4.63151">
        <ele>444.7</ele>
        <time>2019-09-22T09:39:34Z</time>
      </trkpt>
      <trkpt lat="45.71296" lon="4.63152">
        <ele>445.3</ele>
        <time>2019-09-22T09:39:37Z</time>
      </trkpt>
      <trkpt lat="45.71289" lon="4.63153">
        <ele>445.9</ele>
        <time>2019-09-22T09:39:40Z</time>
      </trkpt>
      <trkpt lat="45.71287" lon="4.63153">
        <ele>446.1</ele>
        <time>2019-09-22T09:39:41Z</time>
      </trkpt>
      <trkpt lat="45.71283" lon="4.63154">
        <ele>446.5</ele>
        <time>2019-09-22T09:39:43Z</time>
      </trkpt>
      <trkpt lat="45.71279" lon="4.63154">
        <ele>446.8</ele>
        <time>2019-09-22T09:39:45Z</time>
      </trkpt>
      <trkpt lat="45.71268" lon="4.63154">
        <ele>447.4</ele>
        <time>2019-09-22T09:39:50Z</time>
      </trkpt>
      <trkpt lat="45.71266" lon="4.63154">
        <ele>447.5</ele>
        <time>2019-09-22T09:39:51Z</time>
      </trkpt>
      <trkpt lat="45.71262" lon="4.63157">
        <ele>447.9</ele>
        <time>2019-09-22T09:39:54Z</time>
      </trkpt>
      <trkpt lat="45.71261" lon="4.63158">
        <ele>448</ele>
        <time>2019-09-22T09:39:55Z</time>
      </trkpt>
      <trkpt lat="45.71266" lon="4.63166">
        <ele>447.8</ele>
        <time>2019-09-22T09:40:00Z</time>
      </trkpt>
      <trkpt lat="45.71268" lon="4.63168">
        <ele>447.7</ele>
        <time>2019-09-22T09:40:01Z</time>
      </trkpt>
      <trkpt lat="45.71277" lon="4.63176">
        <ele>447.3</ele>
        <time>2019-09-22T09:40:06Z</time>
      </trkpt>
      <trkpt lat="45.71278" lon="4.63177">
        <ele>447.2</ele>
        <time>2019-09-22T09:40:07Z</time>
      </trkpt>
      <trkpt lat="45.71283" lon="4.63182">
        <ele>447</ele>
        <time>2019-09-22T09:40:11Z</time>
      </trkpt>
      <trkpt lat="45.71286" lon="4.63186">
        <ele>446.8</ele>
        <time>2019-09-22T09:40:14Z</time>
      </trkpt>
      <trkpt lat="45.71288" lon="4.63188">
        <ele>446.7</ele>
        <time>2019-09-22T09:40:15Z</time>
      </trkpt>
      <trkpt lat="45.71292" lon="4.63191">
        <ele>447.4</ele>
        <time>2019-09-22T09:40:18Z</time>
      </trkpt>
      <trkpt lat="45.71297" lon="4.63195">
        <ele>447.9</ele>
        <time>2019-09-22T09:40:21Z</time>
      </trkpt>
      <trkpt lat="45.71299" lon="4.63197">
        <ele>448.1</ele>
        <time>2019-09-22T09:40:22Z</time>
      </trkpt>
      <trkpt lat="45.71307" lon="4.63201">
        <ele>448.9</ele>
        <time>2019-09-22T09:40:26Z</time>
      </trkpt>
      <trkpt lat="45.71313" lon="4.63205">
        <ele>449.4</ele>
        <time>2019-09-22T09:40:29Z</time>
      </trkpt>
      <trkpt lat="45.7133" lon="4.63213">
        <ele>451.2</ele>
        <time>2019-09-22T09:40:38Z</time>
      </trkpt>
      <trkpt lat="45.71341" lon="4.63216">
        <ele>452.4</ele>
        <time>2019-09-22T09:40:45Z</time>
      </trkpt>
      <trkpt lat="45.71351" lon="4.63215">
        <ele>453.5</ele>
        <time>2019-09-22T09:40:52Z</time>
      </trkpt>
      <trkpt lat="45.71362" lon="4.63218">
        <ele>455</ele>
        <time>2019-09-22T09:40:58Z</time>
      </trkpt>
      <trkpt lat="45.71363" lon="4.63219">
        <ele>455.3</ele>
        <time>2019-09-22T09:40:59Z</time>
      </trkpt>
      <trkpt lat="45.71366" lon="4.6322">
        <ele>455.7</ele>
        <time>2019-09-22T09:41:02Z</time>
      </trkpt>
      <trkpt lat="45.71374" lon="4.63225">
        <ele>456.7</ele>
        <time>2019-09-22T09:41:08Z</time>
      </trkpt>
      <trkpt lat="45.71376" lon="4.63225">
        <ele>456.9</ele>
        <time>2019-09-22T09:41:09Z</time>
      </trkpt>
      <trkpt lat="45.71383" lon="4.63229">
        <ele>457.9</ele>
        <time>2019-09-22T09:41:13Z</time>
      </trkpt>
      <trkpt lat="45.71389" lon="4.63234">
        <ele>458.8</ele>
        <time>2019-09-22T09:41:17Z</time>
      </trkpt>
      <trkpt lat="45.71392" lon="4.63238">
        <ele>459.3</ele>
        <time>2019-09-22T09:41:20Z</time>
      </trkpt>
      <trkpt lat="45.71397" lon="4.63242">
        <ele>460</ele>
        <time>2019-09-22T09:41:24Z</time>
      </trkpt>
      <trkpt lat="45.714" lon="4.63245">
        <ele>460.3</ele>
        <time>2019-09-22T09:41:26Z</time>
      </trkpt>
      <trkpt lat="45.71406" lon="4.63252">
        <ele>461.3</ele>
        <time>2019-09-22T09:41:32Z</time>
      </trkpt>
      <trkpt lat="45.71411" lon="4.63257">
        <ele>462</ele>
        <time>2019-09-22T09:41:36Z</time>
      </trkpt>
      <trkpt lat="45.71414" lon="4.63262">
        <ele>462.9</ele>
        <time>2019-09-22T09:41:39Z</time>
      </trkpt>
      <trkpt lat="45.71415" lon="4.63266">
        <ele>463.4</ele>
        <time>2019-09-22T09:41:41Z</time>
      </trkpt>
      <trkpt lat="45.71418" lon="4.63272">
        <ele>464.1</ele>
        <time>2019-09-22T09:41:45Z</time>
      </trkpt>
      <trkpt lat="45.71418" lon="4.63273">
        <ele>464.3</ele>
        <time>2019-09-22T09:41:46Z</time>
      </trkpt>
      <trkpt lat="45.7142" lon="4.63279">
        <ele>464.9</ele>
        <time>2019-09-22T09:41:49Z</time>
      </trkpt>
      <trkpt lat="45.7142" lon="4.63283">
        <ele>465.2</ele>
        <time>2019-09-22T09:41:51Z</time>
      </trkpt>
      <trkpt lat="45.71421" lon="4.6329">
        <ele>466</ele>
        <time>2019-09-22T09:41:55Z</time>
      </trkpt>
      <trkpt lat="45.71422" lon="4.63293">
        <ele>466.4</ele>
        <time>2019-09-22T09:41:57Z</time>
      </trkpt>
      <trkpt lat="45.71422" lon="4.63297">
        <ele>466.9</ele>
        <time>2019-09-22T09:41:59Z</time>
      </trkpt>
      <trkpt lat="45.71424" lon="4.63309">
        <ele>468.4</ele>
        <time>2019-09-22T09:42:05Z</time>
      </trkpt>
      <trkpt lat="45.71425" lon="4.63316">
        <ele>469.3</ele>
        <time>2019-09-22T09:42:10Z</time>
      </trkpt>
      <trkpt lat="45.71425" lon="4.63319">
        <ele>469.7</ele>
        <time>2019-09-22T09:42:12Z</time>
      </trkpt>
      <trkpt lat="45.71426" lon="4.63326">
        <ele>470.5</ele>
        <time>2019-09-22T09:42:16Z</time>
      </trkpt>
      <trkpt lat="45.71427" lon="4.63327">
        <ele>470.8</ele>
        <time>2019-09-22T09:42:17Z</time>
      </trkpt>
      <trkpt lat="45.71429" lon="4.63333">
        <ele>471.6</ele>
        <time>2019-09-22T09:42:21Z</time>
      </trkpt>
      <trkpt lat="45.7143" lon="4.63337">
        <ele>472</ele>
        <time>2019-09-22T09:42:23Z</time>
      </trkpt>
      <trkpt lat="45.71431" lon="4.63339">
        <ele>472.3</ele>
        <time>2019-09-22T09:42:24Z</time>
      </trkpt>
      <trkpt lat="45.71432" lon="4.63373">
        <ele>476.3</ele>
        <time>2019-09-22T09:42:43Z</time>
      </trkpt>
      <trkpt lat="45.71435" lon="4.63387">
        <ele>477.8</ele>
        <time>2019-09-22T09:42:50Z</time>
      </trkpt>
      <trkpt lat="45.71437" lon="4.6339">
        <ele>478.1</ele>
        <time>2019-09-22T09:42:52Z</time>
      </trkpt>
      <trkpt lat="45.71438" lon="4.63393">
        <ele>478.5</ele>
        <time>2019-09-22T09:42:54Z</time>
      </trkpt>
      <trkpt lat="45.71438" lon="4.63403">
        <ele>479.5</ele>
        <time>2019-09-22T09:42:59Z</time>
      </trkpt>
      <trkpt lat="45.71438" lon="4.63405">
        <ele>479.7</ele>
        <time>2019-09-22T09:43:00Z</time>
      </trkpt>
      <trkpt lat="45.71437" lon="4.63406">
        <ele>479.8</ele>
        <time>2019-09-22T09:43:01Z</time>
      </trkpt>
      <trkpt lat="45.71437" lon="4.63414">
        <ele>480.5</ele>
        <time>2019-09-22T09:43:06Z</time>
      </trkpt>
      <trkpt lat="45.71436" lon="4.6342">
        <ele>480.9</ele>
        <time>2019-09-22T09:43:09Z</time>
      </trkpt>
      <trkpt lat="45.71435" lon="4.63433">
        <ele>481.9</ele>
        <time>2019-09-22T09:43:16Z</time>
      </trkpt>
      <trkpt lat="45.71434" lon="4.63437">
        <ele>482.2</ele>
        <time>2019-09-22T09:43:18Z</time>
      </trkpt>
      <trkpt lat="45.71431" lon="4.6345">
        <ele>483.4</ele>
        <time>2019-09-22T09:43:26Z</time>
      </trkpt>
      <trkpt lat="45.71431" lon="4.63452">
        <ele>483.6</ele>
        <time>2019-09-22T09:43:27Z</time>
      </trkpt>
      <trkpt lat="45.71428" lon="4.63465">
        <ele>485</ele>
        <time>2019-09-22T09:43:34Z</time>
      </trkpt>
      <trkpt lat="45.71427" lon="4.6347">
        <ele>485.4</ele>
        <time>2019-09-22T09:43:36Z</time>
      </trkpt>
      <trkpt lat="45.71426" lon="4.63478">
        <ele>486.2</ele>
        <time>2019-09-22T09:43:40Z</time>
      </trkpt>
      <trkpt lat="45.71425" lon="4.63482">
        <ele>486.5</ele>
        <time>2019-09-22T09:43:42Z</time>
      </trkpt>
      <trkpt lat="45.71424" lon="4.63486">
        <ele>486.9</ele>
        <time>2019-09-22T09:43:44Z</time>
      </trkpt>
      <trkpt lat="45.71421" lon="4.63492">
        <ele>487.5</ele>
        <time>2019-09-22T09:43:47Z</time>
      </trkpt>
      <trkpt lat="45.71419" lon="4.63495">
        <ele>487.8</ele>
        <time>2019-09-22T09:43:49Z</time>
      </trkpt>
      <trkpt lat="45.71417" lon="4.635">
        <ele>488.2</ele>
        <time>2019-09-22T09:43:51Z</time>
      </trkpt>
      <trkpt lat="45.71416" lon="4.63507">
        <ele>488.7</ele>
        <time>2019-09-22T09:43:55Z</time>
      </trkpt>
      <trkpt lat="45.71415" lon="4.63508">
        <ele>488.8</ele>
        <time>2019-09-22T09:43:56Z</time>
      </trkpt>
      <trkpt lat="45.71414" lon="4.63512">
        <ele>489</ele>
        <time>2019-09-22T09:43:58Z</time>
      </trkpt>
      <trkpt lat="45.71412" lon="4.63518">
        <ele>489.4</ele>
        <time>2019-09-22T09:44:02Z</time>
      </trkpt>
      <trkpt lat="45.7141" lon="4.63521">
        <ele>489.7</ele>
        <time>2019-09-22T09:44:04Z</time>
      </trkpt>
      <trkpt lat="45.71407" lon="4.63526">
        <ele>490.2</ele>
        <time>2019-09-22T09:44:08Z</time>
      </trkpt>
      <trkpt lat="45.71404" lon="4.6353">
        <ele>490.5</ele>
        <time>2019-09-22T09:44:11Z</time>
      </trkpt>
      <trkpt lat="45.71401" lon="4.63533">
        <ele>490.8</ele>
        <time>2019-09-22T09:44:13Z</time>
      </trkpt>
      <trkpt lat="45.71394" lon="4.63539">
        <ele>491.5</ele>
        <time>2019-09-22T09:44:19Z</time>
      </trkpt>
      <trkpt lat="45.71382" lon="4.63549">
        <ele>492.5</ele>
        <time>2019-09-22T09:44:27Z</time>
      </trkpt>
      <trkpt lat="45.71381" lon="4.6355">
        <ele>492.6</ele>
        <time>2019-09-22T09:44:28Z</time>
      </trkpt>
      <trkpt lat="45.71373" lon="4.63558">
        <ele>493.3</ele>
        <time>2019-09-22T09:44:35Z</time>
      </trkpt>
      <trkpt lat="45.71369" lon="4.63561">
        <ele>493.6</ele>
        <time>2019-09-22T09:44:38Z</time>
      </trkpt>
      <trkpt lat="45.71364" lon="4.63567">
        <ele>494</ele>
        <time>2019-09-22T09:44:42Z</time>
      </trkpt>
      <trkpt lat="45.7136" lon="4.63573">
        <ele>494.4</ele>
        <time>2019-09-22T09:44:46Z</time>
      </trkpt>
      <trkpt lat="45.71352" lon="4.63581">
        <ele>495</ele>
        <time>2019-09-22T09:44:50Z</time>
      </trkpt>
      <trkpt lat="45.71351" lon="4.63583">
        <ele>495.1</ele>
        <time>2019-09-22T09:44:51Z</time>
      </trkpt>
      <trkpt lat="45.71344" lon="4.63595">
        <ele>495.9</ele>
        <time>2019-09-22T09:44:57Z</time>
      </trkpt>
      <trkpt lat="45.71343" lon="4.63597">
        <ele>496</ele>
        <time>2019-09-22T09:44:58Z</time>
      </trkpt>
      <trkpt lat="45.71337" lon="4.63611">
        <ele>497.6</ele>
        <time>2019-09-22T09:45:04Z</time>
      </trkpt>
      <trkpt lat="45.71326" lon="4.63622">
        <ele>499.7</ele>
        <time>2019-09-22T09:45:11Z</time>
      </trkpt>
      <trkpt lat="45.7132" lon="4.63631">
        <ele>500.9</ele>
        <time>2019-09-22T09:45:16Z</time>
      </trkpt>
      <trkpt lat="45.71317" lon="4.63638">
        <ele>501.6</ele>
        <time>2019-09-22T09:45:19Z</time>
      </trkpt>
      <trkpt lat="45.71308" lon="4.63653">
        <ele>502.4</ele>
        <time>2019-09-22T09:45:26Z</time>
      </trkpt>
      <trkpt lat="45.713" lon="4.63661">
        <ele>502.6</ele>
        <time>2019-09-22T09:45:31Z</time>
      </trkpt>
      <trkpt lat="45.71298" lon="4.63662">
        <ele>502.7</ele>
        <time>2019-09-22T09:45:32Z</time>
      </trkpt>
      <trkpt lat="45.7129" lon="4.63673">
        <ele>502.8</ele>
        <time>2019-09-22T09:45:37Z</time>
      </trkpt>
      <trkpt lat="45.71288" lon="4.63676">
        <ele>502.8</ele>
        <time>2019-09-22T09:45:38Z</time>
      </trkpt>
      <trkpt lat="45.71278" lon="4.63693">
        <ele>502.9</ele>
        <time>2019-09-22T09:45:44Z</time>
      </trkpt>
      <trkpt lat="45.71275" lon="4.63705">
        <ele>502.8</ele>
        <time>2019-09-22T09:45:47Z</time>
      </trkpt>
      <trkpt lat="45.71275" lon="4.63709">
        <ele>502.7</ele>
        <time>2019-09-22T09:45:48Z</time>
      </trkpt>
      <trkpt lat="45.71274" lon="4.63715">
        <ele>502.6</ele>
        <time>2019-09-22T09:45:49Z</time>
      </trkpt>
      <trkpt lat="45.71272" lon="4.63728">
        <ele>502.5</ele>
        <time>2019-09-22T09:45:51Z</time>
      </trkpt>
      <trkpt lat="45.7127" lon="4.63741">
        <ele>502.3</ele>
        <time>2019-09-22T09:45:53Z</time>
      </trkpt>
      <trkpt lat="45.71269" lon="4.63748">
        <ele>502.3</ele>
        <time>2019-09-22T09:45:54Z</time>
      </trkpt>
      <trkpt lat="45.71263" lon="4.63775">
        <ele>502.5</ele>
        <time>2019-09-22T09:45:59Z</time>
      </trkpt>
      <trkpt lat="45.71262" lon="4.63779">
        <ele>502.7</ele>
        <time>2019-09-22T09:46:00Z</time>
      </trkpt>
      <trkpt lat="45.71257" lon="4.63793">
        <ele>503.6</ele>
        <time>2019-09-22T09:46:04Z</time>
      </trkpt>
      <trkpt lat="45.71254" lon="4.6381">
        <ele>505.1</ele>
        <time>2019-09-22T09:46:08Z</time>
      </trkpt>
      <trkpt lat="45.71254" lon="4.63815">
        <ele>505.5</ele>
        <time>2019-09-22T09:46:09Z</time>
      </trkpt>
      <trkpt lat="45.71255" lon="4.63821">
        <ele>505.9</ele>
        <time>2019-09-22T09:46:10Z</time>
      </trkpt>
      <trkpt lat="45.71255" lon="4.63827">
        <ele>506.2</ele>
        <time>2019-09-22T09:46:11Z</time>
      </trkpt>
      <trkpt lat="45.71256" lon="4.63831">
        <ele>506.4</ele>
        <time>2019-09-22T09:46:12Z</time>
      </trkpt>
      <trkpt lat="45.71257" lon="4.63836">
        <ele>506.6</ele>
        <time>2019-09-22T09:46:13Z</time>
      </trkpt>
      <trkpt lat="45.71257" lon="4.63842">
        <ele>506.9</ele>
        <time>2019-09-22T09:46:15Z</time>
      </trkpt>
      <trkpt lat="45.71259" lon="4.63852">
        <ele>507.3</ele>
        <time>2019-09-22T09:46:18Z</time>
      </trkpt>
      <trkpt lat="45.7126" lon="4.6386">
        <ele>507.6</ele>
        <time>2019-09-22T09:46:20Z</time>
      </trkpt>
      <trkpt lat="45.7126" lon="4.63867">
        <ele>507.8</ele>
        <time>2019-09-22T09:46:22Z</time>
      </trkpt>
      <trkpt lat="45.7126" lon="4.6387">
        <ele>507.9</ele>
        <time>2019-09-22T09:46:23Z</time>
      </trkpt>
      <trkpt lat="45.71261" lon="4.63878">
        <ele>508.2</ele>
        <time>2019-09-22T09:46:26Z</time>
      </trkpt>
      <trkpt lat="45.71261" lon="4.63886">
        <ele>508.4</ele>
        <time>2019-09-22T09:46:29Z</time>
      </trkpt>
      <trkpt lat="45.71262" lon="4.63897">
        <ele>509</ele>
        <time>2019-09-22T09:46:33Z</time>
      </trkpt>
      <trkpt lat="45.71263" lon="4.63907">
        <ele>509.5</ele>
        <time>2019-09-22T09:46:36Z</time>
      </trkpt>
      <trkpt lat="45.71265" lon="4.63914">
        <ele>510</ele>
        <time>2019-09-22T09:46:38Z</time>
      </trkpt>
      <trkpt lat="45.71266" lon="4.63923">
        <ele>510.7</ele>
        <time>2019-09-22T09:46:41Z</time>
      </trkpt>
      <trkpt lat="45.71267" lon="4.63931">
        <ele>511.5</ele>
        <time>2019-09-22T09:46:44Z</time>
      </trkpt>
      <trkpt lat="45.71269" lon="4.63939">
        <ele>512.3</ele>
        <time>2019-09-22T09:46:47Z</time>
      </trkpt>
      <trkpt lat="45.7127" lon="4.63945">
        <ele>512.9</ele>
        <time>2019-09-22T09:46:49Z</time>
      </trkpt>
      <trkpt lat="45.71271" lon="4.63949">
        <ele>513.3</ele>
        <time>2019-09-22T09:46:51Z</time>
      </trkpt>
      <trkpt lat="45.71271" lon="4.63951">
        <ele>513.6</ele>
        <time>2019-09-22T09:46:52Z</time>
      </trkpt>
      <trkpt lat="45.71271" lon="4.63959">
        <ele>514.2</ele>
        <time>2019-09-22T09:46:55Z</time>
      </trkpt>
      <trkpt lat="45.71271" lon="4.63964">
        <ele>514.7</ele>
        <time>2019-09-22T09:46:57Z</time>
      </trkpt>
      <trkpt lat="45.71271" lon="4.63967">
        <ele>514.9</ele>
        <time>2019-09-22T09:46:58Z</time>
      </trkpt>
      <trkpt lat="45.71272" lon="4.63974">
        <ele>515.5</ele>
        <time>2019-09-22T09:47:01Z</time>
      </trkpt>
      <trkpt lat="45.71273" lon="4.63979">
        <ele>516</ele>
        <time>2019-09-22T09:47:03Z</time>
      </trkpt>
      <trkpt lat="45.71274" lon="4.63982">
        <ele>516.2</ele>
        <time>2019-09-22T09:47:04Z</time>
      </trkpt>
      <trkpt lat="45.71276" lon="4.63988">
        <ele>516.6</ele>
        <time>2019-09-22T09:47:06Z</time>
      </trkpt>
      <trkpt lat="45.71278" lon="4.64003">
        <ele>517.8</ele>
        <time>2019-09-22T09:47:11Z</time>
      </trkpt>
      <trkpt lat="45.71278" lon="4.64005">
        <ele>518</ele>
        <time>2019-09-22T09:47:12Z</time>
      </trkpt>
      <trkpt lat="45.71277" lon="4.6401">
        <ele>518.4</ele>
        <time>2019-09-22T09:47:14Z</time>
      </trkpt>
      <trkpt lat="45.71277" lon="4.6402">
        <ele>519.1</ele>
        <time>2019-09-22T09:47:18Z</time>
      </trkpt>
      <trkpt lat="45.7128" lon="4.64032">
        <ele>520.1</ele>
        <time>2019-09-22T09:47:23Z</time>
      </trkpt>
      <trkpt lat="45.71282" lon="4.64039">
        <ele>520.7</ele>
        <time>2019-09-22T09:47:26Z</time>
      </trkpt>
      <trkpt lat="45.71284" lon="4.64047">
        <ele>521.3</ele>
        <time>2019-09-22T09:47:29Z</time>
      </trkpt>
      <trkpt lat="45.71284" lon="4.64054">
        <ele>522</ele>
        <time>2019-09-22T09:47:32Z</time>
      </trkpt>
      <trkpt lat="45.71286" lon="4.6406">
        <ele>522.6</ele>
        <time>2019-09-22T09:47:35Z</time>
      </trkpt>
      <trkpt lat="45.71286" lon="4.64064">
        <ele>522.9</ele>
        <time>2019-09-22T09:47:37Z</time>
      </trkpt>
      <trkpt lat="45.71285" lon="4.64072">
        <ele>523.6</ele>
        <time>2019-09-22T09:47:40Z</time>
      </trkpt>
      <trkpt lat="45.71285" lon="4.64074">
        <ele>523.9</ele>
        <time>2019-09-22T09:47:41Z</time>
      </trkpt>
      <trkpt lat="45.71285" lon="4.64077">
        <ele>524.1</ele>
        <time>2019-09-22T09:47:42Z</time>
      </trkpt>
      <trkpt lat="45.71286" lon="4.64083">
        <ele>524.7</ele>
        <time>2019-09-22T09:47:45Z</time>
      </trkpt>
      <trkpt lat="45.71287" lon="4.64089">
        <ele>525.3</ele>
        <time>2019-09-22T09:47:48Z</time>
      </trkpt>
      <trkpt lat="45.71287" lon="4.64093">
        <ele>525.6</ele>
        <time>2019-09-22T09:47:50Z</time>
      </trkpt>
      <trkpt lat="45.71287" lon="4.64101">
        <ele>526.3</ele>
        <time>2019-09-22T09:47:54Z</time>
      </trkpt>
      <trkpt lat="45.71287" lon="4.64103">
        <ele>526.4</ele>
        <time>2019-09-22T09:47:55Z</time>
      </trkpt>
      <trkpt lat="45.71286" lon="4.64107">
        <ele>526.8</ele>
        <time>2019-09-22T09:47:57Z</time>
      </trkpt>
      <trkpt lat="45.71283" lon="4.64118">
        <ele>527.8</ele>
        <time>2019-09-22T09:48:02Z</time>
      </trkpt>
      <trkpt lat="45.7128" lon="4.64129">
        <ele>529.1</ele>
        <time>2019-09-22T09:48:09Z</time>
      </trkpt>
      <trkpt lat="45.71277" lon="4.64139">
        <ele>530.4</ele>
        <time>2019-09-22T09:48:16Z</time>
      </trkpt>
      <trkpt lat="45.71276" lon="4.6414">
        <ele>530.5</ele>
        <time>2019-09-22T09:48:17Z</time>
      </trkpt>
      <trkpt lat="45.71276" lon="4.64152">
        <ele>531.8</ele>
        <time>2019-09-22T09:48:23Z</time>
      </trkpt>
      <trkpt lat="45.71276" lon="4.64153">
        <ele>532</ele>
        <time>2019-09-22T09:48:24Z</time>
      </trkpt>
      <trkpt lat="45.71273" lon="4.64163">
        <ele>533</ele>
        <time>2019-09-22T09:48:30Z</time>
      </trkpt>
      <trkpt lat="45.71273" lon="4.64171">
        <ele>533.9</ele>
        <time>2019-09-22T09:48:35Z</time>
      </trkpt>
      <trkpt lat="45.71272" lon="4.64176">
        <ele>534.4</ele>
        <time>2019-09-22T09:48:38Z</time>
      </trkpt>
      <trkpt lat="45.71272" lon="4.6418">
        <ele>534.8</ele>
        <time>2019-09-22T09:48:40Z</time>
      </trkpt>
      <trkpt lat="45.71268" lon="4.64189">
        <ele>536</ele>
        <time>2019-09-22T09:48:46Z</time>
      </trkpt>
      <trkpt lat="45.71264" lon="4.64202">
        <ele>537.7</ele>
        <time>2019-09-22T09:48:55Z</time>
      </trkpt>
      <trkpt lat="45.71263" lon="4.64203">
        <ele>537.9</ele>
        <time>2019-09-22T09:48:56Z</time>
      </trkpt>
      <trkpt lat="45.71261" lon="4.64213">
        <ele>539.2</ele>
        <time>2019-09-22T09:49:02Z</time>
      </trkpt>
      <trkpt lat="45.7126" lon="4.64215">
        <ele>539.4</ele>
        <time>2019-09-22T09:49:03Z</time>
      </trkpt>
      <trkpt lat="45.71259" lon="4.64221">
        <ele>540</ele>
        <time>2019-09-22T09:49:06Z</time>
      </trkpt>
      <trkpt lat="45.71257" lon="4.64224">
        <ele>540.4</ele>
        <time>2019-09-22T09:49:08Z</time>
      </trkpt>
      <trkpt lat="45.71254" lon="4.64231">
        <ele>541.3</ele>
        <time>2019-09-22T09:49:13Z</time>
      </trkpt>
      <trkpt lat="45.71253" lon="4.64234">
        <ele>541.7</ele>
        <time>2019-09-22T09:49:15Z</time>
      </trkpt>
      <trkpt lat="45.71249" lon="4.64243">
        <ele>542.8</ele>
        <time>2019-09-22T09:49:22Z</time>
      </trkpt>
      <trkpt lat="45.71244" lon="4.64252">
        <ele>543.9</ele>
        <time>2019-09-22T09:49:29Z</time>
      </trkpt>
      <trkpt lat="45.71241" lon="4.64257">
        <ele>544.5</ele>
        <time>2019-09-22T09:49:33Z</time>
      </trkpt>
      <trkpt lat="45.71239" lon="4.64263">
        <ele>545.1</ele>
        <time>2019-09-22T09:49:37Z</time>
      </trkpt>
      <trkpt lat="45.71238" lon="4.64264">
        <ele>545.3</ele>
        <time>2019-09-22T09:49:38Z</time>
      </trkpt>
      <trkpt lat="45.71235" lon="4.64273">
        <ele>546.3</ele>
        <time>2019-09-22T09:49:44Z</time>
      </trkpt>
      <trkpt lat="45.71234" lon="4.64276">
        <ele>546.6</ele>
        <time>2019-09-22T09:49:46Z</time>
      </trkpt>
      <trkpt lat="45.71231" lon="4.64283">
        <ele>547.2</ele>
        <time>2019-09-22T09:49:50Z</time>
      </trkpt>
      <trkpt lat="45.71229" lon="4.64286">
        <ele>547.6</ele>
        <time>2019-09-22T09:49:52Z</time>
      </trkpt>
      <trkpt lat="45.71223" lon="4.64296">
        <ele>548.5</ele>
        <time>2019-09-22T09:49:59Z</time>
      </trkpt>
      <trkpt lat="45.71223" lon="4.64298">
        <ele>548.6</ele>
        <time>2019-09-22T09:50:00Z</time>
      </trkpt>
      <trkpt lat="45.71219" lon="4.64304">
        <ele>549.2</ele>
        <time>2019-09-22T09:50:05Z</time>
      </trkpt>
      <trkpt lat="45.71218" lon="4.64306">
        <ele>549.3</ele>
        <time>2019-09-22T09:50:06Z</time>
      </trkpt>
      <trkpt lat="45.71212" lon="4.64318">
        <ele>550.3</ele>
        <time>2019-09-22T09:50:13Z</time>
      </trkpt>
      <trkpt lat="45.71205" lon="4.64328">
        <ele>551.6</ele>
        <time>2019-09-22T09:50:20Z</time>
      </trkpt>
      <trkpt lat="45.71204" lon="4.6433">
        <ele>551.8</ele>
        <time>2019-09-22T09:50:21Z</time>
      </trkpt>
      <trkpt lat="45.71195" lon="4.64346">
        <ele>553.1</ele>
        <time>2019-09-22T09:50:30Z</time>
      </trkpt>
      <trkpt lat="45.71184" lon="4.64364">
        <ele>553.8</ele>
        <time>2019-09-22T09:50:39Z</time>
      </trkpt>
      <trkpt lat="45.71176" lon="4.64381">
        <ele>553.2</ele>
        <time>2019-09-22T09:50:46Z</time>
      </trkpt>
      <trkpt lat="45.71172" lon="4.64389">
        <ele>552.5</ele>
        <time>2019-09-22T09:52:08Z</time>
      </trkpt>
      <trkpt lat="45.7117" lon="4.64398">
        <ele>551.5</ele>
        <time>2019-09-22T09:52:11Z</time>
      </trkpt>
      <trkpt lat="45.71167" lon="4.64411">
        <ele>550</ele>
        <time>2019-09-22T09:52:14Z</time>
      </trkpt>
      <trkpt lat="45.71158" lon="4.6442">
        <ele>548.5</ele>
        <time>2019-09-22T09:52:17Z</time>
      </trkpt>
      <trkpt lat="45.71137" lon="4.64424">
        <ele>547</ele>
        <time>2019-09-22T09:52:22Z</time>
      </trkpt>
      <trkpt lat="45.71133" lon="4.64425">
        <ele>546.9</ele>
        <time>2019-09-22T09:52:23Z</time>
      </trkpt>
      <trkpt lat="45.71107" lon="4.64437">
        <ele>545.7</ele>
        <time>2019-09-22T09:52:29Z</time>
      </trkpt>
      <trkpt lat="45.71096" lon="4.64442">
        <ele>545.3</ele>
        <time>2019-09-22T09:52:31Z</time>
      </trkpt>
      <trkpt lat="45.71083" lon="4.64456">
        <ele>544.5</ele>
        <time>2019-09-22T09:52:34Z</time>
      </trkpt>
      <trkpt lat="45.71078" lon="4.64461">
        <ele>544.3</ele>
        <time>2019-09-22T09:52:35Z</time>
      </trkpt>
      <trkpt lat="45.71064" lon="4.64481">
        <ele>543.9</ele>
        <time>2019-09-22T09:52:38Z</time>
      </trkpt>
      <trkpt lat="45.71059" lon="4.64487">
        <ele>544.1</ele>
        <time>2019-09-22T09:52:39Z</time>
      </trkpt>
      <trkpt lat="45.71056" lon="4.64492">
        <ele>544.3</ele>
        <time>2019-09-22T09:52:40Z</time>
      </trkpt>
      <trkpt lat="45.71055" lon="4.64499">
        <ele>544.6</ele>
        <time>2019-09-22T09:52:42Z</time>
      </trkpt>
      <trkpt lat="45.71056" lon="4.64504">
        <ele>544.9</ele>
        <time>2019-09-22T09:52:44Z</time>
      </trkpt>
      <trkpt lat="45.7104" lon="4.64624">
        <ele>549.9</ele>
        <time>2019-09-22T09:53:50Z</time>
      </trkpt>
      <trkpt lat="45.71037" lon="4.64636">
        <ele>550.3</ele>
        <time>2019-09-22T09:53:56Z</time>
      </trkpt>
      <trkpt lat="45.71034" lon="4.64652">
        <ele>550.8</ele>
        <time>2019-09-22T09:54:05Z</time>
      </trkpt>
      <trkpt lat="45.71033" lon="4.64685">
        <ele>552.2</ele>
        <time>2019-09-22T09:54:23Z</time>
      </trkpt>
      <trkpt lat="45.71035" lon="4.6469">
        <ele>552.6</ele>
        <time>2019-09-22T09:54:26Z</time>
      </trkpt>
      <trkpt lat="45.71036" lon="4.64692">
        <ele>552.8</ele>
        <time>2019-09-22T09:54:27Z</time>
      </trkpt>
      <trkpt lat="45.71048" lon="4.64715">
        <ele>554.3</ele>
        <time>2019-09-22T09:54:43Z</time>
      </trkpt>
      <trkpt lat="45.71053" lon="4.64725">
        <ele>554.8</ele>
        <time>2019-09-22T09:54:48Z</time>
      </trkpt>
      <trkpt lat="45.71053" lon="4.64728">
        <ele>554.9</ele>
        <time>2019-09-22T09:54:49Z</time>
      </trkpt>
      <trkpt lat="45.71055" lon="4.64732">
        <ele>555.1</ele>
        <time>2019-09-22T09:54:51Z</time>
      </trkpt>
      <trkpt lat="45.71058" lon="4.64739">
        <ele>555.4</ele>
        <time>2019-09-22T09:54:55Z</time>
      </trkpt>
      <trkpt lat="45.7106" lon="4.64745">
        <ele>555.7</ele>
        <time>2019-09-22T09:54:58Z</time>
      </trkpt>
      <trkpt lat="45.7106" lon="4.64751">
        <ele>555.9</ele>
        <time>2019-09-22T09:55:01Z</time>
      </trkpt>
      <trkpt lat="45.71063" lon="4.64763">
        <ele>556.4</ele>
        <time>2019-09-22T09:55:08Z</time>
      </trkpt>
      <trkpt lat="45.71064" lon="4.64775">
        <ele>556.8</ele>
        <time>2019-09-22T09:55:14Z</time>
      </trkpt>
      <trkpt lat="45.71066" lon="4.64786">
        <ele>557.4</ele>
        <time>2019-09-22T09:55:20Z</time>
      </trkpt>
      <trkpt lat="45.71068" lon="4.6479">
        <ele>557.5</ele>
        <time>2019-09-22T09:55:22Z</time>
      </trkpt>
      <trkpt lat="45.7107" lon="4.64799">
        <ele>558</ele>
        <time>2019-09-22T09:55:26Z</time>
      </trkpt>
      <trkpt lat="45.71071" lon="4.64804">
        <ele>558.3</ele>
        <time>2019-09-22T09:55:29Z</time>
      </trkpt>
      <trkpt lat="45.71072" lon="4.64806">
        <ele>558.4</ele>
        <time>2019-09-22T09:55:30Z</time>
      </trkpt>
      <trkpt lat="45.71075" lon="4.64822">
        <ele>559.1</ele>
        <time>2019-09-22T09:55:37Z</time>
      </trkpt>
      <trkpt lat="45.71076" lon="4.64824">
        <ele>559.2</ele>
        <time>2019-09-22T09:55:38Z</time>
      </trkpt>
      <trkpt lat="45.71078" lon="4.6484">
        <ele>559.9</ele>
        <time>2019-09-22T09:55:45Z</time>
      </trkpt>
      <trkpt lat="45.71079" lon="4.64842">
        <ele>559.9</ele>
        <time>2019-09-22T09:55:46Z</time>
      </trkpt>
      <trkpt lat="45.7108" lon="4.64861">
        <ele>560.5</ele>
        <time>2019-09-22T09:55:54Z</time>
      </trkpt>
      <trkpt lat="45.71082" lon="4.64873">
        <ele>560.8</ele>
        <time>2019-09-22T09:55:59Z</time>
      </trkpt>
      <trkpt lat="45.71082" lon="4.64875">
        <ele>560.9</ele>
        <time>2019-09-22T09:56:00Z</time>
      </trkpt>
      <trkpt lat="45.7108" lon="4.64888">
        <ele>561.2</ele>
        <time>2019-09-22T09:56:06Z</time>
      </trkpt>
      <trkpt lat="45.71078" lon="4.64891">
        <ele>561.3</ele>
        <time>2019-09-22T09:56:08Z</time>
      </trkpt>
      <trkpt lat="45.71073" lon="4.64892">
        <ele>561.4</ele>
        <time>2019-09-22T09:56:10Z</time>
      </trkpt>
      <trkpt lat="45.71066" lon="4.6489">
        <ele>562.1</ele>
        <time>2019-09-22T09:56:12Z</time>
      </trkpt>
      <trkpt lat="45.71046" lon="4.6489">
        <ele>563.1</ele>
        <time>2019-09-22T09:56:19Z</time>
      </trkpt>
      <trkpt lat="45.71032" lon="4.64891">
        <ele>563.7</ele>
        <time>2019-09-22T09:56:24Z</time>
      </trkpt>
      <trkpt lat="45.71026" lon="4.64892">
        <ele>563.9</ele>
        <time>2019-09-22T09:56:26Z</time>
      </trkpt>
      <trkpt lat="45.71002" lon="4.64893">
        <ele>564.9</ele>
        <time>2019-09-22T09:56:34Z</time>
      </trkpt>
      <trkpt lat="45.70987" lon="4.649">
        <ele>565.5</ele>
        <time>2019-09-22T09:56:39Z</time>
      </trkpt>
      <trkpt lat="45.70984" lon="4.64901">
        <ele>565.6</ele>
        <time>2019-09-22T09:56:40Z</time>
      </trkpt>
      <trkpt lat="45.70964" lon="4.64909">
        <ele>566.7</ele>
        <time>2019-09-22T09:56:47Z</time>
      </trkpt>
      <trkpt lat="45.70961" lon="4.6491">
        <ele>566.9</ele>
        <time>2019-09-22T09:56:48Z</time>
      </trkpt>
      <trkpt lat="45.70939" lon="4.64906">
        <ele>568.4</ele>
        <time>2019-09-22T09:56:54Z</time>
      </trkpt>
      <trkpt lat="45.70932" lon="4.64901">
        <ele>568.7</ele>
        <time>2019-09-22T09:56:56Z</time>
      </trkpt>
      <trkpt lat="45.70922" lon="4.64892">
        <ele>569.2</ele>
        <time>2019-09-22T09:56:59Z</time>
      </trkpt>
      <trkpt lat="45.70902" lon="4.64875">
        <ele>570</ele>
        <time>2019-09-22T09:57:05Z</time>
      </trkpt>
      <trkpt lat="45.70896" lon="4.64868">
        <ele>570.2</ele>
        <time>2019-09-22T09:57:07Z</time>
      </trkpt>
      <trkpt lat="45.70879" lon="4.64853">
        <ele>571.1</ele>
        <time>2019-09-22T09:57:12Z</time>
      </trkpt>
      <trkpt lat="45.70873" lon="4.64856">
        <ele>571.3</ele>
        <time>2019-09-22T09:57:14Z</time>
      </trkpt>
      <trkpt lat="45.70871" lon="4.64859">
        <ele>571.3</ele>
        <time>2019-09-22T09:57:15Z</time>
      </trkpt>
      <trkpt lat="45.70871" lon="4.64873">
        <ele>571.3</ele>
        <time>2019-09-22T09:57:18Z</time>
      </trkpt>
      <trkpt lat="45.70871" lon="4.64892">
        <ele>571</ele>
        <time>2019-09-22T09:57:21Z</time>
      </trkpt>
      <trkpt lat="45.7087" lon="4.64903">
        <ele>570.8</ele>
        <time>2019-09-22T09:57:23Z</time>
      </trkpt>
      <trkpt lat="45.70869" lon="4.64925">
        <ele>569.9</ele>
        <time>2019-09-22T09:57:27Z</time>
      </trkpt>
      <trkpt lat="45.70867" lon="4.64929">
        <ele>569.7</ele>
        <time>2019-09-22T09:57:28Z</time>
      </trkpt>
      <trkpt lat="45.7086" lon="4.64929">
        <ele>569.3</ele>
        <time>2019-09-22T09:57:31Z</time>
      </trkpt>
      <trkpt lat="45.70853" lon="4.6492">
        <ele>568.9</ele>
        <time>2019-09-22T09:57:34Z</time>
      </trkpt>
      <trkpt lat="45.70848" lon="4.64912">
        <ele>568.6</ele>
        <time>2019-09-22T09:57:36Z</time>
      </trkpt>
      <trkpt lat="45.70828" lon="4.64883">
        <ele>568.5</ele>
        <time>2019-09-22T09:57:43Z</time>
      </trkpt>
      <trkpt lat="45.70809" lon="4.6485">
        <ele>568.6</ele>
        <time>2019-09-22T09:57:50Z</time>
      </trkpt>
      <trkpt lat="45.70798" lon="4.64839">
        <ele>568.9</ele>
        <time>2019-09-22T09:57:55Z</time>
      </trkpt>
      <trkpt lat="45.70787" lon="4.64846">
        <ele>569.5</ele>
        <time>2019-09-22T09:57:59Z</time>
      </trkpt>
      <trkpt lat="45.70784" lon="4.64848">
        <ele>569.6</ele>
        <time>2019-09-22T09:58:00Z</time>
      </trkpt>
      <trkpt lat="45.70774" lon="4.64859">
        <ele>569.9</ele>
        <time>2019-09-22T09:58:03Z</time>
      </trkpt>
      <trkpt lat="45.70772" lon="4.64864">
        <ele>570</ele>
        <time>2019-09-22T09:58:04Z</time>
      </trkpt>
      <trkpt lat="45.70765" lon="4.64888">
        <ele>569.9</ele>
        <time>2019-09-22T09:58:07Z</time>
      </trkpt>
      <trkpt lat="45.70762" lon="4.64897">
        <ele>569.9</ele>
        <time>2019-09-22T09:58:08Z</time>
      </trkpt>
      <trkpt lat="45.70748" lon="4.64921">
        <ele>569.8</ele>
        <time>2019-09-22T09:58:11Z</time>
      </trkpt>
      <trkpt lat="45.70743" lon="4.64928">
        <ele>569.7</ele>
        <time>2019-09-22T09:58:12Z</time>
      </trkpt>
      <trkpt lat="45.70726" lon="4.64943">
        <ele>569.6</ele>
        <time>2019-09-22T09:58:15Z</time>
      </trkpt>
      <trkpt lat="45.7072" lon="4.64944">
        <ele>569.5</ele>
        <time>2019-09-22T09:58:16Z</time>
      </trkpt>
      <trkpt lat="45.70702" lon="4.64948">
        <ele>569.4</ele>
        <time>2019-09-22T09:58:19Z</time>
      </trkpt>
      <trkpt lat="45.70697" lon="4.64953">
        <ele>569.4</ele>
        <time>2019-09-22T09:58:20Z</time>
      </trkpt>
      <trkpt lat="45.70683" lon="4.64973">
        <ele>569.3</ele>
        <time>2019-09-22T09:58:23Z</time>
      </trkpt>
      <trkpt lat="45.70678" lon="4.6498">
        <ele>569.3</ele>
        <time>2019-09-22T09:58:24Z</time>
      </trkpt>
      <trkpt lat="45.70674" lon="4.64987">
        <ele>569.3</ele>
        <time>2019-09-22T09:58:25Z</time>
      </trkpt>
      <trkpt lat="45.70668" lon="4.64992">
        <ele>569.4</ele>
        <time>2019-09-22T09:58:26Z</time>
      </trkpt>
      <trkpt lat="45.70662" lon="4.64996">
        <ele>569.4</ele>
        <time>2019-09-22T09:58:27Z</time>
      </trkpt>
      <trkpt lat="45.70656" lon="4.64999">
        <ele>569.5</ele>
        <time>2019-09-22T09:58:28Z</time>
      </trkpt>
      <trkpt lat="45.70649" lon="4.65002">
        <ele>569.7</ele>
        <time>2019-09-22T09:58:29Z</time>
      </trkpt>
      <trkpt lat="45.70635" lon="4.65004">
        <ele>570</ele>
        <time>2019-09-22T09:58:31Z</time>
      </trkpt>
      <trkpt lat="45.70628" lon="4.65003">
        <ele>570.2</ele>
        <time>2019-09-22T09:58:32Z</time>
      </trkpt>
      <trkpt lat="45.70622" lon="4.65002">
        <ele>570.3</ele>
        <time>2019-09-22T09:58:33Z</time>
      </trkpt>
      <trkpt lat="45.70615" lon="4.65">
        <ele>570.4</ele>
        <time>2019-09-22T09:58:35Z</time>
      </trkpt>
      <trkpt lat="45.70612" lon="4.64998">
        <ele>570.5</ele>
        <time>2019-09-22T09:58:36Z</time>
      </trkpt>
      <trkpt lat="45.7061" lon="4.64994">
        <ele>570.5</ele>
        <time>2019-09-22T09:58:37Z</time>
      </trkpt>
      <trkpt lat="45.70606" lon="4.64989">
        <ele>570.6</ele>
        <time>2019-09-22T09:58:39Z</time>
      </trkpt>
      <trkpt lat="45.70605" lon="4.64986">
        <ele>570.6</ele>
        <time>2019-09-22T09:58:40Z</time>
      </trkpt>
      <trkpt lat="45.70591" lon="4.64966">
        <ele>570.8</ele>
        <time>2019-09-22T09:58:48Z</time>
      </trkpt>
      <trkpt lat="45.70576" lon="4.64946">
        <ele>570.8</ele>
        <time>2019-09-22T09:58:55Z</time>
      </trkpt>
      <trkpt lat="45.70573" lon="4.64941">
        <ele>570.8</ele>
        <time>2019-09-22T09:58:56Z</time>
      </trkpt>
      <trkpt lat="45.70564" lon="4.64928">
        <ele>570.7</ele>
        <time>2019-09-22T09:58:59Z</time>
      </trkpt>
      <trkpt lat="45.7056" lon="4.64927">
        <ele>570.7</ele>
        <time>2019-09-22T09:59:00Z</time>
      </trkpt>
      <trkpt lat="45.70553" lon="4.64928">
        <ele>570.6</ele>
        <time>2019-09-22T09:59:02Z</time>
      </trkpt>
      <trkpt lat="45.70548" lon="4.64926">
        <ele>570.6</ele>
        <time>2019-09-22T09:59:04Z</time>
      </trkpt>
      <trkpt lat="45.70541" lon="4.64919">
        <ele>570.5</ele>
        <time>2019-09-22T09:59:07Z</time>
      </trkpt>
      <trkpt lat="45.7053" lon="4.64904">
        <ele>570.6</ele>
        <time>2019-09-22T09:59:14Z</time>
      </trkpt>
      <trkpt lat="45.70518" lon="4.64889">
        <ele>570.7</ele>
        <time>2019-09-22T09:59:20Z</time>
      </trkpt>
      <trkpt lat="45.70503" lon="4.64866">
        <ele>571.2</ele>
        <time>2019-09-22T09:59:27Z</time>
      </trkpt>
      <trkpt lat="45.70496" lon="4.64857">
        <ele>571.3</ele>
        <time>2019-09-22T09:59:30Z</time>
      </trkpt>
      <trkpt lat="45.70486" lon="4.64841">
        <ele>571.2</ele>
        <time>2019-09-22T09:59:34Z</time>
      </trkpt>
      <trkpt lat="45.70465" lon="4.6482">
        <ele>570.1</ele>
        <time>2019-09-22T09:59:38Z</time>
      </trkpt>
      <trkpt lat="45.70462" lon="4.64815">
        <ele>569.9</ele>
        <time>2019-09-22T09:59:39Z</time>
      </trkpt>
      <trkpt lat="45.70459" lon="4.6481">
        <ele>569.6</ele>
        <time>2019-09-22T09:59:40Z</time>
      </trkpt>
      <trkpt lat="45.70455" lon="4.64797">
        <ele>569</ele>
        <time>2019-09-22T09:59:42Z</time>
      </trkpt>
      <trkpt lat="45.70452" lon="4.64783">
        <ele>568.5</ele>
        <time>2019-09-22T09:59:44Z</time>
      </trkpt>
      <trkpt lat="45.7045" lon="4.64777">
        <ele>568.3</ele>
        <time>2019-09-22T09:59:45Z</time>
      </trkpt>
      <trkpt lat="45.70448" lon="4.64772">
        <ele>568.1</ele>
        <time>2019-09-22T09:59:46Z</time>
      </trkpt>
      <trkpt lat="45.7044" lon="4.64757">
        <ele>567.4</ele>
        <time>2019-09-22T09:59:49Z</time>
      </trkpt>
      <trkpt lat="45.70437" lon="4.64751">
        <ele>567.1</ele>
        <time>2019-09-22T09:59:50Z</time>
      </trkpt>
      <trkpt lat="45.7042" lon="4.64723">
        <ele>565</ele>
        <time>2019-09-22T09:59:55Z</time>
      </trkpt>
      <trkpt lat="45.70405" lon="4.647">
        <ele>563.5</ele>
        <time>2019-09-22T09:59:59Z</time>
      </trkpt>
      <trkpt lat="45.70403" lon="4.64695">
        <ele>563.3</ele>
        <time>2019-09-22T10:00:00Z</time>
      </trkpt>
      <trkpt lat="45.70398" lon="4.64688">
        <ele>563.2</ele>
        <time>2019-09-22T10:00:03Z</time>
      </trkpt>
      <trkpt lat="45.70397" lon="4.64687">
        <ele>563.3</ele>
        <time>2019-09-22T10:00:04Z</time>
      </trkpt>
      <trkpt lat="45.70393" lon="4.64687">
        <ele>563.3</ele>
        <time>2019-09-22T10:00:07Z</time>
      </trkpt>
      <trkpt lat="45.70391" lon="4.64687">
        <ele>563.4</ele>
        <time>2019-09-22T10:00:08Z</time>
      </trkpt>
      <trkpt lat="45.70381" lon="4.64688">
        <ele>563.6</ele>
        <time>2019-09-22T10:00:13Z</time>
      </trkpt>
      <trkpt lat="45.70378" lon="4.64686">
        <ele>563.7</ele>
        <time>2019-09-22T10:00:14Z</time>
      </trkpt>
      <trkpt lat="45.70361" lon="4.64681">
        <ele>564.2</ele>
        <time>2019-09-22T10:00:20Z</time>
      </trkpt>
      <trkpt lat="45.70357" lon="4.6468">
        <ele>564.3</ele>
        <time>2019-09-22T10:00:22Z</time>
      </trkpt>
      <trkpt lat="45.70347" lon="4.64678">
        <ele>564.5</ele>
        <time>2019-09-22T10:00:26Z</time>
      </trkpt>
      <trkpt lat="45.70335" lon="4.64675">
        <ele>564.8</ele>
        <time>2019-09-22T10:00:31Z</time>
      </trkpt>
      <trkpt lat="45.70332" lon="4.64674">
        <ele>564.8</ele>
        <time>2019-09-22T10:00:32Z</time>
      </trkpt>
      <trkpt lat="45.70321" lon="4.64674">
        <ele>564.8</ele>
        <time>2019-09-22T10:00:35Z</time>
      </trkpt>
      <trkpt lat="45.70314" lon="4.64675">
        <ele>564.8</ele>
        <time>2019-09-22T10:00:37Z</time>
      </trkpt>
      <trkpt lat="45.70312" lon="4.64676">
        <ele>564.8</ele>
        <time>2019-09-22T10:00:38Z</time>
      </trkpt>
      <trkpt lat="45.70307" lon="4.64679">
        <ele>564.7</ele>
        <time>2019-09-22T10:00:40Z</time>
      </trkpt>
      <trkpt lat="45.70305" lon="4.64682">
        <ele>564.6</ele>
        <time>2019-09-22T10:00:41Z</time>
      </trkpt>
      <trkpt lat="45.70303" lon="4.64685">
        <ele>564.6</ele>
        <time>2019-09-22T10:00:42Z</time>
      </trkpt>
      <trkpt lat="45.70299" lon="4.64691">
        <ele>564.5</ele>
        <time>2019-09-22T10:00:44Z</time>
      </trkpt>
      <trkpt lat="45.70294" lon="4.64695">
        <ele>564.3</ele>
        <time>2019-09-22T10:00:46Z</time>
      </trkpt>
      <trkpt lat="45.70292" lon="4.64698">
        <ele>564.3</ele>
        <time>2019-09-22T10:00:47Z</time>
      </trkpt>
      <trkpt lat="45.7029" lon="4.64704">
        <ele>564.1</ele>
        <time>2019-09-22T10:00:50Z</time>
      </trkpt>
      <trkpt lat="45.70289" lon="4.64706">
        <ele>564.1</ele>
        <time>2019-09-22T10:00:51Z</time>
      </trkpt>
      <trkpt lat="45.70264" lon="4.64736">
        <ele>561</ele>
        <time>2019-09-22T10:01:13Z</time>
      </trkpt>
      <trkpt lat="45.70259" lon="4.64737">
        <ele>560.7</ele>
        <time>2019-09-22T10:01:16Z</time>
      </trkpt>
      <trkpt lat="45.70258" lon="4.64737">
        <ele>560.6</ele>
        <time>2019-09-22T10:01:17Z</time>
      </trkpt>
      <trkpt lat="45.70198" lon="4.64771">
        <ele>564.7</ele>
        <time>2019-09-22T10:02:14Z</time>
      </trkpt>
      <trkpt lat="45.70192" lon="4.64773">
        <ele>565.2</ele>
        <time>2019-09-22T10:02:17Z</time>
      </trkpt>
      <trkpt lat="45.70186" lon="4.64774">
        <ele>566</ele>
        <time>2019-09-22T10:02:21Z</time>
      </trkpt>
      <trkpt lat="45.70182" lon="4.64775">
        <ele>566.5</ele>
        <time>2019-09-22T10:02:24Z</time>
      </trkpt>
      <trkpt lat="45.7015" lon="4.64781">
        <ele>571</ele>
        <time>2019-09-22T10:02:46Z</time>
      </trkpt>
      <trkpt lat="45.70145" lon="4.64782">
        <ele>571.2</ele>
        <time>2019-09-22T10:02:49Z</time>
      </trkpt>
      <trkpt lat="45.70144" lon="4.64783">
        <ele>571.3</ele>
        <time>2019-09-22T10:02:50Z</time>
      </trkpt>
      <trkpt lat="45.7013" lon="4.64791">
        <ele>571</ele>
        <time>2019-09-22T10:03:14Z</time>
      </trkpt>
      <trkpt lat="45.70126" lon="4.64795">
        <ele>570.7</ele>
        <time>2019-09-22T10:03:16Z</time>
      </trkpt>
      <trkpt lat="45.7011" lon="4.64808">
        <ele>569.5</ele>
        <time>2019-09-22T10:03:21Z</time>
      </trkpt>
      <trkpt lat="45.70101" lon="4.64817">
        <ele>569.4</ele>
        <time>2019-09-22T10:03:23Z</time>
      </trkpt>
      <trkpt lat="45.70087" lon="4.6483">
        <ele>568.9</ele>
        <time>2019-09-22T10:03:26Z</time>
      </trkpt>
      <trkpt lat="45.70074" lon="4.64835">
        <ele>567.6</ele>
        <time>2019-09-22T10:03:29Z</time>
      </trkpt>
      <trkpt lat="45.70065" lon="4.6484">
        <ele>566.6</ele>
        <time>2019-09-22T10:03:31Z</time>
      </trkpt>
      <trkpt lat="45.7006" lon="4.64845">
        <ele>566.1</ele>
        <time>2019-09-22T10:03:32Z</time>
      </trkpt>
      <trkpt lat="45.70055" lon="4.64849">
        <ele>565.5</ele>
        <time>2019-09-22T10:03:33Z</time>
      </trkpt>
      <trkpt lat="45.70044" lon="4.64858">
        <ele>564.2</ele>
        <time>2019-09-22T10:03:35Z</time>
      </trkpt>
      <trkpt lat="45.70033" lon="4.64869">
        <ele>562.5</ele>
        <time>2019-09-22T10:03:37Z</time>
      </trkpt>
      <trkpt lat="45.70023" lon="4.6488">
        <ele>560.7</ele>
        <time>2019-09-22T10:03:39Z</time>
      </trkpt>
      <trkpt lat="45.7002" lon="4.64887">
        <ele>559.9</ele>
        <time>2019-09-22T10:03:40Z</time>
      </trkpt>
      <trkpt lat="45.70017" lon="4.64893">
        <ele>559.1</ele>
        <time>2019-09-22T10:03:41Z</time>
      </trkpt>
      <trkpt lat="45.70014" lon="4.64897">
        <ele>558.5</ele>
        <time>2019-09-22T10:03:42Z</time>
      </trkpt>
      <trkpt lat="45.70007" lon="4.64904">
        <ele>557.3</ele>
        <time>2019-09-22T10:03:44Z</time>
      </trkpt>
      <trkpt lat="45.69999" lon="4.64912">
        <ele>556.2</ele>
        <time>2019-09-22T10:03:46Z</time>
      </trkpt>
      <trkpt lat="45.69994" lon="4.64915">
        <ele>555.8</ele>
        <time>2019-09-22T10:03:47Z</time>
      </trkpt>
      <trkpt lat="45.69989" lon="4.64918">
        <ele>555.5</ele>
        <time>2019-09-22T10:03:48Z</time>
      </trkpt>
      <trkpt lat="45.69984" lon="4.64922">
        <ele>555.1</ele>
        <time>2019-09-22T10:03:49Z</time>
      </trkpt>
      <trkpt lat="45.69979" lon="4.64926">
        <ele>554.6</ele>
        <time>2019-09-22T10:03:50Z</time>
      </trkpt>
      <trkpt lat="45.69967" lon="4.64932">
        <ele>553.5</ele>
        <time>2019-09-22T10:03:52Z</time>
      </trkpt>
      <trkpt lat="45.69955" lon="4.64936">
        <ele>552.3</ele>
        <time>2019-09-22T10:03:54Z</time>
      </trkpt>
      <trkpt lat="45.69943" lon="4.64934">
        <ele>550.8</ele>
        <time>2019-09-22T10:03:56Z</time>
      </trkpt>
      <trkpt lat="45.69933" lon="4.64935">
        <ele>549.4</ele>
        <time>2019-09-22T10:03:58Z</time>
      </trkpt>
      <trkpt lat="45.69927" lon="4.64938">
        <ele>548.4</ele>
        <time>2019-09-22T10:04:00Z</time>
      </trkpt>
      <trkpt lat="45.69924" lon="4.6494">
        <ele>547.8</ele>
        <time>2019-09-22T10:04:02Z</time>
      </trkpt>
      <trkpt lat="45.69919" lon="4.64945">
        <ele>546.8</ele>
        <time>2019-09-22T10:04:04Z</time>
      </trkpt>
      <trkpt lat="45.69912" lon="4.64947">
        <ele>544.7</ele>
        <time>2019-09-22T10:04:06Z</time>
      </trkpt>
      <trkpt lat="45.69901" lon="4.64943">
        <ele>542.4</ele>
        <time>2019-09-22T10:04:09Z</time>
      </trkpt>
      <trkpt lat="45.69899" lon="4.64943">
        <ele>541.9</ele>
        <time>2019-09-22T10:04:10Z</time>
      </trkpt>
      <trkpt lat="45.69896" lon="4.64943">
        <ele>541.4</ele>
        <time>2019-09-22T10:04:11Z</time>
      </trkpt>
      <trkpt lat="45.69893" lon="4.64941">
        <ele>540.7</ele>
        <time>2019-09-22T10:04:13Z</time>
      </trkpt>
      <trkpt lat="45.69888" lon="4.64939">
        <ele>539.8</ele>
        <time>2019-09-22T10:04:16Z</time>
      </trkpt>
      <trkpt lat="45.69881" lon="4.64938">
        <ele>538.5</ele>
        <time>2019-09-22T10:04:28Z</time>
      </trkpt>
      <trkpt lat="45.6988" lon="4.64938">
        <ele>538.2</ele>
        <time>2019-09-22T10:04:29Z</time>
      </trkpt>
      <trkpt lat="45.69874" lon="4.64944">
        <ele>536.9</ele>
        <time>2019-09-22T10:04:33Z</time>
      </trkpt>
      <trkpt lat="45.69873" lon="4.64946">
        <ele>536.7</ele>
        <time>2019-09-22T10:04:34Z</time>
      </trkpt>
      <trkpt lat="45.69869" lon="4.6495">
        <ele>535.8</ele>
        <time>2019-09-22T10:04:37Z</time>
      </trkpt>
      <trkpt lat="45.69863" lon="4.64954">
        <ele>534.4</ele>
        <time>2019-09-22T10:04:40Z</time>
      </trkpt>
      <trkpt lat="45.69856" lon="4.64959">
        <ele>533.1</ele>
        <time>2019-09-22T10:04:43Z</time>
      </trkpt>
      <trkpt lat="45.69854" lon="4.64962">
        <ele>532.6</ele>
        <time>2019-09-22T10:04:44Z</time>
      </trkpt>
      <trkpt lat="45.69852" lon="4.64965">
        <ele>532.1</ele>
        <time>2019-09-22T10:04:45Z</time>
      </trkpt>
      <trkpt lat="45.69848" lon="4.64967">
        <ele>531.4</ele>
        <time>2019-09-22T10:04:47Z</time>
      </trkpt>
      <trkpt lat="45.69844" lon="4.64971">
        <ele>530.5</ele>
        <time>2019-09-22T10:04:49Z</time>
      </trkpt>
      <trkpt lat="45.69841" lon="4.64974">
        <ele>529.9</ele>
        <time>2019-09-22T10:04:50Z</time>
      </trkpt>
      <trkpt lat="45.69833" lon="4.64978">
        <ele>528.7</ele>
        <time>2019-09-22T10:04:53Z</time>
      </trkpt>
      <trkpt lat="45.69831" lon="4.6498">
        <ele>528.4</ele>
        <time>2019-09-22T10:04:54Z</time>
      </trkpt>
      <trkpt lat="45.69825" lon="4.64987">
        <ele>527.4</ele>
        <time>2019-09-22T10:04:57Z</time>
      </trkpt>
      <trkpt lat="45.6982" lon="4.64993">
        <ele>526.7</ele>
        <time>2019-09-22T10:04:59Z</time>
      </trkpt>
      <trkpt lat="45.69817" lon="4.64997">
        <ele>526.3</ele>
        <time>2019-09-22T10:05:00Z</time>
      </trkpt>
      <trkpt lat="45.69807" lon="4.6501">
        <ele>525.1</ele>
        <time>2019-09-22T10:05:04Z</time>
      </trkpt>
      <trkpt lat="45.69804" lon="4.65013">
        <ele>524.8</ele>
        <time>2019-09-22T10:05:05Z</time>
      </trkpt>
      <trkpt lat="45.69789" lon="4.65034">
        <ele>523.7</ele>
        <time>2019-09-22T10:05:10Z</time>
      </trkpt>
      <trkpt lat="45.69771" lon="4.65057">
        <ele>521.3</ele>
        <time>2019-09-22T10:05:15Z</time>
      </trkpt>
      <trkpt lat="45.69771" lon="4.65061">
        <ele>521</ele>
        <time>2019-09-22T10:05:16Z</time>
      </trkpt>
      <trkpt lat="45.69772" lon="4.65065">
        <ele>520.5</ele>
        <time>2019-09-22T10:05:18Z</time>
      </trkpt>
      <trkpt lat="45.69773" lon="4.65065">
        <ele>520.3</ele>
        <time>2019-09-22T10:05:19Z</time>
      </trkpt>
      <trkpt lat="45.6978" lon="4.65065">
        <ele>520.7</ele>
        <time>2019-09-22T10:05:23Z</time>
      </trkpt>
      <trkpt lat="45.6979" lon="4.65067">
        <ele>521.2</ele>
        <time>2019-09-22T10:05:27Z</time>
      </trkpt>
      <trkpt lat="45.69796" lon="4.65068">
        <ele>521.4</ele>
        <time>2019-09-22T10:05:29Z</time>
      </trkpt>
      <trkpt lat="45.69801" lon="4.65069">
        <ele>521.5</ele>
        <time>2019-09-22T10:05:31Z</time>
      </trkpt>
      <trkpt lat="45.69814" lon="4.65069">
        <ele>521.8</ele>
        <time>2019-09-22T10:05:35Z</time>
      </trkpt>
      <trkpt lat="45.6982" lon="4.65069">
        <ele>522</ele>
        <time>2019-09-22T10:05:37Z</time>
      </trkpt>
      <trkpt lat="45.6983" lon="4.65069">
        <ele>522.3</ele>
        <time>2019-09-22T10:05:41Z</time>
      </trkpt>
      <trkpt lat="45.69845" lon="4.65068">
        <ele>522.6</ele>
        <time>2019-09-22T10:06:35Z</time>
      </trkpt>
      <trkpt lat="45.69854" lon="4.6507">
        <ele>522.7</ele>
        <time>2019-09-22T10:06:38Z</time>
      </trkpt>
      <trkpt lat="45.69865" lon="4.65071">
        <ele>522.8</ele>
        <time>2019-09-22T10:06:41Z</time>
      </trkpt>
      <trkpt lat="45.69871" lon="4.65072">
        <ele>522.9</ele>
        <time>2019-09-22T10:06:43Z</time>
      </trkpt>
      <trkpt lat="45.69878" lon="4.65073">
        <ele>522.8</ele>
        <time>2019-09-22T10:06:45Z</time>
      </trkpt>
      <trkpt lat="45.69882" lon="4.65073">
        <ele>522.8</ele>
        <time>2019-09-22T10:06:46Z</time>
      </trkpt>
      <trkpt lat="45.699" lon="4.65072">
        <ele>522.6</ele>
        <time>2019-09-22T10:06:50Z</time>
      </trkpt>
      <trkpt lat="45.69905" lon="4.65072">
        <ele>522.6</ele>
        <time>2019-09-22T10:06:51Z</time>
      </trkpt>
      <trkpt lat="45.6993" lon="4.65072">
        <ele>522.4</ele>
        <time>2019-09-22T10:06:56Z</time>
      </trkpt>
      <trkpt lat="45.69934" lon="4.65073">
        <ele>522.4</ele>
        <time>2019-09-22T10:06:57Z</time>
      </trkpt>
      <trkpt lat="45.69938" lon="4.65075">
        <ele>522.4</ele>
        <time>2019-09-22T10:06:58Z</time>
      </trkpt>
      <trkpt lat="45.69953" lon="4.65076">
        <ele>522.3</ele>
        <time>2019-09-22T10:07:02Z</time>
      </trkpt>
      <trkpt lat="45.69971" lon="4.65075">
        <ele>522.3</ele>
        <time>2019-09-22T10:07:07Z</time>
      </trkpt>
      <trkpt lat="45.69973" lon="4.65076">
        <ele>522.3</ele>
        <time>2019-09-22T10:07:08Z</time>
      </trkpt>
      <trkpt lat="45.6998" lon="4.65077">
        <ele>522.3</ele>
        <time>2019-09-22T10:07:12Z</time>
      </trkpt>
      <trkpt lat="45.69989" lon="4.65075">
        <ele>522.3</ele>
        <time>2019-09-22T10:07:40Z</time>
      </trkpt>
      <trkpt lat="45.69995" lon="4.65075">
        <ele>522.3</ele>
        <time>2019-09-22T10:07:42Z</time>
      </trkpt>
      <trkpt lat="45.70014" lon="4.65074">
        <ele>522</ele>
        <time>2019-09-22T10:07:47Z</time>
      </trkpt>
      <trkpt lat="45.70034" lon="4.65077">
        <ele>521.3</ele>
        <time>2019-09-22T10:07:51Z</time>
      </trkpt>
      <trkpt lat="45.70045" lon="4.65078">
        <ele>520.7</ele>
        <time>2019-09-22T10:07:53Z</time>
      </trkpt>
      <trkpt lat="45.70056" lon="4.65077">
        <ele>520.2</ele>
        <time>2019-09-22T10:07:55Z</time>
      </trkpt>
      <trkpt lat="45.70077" lon="4.65074">
        <ele>519.1</ele>
        <time>2019-09-22T10:07:58Z</time>
      </trkpt>
      <trkpt lat="45.70092" lon="4.65069">
        <ele>518.6</ele>
        <time>2019-09-22T10:08:00Z</time>
      </trkpt>
      <trkpt lat="45.70105" lon="4.65061">
        <ele>518.4</ele>
        <time>2019-09-22T10:08:02Z</time>
      </trkpt>
      <trkpt lat="45.70111" lon="4.65056">
        <ele>518.3</ele>
        <time>2019-09-22T10:08:03Z</time>
      </trkpt>
      <trkpt lat="45.70119" lon="4.65046">
        <ele>518.4</ele>
        <time>2019-09-22T10:08:05Z</time>
      </trkpt>
      <trkpt lat="45.70127" lon="4.65037">
        <ele>518.7</ele>
        <time>2019-09-22T10:08:07Z</time>
      </trkpt>
      <trkpt lat="45.70141" lon="4.65026">
        <ele>519.5</ele>
        <time>2019-09-22T10:08:11Z</time>
      </trkpt>
      <trkpt lat="45.70145" lon="4.65022">
        <ele>519.7</ele>
        <time>2019-09-22T10:08:12Z</time>
      </trkpt>
      <trkpt lat="45.70155" lon="4.65005">
        <ele>520.2</ele>
        <time>2019-09-22T10:08:15Z</time>
      </trkpt>
      <trkpt lat="45.70164" lon="4.64988">
        <ele>520.6</ele>
        <time>2019-09-22T10:08:18Z</time>
      </trkpt>
      <trkpt lat="45.70165" lon="4.64984">
        <ele>520.6</ele>
        <time>2019-09-22T10:08:19Z</time>
      </trkpt>
      <trkpt lat="45.70171" lon="4.64968">
        <ele>520.9</ele>
        <time>2019-09-22T10:08:24Z</time>
      </trkpt>
      <trkpt lat="45.70181" lon="4.6495">
        <ele>521.5</ele>
        <time>2019-09-22T10:08:28Z</time>
      </trkpt>
      <trkpt lat="45.70198" lon="4.64946">
        <ele>522.7</ele>
        <time>2019-09-22T10:08:32Z</time>
      </trkpt>
      <trkpt lat="45.70207" lon="4.64943">
        <ele>523.6</ele>
        <time>2019-09-22T10:08:34Z</time>
      </trkpt>
      <trkpt lat="45.70215" lon="4.64934">
        <ele>524.6</ele>
        <time>2019-09-22T10:08:36Z</time>
      </trkpt>
      <trkpt lat="45.70222" lon="4.64923">
        <ele>525.9</ele>
        <time>2019-09-22T10:08:38Z</time>
      </trkpt>
      <trkpt lat="45.70225" lon="4.64917">
        <ele>526.7</ele>
        <time>2019-09-22T10:08:39Z</time>
      </trkpt>
      <trkpt lat="45.70229" lon="4.6491">
        <ele>527.6</ele>
        <time>2019-09-22T10:08:40Z</time>
      </trkpt>
      <trkpt lat="45.70231" lon="4.64902">
        <ele>528.3</ele>
        <time>2019-09-22T10:08:41Z</time>
      </trkpt>
      <trkpt lat="45.70238" lon="4.64887">
        <ele>529.7</ele>
        <time>2019-09-22T10:08:43Z</time>
      </trkpt>
      <trkpt lat="45.70241" lon="4.64882">
        <ele>530.3</ele>
        <time>2019-09-22T10:08:44Z</time>
      </trkpt>
      <trkpt lat="45.70245" lon="4.64876">
        <ele>531</ele>
        <time>2019-09-22T10:08:45Z</time>
      </trkpt>
      <trkpt lat="45.70254" lon="4.64869">
        <ele>532.7</ele>
        <time>2019-09-22T10:08:48Z</time>
      </trkpt>
      <trkpt lat="45.70257" lon="4.64867">
        <ele>533.2</ele>
        <time>2019-09-22T10:08:49Z</time>
      </trkpt>
      <trkpt lat="45.70265" lon="4.64863">
        <ele>534.3</ele>
        <time>2019-09-22T10:08:53Z</time>
      </trkpt>
      <trkpt lat="45.70268" lon="4.64861">
        <ele>534.7</ele>
        <time>2019-09-22T10:08:54Z</time>
      </trkpt>
      <trkpt lat="45.70279" lon="4.64851">
        <ele>536.6</ele>
        <time>2019-09-22T10:09:00Z</time>
      </trkpt>
      <trkpt lat="45.70291" lon="4.64841">
        <ele>537.9</ele>
        <time>2019-09-22T10:09:07Z</time>
      </trkpt>
      <trkpt lat="45.70302" lon="4.64829">
        <ele>539.3</ele>
        <time>2019-09-22T10:09:15Z</time>
      </trkpt>
      <trkpt lat="45.7031" lon="4.64815">
        <ele>540.7</ele>
        <time>2019-09-22T10:09:22Z</time>
      </trkpt>
      <trkpt lat="45.7031" lon="4.64813">
        <ele>541</ele>
        <time>2019-09-22T10:09:23Z</time>
      </trkpt>
      <trkpt lat="45.70313" lon="4.648">
        <ele>541.9</ele>
        <time>2019-09-22T10:09:28Z</time>
      </trkpt>
      <trkpt lat="45.70315" lon="4.64796">
        <ele>542.2</ele>
        <time>2019-09-22T10:09:30Z</time>
      </trkpt>
      <trkpt lat="45.70317" lon="4.64787">
        <ele>542.8</ele>
        <time>2019-09-22T10:09:34Z</time>
      </trkpt>
      <trkpt lat="45.70322" lon="4.64772">
        <ele>542.6</ele>
        <time>2019-09-22T10:09:40Z</time>
      </trkpt>
      <trkpt lat="45.7033" lon="4.64757">
        <ele>542.1</ele>
        <time>2019-09-22T10:09:48Z</time>
      </trkpt>
      <trkpt lat="45.70341" lon="4.64762">
        <ele>541.6</ele>
        <time>2019-09-22T10:09:52Z</time>
      </trkpt>
      <trkpt lat="45.70345" lon="4.64764">
        <ele>541.4</ele>
        <time>2019-09-22T10:09:53Z</time>
      </trkpt>
      <trkpt lat="45.70353" lon="4.64769">
        <ele>541.1</ele>
        <time>2019-09-22T10:09:55Z</time>
      </trkpt>
      <trkpt lat="45.70366" lon="4.64777">
        <ele>540.3</ele>
        <time>2019-09-22T10:09:58Z</time>
      </trkpt>
      <trkpt lat="45.70376" lon="4.64782">
        <ele>539.4</ele>
        <time>2019-09-22T10:10:00Z</time>
      </trkpt>
      <trkpt lat="45.70382" lon="4.64786">
        <ele>538.9</ele>
        <time>2019-09-22T10:10:01Z</time>
      </trkpt>
      <trkpt lat="45.70391" lon="4.64805">
        <ele>537.6</ele>
        <time>2019-09-22T10:10:04Z</time>
      </trkpt>
      <trkpt lat="45.70391" lon="4.64824">
        <ele>536.6</ele>
        <time>2019-09-22T10:10:06Z</time>
      </trkpt>
      <trkpt lat="45.70392" lon="4.64833">
        <ele>536.2</ele>
        <time>2019-09-22T10:10:07Z</time>
      </trkpt>
      <trkpt lat="45.70393" lon="4.64852">
        <ele>535.6</ele>
        <time>2019-09-22T10:10:09Z</time>
      </trkpt>
      <trkpt lat="45.70397" lon="4.64869">
        <ele>535.2</ele>
        <time>2019-09-22T10:10:11Z</time>
      </trkpt>
      <trkpt lat="45.70399" lon="4.64876">
        <ele>535.1</ele>
        <time>2019-09-22T10:10:12Z</time>
      </trkpt>
      <trkpt lat="45.70402" lon="4.64882">
        <ele>535.1</ele>
        <time>2019-09-22T10:10:13Z</time>
      </trkpt>
      <trkpt lat="45.70407" lon="4.64895">
        <ele>535</ele>
        <time>2019-09-22T10:10:15Z</time>
      </trkpt>
      <trkpt lat="45.70418" lon="4.64919">
        <ele>534.6</ele>
        <time>2019-09-22T10:10:19Z</time>
      </trkpt>
      <trkpt lat="45.7042" lon="4.64925">
        <ele>534.5</ele>
        <time>2019-09-22T10:10:20Z</time>
      </trkpt>
      <trkpt lat="45.70421" lon="4.64933">
        <ele>534.2</ele>
        <time>2019-09-22T10:10:21Z</time>
      </trkpt>
      <trkpt lat="45.70424" lon="4.64957">
        <ele>533.1</ele>
        <time>2019-09-22T10:10:24Z</time>
      </trkpt>
      <trkpt lat="45.70439" lon="4.64985">
        <ele>530.8</ele>
        <time>2019-09-22T10:10:28Z</time>
      </trkpt>
      <trkpt lat="45.70443" lon="4.64995">
        <ele>530.2</ele>
        <time>2019-09-22T10:10:29Z</time>
      </trkpt>
      <trkpt lat="45.70443" lon="4.65014">
        <ele>529.5</ele>
        <time>2019-09-22T10:10:31Z</time>
      </trkpt>
      <trkpt lat="45.70439" lon="4.65042">
        <ele>528.8</ele>
        <time>2019-09-22T10:10:34Z</time>
      </trkpt>
      <trkpt lat="45.70438" lon="4.65059">
        <ele>528.3</ele>
        <time>2019-09-22T10:10:36Z</time>
      </trkpt>
      <trkpt lat="45.70436" lon="4.65122">
        <ele>525.5</ele>
        <time>2019-09-22T10:10:43Z</time>
      </trkpt>
      <trkpt lat="45.70438" lon="4.65132">
        <ele>524.9</ele>
        <time>2019-09-22T10:10:44Z</time>
      </trkpt>
      <trkpt lat="45.70444" lon="4.65159">
        <ele>523.1</ele>
        <time>2019-09-22T10:10:47Z</time>
      </trkpt>
      <trkpt lat="45.70446" lon="4.65176">
        <ele>521.9</ele>
        <time>2019-09-22T10:10:49Z</time>
      </trkpt>
      <trkpt lat="45.70449" lon="4.6519">
        <ele>520.7</ele>
        <time>2019-09-22T10:10:51Z</time>
      </trkpt>
      <trkpt lat="45.70457" lon="4.65207">
        <ele>518.9</ele>
        <time>2019-09-22T10:10:54Z</time>
      </trkpt>
      <trkpt lat="45.70461" lon="4.65212">
        <ele>518.3</ele>
        <time>2019-09-22T10:10:55Z</time>
      </trkpt>
      <trkpt lat="45.70469" lon="4.65225">
        <ele>516.7</ele>
        <time>2019-09-22T10:10:57Z</time>
      </trkpt>
      <trkpt lat="45.70476" lon="4.6524">
        <ele>515.1</ele>
        <time>2019-09-22T10:10:59Z</time>
      </trkpt>
      <trkpt lat="45.70479" lon="4.65246">
        <ele>514.5</ele>
        <time>2019-09-22T10:11:00Z</time>
      </trkpt>
      <trkpt lat="45.70485" lon="4.6526">
        <ele>513.1</ele>
        <time>2019-09-22T10:11:02Z</time>
      </trkpt>
      <trkpt lat="45.7049" lon="4.6527">
        <ele>511.9</ele>
        <time>2019-09-22T10:11:04Z</time>
      </trkpt>
      <trkpt lat="45.70495" lon="4.65282">
        <ele>510.8</ele>
        <time>2019-09-22T10:11:06Z</time>
      </trkpt>
      <trkpt lat="45.70501" lon="4.65294">
        <ele>509.6</ele>
        <time>2019-09-22T10:11:08Z</time>
      </trkpt>
      <trkpt lat="45.70505" lon="4.65299">
        <ele>509</ele>
        <time>2019-09-22T10:11:09Z</time>
      </trkpt>
      <trkpt lat="45.70509" lon="4.65304">
        <ele>508.4</ele>
        <time>2019-09-22T10:11:10Z</time>
      </trkpt>
      <trkpt lat="45.70512" lon="4.6531">
        <ele>507.7</ele>
        <time>2019-09-22T10:11:11Z</time>
      </trkpt>
      <trkpt lat="45.70516" lon="4.65314">
        <ele>507</ele>
        <time>2019-09-22T10:11:12Z</time>
      </trkpt>
      <trkpt lat="45.70523" lon="4.65324">
        <ele>505.8</ele>
        <time>2019-09-22T10:11:14Z</time>
      </trkpt>
      <trkpt lat="45.70531" lon="4.65333">
        <ele>504.7</ele>
        <time>2019-09-22T10:11:16Z</time>
      </trkpt>
      <trkpt lat="45.70535" lon="4.65336">
        <ele>504.1</ele>
        <time>2019-09-22T10:11:17Z</time>
      </trkpt>
      <trkpt lat="45.70539" lon="4.6534">
        <ele>503.5</ele>
        <time>2019-09-22T10:11:18Z</time>
      </trkpt>
      <trkpt lat="45.70544" lon="4.65343">
        <ele>503.1</ele>
        <time>2019-09-22T10:11:19Z</time>
      </trkpt>
      <trkpt lat="45.70548" lon="4.65347">
        <ele>502.6</ele>
        <time>2019-09-22T10:11:20Z</time>
      </trkpt>
      <trkpt lat="45.70555" lon="4.65353">
        <ele>501.6</ele>
        <time>2019-09-22T10:11:22Z</time>
      </trkpt>
      <trkpt lat="45.70562" lon="4.65356">
        <ele>500.7</ele>
        <time>2019-09-22T10:11:24Z</time>
      </trkpt>
      <trkpt lat="45.70564" lon="4.65357">
        <ele>500.3</ele>
        <time>2019-09-22T10:11:25Z</time>
      </trkpt>
      <trkpt lat="45.70567" lon="4.65359">
        <ele>499.9</ele>
        <time>2019-09-22T10:11:26Z</time>
      </trkpt>
      <trkpt lat="45.70572" lon="4.65364">
        <ele>498.9</ele>
        <time>2019-09-22T10:11:28Z</time>
      </trkpt>
      <trkpt lat="45.70575" lon="4.65366">
        <ele>498.4</ele>
        <time>2019-09-22T10:11:29Z</time>
      </trkpt>
      <trkpt lat="45.70577" lon="4.65368">
        <ele>498.1</ele>
        <time>2019-09-22T10:11:30Z</time>
      </trkpt>
      <trkpt lat="45.70579" lon="4.6537">
        <ele>497.7</ele>
        <time>2019-09-22T10:11:31Z</time>
      </trkpt>
      <trkpt lat="45.70583" lon="4.65376">
        <ele>496.7</ele>
        <time>2019-09-22T10:11:33Z</time>
      </trkpt>
      <trkpt lat="45.70585" lon="4.65384">
        <ele>495.5</ele>
        <time>2019-09-22T10:11:35Z</time>
      </trkpt>
      <trkpt lat="45.70591" lon="4.65391">
        <ele>494.2</ele>
        <time>2019-09-22T10:11:37Z</time>
      </trkpt>
      <trkpt lat="45.70595" lon="4.65398">
        <ele>493</ele>
        <time>2019-09-22T10:11:39Z</time>
      </trkpt>
      <trkpt lat="45.70599" lon="4.65403">
        <ele>492.1</ele>
        <time>2019-09-22T10:11:41Z</time>
      </trkpt>
      <trkpt lat="45.70602" lon="4.65409">
        <ele>491</ele>
        <time>2019-09-22T10:11:43Z</time>
      </trkpt>
      <trkpt lat="45.70604" lon="4.65413">
        <ele>490.3</ele>
        <time>2019-09-22T10:11:44Z</time>
      </trkpt>
      <trkpt lat="45.70606" lon="4.65416">
        <ele>489.7</ele>
        <time>2019-09-22T10:11:45Z</time>
      </trkpt>
      <trkpt lat="45.70611" lon="4.65422">
        <ele>488.6</ele>
        <time>2019-09-22T10:11:47Z</time>
      </trkpt>
      <trkpt lat="45.70614" lon="4.65426">
        <ele>488</ele>
        <time>2019-09-22T10:11:48Z</time>
      </trkpt>
      <trkpt lat="45.70616" lon="4.65429">
        <ele>487.4</ele>
        <time>2019-09-22T10:11:49Z</time>
      </trkpt>
      <trkpt lat="45.7062" lon="4.65436">
        <ele>486.1</ele>
        <time>2019-09-22T10:11:51Z</time>
      </trkpt>
      <trkpt lat="45.70625" lon="4.65444">
        <ele>484.4</ele>
        <time>2019-09-22T10:11:53Z</time>
      </trkpt>
      <trkpt lat="45.7063" lon="4.65454">
        <ele>482.9</ele>
        <time>2019-09-22T10:11:55Z</time>
      </trkpt>
      <trkpt lat="45.70634" lon="4.65464">
        <ele>481.2</ele>
        <time>2019-09-22T10:11:57Z</time>
      </trkpt>
      <trkpt lat="45.70639" lon="4.65475">
        <ele>479.7</ele>
        <time>2019-09-22T10:11:59Z</time>
      </trkpt>
      <trkpt lat="45.70642" lon="4.6548">
        <ele>479</ele>
        <time>2019-09-22T10:12:00Z</time>
      </trkpt>
      <trkpt lat="45.70646" lon="4.65485">
        <ele>478.3</ele>
        <time>2019-09-22T10:12:01Z</time>
      </trkpt>
      <trkpt lat="45.70655" lon="4.65495">
        <ele>476.7</ele>
        <time>2019-09-22T10:12:03Z</time>
      </trkpt>
      <trkpt lat="45.70659" lon="4.655">
        <ele>476</ele>
        <time>2019-09-22T10:12:04Z</time>
      </trkpt>
      <trkpt lat="45.70669" lon="4.65514">
        <ele>474.8</ele>
        <time>2019-09-22T10:12:06Z</time>
      </trkpt>
      <trkpt lat="45.70676" lon="4.65517">
        <ele>474.1</ele>
        <time>2019-09-22T10:12:07Z</time>
      </trkpt>
      <trkpt lat="45.70684" lon="4.65521">
        <ele>473.6</ele>
        <time>2019-09-22T10:12:08Z</time>
      </trkpt>
      <trkpt lat="45.70697" lon="4.65533">
        <ele>473.2</ele>
        <time>2019-09-22T10:12:10Z</time>
      </trkpt>
      <trkpt lat="45.70701" lon="4.65554">
        <ele>473.9</ele>
        <time>2019-09-22T10:12:12Z</time>
      </trkpt>
      <trkpt lat="45.70695" lon="4.65574">
        <ele>472.8</ele>
        <time>2019-09-22T10:12:14Z</time>
      </trkpt>
      <trkpt lat="45.70692" lon="4.65584">
        <ele>471.5</ele>
        <time>2019-09-22T10:12:15Z</time>
      </trkpt>
      <trkpt lat="45.70689" lon="4.65593">
        <ele>470.4</ele>
        <time>2019-09-22T10:12:16Z</time>
      </trkpt>
      <trkpt lat="45.70683" lon="4.65613">
        <ele>468.2</ele>
        <time>2019-09-22T10:12:18Z</time>
      </trkpt>
      <trkpt lat="45.70677" lon="4.65632">
        <ele>466.1</ele>
        <time>2019-09-22T10:12:20Z</time>
      </trkpt>
      <trkpt lat="45.70676" lon="4.65643">
        <ele>465.1</ele>
        <time>2019-09-22T10:12:21Z</time>
      </trkpt>
      <trkpt lat="45.70675" lon="4.65676">
        <ele>462.1</ele>
        <time>2019-09-22T10:12:24Z</time>
      </trkpt>
      <trkpt lat="45.70675" lon="4.65701">
        <ele>460</ele>
        <time>2019-09-22T10:12:26Z</time>
      </trkpt>
      <trkpt lat="45.70674" lon="4.6573">
        <ele>457.7</ele>
        <time>2019-09-22T10:12:28Z</time>
      </trkpt>
      <trkpt lat="45.70674" lon="4.65745">
        <ele>456.5</ele>
        <time>2019-09-22T10:12:29Z</time>
      </trkpt>
      <trkpt lat="45.70673" lon="4.65772">
        <ele>454.2</ele>
        <time>2019-09-22T10:12:31Z</time>
      </trkpt>
      <trkpt lat="45.70671" lon="4.65801">
        <ele>450.7</ele>
        <time>2019-09-22T10:12:33Z</time>
      </trkpt>
      <trkpt lat="45.70668" lon="4.65813">
        <ele>448.9</ele>
        <time>2019-09-22T10:12:34Z</time>
      </trkpt>
      <trkpt lat="45.70663" lon="4.65824">
        <ele>447.4</ele>
        <time>2019-09-22T10:12:35Z</time>
      </trkpt>
      <trkpt lat="45.70652" lon="4.65846">
        <ele>445.3</ele>
        <time>2019-09-22T10:12:37Z</time>
      </trkpt>
      <trkpt lat="45.70642" lon="4.65872">
        <ele>443.1</ele>
        <time>2019-09-22T10:12:39Z</time>
      </trkpt>
      <trkpt lat="45.7064" lon="4.65888">
        <ele>441.7</ele>
        <time>2019-09-22T10:12:40Z</time>
      </trkpt>
      <trkpt lat="45.70639" lon="4.65922">
        <ele>438.9</ele>
        <time>2019-09-22T10:12:42Z</time>
      </trkpt>
      <trkpt lat="45.70639" lon="4.6594">
        <ele>437.3</ele>
        <time>2019-09-22T10:12:43Z</time>
      </trkpt>
      <trkpt lat="45.70639" lon="4.65959">
        <ele>435.4</ele>
        <time>2019-09-22T10:12:44Z</time>
      </trkpt>
      <trkpt lat="45.70639" lon="4.65978">
        <ele>433.6</ele>
        <time>2019-09-22T10:12:45Z</time>
      </trkpt>
      <trkpt lat="45.70639" lon="4.65997">
        <ele>431.7</ele>
        <time>2019-09-22T10:12:46Z</time>
      </trkpt>
      <trkpt lat="45.70638" lon="4.66016">
        <ele>429.7</ele>
        <time>2019-09-22T10:12:47Z</time>
      </trkpt>
      <trkpt lat="45.70639" lon="4.66035">
        <ele>428.3</ele>
        <time>2019-09-22T10:12:48Z</time>
      </trkpt>
      <trkpt lat="45.70639" lon="4.66053">
        <ele>427.2</ele>
        <time>2019-09-22T10:12:49Z</time>
      </trkpt>
      <trkpt lat="45.70638" lon="4.6607">
        <ele>426.2</ele>
        <time>2019-09-22T10:12:50Z</time>
      </trkpt>
      <trkpt lat="45.70638" lon="4.66084">
        <ele>425.3</ele>
        <time>2019-09-22T10:12:51Z</time>
      </trkpt>
      <trkpt lat="45.70636" lon="4.66096">
        <ele>424.7</ele>
        <time>2019-09-22T10:12:52Z</time>
      </trkpt>
      <trkpt lat="45.70632" lon="4.66118">
        <ele>423.8</ele>
        <time>2019-09-22T10:12:54Z</time>
      </trkpt>
      <trkpt lat="45.70624" lon="4.66139">
        <ele>422.9</ele>
        <time>2019-09-22T10:12:56Z</time>
      </trkpt>
      <trkpt lat="45.70615" lon="4.66159">
        <ele>422.2</ele>
        <time>2019-09-22T10:12:58Z</time>
      </trkpt>
      <trkpt lat="45.70606" lon="4.6618">
        <ele>421.2</ele>
        <time>2019-09-22T10:13:00Z</time>
      </trkpt>
      <trkpt lat="45.70595" lon="4.66201">
        <ele>419.6</ele>
        <time>2019-09-22T10:13:02Z</time>
      </trkpt>
      <trkpt lat="45.70588" lon="4.66213">
        <ele>418.5</ele>
        <time>2019-09-22T10:13:04Z</time>
      </trkpt>
      <trkpt lat="45.70587" lon="4.66219">
        <ele>418.2</ele>
        <time>2019-09-22T10:13:05Z</time>
      </trkpt>
      <trkpt lat="45.70592" lon="4.66227">
        <ele>417.7</ele>
        <time>2019-09-22T10:13:07Z</time>
      </trkpt>
      <trkpt lat="45.70594" lon="4.66228">
        <ele>417.6</ele>
        <time>2019-09-22T10:13:08Z</time>
      </trkpt>
      <trkpt lat="45.7061" lon="4.66236">
        <ele>416.9</ele>
        <time>2019-09-22T10:13:13Z</time>
      </trkpt>
      <trkpt lat="45.70614" lon="4.66238">
        <ele>416.8</ele>
        <time>2019-09-22T10:13:14Z</time>
      </trkpt>
      <trkpt lat="45.70629" lon="4.66246">
        <ele>417</ele>
        <time>2019-09-22T10:13:18Z</time>
      </trkpt>
      <trkpt lat="45.7064" lon="4.66248">
        <ele>417.1</ele>
        <time>2019-09-22T10:13:20Z</time>
      </trkpt>
      <trkpt lat="45.70654" lon="4.66252">
        <ele>416.8</ele>
        <time>2019-09-22T10:13:22Z</time>
      </trkpt>
      <trkpt lat="45.70668" lon="4.66251">
        <ele>416.3</ele>
        <time>2019-09-22T10:13:24Z</time>
      </trkpt>
      <trkpt lat="45.70674" lon="4.66248">
        <ele>415.9</ele>
        <time>2019-09-22T10:13:25Z</time>
      </trkpt>
      <trkpt lat="45.70685" lon="4.66234">
        <ele>415</ele>
        <time>2019-09-22T10:13:27Z</time>
      </trkpt>
      <trkpt lat="45.70691" lon="4.66226">
        <ele>414.5</ele>
        <time>2019-09-22T10:13:28Z</time>
      </trkpt>
      <trkpt lat="45.70697" lon="4.66219">
        <ele>414.2</ele>
        <time>2019-09-22T10:13:29Z</time>
      </trkpt>
      <trkpt lat="45.70702" lon="4.66216">
        <ele>413.8</ele>
        <time>2019-09-22T10:13:30Z</time>
      </trkpt>
      <trkpt lat="45.70708" lon="4.66216">
        <ele>413.5</ele>
        <time>2019-09-22T10:13:31Z</time>
      </trkpt>
      <trkpt lat="45.70717" lon="4.66227">
        <ele>412.8</ele>
        <time>2019-09-22T10:13:33Z</time>
      </trkpt>
      <trkpt lat="45.70722" lon="4.66242">
        <ele>412</ele>
        <time>2019-09-22T10:13:35Z</time>
      </trkpt>
      <trkpt lat="45.70724" lon="4.6625">
        <ele>411.7</ele>
        <time>2019-09-22T10:13:36Z</time>
      </trkpt>
      <trkpt lat="45.70724" lon="4.66258">
        <ele>411.4</ele>
        <time>2019-09-22T10:13:37Z</time>
      </trkpt>
      <trkpt lat="45.70722" lon="4.66272">
        <ele>410.8</ele>
        <time>2019-09-22T10:13:39Z</time>
      </trkpt>
      <trkpt lat="45.70721" lon="4.66279">
        <ele>410.5</ele>
        <time>2019-09-22T10:13:40Z</time>
      </trkpt>
      <trkpt lat="45.70718" lon="4.66286">
        <ele>410.2</ele>
        <time>2019-09-22T10:13:41Z</time>
      </trkpt>
      <trkpt lat="45.70716" lon="4.66294">
        <ele>409.9</ele>
        <time>2019-09-22T10:13:42Z</time>
      </trkpt>
      <trkpt lat="45.70714" lon="4.66301">
        <ele>409.5</ele>
        <time>2019-09-22T10:13:43Z</time>
      </trkpt>
      <trkpt lat="45.70708" lon="4.66317">
        <ele>408.5</ele>
        <time>2019-09-22T10:13:45Z</time>
      </trkpt>
      <trkpt lat="45.70704" lon="4.66325">
        <ele>408</ele>
        <time>2019-09-22T10:13:46Z</time>
      </trkpt>
      <trkpt lat="45.70693" lon="4.66352">
        <ele>406.6</ele>
        <time>2019-09-22T10:13:49Z</time>
      </trkpt>
      <trkpt lat="45.7069" lon="4.66362">
        <ele>406.2</ele>
        <time>2019-09-22T10:13:50Z</time>
      </trkpt>
      <trkpt lat="45.70688" lon="4.66373">
        <ele>405.8</ele>
        <time>2019-09-22T10:13:51Z</time>
      </trkpt>
      <trkpt lat="45.70679" lon="4.66417">
        <ele>404.8</ele>
        <time>2019-09-22T10:13:55Z</time>
      </trkpt>
      <trkpt lat="45.70675" lon="4.66456">
        <ele>404.6</ele>
        <time>2019-09-22T10:13:59Z</time>
      </trkpt>
      <trkpt lat="45.70675" lon="4.66466">
        <ele>404.6</ele>
        <time>2019-09-22T10:14:00Z</time>
      </trkpt>
      <trkpt lat="45.70674" lon="4.66516">
        <ele>404.8</ele>
        <time>2019-09-22T10:14:06Z</time>
      </trkpt>
      <trkpt lat="45.70674" lon="4.6655">
        <ele>405.3</ele>
        <time>2019-09-22T10:14:10Z</time>
      </trkpt>
      <trkpt lat="45.70674" lon="4.66572">
        <ele>405.6</ele>
        <time>2019-09-22T10:14:13Z</time>
      </trkpt>
      <trkpt lat="45.70672" lon="4.66588">
        <ele>405.6</ele>
        <time>2019-09-22T10:14:15Z</time>
      </trkpt>
      <trkpt lat="45.70669" lon="4.66613">
        <ele>405.6</ele>
        <time>2019-09-22T10:14:18Z</time>
      </trkpt>
      <trkpt lat="45.70668" lon="4.66637">
        <ele>405.3</ele>
        <time>2019-09-22T10:14:21Z</time>
      </trkpt>
      <trkpt lat="45.70673" lon="4.66651">
        <ele>405.1</ele>
        <time>2019-09-22T10:14:23Z</time>
      </trkpt>
      <trkpt lat="45.70676" lon="4.66658">
        <ele>405.1</ele>
        <time>2019-09-22T10:14:24Z</time>
      </trkpt>
      <trkpt lat="45.70679" lon="4.66665">
        <ele>405.2</ele>
        <time>2019-09-22T10:14:25Z</time>
      </trkpt>
      <trkpt lat="45.70689" lon="4.66684">
        <ele>405.4</ele>
        <time>2019-09-22T10:14:28Z</time>
      </trkpt>
      <trkpt lat="45.70692" lon="4.6669">
        <ele>405.5</ele>
        <time>2019-09-22T10:14:29Z</time>
      </trkpt>
      <trkpt lat="45.70707" lon="4.66712">
        <ele>405.6</ele>
        <time>2019-09-22T10:14:33Z</time>
      </trkpt>
      <trkpt lat="45.70716" lon="4.66723">
        <ele>405.6</ele>
        <time>2019-09-22T10:14:35Z</time>
      </trkpt>
      <trkpt lat="45.70726" lon="4.66732">
        <ele>405.4</ele>
        <time>2019-09-22T10:14:37Z</time>
      </trkpt>
      <trkpt lat="45.70743" lon="4.66748">
        <ele>404.8</ele>
        <time>2019-09-22T10:14:40Z</time>
      </trkpt>
      <trkpt lat="45.70759" lon="4.66764">
        <ele>404.3</ele>
        <time>2019-09-22T10:14:43Z</time>
      </trkpt>
      <trkpt lat="45.70774" lon="4.66774">
        <ele>403.8</ele>
        <time>2019-09-22T10:14:45Z</time>
      </trkpt>
      <trkpt lat="45.70793" lon="4.66787">
        <ele>403.1</ele>
        <time>2019-09-22T10:14:48Z</time>
      </trkpt>
      <trkpt lat="45.70805" lon="4.66795">
        <ele>402.8</ele>
        <time>2019-09-22T10:14:50Z</time>
      </trkpt>
      <trkpt lat="45.7081" lon="4.66797">
        <ele>402.5</ele>
        <time>2019-09-22T10:14:51Z</time>
      </trkpt>
      <trkpt lat="45.70814" lon="4.66801">
        <ele>401.9</ele>
        <time>2019-09-22T10:14:53Z</time>
      </trkpt>
      <trkpt lat="45.70813" lon="4.66803">
        <ele>401.6</ele>
        <time>2019-09-22T10:14:54Z</time>
      </trkpt>
      <trkpt lat="45.70811" lon="4.66806">
        <ele>401.3</ele>
        <time>2019-09-22T10:14:55Z</time>
      </trkpt>
      <trkpt lat="45.70802" lon="4.66817">
        <ele>399.7</ele>
        <time>2019-09-22T10:14:59Z</time>
      </trkpt>
      <trkpt lat="45.70798" lon="4.66821">
        <ele>399.2</ele>
        <time>2019-09-22T10:15:00Z</time>
      </trkpt>
      <trkpt lat="45.70791" lon="4.66831">
        <ele>398.3</ele>
        <time>2019-09-22T10:15:02Z</time>
      </trkpt>
      <trkpt lat="45.70777" lon="4.66849">
        <ele>396.6</ele>
        <time>2019-09-22T10:15:05Z</time>
      </trkpt>
      <trkpt lat="45.70763" lon="4.66871">
        <ele>394.5</ele>
        <time>2019-09-22T10:15:08Z</time>
      </trkpt>
      <trkpt lat="45.70753" lon="4.66885">
        <ele>393.1</ele>
        <time>2019-09-22T10:15:10Z</time>
      </trkpt>
      <trkpt lat="45.70742" lon="4.669">
        <ele>391.6</ele>
        <time>2019-09-22T10:15:12Z</time>
      </trkpt>
      <trkpt lat="45.70737" lon="4.66907">
        <ele>390.9</ele>
        <time>2019-09-22T10:15:13Z</time>
      </trkpt>
      <trkpt lat="45.70718" lon="4.66937">
        <ele>388.4</ele>
        <time>2019-09-22T10:15:17Z</time>
      </trkpt>
      <trkpt lat="45.70708" lon="4.66954">
        <ele>386.8</ele>
        <time>2019-09-22T10:15:19Z</time>
      </trkpt>
      <trkpt lat="45.70703" lon="4.66963">
        <ele>386</ele>
        <time>2019-09-22T10:15:20Z</time>
      </trkpt>
      <trkpt lat="45.70693" lon="4.6698">
        <ele>384.1</ele>
        <time>2019-09-22T10:15:22Z</time>
      </trkpt>
      <trkpt lat="45.70688" lon="4.66988">
        <ele>383.2</ele>
        <time>2019-09-22T10:15:23Z</time>
      </trkpt>
      <trkpt lat="45.70677" lon="4.67003">
        <ele>382.3</ele>
        <time>2019-09-22T10:15:25Z</time>
      </trkpt>
      <trkpt lat="45.70671" lon="4.67009">
        <ele>381.9</ele>
        <time>2019-09-22T10:15:26Z</time>
      </trkpt>
      <trkpt lat="45.7066" lon="4.67023">
        <ele>381</ele>
        <time>2019-09-22T10:15:28Z</time>
      </trkpt>
      <trkpt lat="45.70649" lon="4.67033">
        <ele>379.9</ele>
        <time>2019-09-22T10:15:30Z</time>
      </trkpt>
      <trkpt lat="45.70643" lon="4.67037">
        <ele>379.3</ele>
        <time>2019-09-22T10:15:31Z</time>
      </trkpt>
      <trkpt lat="45.70631" lon="4.67046">
        <ele>378.1</ele>
        <time>2019-09-22T10:15:33Z</time>
      </trkpt>
      <trkpt lat="45.70624" lon="4.67049">
        <ele>377.5</ele>
        <time>2019-09-22T10:15:34Z</time>
      </trkpt>
      <trkpt lat="45.70617" lon="4.67053">
        <ele>376.6</ele>
        <time>2019-09-22T10:15:35Z</time>
      </trkpt>
      <trkpt lat="45.70603" lon="4.67058">
        <ele>375.1</ele>
        <time>2019-09-22T10:15:37Z</time>
      </trkpt>
      <trkpt lat="45.70591" lon="4.67063">
        <ele>373.9</ele>
        <time>2019-09-22T10:15:39Z</time>
      </trkpt>
      <trkpt lat="45.70584" lon="4.67065">
        <ele>373</ele>
        <time>2019-09-22T10:15:41Z</time>
      </trkpt>
      <trkpt lat="45.7058" lon="4.67063">
        <ele>372.5</ele>
        <time>2019-09-22T10:15:42Z</time>
      </trkpt>
      <trkpt lat="45.70576" lon="4.67061">
        <ele>372.1</ele>
        <time>2019-09-22T10:15:43Z</time>
      </trkpt>
      <trkpt lat="45.70568" lon="4.67062">
        <ele>371.3</ele>
        <time>2019-09-22T10:15:45Z</time>
      </trkpt>
      <trkpt lat="45.70564" lon="4.67067">
        <ele>370.7</ele>
        <time>2019-09-22T10:15:46Z</time>
      </trkpt>
      <trkpt lat="45.70557" lon="4.67074">
        <ele>369.7</ele>
        <time>2019-09-22T10:15:48Z</time>
      </trkpt>
      <trkpt lat="45.70553" lon="4.67078">
        <ele>369.1</ele>
        <time>2019-09-22T10:15:49Z</time>
      </trkpt>
      <trkpt lat="45.70549" lon="4.67082">
        <ele>368.5</ele>
        <time>2019-09-22T10:15:50Z</time>
      </trkpt>
      <trkpt lat="45.70545" lon="4.67087">
        <ele>368</ele>
        <time>2019-09-22T10:15:51Z</time>
      </trkpt>
      <trkpt lat="45.70539" lon="4.67093">
        <ele>367.1</ele>
        <time>2019-09-22T10:15:52Z</time>
      </trkpt>
      <trkpt lat="45.70529" lon="4.67106">
        <ele>365.7</ele>
        <time>2019-09-22T10:15:54Z</time>
      </trkpt>
      <trkpt lat="45.70519" lon="4.67117">
        <ele>364.6</ele>
        <time>2019-09-22T10:15:56Z</time>
      </trkpt>
      <trkpt lat="45.70509" lon="4.67127">
        <ele>363.5</ele>
        <time>2019-09-22T10:15:58Z</time>
      </trkpt>
      <trkpt lat="45.70504" lon="4.67132">
        <ele>363.1</ele>
        <time>2019-09-22T10:15:59Z</time>
      </trkpt>
      <trkpt lat="45.70494" lon="4.6714">
        <ele>362</ele>
        <time>2019-09-22T10:16:01Z</time>
      </trkpt>
      <trkpt lat="45.70483" lon="4.67151">
        <ele>360.9</ele>
        <time>2019-09-22T10:16:03Z</time>
      </trkpt>
      <trkpt lat="45.7047" lon="4.67165">
        <ele>359.4</ele>
        <time>2019-09-22T10:16:06Z</time>
      </trkpt>
      <trkpt lat="45.70465" lon="4.6717">
        <ele>358.9</ele>
        <time>2019-09-22T10:16:07Z</time>
      </trkpt>
      <trkpt lat="45.7046" lon="4.67174">
        <ele>358.4</ele>
        <time>2019-09-22T10:16:08Z</time>
      </trkpt>
      <trkpt lat="45.70455" lon="4.6718">
        <ele>357.9</ele>
        <time>2019-09-22T10:16:09Z</time>
      </trkpt>
      <trkpt lat="45.70451" lon="4.67186">
        <ele>357.5</ele>
        <time>2019-09-22T10:16:10Z</time>
      </trkpt>
      <trkpt lat="45.70448" lon="4.67191">
        <ele>357.1</ele>
        <time>2019-09-22T10:16:11Z</time>
      </trkpt>
      <trkpt lat="45.70446" lon="4.67195">
        <ele>356.9</ele>
        <time>2019-09-22T10:16:12Z</time>
      </trkpt>
      <trkpt lat="45.70443" lon="4.67202">
        <ele>356.5</ele>
        <time>2019-09-22T10:16:14Z</time>
      </trkpt>
      <trkpt lat="45.70438" lon="4.67203">
        <ele>356.3</ele>
        <time>2019-09-22T10:16:16Z</time>
      </trkpt>
      <trkpt lat="45.70434" lon="4.67203">
        <ele>356</ele>
        <time>2019-09-22T10:16:17Z</time>
      </trkpt>
      <trkpt lat="45.70428" lon="4.67205">
        <ele>355.7</ele>
        <time>2019-09-22T10:16:19Z</time>
      </trkpt>
      <trkpt lat="45.70417" lon="4.67212">
        <ele>355.2</ele>
        <time>2019-09-22T10:16:23Z</time>
      </trkpt>
      <trkpt lat="45.70408" lon="4.6722">
        <ele>354.8</ele>
        <time>2019-09-22T10:16:26Z</time>
      </trkpt>
      <trkpt lat="45.70397" lon="4.67232">
        <ele>354.6</ele>
        <time>2019-09-22T10:16:29Z</time>
      </trkpt>
      <trkpt lat="45.70386" lon="4.67251">
        <ele>354.6</ele>
        <time>2019-09-22T10:16:33Z</time>
      </trkpt>
      <trkpt lat="45.70381" lon="4.67269">
        <ele>355.2</ele>
        <time>2019-09-22T10:16:36Z</time>
      </trkpt>
      <trkpt lat="45.70379" lon="4.67281">
        <ele>355.3</ele>
        <time>2019-09-22T10:16:38Z</time>
      </trkpt>
      <trkpt lat="45.70377" lon="4.67292">
        <ele>355.2</ele>
        <time>2019-09-22T10:16:40Z</time>
      </trkpt>
      <trkpt lat="45.70375" lon="4.67307">
        <ele>354.9</ele>
        <time>2019-09-22T10:16:43Z</time>
      </trkpt>
      <trkpt lat="45.70375" lon="4.67326">
        <ele>354.5</ele>
        <time>2019-09-22T10:16:47Z</time>
      </trkpt>
      <trkpt lat="45.70376" lon="4.67345">
        <ele>354.2</ele>
        <time>2019-09-22T10:16:52Z</time>
      </trkpt>
      <trkpt lat="45.70376" lon="4.67354">
        <ele>354.1</ele>
        <time>2019-09-22T10:16:54Z</time>
      </trkpt>
      <trkpt lat="45.70376" lon="4.67359">
        <ele>354.1</ele>
        <time>2019-09-22T10:16:55Z</time>
      </trkpt>
      <trkpt lat="45.70373" lon="4.67376">
        <ele>354.3</ele>
        <time>2019-09-22T10:16:59Z</time>
      </trkpt>
      <trkpt lat="45.70371" lon="4.67386">
        <ele>354.6</ele>
        <time>2019-09-22T10:17:01Z</time>
      </trkpt>
      <trkpt lat="45.70365" lon="4.67398">
        <ele>355.4</ele>
        <time>2019-09-22T10:17:04Z</time>
      </trkpt>
      <trkpt lat="45.70355" lon="4.67422">
        <ele>356.3</ele>
        <time>2019-09-22T10:17:09Z</time>
      </trkpt>
      <trkpt lat="45.70347" lon="4.67442">
        <ele>356.8</ele>
        <time>2019-09-22T10:17:13Z</time>
      </trkpt>
      <trkpt lat="45.70342" lon="4.67459">
        <ele>356.8</ele>
        <time>2019-09-22T10:17:16Z</time>
      </trkpt>
      <trkpt lat="45.70324" lon="4.6751">
        <ele>356</ele>
        <time>2019-09-22T10:17:24Z</time>
      </trkpt>
      <trkpt lat="45.70296" lon="4.67566">
        <ele>354.9</ele>
        <time>2019-09-22T10:17:32Z</time>
      </trkpt>
      <trkpt lat="45.70275" lon="4.67611">
        <ele>353.3</ele>
        <time>2019-09-22T10:17:38Z</time>
      </trkpt>
      <trkpt lat="45.70269" lon="4.67627">
        <ele>352.3</ele>
        <time>2019-09-22T10:17:40Z</time>
      </trkpt>
      <trkpt lat="45.70255" lon="4.67661">
        <ele>350.8</ele>
        <time>2019-09-22T10:17:44Z</time>
      </trkpt>
      <trkpt lat="45.70238" lon="4.67706">
        <ele>349.7</ele>
        <time>2019-09-22T10:17:49Z</time>
      </trkpt>
      <trkpt lat="45.70208" lon="4.67779">
        <ele>349.7</ele>
        <time>2019-09-22T10:17:57Z</time>
      </trkpt>
      <trkpt lat="45.70205" lon="4.67789">
        <ele>349.7</ele>
        <time>2019-09-22T10:17:58Z</time>
      </trkpt>
      <trkpt lat="45.70178" lon="4.67865">
        <ele>349.2</ele>
        <time>2019-09-22T10:18:07Z</time>
      </trkpt>
      <trkpt lat="45.70172" lon="4.67882">
        <ele>349</ele>
        <time>2019-09-22T10:18:09Z</time>
      </trkpt>
      <trkpt lat="45.70156" lon="4.67927">
        <ele>348.8</ele>
        <time>2019-09-22T10:18:15Z</time>
      </trkpt>
      <trkpt lat="45.70152" lon="4.6794">
        <ele>348.8</ele>
        <time>2019-09-22T10:18:17Z</time>
      </trkpt>
      <trkpt lat="45.70149" lon="4.67953">
        <ele>348.8</ele>
        <time>2019-09-22T10:18:19Z</time>
      </trkpt>
      <trkpt lat="45.70141" lon="4.67973">
        <ele>348.8</ele>
        <time>2019-09-22T10:18:22Z</time>
      </trkpt>
      <trkpt lat="45.70134" lon="4.67985">
        <ele>348.8</ele>
        <time>2019-09-22T10:18:24Z</time>
      </trkpt>
      <trkpt lat="45.70108" lon="4.6802">
        <ele>348</ele>
        <time>2019-09-22T10:18:30Z</time>
      </trkpt>
      <trkpt lat="45.70095" lon="4.68034">
        <ele>347.2</ele>
        <time>2019-09-22T10:18:33Z</time>
      </trkpt>
      <trkpt lat="45.70091" lon="4.68035">
        <ele>347</ele>
        <time>2019-09-22T10:18:34Z</time>
      </trkpt>
      <trkpt lat="45.70081" lon="4.68025">
        <ele>346.8</ele>
        <time>2019-09-22T10:18:36Z</time>
      </trkpt>
      <trkpt lat="45.70076" lon="4.68018">
        <ele>346.6</ele>
        <time>2019-09-22T10:18:37Z</time>
      </trkpt>
      <trkpt lat="45.70065" lon="4.68001">
        <ele>346</ele>
        <time>2019-09-22T10:18:40Z</time>
      </trkpt>
      <trkpt lat="45.7006" lon="4.67999">
        <ele>345.9</ele>
        <time>2019-09-22T10:18:41Z</time>
      </trkpt>
      <trkpt lat="45.70053" lon="4.68003">
        <ele>345.1</ele>
        <time>2019-09-22T10:18:43Z</time>
      </trkpt>
      <trkpt lat="45.7005" lon="4.68008">
        <ele>345</ele>
        <time>2019-09-22T10:18:44Z</time>
      </trkpt>
      <trkpt lat="45.70044" lon="4.68021">
        <ele>344.7</ele>
        <time>2019-09-22T10:18:46Z</time>
      </trkpt>
      <trkpt lat="45.70042" lon="4.68028">
        <ele>344.5</ele>
        <time>2019-09-22T10:18:47Z</time>
      </trkpt>
      <trkpt lat="45.70034" lon="4.6805">
        <ele>343.7</ele>
        <time>2019-09-22T10:18:50Z</time>
      </trkpt>
      <trkpt lat="45.7003" lon="4.68067">
        <ele>343.1</ele>
        <time>2019-09-22T10:18:52Z</time>
      </trkpt>
      <trkpt lat="45.70025" lon="4.68092">
        <ele>342.3</ele>
        <time>2019-09-22T10:18:55Z</time>
      </trkpt>
      <trkpt lat="45.70024" lon="4.681">
        <ele>342.1</ele>
        <time>2019-09-22T10:18:56Z</time>
      </trkpt>
      <trkpt lat="45.7002" lon="4.68117">
        <ele>341.3</ele>
        <time>2019-09-22T10:18:58Z</time>
      </trkpt>
      <trkpt lat="45.70013" lon="4.68133">
        <ele>340.3</ele>
        <time>2019-09-22T10:19:00Z</time>
      </trkpt>
      <trkpt lat="45.70004" lon="4.68149">
        <ele>338.8</ele>
        <time>2019-09-22T10:19:02Z</time>
      </trkpt>
      <trkpt lat="45.70001" lon="4.68158">
        <ele>338</ele>
        <time>2019-09-22T10:19:03Z</time>
      </trkpt>
      <trkpt lat="45.69997" lon="4.68168">
        <ele>337.3</ele>
        <time>2019-09-22T10:19:04Z</time>
      </trkpt>
      <trkpt lat="45.69994" lon="4.68179">
        <ele>336.7</ele>
        <time>2019-09-22T10:19:05Z</time>
      </trkpt>
      <trkpt lat="45.69986" lon="4.68199">
        <ele>335.5</ele>
        <time>2019-09-22T10:19:07Z</time>
      </trkpt>
      <trkpt lat="45.69981" lon="4.68215">
        <ele>334.4</ele>
        <time>2019-09-22T10:19:09Z</time>
      </trkpt>
      <trkpt lat="45.69978" lon="4.68223">
        <ele>333.9</ele>
        <time>2019-09-22T10:19:10Z</time>
      </trkpt>
      <trkpt lat="45.69973" lon="4.68252">
        <ele>331.9</ele>
        <time>2019-09-22T10:19:13Z</time>
      </trkpt>
      <trkpt lat="45.69971" lon="4.68263">
        <ele>331.2</ele>
        <time>2019-09-22T10:19:14Z</time>
      </trkpt>
      <trkpt lat="45.69969" lon="4.68284">
        <ele>329.7</ele>
        <time>2019-09-22T10:19:16Z</time>
      </trkpt>
      <trkpt lat="45.69968" lon="4.68296">
        <ele>329</ele>
        <time>2019-09-22T10:19:17Z</time>
      </trkpt>
      <trkpt lat="45.69969" lon="4.6832">
        <ele>328.3</ele>
        <time>2019-09-22T10:19:19Z</time>
      </trkpt>
      <trkpt lat="45.69975" lon="4.68344">
        <ele>327.3</ele>
        <time>2019-09-22T10:19:21Z</time>
      </trkpt>
      <trkpt lat="45.69977" lon="4.68356">
        <ele>326.7</ele>
        <time>2019-09-22T10:19:22Z</time>
      </trkpt>
      <trkpt lat="45.6998" lon="4.68369">
        <ele>326</ele>
        <time>2019-09-22T10:19:23Z</time>
      </trkpt>
      <trkpt lat="45.69988" lon="4.68406">
        <ele>324.4</ele>
        <time>2019-09-22T10:19:26Z</time>
      </trkpt>
      <trkpt lat="45.69993" lon="4.68428">
        <ele>323.5</ele>
        <time>2019-09-22T10:19:28Z</time>
      </trkpt>
      <trkpt lat="45.69995" lon="4.68438">
        <ele>323.3</ele>
        <time>2019-09-22T10:19:29Z</time>
      </trkpt>
      <trkpt lat="45.69994" lon="4.68458">
        <ele>322.9</ele>
        <time>2019-09-22T10:19:31Z</time>
      </trkpt>
      <trkpt lat="45.69993" lon="4.68468">
        <ele>322.7</ele>
        <time>2019-09-22T10:19:32Z</time>
      </trkpt>
      <trkpt lat="45.69988" lon="4.68497">
        <ele>321.9</ele>
        <time>2019-09-22T10:19:35Z</time>
      </trkpt>
      <trkpt lat="45.69984" lon="4.68516">
        <ele>321.1</ele>
        <time>2019-09-22T10:19:37Z</time>
      </trkpt>
      <trkpt lat="45.69978" lon="4.68558">
        <ele>319.8</ele>
        <time>2019-09-22T10:19:41Z</time>
      </trkpt>
      <trkpt lat="45.69975" lon="4.68578">
        <ele>319.5</ele>
        <time>2019-09-22T10:19:43Z</time>
      </trkpt>
      <trkpt lat="45.69969" lon="4.68608">
        <ele>319.4</ele>
        <time>2019-09-22T10:19:46Z</time>
      </trkpt>
      <trkpt lat="45.6996" lon="4.68653">
        <ele>318.7</ele>
        <time>2019-09-22T10:19:51Z</time>
      </trkpt>
      <trkpt lat="45.69956" lon="4.6867">
        <ele>318.4</ele>
        <time>2019-09-22T10:19:53Z</time>
      </trkpt>
      <trkpt lat="45.6995" lon="4.68695">
        <ele>318</ele>
        <time>2019-09-22T10:19:56Z</time>
      </trkpt>
      <trkpt lat="45.69946" lon="4.687">
        <ele>317.9</ele>
        <time>2019-09-22T10:19:57Z</time>
      </trkpt>
      <trkpt lat="45.69936" lon="4.6871">
        <ele>317.8</ele>
        <time>2019-09-22T10:19:59Z</time>
      </trkpt>
      <trkpt lat="45.69929" lon="4.68722">
        <ele>317.5</ele>
        <time>2019-09-22T10:20:01Z</time>
      </trkpt>
      <trkpt lat="45.69925" lon="4.68732">
        <ele>317.3</ele>
        <time>2019-09-22T10:20:03Z</time>
      </trkpt>
      <trkpt lat="45.6992" lon="4.68738">
        <ele>317.3</ele>
        <time>2019-09-22T10:20:05Z</time>
      </trkpt>
      <trkpt lat="45.69916" lon="4.68742">
        <ele>317.4</ele>
        <time>2019-09-22T10:20:07Z</time>
      </trkpt>
      <trkpt lat="45.69911" lon="4.68762">
        <ele>316.9</ele>
        <time>2019-09-22T10:20:11Z</time>
      </trkpt>
      <trkpt lat="45.69909" lon="4.68777">
        <ele>316.4</ele>
        <time>2019-09-22T10:20:13Z</time>
      </trkpt>
      <trkpt lat="45.69907" lon="4.68796">
        <ele>315.6</ele>
        <time>2019-09-22T10:20:15Z</time>
      </trkpt>
      <trkpt lat="45.69906" lon="4.68806">
        <ele>315.2</ele>
        <time>2019-09-22T10:20:16Z</time>
      </trkpt>
      <trkpt lat="45.69905" lon="4.68838">
        <ele>313.7</ele>
        <time>2019-09-22T10:20:19Z</time>
      </trkpt>
      <trkpt lat="45.69903" lon="4.68862">
        <ele>312.5</ele>
        <time>2019-09-22T10:20:21Z</time>
      </trkpt>
      <trkpt lat="45.69903" lon="4.68874">
        <ele>311.8</ele>
        <time>2019-09-22T10:20:22Z</time>
      </trkpt>
      <trkpt lat="45.69901" lon="4.68914">
        <ele>310.7</ele>
        <time>2019-09-22T10:20:25Z</time>
      </trkpt>
      <trkpt lat="45.69898" lon="4.68954">
        <ele>309.9</ele>
        <time>2019-09-22T10:20:28Z</time>
      </trkpt>
      <trkpt lat="45.69896" lon="4.68993">
        <ele>309.2</ele>
        <time>2019-09-22T10:20:31Z</time>
      </trkpt>
      <trkpt lat="45.69894" lon="4.6903">
        <ele>308.8</ele>
        <time>2019-09-22T10:20:34Z</time>
      </trkpt>
      <trkpt lat="45.69892" lon="4.69055">
        <ele>308.5</ele>
        <time>2019-09-22T10:20:36Z</time>
      </trkpt>
      <trkpt lat="45.69888" lon="4.69079">
        <ele>307.8</ele>
        <time>2019-09-22T10:20:38Z</time>
      </trkpt>
      <trkpt lat="45.6988" lon="4.69114">
        <ele>306.8</ele>
        <time>2019-09-22T10:20:41Z</time>
      </trkpt>
      <trkpt lat="45.69869" lon="4.69149">
        <ele>305.8</ele>
        <time>2019-09-22T10:20:44Z</time>
      </trkpt>
      <trkpt lat="45.69857" lon="4.69184">
        <ele>304.8</ele>
        <time>2019-09-22T10:20:47Z</time>
      </trkpt>
      <trkpt lat="45.6985" lon="4.69207">
        <ele>303.9</ele>
        <time>2019-09-22T10:20:49Z</time>
      </trkpt>
      <trkpt lat="45.69848" lon="4.69218">
        <ele>303.6</ele>
        <time>2019-09-22T10:20:50Z</time>
      </trkpt>
      <trkpt lat="45.69841" lon="4.69253">
        <ele>302.7</ele>
        <time>2019-09-22T10:20:53Z</time>
      </trkpt>
      <trkpt lat="45.69836" lon="4.69276">
        <ele>301.9</ele>
        <time>2019-09-22T10:20:55Z</time>
      </trkpt>
      <trkpt lat="45.69834" lon="4.69287">
        <ele>301.5</ele>
        <time>2019-09-22T10:20:56Z</time>
      </trkpt>
      <trkpt lat="45.69831" lon="4.69295">
        <ele>301.2</ele>
        <time>2019-09-22T10:20:57Z</time>
      </trkpt>
      <trkpt lat="45.69828" lon="4.69302">
        <ele>300.9</ele>
        <time>2019-09-22T10:20:58Z</time>
      </trkpt>
      <trkpt lat="45.69819" lon="4.6931">
        <ele>300.2</ele>
        <time>2019-09-22T10:21:00Z</time>
      </trkpt>
      <trkpt lat="45.6981" lon="4.69314">
        <ele>299.6</ele>
        <time>2019-09-22T10:21:02Z</time>
      </trkpt>
      <trkpt lat="45.69805" lon="4.69315">
        <ele>299.4</ele>
        <time>2019-09-22T10:21:03Z</time>
      </trkpt>
      <trkpt lat="45.69801" lon="4.69318">
        <ele>299.2</ele>
        <time>2019-09-22T10:21:04Z</time>
      </trkpt>
      <trkpt lat="45.69795" lon="4.69327">
        <ele>298.9</ele>
        <time>2019-09-22T10:21:06Z</time>
      </trkpt>
      <trkpt lat="45.69791" lon="4.69332">
        <ele>298.7</ele>
        <time>2019-09-22T10:21:07Z</time>
      </trkpt>
      <trkpt lat="45.69786" lon="4.69337">
        <ele>298.4</ele>
        <time>2019-09-22T10:21:08Z</time>
      </trkpt>
      <trkpt lat="45.69774" lon="4.69346">
        <ele>298</ele>
        <time>2019-09-22T10:21:10Z</time>
      </trkpt>
      <trkpt lat="45.69761" lon="4.69356">
        <ele>297.9</ele>
        <time>2019-09-22T10:21:12Z</time>
      </trkpt>
      <trkpt lat="45.69733" lon="4.69379">
        <ele>297.9</ele>
        <time>2019-09-22T10:21:16Z</time>
      </trkpt>
      <trkpt lat="45.69719" lon="4.69391">
        <ele>297.4</ele>
        <time>2019-09-22T10:21:18Z</time>
      </trkpt>
      <trkpt lat="45.69682" lon="4.69415">
        <ele>296.9</ele>
        <time>2019-09-22T10:21:23Z</time>
      </trkpt>
      <trkpt lat="45.69639" lon="4.69432">
        <ele>297.5</ele>
        <time>2019-09-22T10:21:29Z</time>
      </trkpt>
      <trkpt lat="45.69607" lon="4.69442">
        <ele>298.4</ele>
        <time>2019-09-22T10:21:34Z</time>
      </trkpt>
      <trkpt lat="45.69595" lon="4.69442">
        <ele>298.4</ele>
        <time>2019-09-22T10:21:36Z</time>
      </trkpt>
      <trkpt lat="45.69584" lon="4.69441">
        <ele>298.3</ele>
        <time>2019-09-22T10:21:38Z</time>
      </trkpt>
      <trkpt lat="45.69559" lon="4.69437">
        <ele>299.4</ele>
        <time>2019-09-22T10:21:43Z</time>
      </trkpt>
      <trkpt lat="45.69555" lon="4.69437">
        <ele>299.8</ele>
        <time>2019-09-22T10:21:44Z</time>
      </trkpt>
      <trkpt lat="45.69541" lon="4.69438">
        <ele>300.2</ele>
        <time>2019-09-22T10:21:48Z</time>
      </trkpt>
      <trkpt lat="45.69532" lon="4.69442">
        <ele>299.4</ele>
        <time>2019-09-22T10:21:51Z</time>
      </trkpt>
      <trkpt lat="45.69518" lon="4.69449">
        <ele>298.2</ele>
        <time>2019-09-22T10:21:55Z</time>
      </trkpt>
      <trkpt lat="45.69503" lon="4.69466">
        <ele>296.6</ele>
        <time>2019-09-22T10:21:59Z</time>
      </trkpt>
      <trkpt lat="45.69499" lon="4.69468">
        <ele>296.3</ele>
        <time>2019-09-22T10:22:00Z</time>
      </trkpt>
      <trkpt lat="45.69485" lon="4.69463">
        <ele>295.4</ele>
        <time>2019-09-22T10:22:03Z</time>
      </trkpt>
      <trkpt lat="45.69481" lon="4.6946">
        <ele>295.1</ele>
        <time>2019-09-22T10:22:04Z</time>
      </trkpt>
      <trkpt lat="45.69463" lon="4.69454">
        <ele>293.8</ele>
        <time>2019-09-22T10:22:07Z</time>
      </trkpt>
      <trkpt lat="45.69455" lon="4.69452">
        <ele>293.2</ele>
        <time>2019-09-22T10:22:08Z</time>
      </trkpt>
      <trkpt lat="45.6944" lon="4.69452">
        <ele>292</ele>
        <time>2019-09-22T10:22:10Z</time>
      </trkpt>
      <trkpt lat="45.69425" lon="4.69458">
        <ele>290.7</ele>
        <time>2019-09-22T10:22:12Z</time>
      </trkpt>
      <trkpt lat="45.69411" lon="4.69466">
        <ele>289.4</ele>
        <time>2019-09-22T10:22:14Z</time>
      </trkpt>
      <trkpt lat="45.69392" lon="4.69479">
        <ele>288.9</ele>
        <time>2019-09-22T10:22:17Z</time>
      </trkpt>
      <trkpt lat="45.69374" lon="4.69496">
        <ele>288.4</ele>
        <time>2019-09-22T10:22:20Z</time>
      </trkpt>
      <trkpt lat="45.69356" lon="4.69516">
        <ele>287.8</ele>
        <time>2019-09-22T10:22:23Z</time>
      </trkpt>
      <trkpt lat="45.69335" lon="4.69548">
        <ele>287.6</ele>
        <time>2019-09-22T10:22:27Z</time>
      </trkpt>
      <trkpt lat="45.69325" lon="4.69564">
        <ele>287.9</ele>
        <time>2019-09-22T10:22:29Z</time>
      </trkpt>
      <trkpt lat="45.69321" lon="4.69573">
        <ele>288.1</ele>
        <time>2019-09-22T10:22:30Z</time>
      </trkpt>
      <trkpt lat="45.69314" lon="4.69591">
        <ele>288.4</ele>
        <time>2019-09-22T10:22:32Z</time>
      </trkpt>
      <trkpt lat="45.69311" lon="4.69601">
        <ele>288.5</ele>
        <time>2019-09-22T10:22:33Z</time>
      </trkpt>
      <trkpt lat="45.69309" lon="4.6961">
        <ele>288.5</ele>
        <time>2019-09-22T10:22:34Z</time>
      </trkpt>
      <trkpt lat="45.69302" lon="4.69637">
        <ele>288.6</ele>
        <time>2019-09-22T10:22:37Z</time>
      </trkpt>
      <trkpt lat="45.69295" lon="4.69672">
        <ele>288.9</ele>
        <time>2019-09-22T10:22:41Z</time>
      </trkpt>
      <trkpt lat="45.69286" lon="4.69746">
        <ele>289.5</ele>
        <time>2019-09-22T10:22:50Z</time>
      </trkpt>
      <trkpt lat="45.69288" lon="4.69804">
        <ele>290.3</ele>
        <time>2019-09-22T10:22:57Z</time>
      </trkpt>
      <trkpt lat="45.69293" lon="4.69839">
        <ele>290.9</ele>
        <time>2019-09-22T10:23:01Z</time>
      </trkpt>
      <trkpt lat="45.69298" lon="4.69864">
        <ele>291.4</ele>
        <time>2019-09-22T10:23:04Z</time>
      </trkpt>
      <trkpt lat="45.693" lon="4.69872">
        <ele>291.6</ele>
        <time>2019-09-22T10:23:05Z</time>
      </trkpt>
      <trkpt lat="45.69308" lon="4.69902">
        <ele>292.3</ele>
        <time>2019-09-22T10:23:09Z</time>
      </trkpt>
      <trkpt lat="45.69313" lon="4.69916">
        <ele>292.8</ele>
        <time>2019-09-22T10:23:11Z</time>
      </trkpt>
      <trkpt lat="45.69323" lon="4.69942">
        <ele>293.7</ele>
        <time>2019-09-22T10:23:15Z</time>
      </trkpt>
      <trkpt lat="45.69332" lon="4.69961">
        <ele>294</ele>
        <time>2019-09-22T10:23:18Z</time>
      </trkpt>
      <trkpt lat="45.69337" lon="4.69972">
        <ele>294</ele>
        <time>2019-09-22T10:23:20Z</time>
      </trkpt>
      <trkpt lat="45.69354" lon="4.70004">
        <ele>294.7</ele>
        <time>2019-09-22T10:23:26Z</time>
      </trkpt>
      <trkpt lat="45.69364" lon="4.70023">
        <ele>295.8</ele>
        <time>2019-09-22T10:23:31Z</time>
      </trkpt>
      <trkpt lat="45.69369" lon="4.70032">
        <ele>296</ele>
        <time>2019-09-22T10:23:33Z</time>
      </trkpt>
      <trkpt lat="45.69376" lon="4.7005">
        <ele>296.5</ele>
        <time>2019-09-22T10:23:36Z</time>
      </trkpt>
      <trkpt lat="45.6939" lon="4.701">
        <ele>297.8</ele>
        <time>2019-09-22T10:23:44Z</time>
      </trkpt>
      <trkpt lat="45.69394" lon="4.70122">
        <ele>298.3</ele>
        <time>2019-09-22T10:23:47Z</time>
      </trkpt>
      <trkpt lat="45.69399" lon="4.70165">
        <ele>299.5</ele>
        <time>2019-09-22T10:23:53Z</time>
      </trkpt>
      <trkpt lat="45.69399" lon="4.70172">
        <ele>299.7</ele>
        <time>2019-09-22T10:23:54Z</time>
      </trkpt>
      <trkpt lat="45.694" lon="4.70226">
        <ele>300</ele>
        <time>2019-09-22T10:24:01Z</time>
      </trkpt>
      <trkpt lat="45.69393" lon="4.7028">
        <ele>301.2</ele>
        <time>2019-09-22T10:24:08Z</time>
      </trkpt>
      <trkpt lat="45.69392" lon="4.70288">
        <ele>301.4</ele>
        <time>2019-09-22T10:24:09Z</time>
      </trkpt>
      <trkpt lat="45.69376" lon="4.70344">
        <ele>302</ele>
        <time>2019-09-22T10:24:17Z</time>
      </trkpt>
      <trkpt lat="45.6936" lon="4.70385">
        <ele>302</ele>
        <time>2019-09-22T10:24:24Z</time>
      </trkpt>
      <trkpt lat="45.69358" lon="4.7039">
        <ele>302</ele>
        <time>2019-09-22T10:24:25Z</time>
      </trkpt>
      <trkpt lat="45.69355" lon="4.70394">
        <ele>302</ele>
        <time>2019-09-22T10:24:26Z</time>
      </trkpt>
      <trkpt lat="45.69348" lon="4.70404">
        <ele>302</ele>
        <time>2019-09-22T10:24:28Z</time>
      </trkpt>
      <trkpt lat="45.69345" lon="4.70409">
        <ele>302</ele>
        <time>2019-09-22T10:24:29Z</time>
      </trkpt>
      <trkpt lat="45.69325" lon="4.70436">
        <ele>302.1</ele>
        <time>2019-09-22T10:24:35Z</time>
      </trkpt>
      <trkpt lat="45.69322" lon="4.70441">
        <ele>302.1</ele>
        <time>2019-09-22T10:24:36Z</time>
      </trkpt>
      <trkpt lat="45.69303" lon="4.70461">
        <ele>302.3</ele>
        <time>2019-09-22T10:24:41Z</time>
      </trkpt>
      <trkpt lat="45.69287" lon="4.70476">
        <ele>302.7</ele>
        <time>2019-09-22T10:24:45Z</time>
      </trkpt>
      <trkpt lat="45.69265" lon="4.7049">
        <ele>303.3</ele>
        <time>2019-09-22T10:24:50Z</time>
      </trkpt>
      <trkpt lat="45.69234" lon="4.70507">
        <ele>304</ele>
        <time>2019-09-22T10:24:57Z</time>
      </trkpt>
      <trkpt lat="45.6923" lon="4.70509">
        <ele>304.1</ele>
        <time>2019-09-22T10:24:58Z</time>
      </trkpt>
      <trkpt lat="45.69216" lon="4.70512">
        <ele>304.3</ele>
        <time>2019-09-22T10:25:01Z</time>
      </trkpt>
      <trkpt lat="45.69191" lon="4.70517">
        <ele>305</ele>
        <time>2019-09-22T10:25:06Z</time>
      </trkpt>
      <trkpt lat="45.69186" lon="4.70517">
        <ele>305.3</ele>
        <time>2019-09-22T10:25:07Z</time>
      </trkpt>
      <trkpt lat="45.69155" lon="4.70518">
        <ele>305.7</ele>
        <time>2019-09-22T10:25:14Z</time>
      </trkpt>
      <trkpt lat="45.6915" lon="4.70516">
        <ele>305.8</ele>
        <time>2019-09-22T10:25:15Z</time>
      </trkpt>
      <trkpt lat="45.69124" lon="4.70511">
        <ele>306.3</ele>
        <time>2019-09-22T10:25:21Z</time>
      </trkpt>
      <trkpt lat="45.6912" lon="4.7051">
        <ele>306.4</ele>
        <time>2019-09-22T10:25:22Z</time>
      </trkpt>
      <trkpt lat="45.69091" lon="4.70502">
        <ele>307</ele>
        <time>2019-09-22T10:25:29Z</time>
      </trkpt>
      <trkpt lat="45.69049" lon="4.70496">
        <ele>307.9</ele>
        <time>2019-09-22T10:25:38Z</time>
      </trkpt>
      <trkpt lat="45.69007" lon="4.70501">
        <ele>308.6</ele>
        <time>2019-09-22T10:25:47Z</time>
      </trkpt>
      <trkpt lat="45.68994" lon="4.70505">
        <ele>308.9</ele>
        <time>2019-09-22T10:25:50Z</time>
      </trkpt>
      <trkpt lat="45.68972" lon="4.70514">
        <ele>309.4</ele>
        <time>2019-09-22T10:25:55Z</time>
      </trkpt>
      <trkpt lat="45.6896" lon="4.70521">
        <ele>309.7</ele>
        <time>2019-09-22T10:25:58Z</time>
      </trkpt>
      <trkpt lat="45.68947" lon="4.70529">
        <ele>309.9</ele>
        <time>2019-09-22T10:26:01Z</time>
      </trkpt>
      <trkpt lat="45.68921" lon="4.70551">
        <ele>310.6</ele>
        <time>2019-09-22T10:26:08Z</time>
      </trkpt>
      <trkpt lat="45.68891" lon="4.70588">
        <ele>311.5</ele>
        <time>2019-09-22T10:26:17Z</time>
      </trkpt>
      <trkpt lat="45.68878" lon="4.70606">
        <ele>311.8</ele>
        <time>2019-09-22T10:26:21Z</time>
      </trkpt>
      <trkpt lat="45.68869" lon="4.70621">
        <ele>311.9</ele>
        <time>2019-09-22T10:26:24Z</time>
      </trkpt>
      <trkpt lat="45.68864" lon="4.70631">
        <ele>312</ele>
        <time>2019-09-22T10:26:26Z</time>
      </trkpt>
      <trkpt lat="45.68852" lon="4.70658">
        <ele>312.4</ele>
        <time>2019-09-22T10:26:31Z</time>
      </trkpt>
      <trkpt lat="45.68845" lon="4.70683">
        <ele>313.1</ele>
        <time>2019-09-22T10:26:36Z</time>
      </trkpt>
      <trkpt lat="45.6884" lon="4.70698">
        <ele>313.5</ele>
        <time>2019-09-22T10:26:41Z</time>
      </trkpt>
      <trkpt lat="45.68836" lon="4.7071">
        <ele>314.1</ele>
        <time>2019-09-22T10:26:45Z</time>
      </trkpt>
      <trkpt lat="45.68828" lon="4.70736">
        <ele>315.7</ele>
        <time>2019-09-22T10:26:51Z</time>
      </trkpt>
      <trkpt lat="45.68819" lon="4.70757">
        <ele>317</ele>
        <time>2019-09-22T10:26:56Z</time>
      </trkpt>
      <trkpt lat="45.68816" lon="4.70766">
        <ele>317.3</ele>
        <time>2019-09-22T10:26:58Z</time>
      </trkpt>
      <trkpt lat="45.68812" lon="4.70788">
        <ele>318.2</ele>
        <time>2019-09-22T10:27:03Z</time>
      </trkpt>
      <trkpt lat="45.6881" lon="4.70792">
        <ele>318.4</ele>
        <time>2019-09-22T10:27:04Z</time>
      </trkpt>
      <trkpt lat="45.68805" lon="4.70804">
        <ele>319</ele>
        <time>2019-09-22T10:27:07Z</time>
      </trkpt>
      <trkpt lat="45.68799" lon="4.70818">
        <ele>319.6</ele>
        <time>2019-09-22T10:27:11Z</time>
      </trkpt>
      <trkpt lat="45.68791" lon="4.70839">
        <ele>320.2</ele>
        <time>2019-09-22T10:27:17Z</time>
      </trkpt>
      <trkpt lat="45.6879" lon="4.70843">
        <ele>320.3</ele>
        <time>2019-09-22T10:27:18Z</time>
      </trkpt>
      <trkpt lat="45.68784" lon="4.70858">
        <ele>320.7</ele>
        <time>2019-09-22T10:27:22Z</time>
      </trkpt>
      <trkpt lat="45.68778" lon="4.70868">
        <ele>321</ele>
        <time>2019-09-22T10:27:25Z</time>
      </trkpt>
      <trkpt lat="45.68771" lon="4.70881">
        <ele>321.3</ele>
        <time>2019-09-22T10:27:29Z</time>
      </trkpt>
      <trkpt lat="45.68766" lon="4.70891">
        <ele>321.5</ele>
        <time>2019-09-22T10:27:32Z</time>
      </trkpt>
      <trkpt lat="45.68749" lon="4.70911">
        <ele>322.1</ele>
        <time>2019-09-22T10:27:39Z</time>
      </trkpt>
      <trkpt lat="45.68739" lon="4.70924">
        <ele>322.4</ele>
        <time>2019-09-22T10:27:44Z</time>
      </trkpt>
      <trkpt lat="45.68737" lon="4.70927">
        <ele>322.4</ele>
        <time>2019-09-22T10:27:45Z</time>
      </trkpt>
      <trkpt lat="45.68724" lon="4.70944">
        <ele>322.4</ele>
        <time>2019-09-22T10:27:51Z</time>
      </trkpt>
      <trkpt lat="45.68716" lon="4.70958">
        <ele>322.3</ele>
        <time>2019-09-22T10:27:56Z</time>
      </trkpt>
      <trkpt lat="45.68712" lon="4.70975">
        <ele>322.1</ele>
        <time>2019-09-22T10:28:12Z</time>
      </trkpt>
      <trkpt lat="45.68711" lon="4.70982">
        <ele>321.9</ele>
        <time>2019-09-22T10:28:14Z</time>
      </trkpt>
      <trkpt lat="45.6871" lon="4.71006">
        <ele>321.2</ele>
        <time>2019-09-22T10:28:18Z</time>
      </trkpt>
      <trkpt lat="45.68711" lon="4.71014">
        <ele>321</ele>
        <time>2019-09-22T10:28:19Z</time>
      </trkpt>
      <trkpt lat="45.68717" lon="4.71039">
        <ele>320.4</ele>
        <time>2019-09-22T10:28:22Z</time>
      </trkpt>
      <trkpt lat="45.6872" lon="4.71048">
        <ele>320.2</ele>
        <time>2019-09-22T10:28:23Z</time>
      </trkpt>
      <trkpt lat="45.68723" lon="4.71059">
        <ele>319.9</ele>
        <time>2019-09-22T10:28:24Z</time>
      </trkpt>
      <trkpt lat="45.68732" lon="4.71091">
        <ele>318.6</ele>
        <time>2019-09-22T10:28:27Z</time>
      </trkpt>
      <trkpt lat="45.68739" lon="4.71115">
        <ele>317.7</ele>
        <time>2019-09-22T10:28:29Z</time>
      </trkpt>
      <trkpt lat="45.68742" lon="4.71127">
        <ele>317.2</ele>
        <time>2019-09-22T10:28:30Z</time>
      </trkpt>
      <trkpt lat="45.68749" lon="4.71152">
        <ele>316.2</ele>
        <time>2019-09-22T10:28:32Z</time>
      </trkpt>
      <trkpt lat="45.68756" lon="4.71178">
        <ele>315.7</ele>
        <time>2019-09-22T10:28:34Z</time>
      </trkpt>
      <trkpt lat="45.6876" lon="4.71191">
        <ele>315.6</ele>
        <time>2019-09-22T10:28:35Z</time>
      </trkpt>
      <trkpt lat="45.68763" lon="4.71204">
        <ele>315.4</ele>
        <time>2019-09-22T10:28:36Z</time>
      </trkpt>
      <trkpt lat="45.6877" lon="4.7123">
        <ele>314.6</ele>
        <time>2019-09-22T10:28:38Z</time>
      </trkpt>
      <trkpt lat="45.68776" lon="4.71256">
        <ele>313.7</ele>
        <time>2019-09-22T10:28:40Z</time>
      </trkpt>
      <trkpt lat="45.68784" lon="4.71281">
        <ele>312.9</ele>
        <time>2019-09-22T10:28:42Z</time>
      </trkpt>
      <trkpt lat="45.68789" lon="4.71292">
        <ele>312.2</ele>
        <time>2019-09-22T10:28:43Z</time>
      </trkpt>
      <trkpt lat="45.68795" lon="4.71304">
        <ele>311.3</ele>
        <time>2019-09-22T10:28:44Z</time>
      </trkpt>
      <trkpt lat="45.6881" lon="4.71323">
        <ele>309.9</ele>
        <time>2019-09-22T10:28:46Z</time>
      </trkpt>
      <trkpt lat="45.68819" lon="4.71332">
        <ele>309.2</ele>
        <time>2019-09-22T10:28:47Z</time>
      </trkpt>
      <trkpt lat="45.68838" lon="4.71347">
        <ele>308.2</ele>
        <time>2019-09-22T10:28:49Z</time>
      </trkpt>
      <trkpt lat="45.68847" lon="4.71354">
        <ele>307.7</ele>
        <time>2019-09-22T10:28:50Z</time>
      </trkpt>
      <trkpt lat="45.68857" lon="4.71361">
        <ele>307.3</ele>
        <time>2019-09-22T10:28:51Z</time>
      </trkpt>
      <trkpt lat="45.68885" lon="4.71383">
        <ele>306.3</ele>
        <time>2019-09-22T10:28:54Z</time>
      </trkpt>
      <trkpt lat="45.68903" lon="4.71398">
        <ele>305.3</ele>
        <time>2019-09-22T10:28:56Z</time>
      </trkpt>
      <trkpt lat="45.68923" lon="4.71412">
        <ele>304.4</ele>
        <time>2019-09-22T10:28:58Z</time>
      </trkpt>
      <trkpt lat="45.6894" lon="4.71423">
        <ele>303.4</ele>
        <time>2019-09-22T10:29:00Z</time>
      </trkpt>
      <trkpt lat="45.68947" lon="4.71427">
        <ele>302.7</ele>
        <time>2019-09-22T10:29:01Z</time>
      </trkpt>
      <trkpt lat="45.68959" lon="4.71437">
        <ele>302.3</ele>
        <time>2019-09-22T10:29:03Z</time>
      </trkpt>
      <trkpt lat="45.68976" lon="4.71453">
        <ele>301.9</ele>
        <time>2019-09-22T10:29:06Z</time>
      </trkpt>
      <trkpt lat="45.68989" lon="4.71462">
        <ele>301.6</ele>
        <time>2019-09-22T10:29:08Z</time>
      </trkpt>
      <trkpt lat="45.69017" lon="4.71482">
        <ele>300.7</ele>
        <time>2019-09-22T10:29:12Z</time>
      </trkpt>
      <trkpt lat="45.69068" lon="4.71517">
        <ele>299.5</ele>
        <time>2019-09-22T10:29:19Z</time>
      </trkpt>
      <trkpt lat="45.69076" lon="4.71521">
        <ele>299.4</ele>
        <time>2019-09-22T10:29:20Z</time>
      </trkpt>
      <trkpt lat="45.69131" lon="4.71546">
        <ele>298.5</ele>
        <time>2019-09-22T10:29:27Z</time>
      </trkpt>
      <trkpt lat="45.6914" lon="4.71548">
        <ele>298.5</ele>
        <time>2019-09-22T10:29:28Z</time>
      </trkpt>
      <trkpt lat="45.69178" lon="4.71558">
        <ele>298.3</ele>
        <time>2019-09-22T10:29:33Z</time>
      </trkpt>
      <trkpt lat="45.69211" lon="4.71583">
        <ele>297.6</ele>
        <time>2019-09-22T10:29:38Z</time>
      </trkpt>
      <trkpt lat="45.69216" lon="4.7159">
        <ele>297.4</ele>
        <time>2019-09-22T10:29:39Z</time>
      </trkpt>
      <trkpt lat="45.69231" lon="4.71614">
        <ele>296.1</ele>
        <time>2019-09-22T10:29:42Z</time>
      </trkpt>
      <trkpt lat="45.69235" lon="4.71622">
        <ele>295.7</ele>
        <time>2019-09-22T10:29:43Z</time>
      </trkpt>
      <trkpt lat="45.69249" lon="4.71655">
        <ele>295.3</ele>
        <time>2019-09-22T10:29:47Z</time>
      </trkpt>
      <trkpt lat="45.69272" lon="4.71692">
        <ele>295.2</ele>
        <time>2019-09-22T10:29:53Z</time>
      </trkpt>
      <trkpt lat="45.69298" lon="4.71734">
        <ele>293.9</ele>
        <time>2019-09-22T10:30:00Z</time>
      </trkpt>
      <trkpt lat="45.69302" lon="4.71742">
        <ele>293.4</ele>
        <time>2019-09-22T10:30:01Z</time>
      </trkpt>
      <trkpt lat="45.69317" lon="4.71765">
        <ele>291.9</ele>
        <time>2019-09-22T10:30:04Z</time>
      </trkpt>
      <trkpt lat="45.69322" lon="4.71774">
        <ele>291.4</ele>
        <time>2019-09-22T10:30:05Z</time>
      </trkpt>
      <trkpt lat="45.69341" lon="4.71801">
        <ele>289.5</ele>
        <time>2019-09-22T10:30:08Z</time>
      </trkpt>
      <trkpt lat="45.69354" lon="4.7182">
        <ele>288.3</ele>
        <time>2019-09-22T10:30:10Z</time>
      </trkpt>
      <trkpt lat="45.69361" lon="4.71829">
        <ele>287.9</ele>
        <time>2019-09-22T10:30:11Z</time>
      </trkpt>
      <trkpt lat="45.69372" lon="4.71847">
        <ele>287.1</ele>
        <time>2019-09-22T10:30:13Z</time>
      </trkpt>
      <trkpt lat="45.69384" lon="4.71863">
        <ele>286.4</ele>
        <time>2019-09-22T10:30:15Z</time>
      </trkpt>
      <trkpt lat="45.6939" lon="4.71871">
        <ele>286.1</ele>
        <time>2019-09-22T10:30:16Z</time>
      </trkpt>
      <trkpt lat="45.69406" lon="4.71895">
        <ele>285.5</ele>
        <time>2019-09-22T10:30:19Z</time>
      </trkpt>
      <trkpt lat="45.69411" lon="4.71903">
        <ele>285.3</ele>
        <time>2019-09-22T10:30:20Z</time>
      </trkpt>
      <trkpt lat="45.69421" lon="4.71918">
        <ele>285.2</ele>
        <time>2019-09-22T10:30:22Z</time>
      </trkpt>
      <trkpt lat="45.69434" lon="4.71944">
        <ele>284.9</ele>
        <time>2019-09-22T10:30:25Z</time>
      </trkpt>
      <trkpt lat="45.69438" lon="4.71954">
        <ele>284.8</ele>
        <time>2019-09-22T10:30:26Z</time>
      </trkpt>
      <trkpt lat="45.6944" lon="4.71964">
        <ele>284.7</ele>
        <time>2019-09-22T10:30:27Z</time>
      </trkpt>
      <trkpt lat="45.69442" lon="4.71984">
        <ele>284.4</ele>
        <time>2019-09-22T10:30:29Z</time>
      </trkpt>
      <trkpt lat="45.6944" lon="4.72004">
        <ele>283.8</ele>
        <time>2019-09-22T10:30:31Z</time>
      </trkpt>
      <trkpt lat="45.69438" lon="4.72033">
        <ele>282.4</ele>
        <time>2019-09-22T10:30:34Z</time>
      </trkpt>
      <trkpt lat="45.69433" lon="4.72084">
        <ele>277.1</ele>
        <time>2019-09-22T10:30:40Z</time>
      </trkpt>
      <trkpt lat="45.69432" lon="4.72098">
        <ele>275.5</ele>
        <time>2019-09-22T10:30:42Z</time>
      </trkpt>
      <trkpt lat="45.69433" lon="4.72108">
        <ele>274.3</ele>
        <time>2019-09-22T10:30:44Z</time>
      </trkpt>
      <trkpt lat="45.69436" lon="4.72116">
        <ele>273.3</ele>
        <time>2019-09-22T10:30:46Z</time>
      </trkpt>
      <trkpt lat="45.69436" lon="4.72122">
        <ele>272.5</ele>
        <time>2019-09-22T10:30:48Z</time>
      </trkpt>
      <trkpt lat="45.69436" lon="4.72131">
        <ele>271.3</ele>
        <time>2019-09-22T10:30:50Z</time>
      </trkpt>
      <trkpt lat="45.69435" lon="4.72145">
        <ele>269.7</ele>
        <time>2019-09-22T10:30:53Z</time>
      </trkpt>
      <trkpt lat="45.69434" lon="4.72166">
        <ele>267</ele>
        <time>2019-09-22T10:30:58Z</time>
      </trkpt>
      <trkpt lat="45.69437" lon="4.72184">
        <ele>264.8</ele>
        <time>2019-09-22T10:31:03Z</time>
      </trkpt>
      <trkpt lat="45.69438" lon="4.72188">
        <ele>264.5</ele>
        <time>2019-09-22T10:31:04Z</time>
      </trkpt>
      <trkpt lat="45.69441" lon="4.7221">
        <ele>262.7</ele>
        <time>2019-09-22T10:31:08Z</time>
      </trkpt>
      <trkpt lat="45.69445" lon="4.72246">
        <ele>259.6</ele>
        <time>2019-09-22T10:31:14Z</time>
      </trkpt>
      <trkpt lat="45.69444" lon="4.72268">
        <ele>257.1</ele>
        <time>2019-09-22T10:31:19Z</time>
      </trkpt>
      <trkpt lat="45.69444" lon="4.72277">
        <ele>255.7</ele>
        <time>2019-09-22T10:31:21Z</time>
      </trkpt>
      <trkpt lat="45.69445" lon="4.72288">
        <ele>254.2</ele>
        <time>2019-09-22T10:31:24Z</time>
      </trkpt>
      <trkpt lat="45.69445" lon="4.72296">
        <ele>252.9</ele>
        <time>2019-09-22T10:31:27Z</time>
      </trkpt>
      <trkpt lat="45.69445" lon="4.72301">
        <ele>252.3</ele>
        <time>2019-09-22T10:31:30Z</time>
      </trkpt>
      <trkpt lat="45.69445" lon="4.72304">
        <ele>251.9</ele>
        <time>2019-09-22T10:31:31Z</time>
      </trkpt>
      <trkpt lat="45.69444" lon="4.72307">
        <ele>251.5</ele>
        <time>2019-09-22T10:31:32Z</time>
      </trkpt>
      <trkpt lat="45.69442" lon="4.72315">
        <ele>250.1</ele>
        <time>2019-09-22T10:31:35Z</time>
      </trkpt>
      <trkpt lat="45.69441" lon="4.72317">
        <ele>249.7</ele>
        <time>2019-09-22T10:31:36Z</time>
      </trkpt>
      <trkpt lat="45.69439" lon="4.72319">
        <ele>249.4</ele>
        <time>2019-09-22T10:31:37Z</time>
      </trkpt>
      <trkpt lat="45.69438" lon="4.72324">
        <ele>248.7</ele>
        <time>2019-09-22T10:31:39Z</time>
      </trkpt>
      <trkpt lat="45.69437" lon="4.72327">
        <ele>248.1</ele>
        <time>2019-09-22T10:31:41Z</time>
      </trkpt>
      <trkpt lat="45.69437" lon="4.72328">
        <ele>247.8</ele>
        <time>2019-09-22T10:31:42Z</time>
      </trkpt>
      <trkpt lat="45.69436" lon="4.7233">
        <ele>247.5</ele>
        <time>2019-09-22T10:31:43Z</time>
      </trkpt>
      <trkpt lat="45.69433" lon="4.72336">
        <ele>246.3</ele>
        <time>2019-09-22T10:31:45Z</time>
      </trkpt>
      <trkpt lat="45.69432" lon="4.72339">
        <ele>245.5</ele>
        <time>2019-09-22T10:31:46Z</time>
      </trkpt>
      <trkpt lat="45.69432" lon="4.72341">
        <ele>245.4</ele>
        <time>2019-09-22T10:31:47Z</time>
      </trkpt>
      <trkpt lat="45.69433" lon="4.72348">
        <ele>245.2</ele>
        <time>2019-09-22T10:32:42Z</time>
      </trkpt>
      <trkpt lat="45.69438" lon="4.72361">
        <ele>244.9</ele>
        <time>2019-09-22T10:32:44Z</time>
      </trkpt>
      <trkpt lat="45.69445" lon="4.72375">
        <ele>244.6</ele>
        <time>2019-09-22T10:32:46Z</time>
      </trkpt>
      <trkpt lat="45.69449" lon="4.72381">
        <ele>244.4</ele>
        <time>2019-09-22T10:32:47Z</time>
      </trkpt>
      <trkpt lat="45.69453" lon="4.72387">
        <ele>244.2</ele>
        <time>2019-09-22T10:32:48Z</time>
      </trkpt>
      <trkpt lat="45.69463" lon="4.72398">
        <ele>243.8</ele>
        <time>2019-09-22T10:32:50Z</time>
      </trkpt>
      <trkpt lat="45.69468" lon="4.72405">
        <ele>243.6</ele>
        <time>2019-09-22T10:32:51Z</time>
      </trkpt>
      <trkpt lat="45.69476" lon="4.72418">
        <ele>243.1</ele>
        <time>2019-09-22T10:32:53Z</time>
      </trkpt>
      <trkpt lat="45.69475" lon="4.72429">
        <ele>242.7</ele>
        <time>2019-09-22T10:32:55Z</time>
      </trkpt>
      <trkpt lat="45.69466" lon="4.72431">
        <ele>242.3</ele>
        <time>2019-09-22T10:32:58Z</time>
      </trkpt>
      <trkpt lat="45.69451" lon="4.72421">
        <ele>241.6</ele>
        <time>2019-09-22T10:33:01Z</time>
      </trkpt>
      <trkpt lat="45.69426" lon="4.72401">
        <ele>240.8</ele>
        <time>2019-09-22T10:33:05Z</time>
      </trkpt>
      <trkpt lat="45.69415" lon="4.72394">
        <ele>240.7</ele>
        <time>2019-09-22T10:33:07Z</time>
      </trkpt>
      <trkpt lat="45.69412" lon="4.72395">
        <ele>240.8</ele>
        <time>2019-09-22T10:33:08Z</time>
      </trkpt>
      <trkpt lat="45.6941" lon="4.72398">
        <ele>240.8</ele>
        <time>2019-09-22T10:33:09Z</time>
      </trkpt>
      <trkpt lat="45.69408" lon="4.72409">
        <ele>238.5</ele>
        <time>2019-09-22T10:33:11Z</time>
      </trkpt>
      <trkpt lat="45.69409" lon="4.72416">
        <ele>237.9</ele>
        <time>2019-09-22T10:33:12Z</time>
      </trkpt>
      <trkpt lat="45.6941" lon="4.72436">
        <ele>235.9</ele>
        <time>2019-09-22T10:33:15Z</time>
      </trkpt>
      <trkpt lat="45.69413" lon="4.72451">
        <ele>234.9</ele>
        <time>2019-09-22T10:33:17Z</time>
      </trkpt>
      <trkpt lat="45.69419" lon="4.72496">
        <ele>234.4</ele>
        <time>2019-09-22T10:33:22Z</time>
      </trkpt>
      <trkpt lat="45.69421" lon="4.72533">
        <ele>233.8</ele>
        <time>2019-09-22T10:33:26Z</time>
      </trkpt>
      <trkpt lat="45.69418" lon="4.72552">
        <ele>233.7</ele>
        <time>2019-09-22T10:33:28Z</time>
      </trkpt>
      <trkpt lat="45.69413" lon="4.7257">
        <ele>233.7</ele>
        <time>2019-09-22T10:33:30Z</time>
      </trkpt>
      <trkpt lat="45.6941" lon="4.72586">
        <ele>234.1</ele>
        <time>2019-09-22T10:33:32Z</time>
      </trkpt>
      <trkpt lat="45.69408" lon="4.72591">
        <ele>234.3</ele>
        <time>2019-09-22T10:33:33Z</time>
      </trkpt>
      <trkpt lat="45.69408" lon="4.72599">
        <ele>234.6</ele>
        <time>2019-09-22T10:33:35Z</time>
      </trkpt>
      <trkpt lat="45.69409" lon="4.72601">
        <ele>234.7</ele>
        <time>2019-09-22T10:33:36Z</time>
      </trkpt>
      <trkpt lat="45.69413" lon="4.72614">
        <ele>235.5</ele>
        <time>2019-09-22T10:33:42Z</time>
      </trkpt>
      <trkpt lat="45.69411" lon="4.72616">
        <ele>235.5</ele>
        <time>2019-09-22T10:33:43Z</time>
      </trkpt>
      <trkpt lat="45.69403" lon="4.7262">
        <ele>235.8</ele>
        <time>2019-09-22T10:33:47Z</time>
      </trkpt>
      <trkpt lat="45.69386" lon="4.72634">
        <ele>236.2</ele>
        <time>2019-09-22T10:33:52Z</time>
      </trkpt>
      <trkpt lat="45.69379" lon="4.7264">
        <ele>236.3</ele>
        <time>2019-09-22T10:33:54Z</time>
      </trkpt>
      <trkpt lat="45.69364" lon="4.72653">
        <ele>236.4</ele>
        <time>2019-09-22T10:33:58Z</time>
      </trkpt>
      <trkpt lat="45.69344" lon="4.72676">
        <ele>236.4</ele>
        <time>2019-09-22T10:34:04Z</time>
      </trkpt>
      <trkpt lat="45.69319" lon="4.72702">
        <ele>236.4</ele>
        <time>2019-09-22T10:34:10Z</time>
      </trkpt>
      <trkpt lat="45.69292" lon="4.72723">
        <ele>236.4</ele>
        <time>2019-09-22T10:34:16Z</time>
      </trkpt>
      <trkpt lat="45.69288" lon="4.72727">
        <ele>236.4</ele>
        <time>2019-09-22T10:34:17Z</time>
      </trkpt>
      <trkpt lat="45.69272" lon="4.72745">
        <ele>236.6</ele>
        <time>2019-09-22T10:34:21Z</time>
      </trkpt>
      <trkpt lat="45.69267" lon="4.72749">
        <ele>236.7</ele>
        <time>2019-09-22T10:34:22Z</time>
      </trkpt>
      <trkpt lat="45.69244" lon="4.72777">
        <ele>237</ele>
        <time>2019-09-22T10:34:28Z</time>
      </trkpt>
      <trkpt lat="45.6922" lon="4.7281">
        <ele>236.8</ele>
        <time>2019-09-22T10:34:34Z</time>
      </trkpt>
      <trkpt lat="45.69197" lon="4.72845">
        <ele>236.4</ele>
        <time>2019-09-22T10:34:40Z</time>
      </trkpt>
      <trkpt lat="45.69182" lon="4.72868">
        <ele>236.5</ele>
        <time>2019-09-22T10:34:44Z</time>
      </trkpt>
      <trkpt lat="45.69169" lon="4.72882">
        <ele>236.7</ele>
        <time>2019-09-22T10:34:47Z</time>
      </trkpt>
      <trkpt lat="45.69165" lon="4.72888">
        <ele>236.7</ele>
        <time>2019-09-22T10:34:48Z</time>
      </trkpt>
      <trkpt lat="45.69159" lon="4.72899">
        <ele>236.9</ele>
        <time>2019-09-22T10:34:50Z</time>
      </trkpt>
      <trkpt lat="45.69154" lon="4.72913">
        <ele>237</ele>
        <time>2019-09-22T10:34:52Z</time>
      </trkpt>
      <trkpt lat="45.69151" lon="4.72927">
        <ele>237.2</ele>
        <time>2019-09-22T10:34:54Z</time>
      </trkpt>
      <trkpt lat="45.69144" lon="4.72962">
        <ele>237.3</ele>
        <time>2019-09-22T10:34:59Z</time>
      </trkpt>
      <trkpt lat="45.69142" lon="4.72979">
        <ele>237.4</ele>
        <time>2019-09-22T10:35:01Z</time>
      </trkpt>
      <trkpt lat="45.69138" lon="4.73002">
        <ele>237.4</ele>
        <time>2019-09-22T10:35:04Z</time>
      </trkpt>
      <trkpt lat="45.69135" lon="4.7301">
        <ele>237.4</ele>
        <time>2019-09-22T10:35:05Z</time>
      </trkpt>
      <trkpt lat="45.69128" lon="4.73032">
        <ele>237.1</ele>
        <time>2019-09-22T10:35:08Z</time>
      </trkpt>
      <trkpt lat="45.69121" lon="4.73047">
        <ele>236.9</ele>
        <time>2019-09-22T10:35:10Z</time>
      </trkpt>
      <trkpt lat="45.69118" lon="4.73055">
        <ele>236.8</ele>
        <time>2019-09-22T10:35:11Z</time>
      </trkpt>
      <trkpt lat="45.69117" lon="4.73082">
        <ele>236.6</ele>
        <time>2019-09-22T10:35:14Z</time>
      </trkpt>
      <trkpt lat="45.69125" lon="4.73103">
        <ele>236.7</ele>
        <time>2019-09-22T10:35:17Z</time>
      </trkpt>
      <trkpt lat="45.69134" lon="4.73114">
        <ele>236.9</ele>
        <time>2019-09-22T10:35:19Z</time>
      </trkpt>
      <trkpt lat="45.69142" lon="4.73124">
        <ele>237.1</ele>
        <time>2019-09-22T10:35:21Z</time>
      </trkpt>
      <trkpt lat="45.69147" lon="4.7313">
        <ele>237.3</ele>
        <time>2019-09-22T10:35:22Z</time>
      </trkpt>
      <trkpt lat="45.69151" lon="4.73135">
        <ele>237.5</ele>
        <time>2019-09-22T10:35:23Z</time>
      </trkpt>
      <trkpt lat="45.69169" lon="4.73152">
        <ele>238.3</ele>
        <time>2019-09-22T10:35:27Z</time>
      </trkpt>
      <trkpt lat="45.69173" lon="4.73155">
        <ele>238.5</ele>
        <time>2019-09-22T10:35:28Z</time>
      </trkpt>
      <trkpt lat="45.69181" lon="4.7316">
        <ele>238.8</ele>
        <time>2019-09-22T10:35:30Z</time>
      </trkpt>
      <trkpt lat="45.69196" lon="4.73171">
        <ele>239.2</ele>
        <time>2019-09-22T10:35:34Z</time>
      </trkpt>
      <trkpt lat="45.69199" lon="4.73176">
        <ele>239.2</ele>
        <time>2019-09-22T10:35:35Z</time>
      </trkpt>
      <trkpt lat="45.69204" lon="4.73188">
        <ele>239.4</ele>
        <time>2019-09-22T10:35:37Z</time>
      </trkpt>
      <trkpt lat="45.69208" lon="4.73201">
        <ele>239.6</ele>
        <time>2019-09-22T10:35:39Z</time>
      </trkpt>
      <trkpt lat="45.69223" lon="4.73245">
        <ele>240.1</ele>
        <time>2019-09-22T10:35:45Z</time>
      </trkpt>
      <trkpt lat="45.69225" lon="4.73253">
        <ele>240.1</ele>
        <time>2019-09-22T10:35:46Z</time>
      </trkpt>
      <trkpt lat="45.69226" lon="4.73282">
        <ele>240.1</ele>
        <time>2019-09-22T10:35:49Z</time>
      </trkpt>
      <trkpt lat="45.69223" lon="4.73303">
        <ele>240.1</ele>
        <time>2019-09-22T10:35:51Z</time>
      </trkpt>
      <trkpt lat="45.6922" lon="4.73313">
        <ele>240.2</ele>
        <time>2019-09-22T10:35:52Z</time>
      </trkpt>
      <trkpt lat="45.69216" lon="4.73321">
        <ele>240.3</ele>
        <time>2019-09-22T10:35:53Z</time>
      </trkpt>
      <trkpt lat="45.69209" lon="4.7334">
        <ele>240.7</ele>
        <time>2019-09-22T10:35:55Z</time>
      </trkpt>
      <trkpt lat="45.69202" lon="4.73368">
        <ele>241.2</ele>
        <time>2019-09-22T10:35:58Z</time>
      </trkpt>
      <trkpt lat="45.69199" lon="4.73386">
        <ele>241.5</ele>
        <time>2019-09-22T10:36:00Z</time>
      </trkpt>
      <trkpt lat="45.69197" lon="4.73404">
        <ele>241.8</ele>
        <time>2019-09-22T10:36:02Z</time>
      </trkpt>
      <trkpt lat="45.69194" lon="4.73421">
        <ele>242</ele>
        <time>2019-09-22T10:36:04Z</time>
      </trkpt>
      <trkpt lat="45.69188" lon="4.73445">
        <ele>242</ele>
        <time>2019-09-22T10:36:07Z</time>
      </trkpt>
      <trkpt lat="45.69182" lon="4.73459">
        <ele>242</ele>
        <time>2019-09-22T10:36:09Z</time>
      </trkpt>
      <trkpt lat="45.6917" lon="4.73474">
        <ele>241.9</ele>
        <time>2019-09-22T10:36:12Z</time>
      </trkpt>
      <trkpt lat="45.69166" lon="4.73479">
        <ele>241.8</ele>
        <time>2019-09-22T10:36:13Z</time>
      </trkpt>
      <trkpt lat="45.69161" lon="4.73484">
        <ele>241.6</ele>
        <time>2019-09-22T10:36:14Z</time>
      </trkpt>
      <trkpt lat="45.69134" lon="4.73517">
        <ele>240</ele>
        <time>2019-09-22T10:36:20Z</time>
      </trkpt>
      <trkpt lat="45.69116" lon="4.7355">
        <ele>238.5</ele>
        <time>2019-09-22T10:36:25Z</time>
      </trkpt>
      <trkpt lat="45.69109" lon="4.73564">
        <ele>238.1</ele>
        <time>2019-09-22T10:36:27Z</time>
      </trkpt>
      <trkpt lat="45.69107" lon="4.73572">
        <ele>238</ele>
        <time>2019-09-22T10:36:28Z</time>
      </trkpt>
      <trkpt lat="45.69104" lon="4.7358">
        <ele>237.9</ele>
        <time>2019-09-22T10:36:29Z</time>
      </trkpt>
      <trkpt lat="45.69102" lon="4.73597">
        <ele>237.7</ele>
        <time>2019-09-22T10:36:31Z</time>
      </trkpt>
      <trkpt lat="45.69101" lon="4.73616">
        <ele>237.4</ele>
        <time>2019-09-22T10:36:33Z</time>
      </trkpt>
      <trkpt lat="45.69097" lon="4.73644">
        <ele>237</ele>
        <time>2019-09-22T10:36:36Z</time>
      </trkpt>
      <trkpt lat="45.69094" lon="4.73652">
        <ele>237.1</ele>
        <time>2019-09-22T10:36:37Z</time>
      </trkpt>
      <trkpt lat="45.69075" lon="4.73682">
        <ele>237.7</ele>
        <time>2019-09-22T10:36:41Z</time>
      </trkpt>
      <trkpt lat="45.69063" lon="4.73707">
        <ele>237.8</ele>
        <time>2019-09-22T10:36:44Z</time>
      </trkpt>
      <trkpt lat="45.6906" lon="4.73717">
        <ele>237.8</ele>
        <time>2019-09-22T10:36:45Z</time>
      </trkpt>
      <trkpt lat="45.69058" lon="4.73726">
        <ele>237.8</ele>
        <time>2019-09-22T10:36:46Z</time>
      </trkpt>
      <trkpt lat="45.69053" lon="4.73763">
        <ele>237.8</ele>
        <time>2019-09-22T10:36:50Z</time>
      </trkpt>
      <trkpt lat="45.69053" lon="4.73772">
        <ele>237.8</ele>
        <time>2019-09-22T10:36:51Z</time>
      </trkpt>
      <trkpt lat="45.69053" lon="4.7379">
        <ele>237.8</ele>
        <time>2019-09-22T10:36:53Z</time>
      </trkpt>
      <trkpt lat="45.69053" lon="4.73817">
        <ele>237.7</ele>
        <time>2019-09-22T10:36:56Z</time>
      </trkpt>
      <trkpt lat="45.69053" lon="4.73834">
        <ele>237.7</ele>
        <time>2019-09-22T10:36:58Z</time>
      </trkpt>
      <trkpt lat="45.69052" lon="4.73848">
        <ele>237.7</ele>
        <time>2019-09-22T10:37:00Z</time>
      </trkpt>
      <trkpt lat="45.69047" lon="4.73871">
        <ele>237.3</ele>
        <time>2019-09-22T10:37:03Z</time>
      </trkpt>
      <trkpt lat="45.6904" lon="4.73899">
        <ele>236.8</ele>
        <time>2019-09-22T10:37:06Z</time>
      </trkpt>
      <trkpt lat="45.69033" lon="4.73927">
        <ele>236.7</ele>
        <time>2019-09-22T10:37:09Z</time>
      </trkpt>
      <trkpt lat="45.69012" lon="4.73976">
        <ele>234.5</ele>
        <time>2019-09-22T10:37:15Z</time>
      </trkpt>
      <trkpt lat="45.68989" lon="4.74025">
        <ele>232.7</ele>
        <time>2019-09-22T10:37:21Z</time>
      </trkpt>
      <trkpt lat="45.68986" lon="4.74034">
        <ele>232.4</ele>
        <time>2019-09-22T10:37:22Z</time>
      </trkpt>
      <trkpt lat="45.68973" lon="4.74065">
        <ele>231.4</ele>
        <time>2019-09-22T10:37:26Z</time>
      </trkpt>
      <trkpt lat="45.68966" lon="4.74079">
        <ele>231</ele>
        <time>2019-09-22T10:37:28Z</time>
      </trkpt>
      <trkpt lat="45.68937" lon="4.74124">
        <ele>228.7</ele>
        <time>2019-09-22T10:37:34Z</time>
      </trkpt>
      <trkpt lat="45.68932" lon="4.7413">
        <ele>228.2</ele>
        <time>2019-09-22T10:37:35Z</time>
      </trkpt>
      <trkpt lat="45.68917" lon="4.74152">
        <ele>227</ele>
        <time>2019-09-22T10:37:38Z</time>
      </trkpt>
      <trkpt lat="45.68905" lon="4.74176">
        <ele>226</ele>
        <time>2019-09-22T10:37:41Z</time>
      </trkpt>
      <trkpt lat="45.68899" lon="4.74194">
        <ele>225.4</ele>
        <time>2019-09-22T10:37:43Z</time>
      </trkpt>
      <trkpt lat="45.68892" lon="4.74223">
        <ele>224.7</ele>
        <time>2019-09-22T10:37:46Z</time>
      </trkpt>
      <trkpt lat="45.68875" lon="4.74287">
        <ele>223.8</ele>
        <time>2019-09-22T10:37:53Z</time>
      </trkpt>
      <trkpt lat="45.68861" lon="4.74336">
        <ele>223.4</ele>
        <time>2019-09-22T10:37:58Z</time>
      </trkpt>
      <trkpt lat="45.68856" lon="4.74346">
        <ele>223.4</ele>
        <time>2019-09-22T10:37:59Z</time>
      </trkpt>
      <trkpt lat="45.68847" lon="4.74364">
        <ele>223.6</ele>
        <time>2019-09-22T10:38:01Z</time>
      </trkpt>
      <trkpt lat="45.68831" lon="4.74388">
        <ele>224.1</ele>
        <time>2019-09-22T10:38:04Z</time>
      </trkpt>
      <trkpt lat="45.68825" lon="4.74396">
        <ele>224.2</ele>
        <time>2019-09-22T10:38:05Z</time>
      </trkpt>
      <trkpt lat="45.68817" lon="4.74412">
        <ele>224.3</ele>
        <time>2019-09-22T10:38:07Z</time>
      </trkpt>
      <trkpt lat="45.68815" lon="4.74422">
        <ele>224.3</ele>
        <time>2019-09-22T10:38:08Z</time>
      </trkpt>
      <trkpt lat="45.6881" lon="4.74454">
        <ele>224.4</ele>
        <time>2019-09-22T10:38:11Z</time>
      </trkpt>
      <trkpt lat="45.68809" lon="4.74475">
        <ele>224.5</ele>
        <time>2019-09-22T10:38:13Z</time>
      </trkpt>
      <trkpt lat="45.68809" lon="4.74485">
        <ele>224.6</ele>
        <time>2019-09-22T10:38:14Z</time>
      </trkpt>
      <trkpt lat="45.68812" lon="4.74532">
        <ele>225.4</ele>
        <time>2019-09-22T10:38:19Z</time>
      </trkpt>
      <trkpt lat="45.68813" lon="4.74541">
        <ele>225.5</ele>
        <time>2019-09-22T10:38:20Z</time>
      </trkpt>
      <trkpt lat="45.68812" lon="4.7456">
        <ele>225.9</ele>
        <time>2019-09-22T10:38:22Z</time>
      </trkpt>
      <trkpt lat="45.68808" lon="4.74576">
        <ele>226.4</ele>
        <time>2019-09-22T10:38:24Z</time>
      </trkpt>
      <trkpt lat="45.68803" lon="4.74591">
        <ele>226.7</ele>
        <time>2019-09-22T10:38:26Z</time>
      </trkpt>
      <trkpt lat="45.68793" lon="4.74615">
        <ele>227.1</ele>
        <time>2019-09-22T10:38:30Z</time>
      </trkpt>
      <trkpt lat="45.68791" lon="4.74621">
        <ele>227.1</ele>
        <time>2019-09-22T10:38:31Z</time>
      </trkpt>
      <trkpt lat="45.68784" lon="4.74632">
        <ele>227.1</ele>
        <time>2019-09-22T10:38:33Z</time>
      </trkpt>
      <trkpt lat="45.68774" lon="4.74643">
        <ele>226.9</ele>
        <time>2019-09-22T10:38:35Z</time>
      </trkpt>
      <trkpt lat="45.68769" lon="4.74648">
        <ele>226.7</ele>
        <time>2019-09-22T10:38:36Z</time>
      </trkpt>
      <trkpt lat="45.68757" lon="4.74657">
        <ele>226.7</ele>
        <time>2019-09-22T10:38:38Z</time>
      </trkpt>
      <trkpt lat="45.6875" lon="4.7466">
        <ele>226.6</ele>
        <time>2019-09-22T10:38:39Z</time>
      </trkpt>
      <trkpt lat="45.68736" lon="4.74663">
        <ele>226.5</ele>
        <time>2019-09-22T10:38:41Z</time>
      </trkpt>
      <trkpt lat="45.68728" lon="4.74664">
        <ele>226.4</ele>
        <time>2019-09-22T10:38:42Z</time>
      </trkpt>
      <trkpt lat="45.68714" lon="4.74671">
        <ele>226.2</ele>
        <time>2019-09-22T10:38:44Z</time>
      </trkpt>
      <trkpt lat="45.68697" lon="4.74693">
        <ele>225.6</ele>
        <time>2019-09-22T10:38:47Z</time>
      </trkpt>
      <trkpt lat="45.68687" lon="4.74711">
        <ele>225.2</ele>
        <time>2019-09-22T10:38:49Z</time>
      </trkpt>
      <trkpt lat="45.68673" lon="4.74739">
        <ele>224.6</ele>
        <time>2019-09-22T10:38:52Z</time>
      </trkpt>
      <trkpt lat="45.68662" lon="4.74757">
        <ele>224.4</ele>
        <time>2019-09-22T10:38:54Z</time>
      </trkpt>
      <trkpt lat="45.68651" lon="4.74774">
        <ele>224.3</ele>
        <time>2019-09-22T10:38:56Z</time>
      </trkpt>
      <trkpt lat="45.68644" lon="4.74781">
        <ele>224.3</ele>
        <time>2019-09-22T10:38:57Z</time>
      </trkpt>
      <trkpt lat="45.68629" lon="4.74792">
        <ele>224.3</ele>
        <time>2019-09-22T10:38:59Z</time>
      </trkpt>
      <trkpt lat="45.68613" lon="4.74797">
        <ele>223.6</ele>
        <time>2019-09-22T10:39:01Z</time>
      </trkpt>
      <trkpt lat="45.68595" lon="4.748">
        <ele>222.7</ele>
        <time>2019-09-22T10:39:03Z</time>
      </trkpt>
      <trkpt lat="45.68586" lon="4.74801">
        <ele>222.2</ele>
        <time>2019-09-22T10:39:04Z</time>
      </trkpt>
      <trkpt lat="45.68568" lon="4.74803">
        <ele>221.1</ele>
        <time>2019-09-22T10:39:06Z</time>
      </trkpt>
      <trkpt lat="45.68559" lon="4.74803">
        <ele>220.5</ele>
        <time>2019-09-22T10:39:07Z</time>
      </trkpt>
      <trkpt lat="45.6855" lon="4.74802">
        <ele>219.9</ele>
        <time>2019-09-22T10:39:08Z</time>
      </trkpt>
      <trkpt lat="45.68532" lon="4.74797">
        <ele>218.6</ele>
        <time>2019-09-22T10:39:10Z</time>
      </trkpt>
      <trkpt lat="45.68515" lon="4.74792">
        <ele>217.5</ele>
        <time>2019-09-22T10:39:12Z</time>
      </trkpt>
      <trkpt lat="45.68498" lon="4.74787">
        <ele>216.3</ele>
        <time>2019-09-22T10:39:14Z</time>
      </trkpt>
      <trkpt lat="45.68491" lon="4.74784">
        <ele>215.7</ele>
        <time>2019-09-22T10:39:15Z</time>
      </trkpt>
      <trkpt lat="45.68485" lon="4.74779">
        <ele>215.2</ele>
        <time>2019-09-22T10:39:16Z</time>
      </trkpt>
      <trkpt lat="45.6848" lon="4.74771">
        <ele>214.6</ele>
        <time>2019-09-22T10:39:17Z</time>
      </trkpt>
      <trkpt lat="45.68477" lon="4.74742">
        <ele>214.3</ele>
        <time>2019-09-22T10:39:20Z</time>
      </trkpt>
      <trkpt lat="45.68476" lon="4.74731">
        <ele>214.3</ele>
        <time>2019-09-22T10:39:21Z</time>
      </trkpt>
      <trkpt lat="45.68468" lon="4.74699">
        <ele>214.5</ele>
        <time>2019-09-22T10:39:24Z</time>
      </trkpt>
      <trkpt lat="45.68465" lon="4.74689">
        <ele>214.9</ele>
        <time>2019-09-22T10:39:25Z</time>
      </trkpt>
      <trkpt lat="45.68448" lon="4.74633">
        <ele>218.2</ele>
        <time>2019-09-22T10:39:31Z</time>
      </trkpt>
      <trkpt lat="45.6843" lon="4.74575">
        <ele>221.6</ele>
        <time>2019-09-22T10:39:38Z</time>
      </trkpt>
      <trkpt lat="45.68425" lon="4.74563">
        <ele>223.5</ele>
        <time>2019-09-22T10:39:40Z</time>
      </trkpt>
      <trkpt lat="45.68416" lon="4.7456">
        <ele>225.5</ele>
        <time>2019-09-22T10:39:42Z</time>
      </trkpt>
      <trkpt lat="45.68411" lon="4.74562">
        <ele>225.3</ele>
        <time>2019-09-22T10:39:43Z</time>
      </trkpt>
      <trkpt lat="45.68402" lon="4.7457">
        <ele>225</ele>
        <time>2019-09-22T10:39:45Z</time>
      </trkpt>
      <trkpt lat="45.68392" lon="4.74582">
        <ele>224.6</ele>
        <time>2019-09-22T10:39:47Z</time>
      </trkpt>
      <trkpt lat="45.68375" lon="4.74599">
        <ele>224.1</ele>
        <time>2019-09-22T10:39:50Z</time>
      </trkpt>
      <trkpt lat="45.68348" lon="4.74611">
        <ele>223.6</ele>
        <time>2019-09-22T10:39:54Z</time>
      </trkpt>
      <trkpt lat="45.68333" lon="4.74616">
        <ele>223.3</ele>
        <time>2019-09-22T10:39:56Z</time>
      </trkpt>
      <trkpt lat="45.68299" lon="4.74636">
        <ele>222.7</ele>
        <time>2019-09-22T10:40:01Z</time>
      </trkpt>
      <trkpt lat="45.68262" lon="4.74663">
        <ele>222.2</ele>
        <time>2019-09-22T10:40:07Z</time>
      </trkpt>
      <trkpt lat="45.68256" lon="4.74669">
        <ele>222.1</ele>
        <time>2019-09-22T10:40:08Z</time>
      </trkpt>
      <trkpt lat="45.68222" lon="4.74697">
        <ele>221.8</ele>
        <time>2019-09-22T10:40:13Z</time>
      </trkpt>
      <trkpt lat="45.68207" lon="4.74703">
        <ele>221.9</ele>
        <time>2019-09-22T10:40:15Z</time>
      </trkpt>
      <trkpt lat="45.68192" lon="4.74706">
        <ele>221.9</ele>
        <time>2019-09-22T10:40:17Z</time>
      </trkpt>
      <trkpt lat="45.68178" lon="4.74712">
        <ele>221.8</ele>
        <time>2019-09-22T10:40:19Z</time>
      </trkpt>
      <trkpt lat="45.68165" lon="4.74722">
        <ele>221.6</ele>
        <time>2019-09-22T10:40:21Z</time>
      </trkpt>
      <trkpt lat="45.68153" lon="4.74734">
        <ele>221.3</ele>
        <time>2019-09-22T10:40:23Z</time>
      </trkpt>
      <trkpt lat="45.68137" lon="4.74752">
        <ele>221</ele>
        <time>2019-09-22T10:40:26Z</time>
      </trkpt>
      <trkpt lat="45.68102" lon="4.74783">
        <ele>220.9</ele>
        <time>2019-09-22T10:40:32Z</time>
      </trkpt>
      <trkpt lat="45.68088" lon="4.74791">
        <ele>221.2</ele>
        <time>2019-09-22T10:40:34Z</time>
      </trkpt>
      <trkpt lat="45.68081" lon="4.74794">
        <ele>221.3</ele>
        <time>2019-09-22T10:40:35Z</time>
      </trkpt>
      <trkpt lat="45.68068" lon="4.74797">
        <ele>221.8</ele>
        <time>2019-09-22T10:40:37Z</time>
      </trkpt>
      <trkpt lat="45.68049" lon="4.74789">
        <ele>222.3</ele>
        <time>2019-09-22T10:40:40Z</time>
      </trkpt>
      <trkpt lat="45.68042" lon="4.74787">
        <ele>222.3</ele>
        <time>2019-09-22T10:40:41Z</time>
      </trkpt>
      <trkpt lat="45.68007" lon="4.74775">
        <ele>222.3</ele>
        <time>2019-09-22T10:40:47Z</time>
      </trkpt>
      <trkpt lat="45.68001" lon="4.74777">
        <ele>222.3</ele>
        <time>2019-09-22T10:40:48Z</time>
      </trkpt>
      <trkpt lat="45.67984" lon="4.74786">
        <ele>222.4</ele>
        <time>2019-09-22T10:40:51Z</time>
      </trkpt>
      <trkpt lat="45.67979" lon="4.7479">
        <ele>222.6</ele>
        <time>2019-09-22T10:40:52Z</time>
      </trkpt>
      <trkpt lat="45.67936" lon="4.74824">
        <ele>223.2</ele>
        <time>2019-09-22T10:41:00Z</time>
      </trkpt>
      <trkpt lat="45.67915" lon="4.74847">
        <ele>223.2</ele>
        <time>2019-09-22T10:41:04Z</time>
      </trkpt>
      <trkpt lat="45.67911" lon="4.74855">
        <ele>223.2</ele>
        <time>2019-09-22T10:41:05Z</time>
      </trkpt>
      <trkpt lat="45.67902" lon="4.74884">
        <ele>223.1</ele>
        <time>2019-09-22T10:41:08Z</time>
      </trkpt>
      <trkpt lat="45.67899" lon="4.74894">
        <ele>223.1</ele>
        <time>2019-09-22T10:41:09Z</time>
      </trkpt>
      <trkpt lat="45.67892" lon="4.74913">
        <ele>223.1</ele>
        <time>2019-09-22T10:41:11Z</time>
      </trkpt>
      <trkpt lat="45.67878" lon="4.74938">
        <ele>223.1</ele>
        <time>2019-09-22T10:41:14Z</time>
      </trkpt>
      <trkpt lat="45.6786" lon="4.74957">
        <ele>222.8</ele>
        <time>2019-09-22T10:41:17Z</time>
      </trkpt>
      <trkpt lat="45.67854" lon="4.74962">
        <ele>222.6</ele>
        <time>2019-09-22T10:41:18Z</time>
      </trkpt>
      <trkpt lat="45.67848" lon="4.74967">
        <ele>222.4</ele>
        <time>2019-09-22T10:41:19Z</time>
      </trkpt>
      <trkpt lat="45.67836" lon="4.74975">
        <ele>222.2</ele>
        <time>2019-09-22T10:41:21Z</time>
      </trkpt>
      <trkpt lat="45.67818" lon="4.74983">
        <ele>222.1</ele>
        <time>2019-09-22T10:41:24Z</time>
      </trkpt>
      <trkpt lat="45.67773" lon="4.75">
        <ele>221.7</ele>
        <time>2019-09-22T10:41:31Z</time>
      </trkpt>
      <trkpt lat="45.67736" lon="4.75022">
        <ele>221</ele>
        <time>2019-09-22T10:41:37Z</time>
      </trkpt>
      <trkpt lat="45.6773" lon="4.75028">
        <ele>221</ele>
        <time>2019-09-22T10:41:38Z</time>
      </trkpt>
      <trkpt lat="45.67727" lon="4.75036">
        <ele>220</ele>
        <time>2019-09-22T10:41:39Z</time>
      </trkpt>
      <trkpt lat="45.67727" lon="4.75054">
        <ele>217.4</ele>
        <time>2019-09-22T10:41:41Z</time>
      </trkpt>
      <trkpt lat="45.67735" lon="4.75081">
        <ele>213.8</ele>
        <time>2019-09-22T10:41:44Z</time>
      </trkpt>
      <trkpt lat="45.67739" lon="4.75089">
        <ele>213.1</ele>
        <time>2019-09-22T10:41:45Z</time>
      </trkpt>
      <trkpt lat="45.67764" lon="4.75145">
        <ele>207.9</ele>
        <time>2019-09-22T10:41:52Z</time>
      </trkpt>
      <trkpt lat="45.67781" lon="4.75182">
        <ele>207.5</ele>
        <time>2019-09-22T10:41:57Z</time>
      </trkpt>
      <trkpt lat="45.67784" lon="4.75189">
        <ele>207.5</ele>
        <time>2019-09-22T10:41:58Z</time>
      </trkpt>
      <trkpt lat="45.6779" lon="4.75201">
        <ele>207.5</ele>
        <time>2019-09-22T10:42:00Z</time>
      </trkpt>
      <trkpt lat="45.678" lon="4.75203">
        <ele>207.4</ele>
        <time>2019-09-22T10:42:02Z</time>
      </trkpt>
      <trkpt lat="45.67812" lon="4.7519">
        <ele>207.3</ele>
        <time>2019-09-22T10:42:05Z</time>
      </trkpt>
      <trkpt lat="45.67827" lon="4.75178">
        <ele>207.4</ele>
        <time>2019-09-22T10:42:09Z</time>
      </trkpt>
      <trkpt lat="45.67831" lon="4.75174">
        <ele>207.5</ele>
        <time>2019-09-22T10:42:10Z</time>
      </trkpt>
      <trkpt lat="45.6783" lon="4.75166">
        <ele>207.5</ele>
        <time>2019-09-22T10:42:12Z</time>
      </trkpt>
      <trkpt lat="45.67828" lon="4.75164">
        <ele>207.4</ele>
        <time>2019-09-22T10:42:27Z</time>
      </trkpt>
      <trkpt lat="45.67826" lon="4.75164">
        <ele>207.4</ele>
        <time>2019-09-22T10:42:28Z</time>
      </trkpt>
      <trkpt lat="45.67819" lon="4.75167">
        <ele>207.4</ele>
        <time>2019-09-22T10:42:31Z</time>
      </trkpt>
      <trkpt lat="45.67813" lon="4.75169">
        <ele>207.3</ele>
        <time>2019-09-22T10:42:33Z</time>
      </trkpt>
      <trkpt lat="45.67802" lon="4.75182">
        <ele>207.3</ele>
        <time>2019-09-22T10:42:38Z</time>
      </trkpt>
      <trkpt lat="45.67798" lon="4.75198">
        <ele>207.4</ele>
        <time>2019-09-22T10:42:42Z</time>
      </trkpt>
      <trkpt lat="45.6779" lon="4.75191">
        <ele>207.5</ele>
        <time>2019-09-22T10:42:45Z</time>
      </trkpt>
      <trkpt lat="45.67787" lon="4.75186">
        <ele>207.5</ele>
        <time>2019-09-22T10:42:46Z</time>
      </trkpt>
      <trkpt lat="45.67776" lon="4.75172">
        <ele>207.5</ele>
        <time>2019-09-22T10:42:50Z</time>
      </trkpt>
      <trkpt lat="45.67774" lon="4.75173">
        <ele>207.5</ele>
        <time>2019-09-22T10:42:51Z</time>
      </trkpt>
      <trkpt lat="45.67773" lon="4.75177">
        <ele>207.5</ele>
        <time>2019-09-22T10:42:53Z</time>
      </trkpt>
      <trkpt lat="45.67774" lon="4.75189">
        <ele>207.5</ele>
        <time>2019-09-22T10:42:57Z</time>
      </trkpt>
      <trkpt lat="45.67765" lon="4.75183">
        <ele>207.5</ele>
        <time>2019-09-22T10:43:00Z</time>
      </trkpt>
    </trkseg>
  </trk>
</gpx>